<?xml version="1.0" encoding="UTF-8" standalone="no" ?>
<gpx xmlns="http://www.topografix.com/GPX/1/1" xmlns:xsi="http://www.w3.org/2001/XMLSchema-instance" xsi:schemaLocation="http://www.topografix.com/GPX/1/1 http://www.topografix.com/GPX/1/1/gpx.xsd" version="1.1" creator="VisuGPX - https://www.visugpx.com">
  <metadata>
    <name>Edirne-Mostar</name>
  </metadata>
  <trk>
    <name><![CDATA[Tour d'Europe: étape 697]]></name>
    <extensions>
      <line xmlns="http://www.topografix.com/GPX/gpx_style/0/2">
        <color>008800</color>
        <width>4</width>
      </line>
    </extensions>
    <trkseg>
      <trkpt lat="42.06437" lon="19.50834">
        <ele>63.15614</ele>
        <time>2022-05-26T07:51:39.243Z</time>
      </trkpt>
      <trkpt lat="42.06452" lon="19.50853">
        <ele>63.15614</ele>
        <time>2022-05-26T07:52:08.233Z</time>
      </trkpt>
      <trkpt lat="42.06468" lon="19.50903">
        <ele>63.15614</ele>
        <time>2022-05-26T07:56:50.252Z</time>
      </trkpt>
      <trkpt lat="42.06479" lon="19.50908">
        <ele>63.15614</ele>
        <time>2022-05-26T07:56:53.243Z</time>
      </trkpt>
      <trkpt lat="42.06488" lon="19.50901">
        <ele>63.15614</ele>
        <time>2022-05-26T07:56:56.231Z</time>
      </trkpt>
      <trkpt lat="42.06495" lon="19.50893">
        <ele>63.170121</ele>
        <time>2022-05-26T07:56:59.215Z</time>
      </trkpt>
      <trkpt lat="42.06499" lon="19.5088">
        <ele>63.252676</ele>
        <time>2022-05-26T07:57:02.224Z</time>
      </trkpt>
      <trkpt lat="42.06497" lon="19.50865">
        <ele>63.337382</ele>
        <time>2022-05-26T07:57:05.233Z</time>
      </trkpt>
      <trkpt lat="42.06489" lon="19.50858">
        <ele>63.411127</ele>
        <time>2022-05-26T07:57:08.338Z</time>
      </trkpt>
      <trkpt lat="42.0648" lon="19.50852">
        <ele>63.49446</ele>
        <time>2022-05-26T07:57:11.238Z</time>
      </trkpt>
      <trkpt lat="42.06471" lon="19.50842">
        <ele>63.583097</ele>
        <time>2022-05-26T07:57:14.237Z</time>
      </trkpt>
      <trkpt lat="42.06463" lon="19.50832">
        <ele>63.668921</ele>
        <time>2022-05-26T07:57:17.229Z</time>
      </trkpt>
      <trkpt lat="42.06454" lon="19.50824">
        <ele>63.750431</ele>
        <time>2022-05-26T07:57:20.247Z</time>
      </trkpt>
      <trkpt lat="42.06446" lon="19.50817">
        <ele>63.82515</ele>
        <time>2022-05-26T07:57:23.253Z</time>
      </trkpt>
      <trkpt lat="42.06438" lon="19.50807">
        <ele>63.915227</ele>
        <time>2022-05-26T07:57:27.242Z</time>
      </trkpt>
      <trkpt lat="42.06428" lon="19.50799">
        <ele>64.001417</ele>
        <time>2022-05-26T07:57:30.274Z</time>
      </trkpt>
      <trkpt lat="42.06419" lon="19.5079">
        <ele>64.088255</ele>
        <time>2022-05-26T07:57:33.222Z</time>
      </trkpt>
      <trkpt lat="42.06411" lon="19.50781">
        <ele>64.175093</ele>
        <time>2022-05-26T07:57:36.274Z</time>
      </trkpt>
      <trkpt lat="42.064" lon="19.5077">
        <ele>64.280287</ele>
        <time>2022-05-26T07:57:39.234Z</time>
      </trkpt>
      <trkpt lat="42.06392" lon="19.50763">
        <ele>64.354958</ele>
        <time>2022-05-26T07:57:41.244Z</time>
      </trkpt>
      <trkpt lat="42.06382" lon="19.50753">
        <ele>64.455536</ele>
        <time>2022-05-26T07:57:44.248Z</time>
      </trkpt>
      <trkpt lat="42.06373" lon="19.50746">
        <ele>64.533011</ele>
        <time>2022-05-26T07:57:46.230Z</time>
      </trkpt>
      <trkpt lat="42.06364" lon="19.5074">
        <ele>64.709511</ele>
        <time>2022-05-26T07:57:48.264Z</time>
      </trkpt>
      <trkpt lat="42.06355" lon="19.50729">
        <ele>65.000274</ele>
        <time>2022-05-26T07:57:51.261Z</time>
      </trkpt>
      <trkpt lat="42.06344" lon="19.50723">
        <ele>65.312441</ele>
        <time>2022-05-26T07:57:54.241Z</time>
      </trkpt>
      <trkpt lat="42.06334" lon="19.50713">
        <ele>65.612018</ele>
        <time>2022-05-26T07:57:57.234Z</time>
      </trkpt>
      <trkpt lat="42.06323" lon="19.50703">
        <ele>65.933284</ele>
        <time>2022-05-26T07:58:00.251Z</time>
      </trkpt>
      <trkpt lat="42.06313" lon="19.50692">
        <ele>66.254174</ele>
        <time>2022-05-26T07:58:03.259Z</time>
      </trkpt>
      <trkpt lat="42.06306" lon="19.50685">
        <ele>66.480858</ele>
        <time>2022-05-26T07:58:05.232Z</time>
      </trkpt>
      <trkpt lat="42.06298" lon="19.50678">
        <ele>66.719904</ele>
        <time>2022-05-26T07:58:07.238Z</time>
      </trkpt>
      <trkpt lat="42.06291" lon="19.5067">
        <ele>66.947285</ele>
        <time>2022-05-26T07:58:09.235Z</time>
      </trkpt>
      <trkpt lat="42.0628" lon="19.50659">
        <ele>67.268999</ele>
        <time>2022-05-26T07:58:12.241Z</time>
      </trkpt>
      <trkpt lat="42.0627" lon="19.50648">
        <ele>67.601796</ele>
        <time>2022-05-26T07:58:15.228Z</time>
      </trkpt>
      <trkpt lat="42.06259" lon="19.50639">
        <ele>67.921076</ele>
        <time>2022-05-26T07:58:18.252Z</time>
      </trkpt>
      <trkpt lat="42.06251" lon="19.50632">
        <ele>68.152151</ele>
        <time>2022-05-26T07:58:20.250Z</time>
      </trkpt>
      <trkpt lat="42.06243" lon="19.50625">
        <ele>68.381959</ele>
        <time>2022-05-26T07:58:22.279Z</time>
      </trkpt>
      <trkpt lat="42.06235" lon="19.50618">
        <ele>68.620953</ele>
        <time>2022-05-26T07:58:24.241Z</time>
      </trkpt>
      <trkpt lat="42.06227" lon="19.5061">
        <ele>68.865075</ele>
        <time>2022-05-26T07:58:26.244Z</time>
      </trkpt>
      <trkpt lat="42.06218" lon="19.50603">
        <ele>68.929092</ele>
        <time>2022-05-26T07:58:28.230Z</time>
      </trkpt>
      <trkpt lat="42.06209" lon="19.50596">
        <ele>68.745723</ele>
        <time>2022-05-26T07:58:30.271Z</time>
      </trkpt>
      <trkpt lat="42.06201" lon="19.50588">
        <ele>68.563866</ele>
        <time>2022-05-26T07:58:32.242Z</time>
      </trkpt>
      <trkpt lat="42.06193" lon="19.5058">
        <ele>68.387185</ele>
        <time>2022-05-26T07:58:34.255Z</time>
      </trkpt>
      <trkpt lat="42.06184" lon="19.50573">
        <ele>68.202358</ele>
        <time>2022-05-26T07:58:36.232Z</time>
      </trkpt>
      <trkpt lat="42.06176" lon="19.50565">
        <ele>68.033864</ele>
        <time>2022-05-26T07:58:38.225Z</time>
      </trkpt>
      <trkpt lat="42.06168" lon="19.50558">
        <ele>67.857941</ele>
        <time>2022-05-26T07:58:40.239Z</time>
      </trkpt>
      <trkpt lat="42.0616" lon="19.50551">
        <ele>67.683507</ele>
        <time>2022-05-26T07:58:42.234Z</time>
      </trkpt>
      <trkpt lat="42.06152" lon="19.50544">
        <ele>67.506811</ele>
        <time>2022-05-26T07:58:44.263Z</time>
      </trkpt>
      <trkpt lat="42.06144" lon="19.50536">
        <ele>67.327139</ele>
        <time>2022-05-26T07:58:46.247Z</time>
      </trkpt>
      <trkpt lat="42.06136" lon="19.50527">
        <ele>67.144768</ele>
        <time>2022-05-26T07:58:48.239Z</time>
      </trkpt>
      <trkpt lat="42.06128" lon="19.50519">
        <ele>66.969336</ele>
        <time>2022-05-26T07:58:50.273Z</time>
      </trkpt>
      <trkpt lat="42.0612" lon="19.50511">
        <ele>66.791933</ele>
        <time>2022-05-26T07:58:52.238Z</time>
      </trkpt>
      <trkpt lat="42.06112" lon="19.50504">
        <ele>66.612303</ele>
        <time>2022-05-26T07:58:54.253Z</time>
      </trkpt>
      <trkpt lat="42.06103" lon="19.50496">
        <ele>66.433382</ele>
        <time>2022-05-26T07:58:56.264Z</time>
      </trkpt>
      <trkpt lat="42.06094" lon="19.5049">
        <ele>66.251135</ele>
        <time>2022-05-26T07:58:58.224Z</time>
      </trkpt>
      <trkpt lat="42.06086" lon="19.50482">
        <ele>66.070708</ele>
        <time>2022-05-26T07:59:00.248Z</time>
      </trkpt>
      <trkpt lat="42.06077" lon="19.50475">
        <ele>65.890991</ele>
        <time>2022-05-26T07:59:02.241Z</time>
      </trkpt>
      <trkpt lat="42.06069" lon="19.50468">
        <ele>65.953238</ele>
        <time>2022-05-26T07:59:04.242Z</time>
      </trkpt>
      <trkpt lat="42.0606" lon="19.5046">
        <ele>66.296016</ele>
        <time>2022-05-26T07:59:06.220Z</time>
      </trkpt>
      <trkpt lat="42.06051" lon="19.50453">
        <ele>66.628317</ele>
        <time>2022-05-26T07:59:08.240Z</time>
      </trkpt>
      <trkpt lat="42.06042" lon="19.50446">
        <ele>66.971279</ele>
        <time>2022-05-26T07:59:10.245Z</time>
      </trkpt>
      <trkpt lat="42.06034" lon="19.50438">
        <ele>67.310171</ele>
        <time>2022-05-26T07:59:12.273Z</time>
      </trkpt>
      <trkpt lat="42.06025" lon="19.5043">
        <ele>67.640974</ele>
        <time>2022-05-26T07:59:14.262Z</time>
      </trkpt>
      <trkpt lat="42.06017" lon="19.50422">
        <ele>67.971559</ele>
        <time>2022-05-26T07:59:16.218Z</time>
      </trkpt>
      <trkpt lat="42.06009" lon="19.50415">
        <ele>68.307452</ele>
        <time>2022-05-26T07:59:18.264Z</time>
      </trkpt>
      <trkpt lat="42.06" lon="19.50408">
        <ele>68.628564</ele>
        <time>2022-05-26T07:59:20.236Z</time>
      </trkpt>
      <trkpt lat="42.05992" lon="19.504">
        <ele>68.961822</ele>
        <time>2022-05-26T07:59:22.248Z</time>
      </trkpt>
      <trkpt lat="42.05984" lon="19.50391">
        <ele>69.29671</ele>
        <time>2022-05-26T07:59:24.266Z</time>
      </trkpt>
      <trkpt lat="42.05976" lon="19.50384">
        <ele>69.623194</ele>
        <time>2022-05-26T07:59:26.244Z</time>
      </trkpt>
      <trkpt lat="42.05967" lon="19.50377">
        <ele>69.950971</ele>
        <time>2022-05-26T07:59:28.236Z</time>
      </trkpt>
      <trkpt lat="42.05959" lon="19.50369">
        <ele>70.275988</ele>
        <time>2022-05-26T07:59:30.238Z</time>
      </trkpt>
      <trkpt lat="42.0595" lon="19.50362">
        <ele>70.624549</ele>
        <time>2022-05-26T07:59:32.247Z</time>
      </trkpt>
      <trkpt lat="42.05939" lon="19.50355">
        <ele>71.007466</ele>
        <time>2022-05-26T07:59:34.228Z</time>
      </trkpt>
      <trkpt lat="42.0593" lon="19.50348">
        <ele>71.357998</ele>
        <time>2022-05-26T07:59:36.224Z</time>
      </trkpt>
      <trkpt lat="42.05922" lon="19.50341">
        <ele>71.680306</ele>
        <time>2022-05-26T07:59:38.222Z</time>
      </trkpt>
      <trkpt lat="42.05913" lon="19.50334">
        <ele>71.89222</ele>
        <time>2022-05-26T07:59:40.243Z</time>
      </trkpt>
      <trkpt lat="42.05905" lon="19.50327">
        <ele>72.106742</ele>
        <time>2022-05-26T07:59:42.244Z</time>
      </trkpt>
      <trkpt lat="42.05897" lon="19.5032">
        <ele>72.31019</ele>
        <time>2022-05-26T07:59:44.226Z</time>
      </trkpt>
      <trkpt lat="42.05889" lon="19.50313">
        <ele>72.511927</ele>
        <time>2022-05-26T07:59:46.242Z</time>
      </trkpt>
      <trkpt lat="42.05881" lon="19.50305">
        <ele>72.724144</ele>
        <time>2022-05-26T07:59:48.242Z</time>
      </trkpt>
      <trkpt lat="42.05872" lon="19.50298">
        <ele>72.92776</ele>
        <time>2022-05-26T07:59:50.251Z</time>
      </trkpt>
      <trkpt lat="42.05864" lon="19.50291">
        <ele>73.130338</ele>
        <time>2022-05-26T07:59:52.234Z</time>
      </trkpt>
      <trkpt lat="42.05857" lon="19.50284">
        <ele>73.323278</ele>
        <time>2022-05-26T07:59:54.237Z</time>
      </trkpt>
      <trkpt lat="42.05849" lon="19.50277">
        <ele>73.517224</ele>
        <time>2022-05-26T07:59:56.277Z</time>
      </trkpt>
      <trkpt lat="42.05841" lon="19.50271">
        <ele>73.727074</ele>
        <time>2022-05-26T07:59:58.232Z</time>
      </trkpt>
      <trkpt lat="42.05832" lon="19.5026">
        <ele>73.981952</ele>
        <time>2022-05-26T08:00:01.251Z</time>
      </trkpt>
      <trkpt lat="42.05822" lon="19.50251">
        <ele>74.224876</ele>
        <time>2022-05-26T08:00:04.261Z</time>
      </trkpt>
      <trkpt lat="42.05813" lon="19.50246">
        <ele>74.435779</ele>
        <time>2022-05-26T08:00:08.235Z</time>
      </trkpt>
      <trkpt lat="42.05805" lon="19.50236">
        <ele>74.670737</ele>
        <time>2022-05-26T08:00:12.244Z</time>
      </trkpt>
      <trkpt lat="42.05796" lon="19.50226">
        <ele>74.913025</ele>
        <time>2022-05-26T08:00:15.237Z</time>
      </trkpt>
      <trkpt lat="42.05784" lon="19.50218">
        <ele>75.198229</ele>
        <time>2022-05-26T08:00:18.236Z</time>
      </trkpt>
      <trkpt lat="42.05775" lon="19.50212">
        <ele>75.400899</ele>
        <time>2022-05-26T08:00:20.305Z</time>
      </trkpt>
      <trkpt lat="42.05765" lon="19.50203">
        <ele>75.300844</ele>
        <time>2022-05-26T08:00:23.224Z</time>
      </trkpt>
      <trkpt lat="42.05757" lon="19.50192">
        <ele>75.011798</ele>
        <time>2022-05-26T08:00:26.235Z</time>
      </trkpt>
      <trkpt lat="42.05747" lon="19.50182">
        <ele>74.718894</ele>
        <time>2022-05-26T08:00:29.285Z</time>
      </trkpt>
      <trkpt lat="42.05737" lon="19.50173">
        <ele>74.407975</ele>
        <time>2022-05-26T08:00:32.228Z</time>
      </trkpt>
      <trkpt lat="42.05726" lon="19.50165">
        <ele>74.092468</ele>
        <time>2022-05-26T08:00:35.236Z</time>
      </trkpt>
      <trkpt lat="42.05715" lon="19.50156">
        <ele>73.770512</ele>
        <time>2022-05-26T08:00:38.282Z</time>
      </trkpt>
      <trkpt lat="42.05707" lon="19.5015">
        <ele>73.541894</ele>
        <time>2022-05-26T08:00:40.250Z</time>
      </trkpt>
      <trkpt lat="42.05695" lon="19.5014">
        <ele>73.203119</ele>
        <time>2022-05-26T08:00:43.217Z</time>
      </trkpt>
      <trkpt lat="42.05684" lon="19.5013">
        <ele>72.870985</ele>
        <time>2022-05-26T08:00:46.221Z</time>
      </trkpt>
      <trkpt lat="42.05675" lon="19.50125">
        <ele>72.621735</ele>
        <time>2022-05-26T08:00:48.249Z</time>
      </trkpt>
      <trkpt lat="42.05667" lon="19.50118">
        <ele>72.385994</ele>
        <time>2022-05-26T08:00:50.220Z</time>
      </trkpt>
      <trkpt lat="42.05659" lon="19.50111">
        <ele>72.155674</ele>
        <time>2022-05-26T08:00:52.239Z</time>
      </trkpt>
      <trkpt lat="42.05651" lon="19.50103">
        <ele>71.90573</ele>
        <time>2022-05-26T08:00:54.223Z</time>
      </trkpt>
      <trkpt lat="42.05642" lon="19.50096">
        <ele>71.653576</ele>
        <time>2022-05-26T08:00:56.241Z</time>
      </trkpt>
      <trkpt lat="42.05633" lon="19.50086">
        <ele>71.353749</ele>
        <time>2022-05-26T08:00:59.236Z</time>
      </trkpt>
      <trkpt lat="42.05626" lon="19.50079">
        <ele>71.126233</ele>
        <time>2022-05-26T08:01:04.237Z</time>
      </trkpt>
      <trkpt lat="42.05618" lon="19.50071">
        <ele>70.884861</ele>
        <time>2022-05-26T08:01:07.235Z</time>
      </trkpt>
      <trkpt lat="42.05609" lon="19.50064">
        <ele>70.608224</ele>
        <time>2022-05-26T08:01:11.269Z</time>
      </trkpt>
      <trkpt lat="42.05602" lon="19.50057">
        <ele>70.366246</ele>
        <time>2022-05-26T08:01:15.232Z</time>
      </trkpt>
      <trkpt lat="42.05593" lon="19.50052">
        <ele>70.12126</ele>
        <time>2022-05-26T08:01:18.241Z</time>
      </trkpt>
      <trkpt lat="42.05584" lon="19.50043">
        <ele>69.809394</ele>
        <time>2022-05-26T08:01:21.226Z</time>
      </trkpt>
      <trkpt lat="42.05573" lon="19.50034">
        <ele>69.46333</ele>
        <time>2022-05-26T08:01:24.227Z</time>
      </trkpt>
      <trkpt lat="42.05564" lon="19.50023">
        <ele>69.153529</ele>
        <time>2022-05-26T08:01:27.235Z</time>
      </trkpt>
      <trkpt lat="42.05554" lon="19.50013">
        <ele>68.818449</ele>
        <time>2022-05-26T08:01:30.225Z</time>
      </trkpt>
      <trkpt lat="42.05546" lon="19.50006">
        <ele>68.568804</ele>
        <time>2022-05-26T08:01:32.287Z</time>
      </trkpt>
      <trkpt lat="42.05538" lon="19.49998">
        <ele>68.302599</ele>
        <time>2022-05-26T08:01:34.246Z</time>
      </trkpt>
      <trkpt lat="42.0553" lon="19.49991">
        <ele>68.045134</ele>
        <time>2022-05-26T08:01:36.235Z</time>
      </trkpt>
      <trkpt lat="42.05522" lon="19.49983">
        <ele>67.785586</ele>
        <time>2022-05-26T08:01:38.243Z</time>
      </trkpt>
      <trkpt lat="42.05515" lon="19.49976">
        <ele>67.539097</ele>
        <time>2022-05-26T08:01:40.257Z</time>
      </trkpt>
      <trkpt lat="42.05507" lon="19.49967">
        <ele>67.265353</ele>
        <time>2022-05-26T08:01:42.253Z</time>
      </trkpt>
      <trkpt lat="42.05499" lon="19.4996">
        <ele>66.994724</ele>
        <time>2022-05-26T08:01:44.237Z</time>
      </trkpt>
      <trkpt lat="42.0549" lon="19.49952">
        <ele>66.718544</ele>
        <time>2022-05-26T08:01:46.233Z</time>
      </trkpt>
      <trkpt lat="42.05482" lon="19.49944">
        <ele>66.464204</ele>
        <time>2022-05-26T08:01:48.242Z</time>
      </trkpt>
      <trkpt lat="42.05473" lon="19.49932">
        <ele>66.227292</ele>
        <time>2022-05-26T08:01:51.290Z</time>
      </trkpt>
      <trkpt lat="42.05467" lon="19.49924">
        <ele>66.284851</ele>
        <time>2022-05-26T08:01:53.248Z</time>
      </trkpt>
      <trkpt lat="42.0546" lon="19.49914">
        <ele>66.344014</ele>
        <time>2022-05-26T08:01:55.243Z</time>
      </trkpt>
      <trkpt lat="42.05455" lon="19.49904">
        <ele>66.40298</ele>
        <time>2022-05-26T08:01:57.246Z</time>
      </trkpt>
      <trkpt lat="42.05453" lon="19.49892">
        <ele>66.46135</ele>
        <time>2022-05-26T08:01:59.229Z</time>
      </trkpt>
      <trkpt lat="42.0545" lon="19.49877">
        <ele>66.536157</ele>
        <time>2022-05-26T08:02:02.273Z</time>
      </trkpt>
      <trkpt lat="42.05441" lon="19.49863">
        <ele>66.61971</ele>
        <time>2022-05-26T08:02:05.233Z</time>
      </trkpt>
      <trkpt lat="42.05435" lon="19.49853">
        <ele>66.681992</ele>
        <time>2022-05-26T08:02:07.293Z</time>
      </trkpt>
      <trkpt lat="42.0543" lon="19.4984">
        <ele>66.747978</ele>
        <time>2022-05-26T08:02:10.238Z</time>
      </trkpt>
      <trkpt lat="42.05423" lon="19.49828">
        <ele>66.822448</ele>
        <time>2022-05-26T08:02:12.237Z</time>
      </trkpt>
      <trkpt lat="42.05416" lon="19.49815">
        <ele>66.899115</ele>
        <time>2022-05-26T08:02:15.236Z</time>
      </trkpt>
      <trkpt lat="42.0541" lon="19.49805">
        <ele>66.959125</ele>
        <time>2022-05-26T08:02:18.240Z</time>
      </trkpt>
      <trkpt lat="42.05403" lon="19.49795">
        <ele>67.027817</ele>
        <time>2022-05-26T08:02:22.217Z</time>
      </trkpt>
      <trkpt lat="42.05396" lon="19.49781">
        <ele>67.103662</ele>
        <time>2022-05-26T08:02:28.233Z</time>
      </trkpt>
      <trkpt lat="42.0539" lon="19.49769">
        <ele>67.173233</ele>
        <time>2022-05-26T08:02:33.244Z</time>
      </trkpt>
      <trkpt lat="42.05387" lon="19.49757">
        <ele>67.233978</ele>
        <time>2022-05-26T08:02:36.235Z</time>
      </trkpt>
      <trkpt lat="42.05381" lon="19.49744">
        <ele>67.302436</ele>
        <time>2022-05-26T08:02:39.226Z</time>
      </trkpt>
      <trkpt lat="42.05376" lon="19.49732">
        <ele>67.130294</ele>
        <time>2022-05-26T08:02:42.243Z</time>
      </trkpt>
      <trkpt lat="42.05372" lon="19.49717">
        <ele>66.335676</ele>
        <time>2022-05-26T08:02:44.250Z</time>
      </trkpt>
      <trkpt lat="42.05369" lon="19.49703">
        <ele>65.632077</ele>
        <time>2022-05-26T08:02:46.226Z</time>
      </trkpt>
      <trkpt lat="42.05365" lon="19.49691">
        <ele>64.987366</ele>
        <time>2022-05-26T08:02:48.231Z</time>
      </trkpt>
      <trkpt lat="42.05361" lon="19.4968">
        <ele>64.359156</ele>
        <time>2022-05-26T08:02:50.224Z</time>
      </trkpt>
      <trkpt lat="42.05356" lon="19.49667">
        <ele>63.645839</ele>
        <time>2022-05-26T08:02:52.266Z</time>
      </trkpt>
      <trkpt lat="42.05352" lon="19.49654">
        <ele>62.989991</ele>
        <time>2022-05-26T08:02:54.238Z</time>
      </trkpt>
      <trkpt lat="42.05347" lon="19.49638">
        <ele>62.096733</ele>
        <time>2022-05-26T08:02:57.224Z</time>
      </trkpt>
      <trkpt lat="42.05343" lon="19.49626">
        <ele>61.470846</ele>
        <time>2022-05-26T08:02:59.229Z</time>
      </trkpt>
      <trkpt lat="42.05339" lon="19.49615">
        <ele>60.85957</ele>
        <time>2022-05-26T08:03:01.243Z</time>
      </trkpt>
      <trkpt lat="42.05335" lon="19.49604">
        <ele>60.243894</ele>
        <time>2022-05-26T08:03:03.233Z</time>
      </trkpt>
      <trkpt lat="42.0533" lon="19.4959">
        <ele>59.489089</ele>
        <time>2022-05-26T08:03:05.233Z</time>
      </trkpt>
      <trkpt lat="42.05325" lon="19.49578">
        <ele>58.807011</ele>
        <time>2022-05-26T08:03:07.236Z</time>
      </trkpt>
      <trkpt lat="42.0532" lon="19.49565">
        <ele>58.100976</ele>
        <time>2022-05-26T08:03:09.262Z</time>
      </trkpt>
      <trkpt lat="42.05314" lon="19.49552">
        <ele>57.314097</ele>
        <time>2022-05-26T08:03:11.239Z</time>
      </trkpt>
      <trkpt lat="42.05308" lon="19.49541">
        <ele>56.638582</ele>
        <time>2022-05-26T08:03:13.263Z</time>
      </trkpt>
      <trkpt lat="42.05302" lon="19.49524">
        <ele>55.72618</ele>
        <time>2022-05-26T08:03:16.246Z</time>
      </trkpt>
      <trkpt lat="42.05297" lon="19.49512">
        <ele>55.331563</ele>
        <time>2022-05-26T08:03:18.230Z</time>
      </trkpt>
      <trkpt lat="42.05292" lon="19.49501">
        <ele>55.246141</ele>
        <time>2022-05-26T08:03:20.249Z</time>
      </trkpt>
      <trkpt lat="42.05286" lon="19.49486">
        <ele>55.125298</ele>
        <time>2022-05-26T08:03:23.220Z</time>
      </trkpt>
      <trkpt lat="42.05281" lon="19.49475">
        <ele>55.042998</ele>
        <time>2022-05-26T08:03:25.220Z</time>
      </trkpt>
      <trkpt lat="42.05274" lon="19.49459">
        <ele>54.919821</ele>
        <time>2022-05-26T08:03:28.233Z</time>
      </trkpt>
      <trkpt lat="42.05269" lon="19.49449">
        <ele>54.837639</ele>
        <time>2022-05-26T08:03:30.246Z</time>
      </trkpt>
      <trkpt lat="42.05264" lon="19.49435">
        <ele>54.729272</ele>
        <time>2022-05-26T08:03:33.228Z</time>
      </trkpt>
      <trkpt lat="42.05258" lon="19.49425">
        <ele>54.641078</ele>
        <time>2022-05-26T08:03:35.233Z</time>
      </trkpt>
      <trkpt lat="42.05253" lon="19.49412">
        <ele>54.543656</ele>
        <time>2022-05-26T08:03:37.245Z</time>
      </trkpt>
      <trkpt lat="42.05247" lon="19.494">
        <ele>54.444986</ele>
        <time>2022-05-26T08:03:39.239Z</time>
      </trkpt>
      <trkpt lat="42.05241" lon="19.49389">
        <ele>54.353024</ele>
        <time>2022-05-26T08:03:41.223Z</time>
      </trkpt>
      <trkpt lat="42.05235" lon="19.49379">
        <ele>54.269772</ele>
        <time>2022-05-26T08:03:43.237Z</time>
      </trkpt>
      <trkpt lat="42.05229" lon="19.49366">
        <ele>54.165192</ele>
        <time>2022-05-26T08:03:46.231Z</time>
      </trkpt>
      <trkpt lat="42.0522" lon="19.49354">
        <ele>54.050067</ele>
        <time>2022-05-26T08:03:49.265Z</time>
      </trkpt>
      <trkpt lat="42.05213" lon="19.49343">
        <ele>53.949669</ele>
        <time>2022-05-26T08:03:52.216Z</time>
      </trkpt>
      <trkpt lat="42.05204" lon="19.49333">
        <ele>53.841997</ele>
        <time>2022-05-26T08:03:55.231Z</time>
      </trkpt>
      <trkpt lat="42.05193" lon="19.49323">
        <ele>53.752733</ele>
        <time>2022-05-26T08:03:58.229Z</time>
      </trkpt>
      <trkpt lat="42.05183" lon="19.49312">
        <ele>53.909759</ele>
        <time>2022-05-26T08:04:01.222Z</time>
      </trkpt>
      <trkpt lat="42.05175" lon="19.49305">
        <ele>54.016857</ele>
        <time>2022-05-26T08:04:03.226Z</time>
      </trkpt>
      <trkpt lat="42.05166" lon="19.49298">
        <ele>54.135237</ele>
        <time>2022-05-26T08:04:05.273Z</time>
      </trkpt>
      <trkpt lat="42.05155" lon="19.49291">
        <ele>54.268209</ele>
        <time>2022-05-26T08:04:07.232Z</time>
      </trkpt>
      <trkpt lat="42.05145" lon="19.49287">
        <ele>54.387761</ele>
        <time>2022-05-26T08:04:09.254Z</time>
      </trkpt>
      <trkpt lat="42.05137" lon="19.49281">
        <ele>54.495047</ele>
        <time>2022-05-26T08:04:11.236Z</time>
      </trkpt>
      <trkpt lat="42.05124" lon="19.49275">
        <ele>54.650141</ele>
        <time>2022-05-26T08:04:14.240Z</time>
      </trkpt>
      <trkpt lat="42.05114" lon="19.49273">
        <ele>54.763421</ele>
        <time>2022-05-26T08:04:16.275Z</time>
      </trkpt>
      <trkpt lat="42.05103" lon="19.49269">
        <ele>54.891145</ele>
        <time>2022-05-26T08:04:18.235Z</time>
      </trkpt>
      <trkpt lat="42.05094" lon="19.49266">
        <ele>55.004903</ele>
        <time>2022-05-26T08:04:20.253Z</time>
      </trkpt>
      <trkpt lat="42.05081" lon="19.49262">
        <ele>55.158626</ele>
        <time>2022-05-26T08:04:23.261Z</time>
      </trkpt>
      <trkpt lat="42.05068" lon="19.49259">
        <ele>55.301322</ele>
        <time>2022-05-26T08:04:26.242Z</time>
      </trkpt>
      <trkpt lat="42.0506" lon="19.49253">
        <ele>55.41037</ele>
        <time>2022-05-26T08:04:29.258Z</time>
      </trkpt>
      <trkpt lat="42.0506" lon="19.4924">
        <ele>55.522285</ele>
        <time>2022-05-26T08:04:32.246Z</time>
      </trkpt>
      <trkpt lat="42.05064" lon="19.49225">
        <ele>55.65904</ele>
        <time>2022-05-26T08:04:35.244Z</time>
      </trkpt>
      <trkpt lat="42.05067" lon="19.49213">
        <ele>55.768398</ele>
        <time>2022-05-26T08:04:40.277Z</time>
      </trkpt>
      <trkpt lat="42.05069" lon="19.492">
        <ele>55.731123</ele>
        <time>2022-05-26T08:04:44.238Z</time>
      </trkpt>
      <trkpt lat="42.05072" lon="19.49186">
        <ele>55.643097</ele>
        <time>2022-05-26T08:04:48.244Z</time>
      </trkpt>
      <trkpt lat="42.05075" lon="19.49171">
        <ele>55.551026</ele>
        <time>2022-05-26T08:04:52.249Z</time>
      </trkpt>
      <trkpt lat="42.05078" lon="19.49159">
        <ele>55.477358</ele>
        <time>2022-05-26T08:04:55.221Z</time>
      </trkpt>
      <trkpt lat="42.05081" lon="19.49146">
        <ele>55.396418</ele>
        <time>2022-05-26T08:04:58.245Z</time>
      </trkpt>
      <trkpt lat="42.05084" lon="19.49133">
        <ele>55.3163</ele>
        <time>2022-05-26T08:05:01.251Z</time>
      </trkpt>
      <trkpt lat="42.05086" lon="19.4912">
        <ele>55.238917</ele>
        <time>2022-05-26T08:05:04.239Z</time>
      </trkpt>
      <trkpt lat="42.05089" lon="19.49108">
        <ele>55.160246</ele>
        <time>2022-05-26T08:05:07.256Z</time>
      </trkpt>
      <trkpt lat="42.05093" lon="19.49093">
        <ele>55.067433</ele>
        <time>2022-05-26T08:05:11.234Z</time>
      </trkpt>
      <trkpt lat="42.05097" lon="19.49078">
        <ele>54.971814</ele>
        <time>2022-05-26T08:05:15.231Z</time>
      </trkpt>
      <trkpt lat="42.051" lon="19.49064">
        <ele>54.884996</ele>
        <time>2022-05-26T08:05:19.242Z</time>
      </trkpt>
      <trkpt lat="42.05105" lon="19.49049">
        <ele>54.790759</ele>
        <time>2022-05-26T08:05:23.244Z</time>
      </trkpt>
      <trkpt lat="42.05108" lon="19.49038">
        <ele>54.717946</ele>
        <time>2022-05-26T08:05:26.267Z</time>
      </trkpt>
      <trkpt lat="42.05111" lon="19.49024">
        <ele>54.633292</ele>
        <time>2022-05-26T08:05:30.234Z</time>
      </trkpt>
      <trkpt lat="42.05115" lon="19.49011">
        <ele>54.550671</ele>
        <time>2022-05-26T08:05:34.243Z</time>
      </trkpt>
      <trkpt lat="42.05119" lon="19.49">
        <ele>54.478705</ele>
        <time>2022-05-26T08:05:37.240Z</time>
      </trkpt>
      <trkpt lat="42.05122" lon="19.48987">
        <ele>54.396703</ele>
        <time>2022-05-26T08:05:41.240Z</time>
      </trkpt>
      <trkpt lat="42.05116" lon="19.48977">
        <ele>54.457942</ele>
        <time>2022-05-26T08:05:46.226Z</time>
      </trkpt>
      <trkpt lat="42.05107" lon="19.48969">
        <ele>54.68344</ele>
        <time>2022-05-26T08:05:49.272Z</time>
      </trkpt>
      <trkpt lat="42.05097" lon="19.4896">
        <ele>54.934819</ele>
        <time>2022-05-26T08:05:52.342Z</time>
      </trkpt>
      <trkpt lat="42.05087" lon="19.48949">
        <ele>55.191945</ele>
        <time>2022-05-26T08:05:55.283Z</time>
      </trkpt>
      <trkpt lat="42.05077" lon="19.48938">
        <ele>55.467897</ele>
        <time>2022-05-26T08:05:58.248Z</time>
      </trkpt>
      <trkpt lat="42.0507" lon="19.4893">
        <ele>55.658698</ele>
        <time>2022-05-26T08:06:00.239Z</time>
      </trkpt>
      <trkpt lat="42.05064" lon="19.4892">
        <ele>55.848664</ele>
        <time>2022-05-26T08:06:02.237Z</time>
      </trkpt>
      <trkpt lat="42.05054" lon="19.48909">
        <ele>56.131197</ele>
        <time>2022-05-26T08:06:05.238Z</time>
      </trkpt>
      <trkpt lat="42.05047" lon="19.48901">
        <ele>56.320247</ele>
        <time>2022-05-26T08:06:07.226Z</time>
      </trkpt>
      <trkpt lat="42.05037" lon="19.4889">
        <ele>56.592618</ele>
        <time>2022-05-26T08:06:10.238Z</time>
      </trkpt>
      <trkpt lat="42.05026" lon="19.48879">
        <ele>56.869608</ele>
        <time>2022-05-26T08:06:13.239Z</time>
      </trkpt>
      <trkpt lat="42.05016" lon="19.48869">
        <ele>57.14531</ele>
        <time>2022-05-26T08:06:16.255Z</time>
      </trkpt>
      <trkpt lat="42.05005" lon="19.48859">
        <ele>57.406142</ele>
        <time>2022-05-26T08:06:19.237Z</time>
      </trkpt>
      <trkpt lat="42.04995" lon="19.4885">
        <ele>57.671378</ele>
        <time>2022-05-26T08:06:22.242Z</time>
      </trkpt>
      <trkpt lat="42.04984" lon="19.48839">
        <ele>57.946718</ele>
        <time>2022-05-26T08:06:25.233Z</time>
      </trkpt>
      <trkpt lat="42.04974" lon="19.48829">
        <ele>58.131267</ele>
        <time>2022-05-26T08:06:28.273Z</time>
      </trkpt>
      <trkpt lat="42.04963" lon="19.4882">
        <ele>58.179979</ele>
        <time>2022-05-26T08:06:31.236Z</time>
      </trkpt>
      <trkpt lat="42.04953" lon="19.48812">
        <ele>58.225531</ele>
        <time>2022-05-26T08:06:34.231Z</time>
      </trkpt>
      <trkpt lat="42.04943" lon="19.48804">
        <ele>58.270937</ele>
        <time>2022-05-26T08:06:37.238Z</time>
      </trkpt>
      <trkpt lat="42.04932" lon="19.48796">
        <ele>58.319224</ele>
        <time>2022-05-26T08:06:40.301Z</time>
      </trkpt>
      <trkpt lat="42.04922" lon="19.48787">
        <ele>58.367697</ele>
        <time>2022-05-26T08:06:43.237Z</time>
      </trkpt>
      <trkpt lat="42.04914" lon="19.48781">
        <ele>58.403801</ele>
        <time>2022-05-26T08:06:45.218Z</time>
      </trkpt>
      <trkpt lat="42.04906" lon="19.48774">
        <ele>58.440307</ele>
        <time>2022-05-26T08:06:47.236Z</time>
      </trkpt>
      <trkpt lat="42.04897" lon="19.48768">
        <ele>58.4792</ele>
        <time>2022-05-26T08:06:49.235Z</time>
      </trkpt>
      <trkpt lat="42.04888" lon="19.48761">
        <ele>58.518374</ele>
        <time>2022-05-26T08:06:51.269Z</time>
      </trkpt>
      <trkpt lat="42.0488" lon="19.48755">
        <ele>58.555085</ele>
        <time>2022-05-26T08:06:53.251Z</time>
      </trkpt>
      <trkpt lat="42.04871" lon="19.48748">
        <ele>58.594175</ele>
        <time>2022-05-26T08:06:55.250Z</time>
      </trkpt>
      <trkpt lat="42.04863" lon="19.48741">
        <ele>58.631315</ele>
        <time>2022-05-26T08:06:57.277Z</time>
      </trkpt>
      <trkpt lat="42.04855" lon="19.48734">
        <ele>58.668151</ele>
        <time>2022-05-26T08:06:59.238Z</time>
      </trkpt>
      <trkpt lat="42.04846" lon="19.48727">
        <ele>58.70643</ele>
        <time>2022-05-26T08:07:01.260Z</time>
      </trkpt>
      <trkpt lat="42.04838" lon="19.4872">
        <ele>58.746786</ele>
        <time>2022-05-26T08:07:03.229Z</time>
      </trkpt>
      <trkpt lat="42.04828" lon="19.48712">
        <ele>58.788432</ele>
        <time>2022-05-26T08:07:05.233Z</time>
      </trkpt>
      <trkpt lat="42.04819" lon="19.48705">
        <ele>58.741158</ele>
        <time>2022-05-26T08:07:07.233Z</time>
      </trkpt>
      <trkpt lat="42.0481" lon="19.48698">
        <ele>58.588123</ele>
        <time>2022-05-26T08:07:09.232Z</time>
      </trkpt>
      <trkpt lat="42.04801" lon="19.4869">
        <ele>58.43576</ele>
        <time>2022-05-26T08:07:11.227Z</time>
      </trkpt>
      <trkpt lat="42.04792" lon="19.48682">
        <ele>58.281069</ele>
        <time>2022-05-26T08:07:13.271Z</time>
      </trkpt>
      <trkpt lat="42.04783" lon="19.48675">
        <ele>58.125574</ele>
        <time>2022-05-26T08:07:15.238Z</time>
      </trkpt>
      <trkpt lat="42.04773" lon="19.48668">
        <ele>57.974848</ele>
        <time>2022-05-26T08:07:17.327Z</time>
      </trkpt>
      <trkpt lat="42.04765" lon="19.48661">
        <ele>57.830658</ele>
        <time>2022-05-26T08:07:19.260Z</time>
      </trkpt>
      <trkpt lat="42.04755" lon="19.48654">
        <ele>57.679532</ele>
        <time>2022-05-26T08:07:21.239Z</time>
      </trkpt>
      <trkpt lat="42.04746" lon="19.48647">
        <ele>57.528909</ele>
        <time>2022-05-26T08:07:23.217Z</time>
      </trkpt>
      <trkpt lat="42.04736" lon="19.48641">
        <ele>57.374651</ele>
        <time>2022-05-26T08:07:25.243Z</time>
      </trkpt>
      <trkpt lat="42.04727" lon="19.48634">
        <ele>57.222476</ele>
        <time>2022-05-26T08:07:27.222Z</time>
      </trkpt>
      <trkpt lat="42.04717" lon="19.48629">
        <ele>57.071759</ele>
        <time>2022-05-26T08:07:29.240Z</time>
      </trkpt>
      <trkpt lat="42.04709" lon="19.48623">
        <ele>56.933924</ele>
        <time>2022-05-26T08:07:31.236Z</time>
      </trkpt>
      <trkpt lat="42.04699" lon="19.48618">
        <ele>56.789293</ele>
        <time>2022-05-26T08:07:33.272Z</time>
      </trkpt>
      <trkpt lat="42.04691" lon="19.48612">
        <ele>56.653788</ele>
        <time>2022-05-26T08:07:35.237Z</time>
      </trkpt>
      <trkpt lat="42.04682" lon="19.48607">
        <ele>56.520248</ele>
        <time>2022-05-26T08:07:37.234Z</time>
      </trkpt>
      <trkpt lat="42.04674" lon="19.486">
        <ele>56.3879</ele>
        <time>2022-05-26T08:07:39.248Z</time>
      </trkpt>
      <trkpt lat="42.04664" lon="19.4859">
        <ele>56.210803</ele>
        <time>2022-05-26T08:07:42.238Z</time>
      </trkpt>
      <trkpt lat="42.04657" lon="19.48579">
        <ele>56.059703</ele>
        <time>2022-05-26T08:07:45.222Z</time>
      </trkpt>
      <trkpt lat="42.04649" lon="19.48568">
        <ele>55.903451</ele>
        <time>2022-05-26T08:07:48.214Z</time>
      </trkpt>
      <trkpt lat="42.04641" lon="19.48557">
        <ele>55.746128</ele>
        <time>2022-05-26T08:07:51.233Z</time>
      </trkpt>
      <trkpt lat="42.04632" lon="19.48548">
        <ele>55.592564</ele>
        <time>2022-05-26T08:07:54.238Z</time>
      </trkpt>
      <trkpt lat="42.04622" lon="19.48541">
        <ele>55.434845</ele>
        <time>2022-05-26T08:07:57.237Z</time>
      </trkpt>
      <trkpt lat="42.0461" lon="19.48535">
        <ele>55.261767</ele>
        <time>2022-05-26T08:08:00.241Z</time>
      </trkpt>
      <trkpt lat="42.04597" lon="19.48532">
        <ele>55.077803</ele>
        <time>2022-05-26T08:08:03.240Z</time>
      </trkpt>
      <trkpt lat="42.04587" lon="19.4853">
        <ele>54.944485</ele>
        <time>2022-05-26T08:08:05.328Z</time>
      </trkpt>
      <trkpt lat="42.04577" lon="19.48527">
        <ele>54.803479</ele>
        <time>2022-05-26T08:08:07.232Z</time>
      </trkpt>
      <trkpt lat="42.04566" lon="19.48523">
        <ele>54.64446</ele>
        <time>2022-05-26T08:08:09.237Z</time>
      </trkpt>
      <trkpt lat="42.04554" lon="19.48517">
        <ele>54.478608</ele>
        <time>2022-05-26T08:08:11.233Z</time>
      </trkpt>
      <trkpt lat="42.04543" lon="19.48509">
        <ele>54.309109</ele>
        <time>2022-05-26T08:08:13.221Z</time>
      </trkpt>
      <trkpt lat="42.04532" lon="19.48501">
        <ele>54.134795</ele>
        <time>2022-05-26T08:08:15.234Z</time>
      </trkpt>
      <trkpt lat="42.04521" lon="19.48492">
        <ele>53.953688</ele>
        <time>2022-05-26T08:08:17.239Z</time>
      </trkpt>
      <trkpt lat="42.0451" lon="19.48483">
        <ele>53.785027</ele>
        <time>2022-05-26T08:08:19.227Z</time>
      </trkpt>
      <trkpt lat="42.04499" lon="19.48473">
        <ele>53.743395</ele>
        <time>2022-05-26T08:08:21.236Z</time>
      </trkpt>
      <trkpt lat="42.04488" lon="19.48464">
        <ele>53.702303</ele>
        <time>2022-05-26T08:08:23.268Z</time>
      </trkpt>
      <trkpt lat="42.04478" lon="19.48456">
        <ele>53.663288</ele>
        <time>2022-05-26T08:08:25.225Z</time>
      </trkpt>
      <trkpt lat="42.04468" lon="19.48447">
        <ele>53.625771</ele>
        <time>2022-05-26T08:08:27.243Z</time>
      </trkpt>
      <trkpt lat="42.04457" lon="19.48438">
        <ele>53.587572</ele>
        <time>2022-05-26T08:08:29.240Z</time>
      </trkpt>
      <trkpt lat="42.04448" lon="19.4843">
        <ele>53.550577</ele>
        <time>2022-05-26T08:08:31.218Z</time>
      </trkpt>
      <trkpt lat="42.04438" lon="19.48422">
        <ele>53.513959</ele>
        <time>2022-05-26T08:08:33.224Z</time>
      </trkpt>
      <trkpt lat="42.04428" lon="19.48414">
        <ele>53.476946</ele>
        <time>2022-05-26T08:08:35.232Z</time>
      </trkpt>
      <trkpt lat="42.04418" lon="19.48405">
        <ele>53.439695</ele>
        <time>2022-05-26T08:08:37.240Z</time>
      </trkpt>
      <trkpt lat="42.04408" lon="19.48397">
        <ele>53.403048</ele>
        <time>2022-05-26T08:08:39.236Z</time>
      </trkpt>
      <trkpt lat="42.04398" lon="19.4839">
        <ele>53.36699</ele>
        <time>2022-05-26T08:08:41.232Z</time>
      </trkpt>
      <trkpt lat="42.04389" lon="19.48384">
        <ele>53.332981</ele>
        <time>2022-05-26T08:08:43.312Z</time>
      </trkpt>
      <trkpt lat="42.04379" lon="19.48377">
        <ele>53.298939</ele>
        <time>2022-05-26T08:08:45.246Z</time>
      </trkpt>
      <trkpt lat="42.0437" lon="19.48371">
        <ele>53.266462</ele>
        <time>2022-05-26T08:08:47.249Z</time>
      </trkpt>
      <trkpt lat="42.04361" lon="19.48365">
        <ele>53.235261</ele>
        <time>2022-05-26T08:08:49.224Z</time>
      </trkpt>
      <trkpt lat="42.04353" lon="19.48359">
        <ele>53.235727</ele>
        <time>2022-05-26T08:08:51.245Z</time>
      </trkpt>
      <trkpt lat="42.04344" lon="19.48353">
        <ele>53.321672</ele>
        <time>2022-05-26T08:08:53.242Z</time>
      </trkpt>
      <trkpt lat="42.04335" lon="19.48348">
        <ele>53.404999</ele>
        <time>2022-05-26T08:08:55.223Z</time>
      </trkpt>
      <trkpt lat="42.04326" lon="19.48342">
        <ele>53.489362</ele>
        <time>2022-05-26T08:08:57.234Z</time>
      </trkpt>
      <trkpt lat="42.04317" lon="19.48336">
        <ele>53.575113</ele>
        <time>2022-05-26T08:08:59.243Z</time>
      </trkpt>
      <trkpt lat="42.04308" lon="19.4833">
        <ele>53.65878</ele>
        <time>2022-05-26T08:09:01.331Z</time>
      </trkpt>
      <trkpt lat="42.04299" lon="19.48324">
        <ele>53.743965</ele>
        <time>2022-05-26T08:09:03.224Z</time>
      </trkpt>
      <trkpt lat="42.04289" lon="19.48317">
        <ele>53.834352</ele>
        <time>2022-05-26T08:09:05.245Z</time>
      </trkpt>
      <trkpt lat="42.0428" lon="19.48311">
        <ele>53.920787</ele>
        <time>2022-05-26T08:09:07.214Z</time>
      </trkpt>
      <trkpt lat="42.04271" lon="19.48305">
        <ele>54.00787</ele>
        <time>2022-05-26T08:09:09.266Z</time>
      </trkpt>
      <trkpt lat="42.04262" lon="19.48298">
        <ele>54.092572</ele>
        <time>2022-05-26T08:09:11.230Z</time>
      </trkpt>
      <trkpt lat="42.04254" lon="19.4829">
        <ele>54.183012</ele>
        <time>2022-05-26T08:09:13.220Z</time>
      </trkpt>
      <trkpt lat="42.04245" lon="19.48284">
        <ele>54.264712</ele>
        <time>2022-05-26T08:09:15.252Z</time>
      </trkpt>
      <trkpt lat="42.04236" lon="19.48278">
        <ele>54.348666</ele>
        <time>2022-05-26T08:09:17.239Z</time>
      </trkpt>
      <trkpt lat="42.04228" lon="19.48272">
        <ele>54.429321</ele>
        <time>2022-05-26T08:09:19.220Z</time>
      </trkpt>
      <trkpt lat="42.04219" lon="19.48266">
        <ele>54.511621</ele>
        <time>2022-05-26T08:09:21.228Z</time>
      </trkpt>
      <trkpt lat="42.04211" lon="19.4826">
        <ele>54.591693</ele>
        <time>2022-05-26T08:09:23.229Z</time>
      </trkpt>
      <trkpt lat="42.04199" lon="19.48252">
        <ele>54.707353</ele>
        <time>2022-05-26T08:09:26.242Z</time>
      </trkpt>
      <trkpt lat="42.0419" lon="19.48246">
        <ele>54.708699</ele>
        <time>2022-05-26T08:09:28.238Z</time>
      </trkpt>
      <trkpt lat="42.04182" lon="19.4824">
        <ele>54.659926</ele>
        <time>2022-05-26T08:09:30.222Z</time>
      </trkpt>
      <trkpt lat="42.04173" lon="19.48234">
        <ele>54.607717</ele>
        <time>2022-05-26T08:09:32.233Z</time>
      </trkpt>
      <trkpt lat="42.04164" lon="19.48229">
        <ele>54.554231</ele>
        <time>2022-05-26T08:09:34.243Z</time>
      </trkpt>
      <trkpt lat="42.04154" lon="19.48224">
        <ele>54.499919</ele>
        <time>2022-05-26T08:09:36.250Z</time>
      </trkpt>
      <trkpt lat="42.04144" lon="19.48218">
        <ele>54.44488</ele>
        <time>2022-05-26T08:09:38.299Z</time>
      </trkpt>
      <trkpt lat="42.04135" lon="19.48212">
        <ele>54.392152</ele>
        <time>2022-05-26T08:09:40.220Z</time>
      </trkpt>
      <trkpt lat="42.04126" lon="19.48206">
        <ele>54.339067</ele>
        <time>2022-05-26T08:09:42.245Z</time>
      </trkpt>
      <trkpt lat="42.04117" lon="19.48199">
        <ele>54.28558</ele>
        <time>2022-05-26T08:09:44.235Z</time>
      </trkpt>
      <trkpt lat="42.04108" lon="19.48194">
        <ele>54.232278</ele>
        <time>2022-05-26T08:09:46.237Z</time>
      </trkpt>
      <trkpt lat="42.04098" lon="19.48189">
        <ele>54.176641</ele>
        <time>2022-05-26T08:09:48.245Z</time>
      </trkpt>
      <trkpt lat="42.04088" lon="19.48185">
        <ele>54.122882</ele>
        <time>2022-05-26T08:09:50.220Z</time>
      </trkpt>
      <trkpt lat="42.04078" lon="19.48181">
        <ele>54.07085</ele>
        <time>2022-05-26T08:09:52.216Z</time>
      </trkpt>
      <trkpt lat="42.04069" lon="19.48177">
        <ele>54.02016</ele>
        <time>2022-05-26T08:09:54.238Z</time>
      </trkpt>
      <trkpt lat="42.0406" lon="19.48172">
        <ele>53.967635</ele>
        <time>2022-05-26T08:09:56.235Z</time>
      </trkpt>
      <trkpt lat="42.0405" lon="19.48168">
        <ele>53.914866</ele>
        <time>2022-05-26T08:09:58.211Z</time>
      </trkpt>
      <trkpt lat="42.0404" lon="19.48164">
        <ele>53.860491</ele>
        <time>2022-05-26T08:10:00.232Z</time>
      </trkpt>
      <trkpt lat="42.0403" lon="19.4816">
        <ele>53.805081</ele>
        <time>2022-05-26T08:10:02.226Z</time>
      </trkpt>
      <trkpt lat="42.04019" lon="19.48156">
        <ele>53.825908</ele>
        <time>2022-05-26T08:10:04.222Z</time>
      </trkpt>
      <trkpt lat="42.04009" lon="19.48154">
        <ele>53.853573</ele>
        <time>2022-05-26T08:10:06.267Z</time>
      </trkpt>
      <trkpt lat="42.03998" lon="19.48152">
        <ele>53.881525</ele>
        <time>2022-05-26T08:10:08.244Z</time>
      </trkpt>
      <trkpt lat="42.03986" lon="19.48151">
        <ele>53.910955</ele>
        <time>2022-05-26T08:10:10.239Z</time>
      </trkpt>
      <trkpt lat="42.03974" lon="19.48152">
        <ele>53.94061</ele>
        <time>2022-05-26T08:10:12.235Z</time>
      </trkpt>
      <trkpt lat="42.03962" lon="19.48153">
        <ele>53.97182</ele>
        <time>2022-05-26T08:10:14.244Z</time>
      </trkpt>
      <trkpt lat="42.0395" lon="19.48154">
        <ele>54.003308</ele>
        <time>2022-05-26T08:10:16.285Z</time>
      </trkpt>
      <trkpt lat="42.03937" lon="19.48155">
        <ele>54.034976</ele>
        <time>2022-05-26T08:10:18.243Z</time>
      </trkpt>
      <trkpt lat="42.03924" lon="19.48153">
        <ele>54.066998</ele>
        <time>2022-05-26T08:10:20.237Z</time>
      </trkpt>
      <trkpt lat="42.03912" lon="19.4815">
        <ele>54.099656</ele>
        <time>2022-05-26T08:10:22.238Z</time>
      </trkpt>
      <trkpt lat="42.039" lon="19.48146">
        <ele>54.131107</ele>
        <time>2022-05-26T08:10:24.235Z</time>
      </trkpt>
      <trkpt lat="42.03888" lon="19.48141">
        <ele>54.163036</ele>
        <time>2022-05-26T08:10:26.240Z</time>
      </trkpt>
      <trkpt lat="42.03877" lon="19.48133">
        <ele>54.194181</ele>
        <time>2022-05-26T08:10:28.219Z</time>
      </trkpt>
      <trkpt lat="42.03868" lon="19.48123">
        <ele>54.224128</ele>
        <time>2022-05-26T08:10:30.223Z</time>
      </trkpt>
      <trkpt lat="42.03859" lon="19.48113">
        <ele>54.252973</ele>
        <time>2022-05-26T08:10:32.223Z</time>
      </trkpt>
      <trkpt lat="42.03851" lon="19.48102">
        <ele>54.253252</ele>
        <time>2022-05-26T08:10:34.223Z</time>
      </trkpt>
      <trkpt lat="42.03842" lon="19.48092">
        <ele>54.250147</ele>
        <time>2022-05-26T08:10:36.223Z</time>
      </trkpt>
      <trkpt lat="42.03834" lon="19.48082">
        <ele>54.247098</ele>
        <time>2022-05-26T08:10:38.270Z</time>
      </trkpt>
      <trkpt lat="42.03826" lon="19.48073">
        <ele>54.244181</ele>
        <time>2022-05-26T08:10:40.234Z</time>
      </trkpt>
      <trkpt lat="42.03817" lon="19.48064">
        <ele>54.241336</ele>
        <time>2022-05-26T08:10:42.243Z</time>
      </trkpt>
      <trkpt lat="42.03809" lon="19.48056">
        <ele>54.238613</ele>
        <time>2022-05-26T08:10:44.257Z</time>
      </trkpt>
      <trkpt lat="42.03802" lon="19.48048">
        <ele>54.235917</ele>
        <time>2022-05-26T08:10:46.240Z</time>
      </trkpt>
      <trkpt lat="42.03794" lon="19.4804">
        <ele>54.233166</ele>
        <time>2022-05-26T08:10:48.244Z</time>
      </trkpt>
      <trkpt lat="42.03786" lon="19.48032">
        <ele>54.230559</ele>
        <time>2022-05-26T08:10:50.261Z</time>
      </trkpt>
      <trkpt lat="42.03779" lon="19.48023">
        <ele>54.227889</ele>
        <time>2022-05-26T08:10:52.228Z</time>
      </trkpt>
      <trkpt lat="42.03771" lon="19.48016">
        <ele>54.225201</ele>
        <time>2022-05-26T08:10:54.253Z</time>
      </trkpt>
      <trkpt lat="42.03763" lon="19.48008">
        <ele>54.222694</ele>
        <time>2022-05-26T08:10:56.273Z</time>
      </trkpt>
      <trkpt lat="42.03756" lon="19.48001">
        <ele>54.220075</ele>
        <time>2022-05-26T08:10:58.245Z</time>
      </trkpt>
      <trkpt lat="42.03748" lon="19.47992">
        <ele>54.217382</ele>
        <time>2022-05-26T08:11:00.238Z</time>
      </trkpt>
      <trkpt lat="42.03741" lon="19.47984">
        <ele>54.214724</ele>
        <time>2022-05-26T08:11:02.259Z</time>
      </trkpt>
      <trkpt lat="42.03733" lon="19.47976">
        <ele>54.212082</ele>
        <time>2022-05-26T08:11:04.244Z</time>
      </trkpt>
      <trkpt lat="42.03725" lon="19.47969">
        <ele>54.209474</ele>
        <time>2022-05-26T08:11:06.252Z</time>
      </trkpt>
      <trkpt lat="42.03716" lon="19.47962">
        <ele>54.203904</ele>
        <time>2022-05-26T08:11:08.279Z</time>
      </trkpt>
      <trkpt lat="42.03708" lon="19.47955">
        <ele>54.162512</ele>
        <time>2022-05-26T08:11:10.221Z</time>
      </trkpt>
      <trkpt lat="42.03699" lon="19.47948">
        <ele>54.120556</ele>
        <time>2022-05-26T08:11:12.229Z</time>
      </trkpt>
      <trkpt lat="42.03689" lon="19.47941">
        <ele>54.075905</ele>
        <time>2022-05-26T08:11:14.263Z</time>
      </trkpt>
      <trkpt lat="42.0368" lon="19.47934">
        <ele>54.032214</ele>
        <time>2022-05-26T08:11:16.237Z</time>
      </trkpt>
      <trkpt lat="42.0367" lon="19.47927">
        <ele>53.985915</ele>
        <time>2022-05-26T08:11:18.244Z</time>
      </trkpt>
      <trkpt lat="42.0366" lon="19.4792">
        <ele>53.939175</ele>
        <time>2022-05-26T08:11:20.238Z</time>
      </trkpt>
      <trkpt lat="42.0365" lon="19.47913">
        <ele>53.891469</ele>
        <time>2022-05-26T08:11:22.234Z</time>
      </trkpt>
      <trkpt lat="42.03639" lon="19.47906">
        <ele>53.842292</ele>
        <time>2022-05-26T08:11:24.252Z</time>
      </trkpt>
      <trkpt lat="42.03628" lon="19.479">
        <ele>53.791987</ele>
        <time>2022-05-26T08:11:26.248Z</time>
      </trkpt>
      <trkpt lat="42.03616" lon="19.47894">
        <ele>53.742501</ele>
        <time>2022-05-26T08:11:28.220Z</time>
      </trkpt>
      <trkpt lat="42.03605" lon="19.47888">
        <ele>53.692569</ele>
        <time>2022-05-26T08:11:30.230Z</time>
      </trkpt>
      <trkpt lat="42.03594" lon="19.47883">
        <ele>53.643232</ele>
        <time>2022-05-26T08:11:32.236Z</time>
      </trkpt>
      <trkpt lat="42.03583" lon="19.47878">
        <ele>53.596921</ele>
        <time>2022-05-26T08:11:34.233Z</time>
      </trkpt>
      <trkpt lat="42.03572" lon="19.47873">
        <ele>53.550905</ele>
        <time>2022-05-26T08:11:36.264Z</time>
      </trkpt>
      <trkpt lat="42.03563" lon="19.47869">
        <ele>53.508007</ele>
        <time>2022-05-26T08:11:38.233Z</time>
      </trkpt>
      <trkpt lat="42.03552" lon="19.47864">
        <ele>53.466088</ele>
        <time>2022-05-26T08:11:40.233Z</time>
      </trkpt>
      <trkpt lat="42.03542" lon="19.4786">
        <ele>53.454317</ele>
        <time>2022-05-26T08:11:42.246Z</time>
      </trkpt>
      <trkpt lat="42.03533" lon="19.47855">
        <ele>53.443126</ele>
        <time>2022-05-26T08:11:44.245Z</time>
      </trkpt>
      <trkpt lat="42.03524" lon="19.47851">
        <ele>53.432251</ele>
        <time>2022-05-26T08:11:46.249Z</time>
      </trkpt>
      <trkpt lat="42.03514" lon="19.47846">
        <ele>53.420518</ele>
        <time>2022-05-26T08:11:48.230Z</time>
      </trkpt>
      <trkpt lat="42.03504" lon="19.47842">
        <ele>53.409087</ele>
        <time>2022-05-26T08:11:50.237Z</time>
      </trkpt>
      <trkpt lat="42.03494" lon="19.47838">
        <ele>53.397706</ele>
        <time>2022-05-26T08:11:52.232Z</time>
      </trkpt>
      <trkpt lat="42.03484" lon="19.47834">
        <ele>53.386154</ele>
        <time>2022-05-26T08:11:54.239Z</time>
      </trkpt>
      <trkpt lat="42.03474" lon="19.47831">
        <ele>53.374409</ele>
        <time>2022-05-26T08:11:56.235Z</time>
      </trkpt>
      <trkpt lat="42.03464" lon="19.47827">
        <ele>53.363132</ele>
        <time>2022-05-26T08:11:58.269Z</time>
      </trkpt>
      <trkpt lat="42.03454" lon="19.47822">
        <ele>53.351295</ele>
        <time>2022-05-26T08:12:00.234Z</time>
      </trkpt>
      <trkpt lat="42.03445" lon="19.47815">
        <ele>53.33988</ele>
        <time>2022-05-26T08:12:02.235Z</time>
      </trkpt>
      <trkpt lat="42.03437" lon="19.47807">
        <ele>53.327914</ele>
        <time>2022-05-26T08:12:04.290Z</time>
      </trkpt>
      <trkpt lat="42.03427" lon="19.47798">
        <ele>53.315385</ele>
        <time>2022-05-26T08:12:06.252Z</time>
      </trkpt>
      <trkpt lat="42.03419" lon="19.47789">
        <ele>53.303164</ele>
        <time>2022-05-26T08:12:08.221Z</time>
      </trkpt>
      <trkpt lat="42.0341" lon="19.4778">
        <ele>53.291181</ele>
        <time>2022-05-26T08:12:10.235Z</time>
      </trkpt>
      <trkpt lat="42.03401" lon="19.47772">
        <ele>53.278472</ele>
        <time>2022-05-26T08:12:12.237Z</time>
      </trkpt>
      <trkpt lat="42.03391" lon="19.47763">
        <ele>53.283945</ele>
        <time>2022-05-26T08:12:14.230Z</time>
      </trkpt>
      <trkpt lat="42.03383" lon="19.47754">
        <ele>53.57321</ele>
        <time>2022-05-26T08:12:16.232Z</time>
      </trkpt>
      <trkpt lat="42.03373" lon="19.47745">
        <ele>53.877814</ele>
        <time>2022-05-26T08:12:18.245Z</time>
      </trkpt>
      <trkpt lat="42.03363" lon="19.47737">
        <ele>54.187751</ele>
        <time>2022-05-26T08:12:20.242Z</time>
      </trkpt>
      <trkpt lat="42.03354" lon="19.47728">
        <ele>54.4911</ele>
        <time>2022-05-26T08:12:22.241Z</time>
      </trkpt>
      <trkpt lat="42.03344" lon="19.4772">
        <ele>54.80326</ele>
        <time>2022-05-26T08:12:24.244Z</time>
      </trkpt>
      <trkpt lat="42.03333" lon="19.47711">
        <ele>55.140824</ele>
        <time>2022-05-26T08:12:26.269Z</time>
      </trkpt>
      <trkpt lat="42.03323" lon="19.47702">
        <ele>55.460741</ele>
        <time>2022-05-26T08:12:28.212Z</time>
      </trkpt>
      <trkpt lat="42.03313" lon="19.47693">
        <ele>55.788235</ele>
        <time>2022-05-26T08:12:30.220Z</time>
      </trkpt>
      <trkpt lat="42.03304" lon="19.47683">
        <ele>56.094918</ele>
        <time>2022-05-26T08:12:32.309Z</time>
      </trkpt>
      <trkpt lat="42.03296" lon="19.47672">
        <ele>56.38018</ele>
        <time>2022-05-26T08:12:34.224Z</time>
      </trkpt>
      <trkpt lat="42.03288" lon="19.47661">
        <ele>56.683415</ele>
        <time>2022-05-26T08:12:36.244Z</time>
      </trkpt>
      <trkpt lat="42.0328" lon="19.47649">
        <ele>56.998172</ele>
        <time>2022-05-26T08:12:38.237Z</time>
      </trkpt>
      <trkpt lat="42.03272" lon="19.47637">
        <ele>57.323752</ele>
        <time>2022-05-26T08:12:40.221Z</time>
      </trkpt>
      <trkpt lat="42.03264" lon="19.47625">
        <ele>57.649687</ele>
        <time>2022-05-26T08:12:42.247Z</time>
      </trkpt>
      <trkpt lat="42.03255" lon="19.47613">
        <ele>57.973819</ele>
        <time>2022-05-26T08:12:44.258Z</time>
      </trkpt>
      <trkpt lat="42.03248" lon="19.47601">
        <ele>57.863253</ele>
        <time>2022-05-26T08:12:46.231Z</time>
      </trkpt>
      <trkpt lat="42.0324" lon="19.4759">
        <ele>57.656618</ele>
        <time>2022-05-26T08:12:48.222Z</time>
      </trkpt>
      <trkpt lat="42.03233" lon="19.47579">
        <ele>57.469309</ele>
        <time>2022-05-26T08:12:50.232Z</time>
      </trkpt>
      <trkpt lat="42.03226" lon="19.47569">
        <ele>57.283557</ele>
        <time>2022-05-26T08:12:52.235Z</time>
      </trkpt>
      <trkpt lat="42.03219" lon="19.47558">
        <ele>57.099011</ele>
        <time>2022-05-26T08:12:54.279Z</time>
      </trkpt>
      <trkpt lat="42.03211" lon="19.47548">
        <ele>56.913351</ele>
        <time>2022-05-26T08:12:56.245Z</time>
      </trkpt>
      <trkpt lat="42.03204" lon="19.4754">
        <ele>56.739846</ele>
        <time>2022-05-26T08:12:58.277Z</time>
      </trkpt>
      <trkpt lat="42.03196" lon="19.4753">
        <ele>56.550875</ele>
        <time>2022-05-26T08:13:00.226Z</time>
      </trkpt>
      <trkpt lat="42.03188" lon="19.4752">
        <ele>56.354404</ele>
        <time>2022-05-26T08:13:02.239Z</time>
      </trkpt>
      <trkpt lat="42.0318" lon="19.4751">
        <ele>56.156179</ele>
        <time>2022-05-26T08:13:04.220Z</time>
      </trkpt>
      <trkpt lat="42.03171" lon="19.475">
        <ele>55.958387</ele>
        <time>2022-05-26T08:13:06.232Z</time>
      </trkpt>
      <trkpt lat="42.03163" lon="19.4749">
        <ele>55.766312</ele>
        <time>2022-05-26T08:13:08.242Z</time>
      </trkpt>
      <trkpt lat="42.03156" lon="19.47481">
        <ele>55.582629</ele>
        <time>2022-05-26T08:13:10.244Z</time>
      </trkpt>
      <trkpt lat="42.03148" lon="19.47473">
        <ele>55.402652</ele>
        <time>2022-05-26T08:13:12.240Z</time>
      </trkpt>
      <trkpt lat="42.0314" lon="19.47465">
        <ele>55.2253</ele>
        <time>2022-05-26T08:13:14.248Z</time>
      </trkpt>
      <trkpt lat="42.03132" lon="19.47458">
        <ele>55.052561</ele>
        <time>2022-05-26T08:13:16.281Z</time>
      </trkpt>
      <trkpt lat="42.0312" lon="19.47448">
        <ele>54.821743</ele>
        <time>2022-05-26T08:13:19.255Z</time>
      </trkpt>
      <trkpt lat="42.03112" lon="19.47441">
        <ele>54.742075</ele>
        <time>2022-05-26T08:13:21.253Z</time>
      </trkpt>
      <trkpt lat="42.03105" lon="19.47435">
        <ele>54.663906</ele>
        <time>2022-05-26T08:13:23.234Z</time>
      </trkpt>
      <trkpt lat="42.03097" lon="19.47426">
        <ele>54.581436</ele>
        <time>2022-05-26T08:13:25.264Z</time>
      </trkpt>
      <trkpt lat="42.03091" lon="19.47417">
        <ele>54.501089</ele>
        <time>2022-05-26T08:13:27.239Z</time>
      </trkpt>
      <trkpt lat="42.03085" lon="19.47407">
        <ele>54.419917</ele>
        <time>2022-05-26T08:13:29.244Z</time>
      </trkpt>
      <trkpt lat="42.03079" lon="19.47397">
        <ele>54.335255</ele>
        <time>2022-05-26T08:13:31.254Z</time>
      </trkpt>
      <trkpt lat="42.03074" lon="19.47385">
        <ele>54.243749</ele>
        <time>2022-05-26T08:13:33.261Z</time>
      </trkpt>
      <trkpt lat="42.03068" lon="19.47373">
        <ele>54.15462</ele>
        <time>2022-05-26T08:13:35.225Z</time>
      </trkpt>
      <trkpt lat="42.03062" lon="19.4736">
        <ele>54.061101</ele>
        <time>2022-05-26T08:13:37.228Z</time>
      </trkpt>
      <trkpt lat="42.03056" lon="19.47348">
        <ele>53.966042</ele>
        <time>2022-05-26T08:13:39.243Z</time>
      </trkpt>
      <trkpt lat="42.0305" lon="19.47336">
        <ele>53.872139</ele>
        <time>2022-05-26T08:13:41.240Z</time>
      </trkpt>
      <trkpt lat="42.03042" lon="19.47325">
        <ele>53.777468</ele>
        <time>2022-05-26T08:13:43.235Z</time>
      </trkpt>
      <trkpt lat="42.03033" lon="19.47318">
        <ele>53.683659</ele>
        <time>2022-05-26T08:13:45.237Z</time>
      </trkpt>
      <trkpt lat="42.03022" lon="19.47315">
        <ele>53.592122</ele>
        <time>2022-05-26T08:13:47.239Z</time>
      </trkpt>
      <trkpt lat="42.03012" lon="19.47314">
        <ele>53.50376</ele>
        <time>2022-05-26T08:13:49.248Z</time>
      </trkpt>
      <trkpt lat="42.03001" lon="19.47311">
        <ele>53.409121</ele>
        <time>2022-05-26T08:13:51.241Z</time>
      </trkpt>
      <trkpt lat="42.02992" lon="19.47308">
        <ele>53.322916</ele>
        <time>2022-05-26T08:13:53.224Z</time>
      </trkpt>
      <trkpt lat="42.02983" lon="19.47304">
        <ele>53.333416</ele>
        <time>2022-05-26T08:13:55.214Z</time>
      </trkpt>
      <trkpt lat="42.02972" lon="19.47297">
        <ele>53.464539</ele>
        <time>2022-05-26T08:13:58.277Z</time>
      </trkpt>
      <trkpt lat="42.02963" lon="19.47288">
        <ele>53.580376</ele>
        <time>2022-05-26T08:14:01.232Z</time>
      </trkpt>
      <trkpt lat="42.02954" lon="19.47278">
        <ele>53.704046</ele>
        <time>2022-05-26T08:14:04.233Z</time>
      </trkpt>
      <trkpt lat="42.02945" lon="19.47268">
        <ele>53.830619</ele>
        <time>2022-05-26T08:14:07.231Z</time>
      </trkpt>
      <trkpt lat="42.02935" lon="19.47257">
        <ele>53.965691</ele>
        <time>2022-05-26T08:14:10.242Z</time>
      </trkpt>
      <trkpt lat="42.02929" lon="19.47248">
        <ele>54.062608</ele>
        <time>2022-05-26T08:14:12.241Z</time>
      </trkpt>
      <trkpt lat="42.02922" lon="19.47239">
        <ele>54.162033</ele>
        <time>2022-05-26T08:14:14.235Z</time>
      </trkpt>
      <trkpt lat="42.02914" lon="19.47224">
        <ele>54.307258</ele>
        <time>2022-05-26T08:14:17.240Z</time>
      </trkpt>
      <trkpt lat="42.0291" lon="19.47213">
        <ele>54.41077</ele>
        <time>2022-05-26T08:14:19.272Z</time>
      </trkpt>
      <trkpt lat="42.02905" lon="19.47201">
        <ele>54.513945</ele>
        <time>2022-05-26T08:14:21.235Z</time>
      </trkpt>
      <trkpt lat="42.029" lon="19.4719">
        <ele>54.617457</ele>
        <time>2022-05-26T08:14:23.243Z</time>
      </trkpt>
      <trkpt lat="42.02894" lon="19.47179">
        <ele>54.72273</ele>
        <time>2022-05-26T08:14:25.243Z</time>
      </trkpt>
      <trkpt lat="42.02889" lon="19.47168">
        <ele>54.829287</ele>
        <time>2022-05-26T08:14:27.233Z</time>
      </trkpt>
      <trkpt lat="42.02883" lon="19.47157">
        <ele>54.935189</ele>
        <time>2022-05-26T08:14:29.243Z</time>
      </trkpt>
      <trkpt lat="42.02877" lon="19.47146">
        <ele>55.043629</ele>
        <time>2022-05-26T08:14:31.253Z</time>
      </trkpt>
      <trkpt lat="42.0287" lon="19.47136">
        <ele>55.148967</ele>
        <time>2022-05-26T08:14:33.216Z</time>
      </trkpt>
      <trkpt lat="42.02864" lon="19.47125">
        <ele>55.184661</ele>
        <time>2022-05-26T08:14:35.229Z</time>
      </trkpt>
      <trkpt lat="42.02859" lon="19.47115">
        <ele>55.165944</ele>
        <time>2022-05-26T08:14:37.235Z</time>
      </trkpt>
      <trkpt lat="42.02853" lon="19.47106">
        <ele>55.146666</ele>
        <time>2022-05-26T08:14:39.241Z</time>
      </trkpt>
      <trkpt lat="42.02845" lon="19.47096">
        <ele>55.1258</ele>
        <time>2022-05-26T08:14:41.227Z</time>
      </trkpt>
      <trkpt lat="42.02837" lon="19.47086">
        <ele>55.10406</ele>
        <time>2022-05-26T08:14:43.242Z</time>
      </trkpt>
      <trkpt lat="42.02829" lon="19.47078">
        <ele>55.082064</ele>
        <time>2022-05-26T08:14:45.231Z</time>
      </trkpt>
      <trkpt lat="42.02819" lon="19.47069">
        <ele>55.059237</ele>
        <time>2022-05-26T08:14:47.252Z</time>
      </trkpt>
      <trkpt lat="42.02809" lon="19.47062">
        <ele>55.03616</ele>
        <time>2022-05-26T08:14:49.253Z</time>
      </trkpt>
      <trkpt lat="42.02799" lon="19.47055">
        <ele>55.012848</ele>
        <time>2022-05-26T08:14:51.219Z</time>
      </trkpt>
      <trkpt lat="42.02788" lon="19.47048">
        <ele>54.988603</ele>
        <time>2022-05-26T08:14:53.244Z</time>
      </trkpt>
      <trkpt lat="42.02778" lon="19.47041">
        <ele>54.964907</ele>
        <time>2022-05-26T08:14:55.250Z</time>
      </trkpt>
      <trkpt lat="42.02769" lon="19.47033">
        <ele>54.942587</ele>
        <time>2022-05-26T08:14:57.251Z</time>
      </trkpt>
      <trkpt lat="42.0276" lon="19.47026">
        <ele>54.92059</ele>
        <time>2022-05-26T08:14:59.237Z</time>
      </trkpt>
      <trkpt lat="42.0275" lon="19.47019">
        <ele>54.898734</ele>
        <time>2022-05-26T08:15:01.242Z</time>
      </trkpt>
      <trkpt lat="42.02741" lon="19.47012">
        <ele>54.877803</ele>
        <time>2022-05-26T08:15:03.234Z</time>
      </trkpt>
      <trkpt lat="42.02732" lon="19.47005">
        <ele>54.857125</ele>
        <time>2022-05-26T08:15:05.273Z</time>
      </trkpt>
      <trkpt lat="42.02724" lon="19.46999">
        <ele>54.837854</ele>
        <time>2022-05-26T08:15:07.227Z</time>
      </trkpt>
      <trkpt lat="42.02716" lon="19.46993">
        <ele>54.934304</ele>
        <time>2022-05-26T08:15:09.219Z</time>
      </trkpt>
      <trkpt lat="42.02707" lon="19.46987">
        <ele>55.135603</ele>
        <time>2022-05-26T08:15:11.242Z</time>
      </trkpt>
      <trkpt lat="42.02698" lon="19.46981">
        <ele>55.327739</ele>
        <time>2022-05-26T08:15:13.240Z</time>
      </trkpt>
      <trkpt lat="42.0269" lon="19.46975">
        <ele>55.516728</ele>
        <time>2022-05-26T08:15:15.260Z</time>
      </trkpt>
      <trkpt lat="42.02679" lon="19.46967">
        <ele>55.776554</ele>
        <time>2022-05-26T08:15:18.256Z</time>
      </trkpt>
      <trkpt lat="42.02667" lon="19.46959">
        <ele>56.033542</ele>
        <time>2022-05-26T08:15:21.228Z</time>
      </trkpt>
      <trkpt lat="42.02656" lon="19.46951">
        <ele>56.296923</ele>
        <time>2022-05-26T08:15:24.247Z</time>
      </trkpt>
      <trkpt lat="42.02644" lon="19.46943">
        <ele>56.55675</ele>
        <time>2022-05-26T08:15:27.227Z</time>
      </trkpt>
      <trkpt lat="42.02633" lon="19.46934">
        <ele>56.806447</ele>
        <time>2022-05-26T08:15:30.234Z</time>
      </trkpt>
      <trkpt lat="42.02623" lon="19.46925">
        <ele>57.04812</ele>
        <time>2022-05-26T08:15:33.237Z</time>
      </trkpt>
      <trkpt lat="42.02614" lon="19.46914">
        <ele>57.302606</ele>
        <time>2022-05-26T08:15:36.251Z</time>
      </trkpt>
      <trkpt lat="42.02603" lon="19.46902">
        <ele>57.575851</ele>
        <time>2022-05-26T08:15:39.243Z</time>
      </trkpt>
      <trkpt lat="42.02593" lon="19.4689">
        <ele>57.848136</ele>
        <time>2022-05-26T08:15:42.239Z</time>
      </trkpt>
      <trkpt lat="42.02581" lon="19.46882">
        <ele>58.105833</ele>
        <time>2022-05-26T08:15:45.252Z</time>
      </trkpt>
      <trkpt lat="42.02568" lon="19.46877">
        <ele>58.378829</ele>
        <time>2022-05-26T08:15:48.259Z</time>
      </trkpt>
      <trkpt lat="42.02559" lon="19.46874">
        <ele>58.435232</ele>
        <time>2022-05-26T08:15:50.235Z</time>
      </trkpt>
      <trkpt lat="42.0255" lon="19.46869">
        <ele>58.442578</ele>
        <time>2022-05-26T08:15:52.240Z</time>
      </trkpt>
      <trkpt lat="42.02541" lon="19.46864">
        <ele>58.449769</ele>
        <time>2022-05-26T08:15:54.267Z</time>
      </trkpt>
      <trkpt lat="42.02534" lon="19.46857">
        <ele>58.457029</ele>
        <time>2022-05-26T08:15:56.281Z</time>
      </trkpt>
      <trkpt lat="42.02527" lon="19.46848">
        <ele>58.464094</ele>
        <time>2022-05-26T08:15:58.226Z</time>
      </trkpt>
      <trkpt lat="42.02521" lon="19.46838">
        <ele>58.471186</ele>
        <time>2022-05-26T08:16:00.265Z</time>
      </trkpt>
      <trkpt lat="42.02515" lon="19.46828">
        <ele>58.47817</ele>
        <time>2022-05-26T08:16:02.241Z</time>
      </trkpt>
      <trkpt lat="42.02511" lon="19.46817">
        <ele>58.485123</ele>
        <time>2022-05-26T08:16:04.217Z</time>
      </trkpt>
      <trkpt lat="42.02507" lon="19.46805">
        <ele>58.492076</ele>
        <time>2022-05-26T08:16:06.274Z</time>
      </trkpt>
      <trkpt lat="42.02506" lon="19.46793">
        <ele>58.498983</ele>
        <time>2022-05-26T08:16:08.235Z</time>
      </trkpt>
      <trkpt lat="42.02505" lon="19.46781">
        <ele>58.505973</ele>
        <time>2022-05-26T08:16:10.225Z</time>
      </trkpt>
      <trkpt lat="42.02504" lon="19.46763">
        <ele>58.515759</ele>
        <time>2022-05-26T08:16:13.322Z</time>
      </trkpt>
      <trkpt lat="42.02503" lon="19.46747">
        <ele>58.524742</ele>
        <time>2022-05-26T08:16:16.231Z</time>
      </trkpt>
      <trkpt lat="42.025" lon="19.46733">
        <ele>58.532914</ele>
        <time>2022-05-26T08:16:19.235Z</time>
      </trkpt>
      <trkpt lat="42.02495" lon="19.46721">
        <ele>58.540746</ele>
        <time>2022-05-26T08:16:22.219Z</time>
      </trkpt>
      <trkpt lat="42.02489" lon="19.46707">
        <ele>58.549442</ele>
        <time>2022-05-26T08:16:25.237Z</time>
      </trkpt>
      <trkpt lat="42.02485" lon="19.46694">
        <ele>58.557492</ele>
        <time>2022-05-26T08:16:28.227Z</time>
      </trkpt>
      <trkpt lat="42.02482" lon="19.46681">
        <ele>58.56521</ele>
        <time>2022-05-26T08:16:31.215Z</time>
      </trkpt>
      <trkpt lat="42.02479" lon="19.46668">
        <ele>58.686544</ele>
        <time>2022-05-26T08:16:34.219Z</time>
      </trkpt>
      <trkpt lat="42.02477" lon="19.46655">
        <ele>58.810569</ele>
        <time>2022-05-26T08:16:37.217Z</time>
      </trkpt>
      <trkpt lat="42.02475" lon="19.46642">
        <ele>58.931336</ele>
        <time>2022-05-26T08:16:40.229Z</time>
      </trkpt>
      <trkpt lat="42.02473" lon="19.46629">
        <ele>59.049279</ele>
        <time>2022-05-26T08:16:43.261Z</time>
      </trkpt>
      <trkpt lat="42.02472" lon="19.46616">
        <ele>59.177773</ele>
        <time>2022-05-26T08:16:46.225Z</time>
      </trkpt>
      <trkpt lat="42.02472" lon="19.46601">
        <ele>59.307476</ele>
        <time>2022-05-26T08:16:49.246Z</time>
      </trkpt>
      <trkpt lat="42.02471" lon="19.46588">
        <ele>59.432513</ele>
        <time>2022-05-26T08:16:52.265Z</time>
      </trkpt>
      <trkpt lat="42.02471" lon="19.46574">
        <ele>59.563416</ele>
        <time>2022-05-26T08:16:55.240Z</time>
      </trkpt>
      <trkpt lat="42.0247" lon="19.46558">
        <ele>59.706028</ele>
        <time>2022-05-26T08:16:58.239Z</time>
      </trkpt>
      <trkpt lat="42.02469" lon="19.46542">
        <ele>59.853523</ele>
        <time>2022-05-26T08:17:01.258Z</time>
      </trkpt>
      <trkpt lat="42.02468" lon="19.46526">
        <ele>60.005516</ele>
        <time>2022-05-26T08:17:04.236Z</time>
      </trkpt>
      <trkpt lat="42.02468" lon="19.46508">
        <ele>60.17127</ele>
        <time>2022-05-26T08:17:07.233Z</time>
      </trkpt>
      <trkpt lat="42.02467" lon="19.46494">
        <ele>60.293832</ele>
        <time>2022-05-26T08:17:09.269Z</time>
      </trkpt>
      <trkpt lat="42.02466" lon="19.46481">
        <ele>60.415477</ele>
        <time>2022-05-26T08:17:11.243Z</time>
      </trkpt>
      <trkpt lat="42.02466" lon="19.46468">
        <ele>60.538807</ele>
        <time>2022-05-26T08:17:13.278Z</time>
      </trkpt>
      <trkpt lat="42.02465" lon="19.46455">
        <ele>60.659452</ele>
        <time>2022-05-26T08:17:15.247Z</time>
      </trkpt>
      <trkpt lat="42.02465" lon="19.46442">
        <ele>60.77717</ele>
        <time>2022-05-26T08:17:17.241Z</time>
      </trkpt>
      <trkpt lat="42.02465" lon="19.46429">
        <ele>60.66129</ele>
        <time>2022-05-26T08:17:19.236Z</time>
      </trkpt>
      <trkpt lat="42.02467" lon="19.46416">
        <ele>60.514673</ele>
        <time>2022-05-26T08:17:21.242Z</time>
      </trkpt>
      <trkpt lat="42.0247" lon="19.46404">
        <ele>60.373392</ele>
        <time>2022-05-26T08:17:23.250Z</time>
      </trkpt>
      <trkpt lat="42.02473" lon="19.46393">
        <ele>60.23701</ele>
        <time>2022-05-26T08:17:25.269Z</time>
      </trkpt>
      <trkpt lat="42.02479" lon="19.46377">
        <ele>60.039053</ele>
        <time>2022-05-26T08:17:28.310Z</time>
      </trkpt>
      <trkpt lat="42.02485" lon="19.46362">
        <ele>59.851825</ele>
        <time>2022-05-26T08:17:31.237Z</time>
      </trkpt>
      <trkpt lat="42.02488" lon="19.46348">
        <ele>59.683349</ele>
        <time>2022-05-26T08:17:34.245Z</time>
      </trkpt>
      <trkpt lat="42.0249" lon="19.46333">
        <ele>59.514897</ele>
        <time>2022-05-26T08:17:37.231Z</time>
      </trkpt>
      <trkpt lat="42.0249" lon="19.46318">
        <ele>59.344158</ele>
        <time>2022-05-26T08:17:40.244Z</time>
      </trkpt>
      <trkpt lat="42.0249" lon="19.46302">
        <ele>59.167811</ele>
        <time>2022-05-26T08:17:43.248Z</time>
      </trkpt>
      <trkpt lat="42.02491" lon="19.46286">
        <ele>58.990282</ele>
        <time>2022-05-26T08:17:46.214Z</time>
      </trkpt>
      <trkpt lat="42.0249" lon="19.4627">
        <ele>58.80781</ele>
        <time>2022-05-26T08:17:49.251Z</time>
      </trkpt>
      <trkpt lat="42.02488" lon="19.46252">
        <ele>58.604709</ele>
        <time>2022-05-26T08:17:52.260Z</time>
      </trkpt>
      <trkpt lat="42.02485" lon="19.46239">
        <ele>58.454246</ele>
        <time>2022-05-26T08:17:54.236Z</time>
      </trkpt>
      <trkpt lat="42.02482" lon="19.46226">
        <ele>58.295235</ele>
        <time>2022-05-26T08:17:56.217Z</time>
      </trkpt>
      <trkpt lat="42.02476" lon="19.46213">
        <ele>58.123326</ele>
        <time>2022-05-26T08:17:58.232Z</time>
      </trkpt>
      <trkpt lat="42.02467" lon="19.46202">
        <ele>57.765749</ele>
        <time>2022-05-26T08:18:00.221Z</time>
      </trkpt>
      <trkpt lat="42.02457" lon="19.4619">
        <ele>57.311312</ele>
        <time>2022-05-26T08:18:02.247Z</time>
      </trkpt>
      <trkpt lat="42.02447" lon="19.46178">
        <ele>56.811826</ele>
        <time>2022-05-26T08:18:04.228Z</time>
      </trkpt>
      <trkpt lat="42.02436" lon="19.46165">
        <ele>56.300807</ele>
        <time>2022-05-26T08:18:06.226Z</time>
      </trkpt>
      <trkpt lat="42.02424" lon="19.46153">
        <ele>55.760075</ele>
        <time>2022-05-26T08:18:08.242Z</time>
      </trkpt>
      <trkpt lat="42.02412" lon="19.4614">
        <ele>55.21421</ele>
        <time>2022-05-26T08:18:10.236Z</time>
      </trkpt>
      <trkpt lat="42.024" lon="19.46127">
        <ele>54.66515</ele>
        <time>2022-05-26T08:18:12.268Z</time>
      </trkpt>
      <trkpt lat="42.02388" lon="19.46114">
        <ele>54.136474</ele>
        <time>2022-05-26T08:18:14.256Z</time>
      </trkpt>
      <trkpt lat="42.02376" lon="19.46102">
        <ele>53.607068</ele>
        <time>2022-05-26T08:18:16.229Z</time>
      </trkpt>
      <trkpt lat="42.02365" lon="19.46089">
        <ele>53.087293</ele>
        <time>2022-05-26T08:18:18.276Z</time>
      </trkpt>
      <trkpt lat="42.02354" lon="19.46078">
        <ele>52.598459</ele>
        <time>2022-05-26T08:18:20.229Z</time>
      </trkpt>
      <trkpt lat="42.02344" lon="19.46067">
        <ele>52.131726</ele>
        <time>2022-05-26T08:18:22.241Z</time>
      </trkpt>
      <trkpt lat="42.02334" lon="19.46056">
        <ele>51.68579</ele>
        <time>2022-05-26T08:18:24.267Z</time>
      </trkpt>
      <trkpt lat="42.02324" lon="19.46045">
        <ele>51.672943</ele>
        <time>2022-05-26T08:18:26.248Z</time>
      </trkpt>
      <trkpt lat="42.02314" lon="19.46033">
        <ele>51.660105</ele>
        <time>2022-05-26T08:18:28.239Z</time>
      </trkpt>
      <trkpt lat="42.02305" lon="19.4602">
        <ele>51.646762</ele>
        <time>2022-05-26T08:18:30.277Z</time>
      </trkpt>
      <trkpt lat="42.02296" lon="19.46007">
        <ele>51.633596</ele>
        <time>2022-05-26T08:18:32.235Z</time>
      </trkpt>
      <trkpt lat="42.02288" lon="19.45993">
        <ele>51.621523</ele>
        <time>2022-05-26T08:18:34.238Z</time>
      </trkpt>
      <trkpt lat="42.02281" lon="19.4598">
        <ele>51.60939</ele>
        <time>2022-05-26T08:18:36.227Z</time>
      </trkpt>
      <trkpt lat="42.02274" lon="19.45968">
        <ele>51.598141</ele>
        <time>2022-05-26T08:18:38.245Z</time>
      </trkpt>
      <trkpt lat="42.02268" lon="19.45957">
        <ele>51.587835</ele>
        <time>2022-05-26T08:18:40.243Z</time>
      </trkpt>
      <trkpt lat="42.02262" lon="19.45946">
        <ele>51.578176</ele>
        <time>2022-05-26T08:18:42.237Z</time>
      </trkpt>
      <trkpt lat="42.02257" lon="19.45935">
        <ele>51.568565</ele>
        <time>2022-05-26T08:18:44.263Z</time>
      </trkpt>
      <trkpt lat="42.02251" lon="19.45924">
        <ele>51.558494</ele>
        <time>2022-05-26T08:18:46.239Z</time>
      </trkpt>
      <trkpt lat="42.02245" lon="19.45914">
        <ele>51.548895</ele>
        <time>2022-05-26T08:18:48.236Z</time>
      </trkpt>
      <trkpt lat="42.02239" lon="19.45903">
        <ele>51.539227</ele>
        <time>2022-05-26T08:18:50.255Z</time>
      </trkpt>
      <trkpt lat="42.02229" lon="19.45892">
        <ele>51.526388</ele>
        <time>2022-05-26T08:18:53.232Z</time>
      </trkpt>
      <trkpt lat="42.02219" lon="19.45881">
        <ele>51.513786</ele>
        <time>2022-05-26T08:18:56.256Z</time>
      </trkpt>
      <trkpt lat="42.02209" lon="19.4587">
        <ele>51.599554</ele>
        <time>2022-05-26T08:18:59.258Z</time>
      </trkpt>
      <trkpt lat="42.02201" lon="19.45863">
        <ele>51.704906</ele>
        <time>2022-05-26T08:19:01.228Z</time>
      </trkpt>
      <trkpt lat="42.02193" lon="19.45856">
        <ele>51.818324</ele>
        <time>2022-05-26T08:19:03.235Z</time>
      </trkpt>
      <trkpt lat="42.02184" lon="19.45848">
        <ele>51.93696</ele>
        <time>2022-05-26T08:19:05.236Z</time>
      </trkpt>
      <trkpt lat="42.02175" lon="19.4584">
        <ele>52.058961</ele>
        <time>2022-05-26T08:19:07.251Z</time>
      </trkpt>
      <trkpt lat="42.02166" lon="19.45833">
        <ele>52.177753</ele>
        <time>2022-05-26T08:19:09.221Z</time>
      </trkpt>
      <trkpt lat="42.02157" lon="19.45826">
        <ele>52.296246</ele>
        <time>2022-05-26T08:19:11.233Z</time>
      </trkpt>
      <trkpt lat="42.02148" lon="19.45819">
        <ele>52.415038</ele>
        <time>2022-05-26T08:19:13.234Z</time>
      </trkpt>
      <trkpt lat="42.0214" lon="19.45811">
        <ele>52.529167</ele>
        <time>2022-05-26T08:19:15.215Z</time>
      </trkpt>
      <trkpt lat="42.02134" lon="19.458">
        <ele>52.643877</ele>
        <time>2022-05-26T08:19:17.237Z</time>
      </trkpt>
      <trkpt lat="42.02129" lon="19.45788">
        <ele>52.761001</ele>
        <time>2022-05-26T08:19:19.240Z</time>
      </trkpt>
      <trkpt lat="42.02125" lon="19.45775">
        <ele>52.880251</ele>
        <time>2022-05-26T08:19:21.238Z</time>
      </trkpt>
      <trkpt lat="42.02121" lon="19.45762">
        <ele>53.000282</ele>
        <time>2022-05-26T08:19:23.213Z</time>
      </trkpt>
      <trkpt lat="42.02117" lon="19.4575">
        <ele>53.119102</ele>
        <time>2022-05-26T08:19:25.237Z</time>
      </trkpt>
      <trkpt lat="42.02111" lon="19.45738">
        <ele>53.239663</ele>
        <time>2022-05-26T08:19:27.235Z</time>
      </trkpt>
      <trkpt lat="42.02105" lon="19.45726">
        <ele>53.36315</ele>
        <time>2022-05-26T08:19:29.231Z</time>
      </trkpt>
      <trkpt lat="42.02097" lon="19.45716">
        <ele>53.487213</ele>
        <time>2022-05-26T08:19:31.226Z</time>
      </trkpt>
      <trkpt lat="42.02088" lon="19.45709">
        <ele>53.572948</ele>
        <time>2022-05-26T08:19:33.232Z</time>
      </trkpt>
      <trkpt lat="42.02078" lon="19.45703">
        <ele>53.592765</ele>
        <time>2022-05-26T08:19:35.229Z</time>
      </trkpt>
      <trkpt lat="42.02068" lon="19.45696">
        <ele>53.612811</ele>
        <time>2022-05-26T08:19:37.235Z</time>
      </trkpt>
      <trkpt lat="42.02058" lon="19.45689">
        <ele>53.632472</ele>
        <time>2022-05-26T08:19:39.225Z</time>
      </trkpt>
      <trkpt lat="42.0205" lon="19.4568">
        <ele>53.651906</ele>
        <time>2022-05-26T08:19:41.313Z</time>
      </trkpt>
      <trkpt lat="42.02041" lon="19.45671">
        <ele>53.672186</ele>
        <time>2022-05-26T08:19:43.219Z</time>
      </trkpt>
      <trkpt lat="42.02032" lon="19.45661">
        <ele>53.694165</ele>
        <time>2022-05-26T08:19:45.262Z</time>
      </trkpt>
      <trkpt lat="42.02022" lon="19.45654">
        <ele>53.714965</ele>
        <time>2022-05-26T08:19:47.249Z</time>
      </trkpt>
      <trkpt lat="42.02011" lon="19.45647">
        <ele>53.737225</ele>
        <time>2022-05-26T08:19:49.241Z</time>
      </trkpt>
      <trkpt lat="42.01999" lon="19.4564">
        <ele>53.759699</ele>
        <time>2022-05-26T08:19:51.217Z</time>
      </trkpt>
      <trkpt lat="42.01988" lon="19.45633">
        <ele>53.782392</ele>
        <time>2022-05-26T08:19:53.245Z</time>
      </trkpt>
      <trkpt lat="42.01977" lon="19.45626">
        <ele>53.804535</ele>
        <time>2022-05-26T08:19:55.253Z</time>
      </trkpt>
      <trkpt lat="42.01966" lon="19.45619">
        <ele>53.825964</ele>
        <time>2022-05-26T08:19:57.231Z</time>
      </trkpt>
      <trkpt lat="42.01956" lon="19.45612">
        <ele>53.846353</ele>
        <time>2022-05-26T08:19:59.237Z</time>
      </trkpt>
      <trkpt lat="42.01947" lon="19.45605">
        <ele>53.866448</ele>
        <time>2022-05-26T08:20:01.240Z</time>
      </trkpt>
      <trkpt lat="42.01937" lon="19.45598">
        <ele>53.886513</ele>
        <time>2022-05-26T08:20:03.237Z</time>
      </trkpt>
      <trkpt lat="42.01927" lon="19.45591">
        <ele>53.958086</ele>
        <time>2022-05-26T08:20:05.239Z</time>
      </trkpt>
      <trkpt lat="42.01918" lon="19.45584">
        <ele>54.064527</ele>
        <time>2022-05-26T08:20:07.234Z</time>
      </trkpt>
      <trkpt lat="42.01909" lon="19.45577">
        <ele>54.16475</ele>
        <time>2022-05-26T08:20:09.236Z</time>
      </trkpt>
      <trkpt lat="42.019" lon="19.45568">
        <ele>54.267088</ele>
        <time>2022-05-26T08:20:11.231Z</time>
      </trkpt>
      <trkpt lat="42.01893" lon="19.45557">
        <ele>54.370947</ele>
        <time>2022-05-26T08:20:13.286Z</time>
      </trkpt>
      <trkpt lat="42.01886" lon="19.45545">
        <ele>54.480361</ele>
        <time>2022-05-26T08:20:15.256Z</time>
      </trkpt>
      <trkpt lat="42.01878" lon="19.45533">
        <ele>54.590409</ele>
        <time>2022-05-26T08:20:17.268Z</time>
      </trkpt>
      <trkpt lat="42.01871" lon="19.45521">
        <ele>54.694731</ele>
        <time>2022-05-26T08:20:19.235Z</time>
      </trkpt>
      <trkpt lat="42.01865" lon="19.4551">
        <ele>54.797911</ele>
        <time>2022-05-26T08:20:21.237Z</time>
      </trkpt>
      <trkpt lat="42.01858" lon="19.45499">
        <ele>54.89884</ele>
        <time>2022-05-26T08:20:23.237Z</time>
      </trkpt>
      <trkpt lat="42.01852" lon="19.45488">
        <ele>54.997483</ele>
        <time>2022-05-26T08:20:25.237Z</time>
      </trkpt>
      <trkpt lat="42.01845" lon="19.45477">
        <ele>55.09567</ele>
        <time>2022-05-26T08:20:27.239Z</time>
      </trkpt>
      <trkpt lat="42.01839" lon="19.45467">
        <ele>55.187495</ele>
        <time>2022-05-26T08:20:29.238Z</time>
      </trkpt>
      <trkpt lat="42.01833" lon="19.45456">
        <ele>55.278762</ele>
        <time>2022-05-26T08:20:31.228Z</time>
      </trkpt>
      <trkpt lat="42.01827" lon="19.45446">
        <ele>55.373426</ele>
        <time>2022-05-26T08:20:33.224Z</time>
      </trkpt>
      <trkpt lat="42.01821" lon="19.45436">
        <ele>55.465995</ele>
        <time>2022-05-26T08:20:35.249Z</time>
      </trkpt>
      <trkpt lat="42.01815" lon="19.45426">
        <ele>55.555544</ele>
        <time>2022-05-26T08:20:37.251Z</time>
      </trkpt>
      <trkpt lat="42.01809" lon="19.45415">
        <ele>55.623869</ele>
        <time>2022-05-26T08:20:39.243Z</time>
      </trkpt>
      <trkpt lat="42.01803" lon="19.45405">
        <ele>55.669021</ele>
        <time>2022-05-26T08:20:41.235Z</time>
      </trkpt>
      <trkpt lat="42.01797" lon="19.45394">
        <ele>55.715006</ele>
        <time>2022-05-26T08:20:43.241Z</time>
      </trkpt>
      <trkpt lat="42.01791" lon="19.45383">
        <ele>55.760433</ele>
        <time>2022-05-26T08:20:45.236Z</time>
      </trkpt>
      <trkpt lat="42.01785" lon="19.45373">
        <ele>55.80586</ele>
        <time>2022-05-26T08:20:47.258Z</time>
      </trkpt>
      <trkpt lat="42.01779" lon="19.45362">
        <ele>55.851284</ele>
        <time>2022-05-26T08:20:49.239Z</time>
      </trkpt>
      <trkpt lat="42.01773" lon="19.45351">
        <ele>55.896476</ele>
        <time>2022-05-26T08:20:51.235Z</time>
      </trkpt>
      <trkpt lat="42.01769" lon="19.45339">
        <ele>55.942597</ele>
        <time>2022-05-26T08:20:53.235Z</time>
      </trkpt>
      <trkpt lat="42.01764" lon="19.45327">
        <ele>55.986473</ele>
        <time>2022-05-26T08:20:55.240Z</time>
      </trkpt>
      <trkpt lat="42.0176" lon="19.45314">
        <ele>56.033367</ele>
        <time>2022-05-26T08:20:57.249Z</time>
      </trkpt>
      <trkpt lat="42.01756" lon="19.45301">
        <ele>56.082802</ele>
        <time>2022-05-26T08:20:59.256Z</time>
      </trkpt>
      <trkpt lat="42.01752" lon="19.45287">
        <ele>56.131613</ele>
        <time>2022-05-26T08:21:01.238Z</time>
      </trkpt>
      <trkpt lat="42.01748" lon="19.45274">
        <ele>56.179942</ele>
        <time>2022-05-26T08:21:03.234Z</time>
      </trkpt>
      <trkpt lat="42.01744" lon="19.4526">
        <ele>56.229106</ele>
        <time>2022-05-26T08:21:05.250Z</time>
      </trkpt>
      <trkpt lat="42.0174" lon="19.45247">
        <ele>56.276953</ele>
        <time>2022-05-26T08:21:07.240Z</time>
      </trkpt>
      <trkpt lat="42.01736" lon="19.45235">
        <ele>56.322587</ele>
        <time>2022-05-26T08:21:09.245Z</time>
      </trkpt>
      <trkpt lat="42.01733" lon="19.45222">
        <ele>56.369325</ele>
        <time>2022-05-26T08:21:11.231Z</time>
      </trkpt>
      <trkpt lat="42.01729" lon="19.45208">
        <ele>56.416093</ele>
        <time>2022-05-26T08:21:13.231Z</time>
      </trkpt>
      <trkpt lat="42.01726" lon="19.45195">
        <ele>56.569839</ele>
        <time>2022-05-26T08:21:15.247Z</time>
      </trkpt>
      <trkpt lat="42.01723" lon="19.45183">
        <ele>56.72158</ele>
        <time>2022-05-26T08:21:17.236Z</time>
      </trkpt>
      <trkpt lat="42.01721" lon="19.45171">
        <ele>56.872662</ele>
        <time>2022-05-26T08:21:19.241Z</time>
      </trkpt>
      <trkpt lat="42.01718" lon="19.45159">
        <ele>57.01879</ele>
        <time>2022-05-26T08:21:21.275Z</time>
      </trkpt>
      <trkpt lat="42.01716" lon="19.45147">
        <ele>57.162649</ele>
        <time>2022-05-26T08:21:23.242Z</time>
      </trkpt>
      <trkpt lat="42.01712" lon="19.4513">
        <ele>57.369615</ele>
        <time>2022-05-26T08:21:26.241Z</time>
      </trkpt>
      <trkpt lat="42.01709" lon="19.45113">
        <ele>57.575088</ele>
        <time>2022-05-26T08:21:29.238Z</time>
      </trkpt>
      <trkpt lat="42.01705" lon="19.45096">
        <ele>57.782521</ele>
        <time>2022-05-26T08:21:32.271Z</time>
      </trkpt>
      <trkpt lat="42.01702" lon="19.45079">
        <ele>57.989251</ele>
        <time>2022-05-26T08:21:35.235Z</time>
      </trkpt>
      <trkpt lat="42.01698" lon="19.45063">
        <ele>58.193997</ele>
        <time>2022-05-26T08:21:38.224Z</time>
      </trkpt>
      <trkpt lat="42.01696" lon="19.45047">
        <ele>58.383953</ele>
        <time>2022-05-26T08:21:41.248Z</time>
      </trkpt>
      <trkpt lat="42.01694" lon="19.45029">
        <ele>58.599878</ele>
        <time>2022-05-26T08:21:44.225Z</time>
      </trkpt>
      <trkpt lat="42.01693" lon="19.45017">
        <ele>58.74155</ele>
        <time>2022-05-26T08:21:46.272Z</time>
      </trkpt>
      <trkpt lat="42.01693" lon="19.44999">
        <ele>58.952039</ele>
        <time>2022-05-26T08:21:49.239Z</time>
      </trkpt>
      <trkpt lat="42.01694" lon="19.44981">
        <ele>59.159483</ele>
        <time>2022-05-26T08:21:52.229Z</time>
      </trkpt>
      <trkpt lat="42.01695" lon="19.44964">
        <ele>59.409526</ele>
        <time>2022-05-26T08:21:55.226Z</time>
      </trkpt>
      <trkpt lat="42.01695" lon="19.44947">
        <ele>59.709575</ele>
        <time>2022-05-26T08:21:58.235Z</time>
      </trkpt>
      <trkpt lat="42.01696" lon="19.44929">
        <ele>60.025693</ele>
        <time>2022-05-26T08:22:01.241Z</time>
      </trkpt>
      <trkpt lat="42.01698" lon="19.44912">
        <ele>60.336062</ele>
        <time>2022-05-26T08:22:04.228Z</time>
      </trkpt>
      <trkpt lat="42.01699" lon="19.44896">
        <ele>60.626532</ele>
        <time>2022-05-26T08:22:07.233Z</time>
      </trkpt>
      <trkpt lat="42.017" lon="19.4488">
        <ele>60.904673</ele>
        <time>2022-05-26T08:22:10.245Z</time>
      </trkpt>
      <trkpt lat="42.01702" lon="19.44865">
        <ele>61.169335</ele>
        <time>2022-05-26T08:22:13.223Z</time>
      </trkpt>
      <trkpt lat="42.01704" lon="19.44851">
        <ele>61.421497</ele>
        <time>2022-05-26T08:22:16.239Z</time>
      </trkpt>
      <trkpt lat="42.01706" lon="19.44836">
        <ele>61.698499</ele>
        <time>2022-05-26T08:22:20.238Z</time>
      </trkpt>
      <trkpt lat="42.01708" lon="19.44821">
        <ele>61.968141</ele>
        <time>2022-05-26T08:22:24.233Z</time>
      </trkpt>
      <trkpt lat="42.0171" lon="19.44807">
        <ele>62.220304</ele>
        <time>2022-05-26T08:22:28.233Z</time>
      </trkpt>
      <trkpt lat="42.01712" lon="19.44793">
        <ele>62.465068</ele>
        <time>2022-05-26T08:22:32.250Z</time>
      </trkpt>
      <trkpt lat="42.01714" lon="19.4478">
        <ele>62.700294</ele>
        <time>2022-05-26T08:22:36.243Z</time>
      </trkpt>
      <trkpt lat="42.01716" lon="19.44766">
        <ele>62.952896</ele>
        <time>2022-05-26T08:22:40.256Z</time>
      </trkpt>
      <trkpt lat="42.01718" lon="19.44754">
        <ele>63.1807</ele>
        <time>2022-05-26T08:22:44.230Z</time>
      </trkpt>
      <trkpt lat="42.01719" lon="19.44742">
        <ele>63.399427</ele>
        <time>2022-05-26T08:22:48.249Z</time>
      </trkpt>
      <trkpt lat="42.0172" lon="19.4473">
        <ele>63.55112</ele>
        <time>2022-05-26T08:22:52.241Z</time>
      </trkpt>
      <trkpt lat="42.0172" lon="19.44717">
        <ele>63.537399</ele>
        <time>2022-05-26T08:22:56.248Z</time>
      </trkpt>
      <trkpt lat="42.01719" lon="19.44702">
        <ele>63.521773</ele>
        <time>2022-05-26T08:23:01.246Z</time>
      </trkpt>
      <trkpt lat="42.01716" lon="19.44689">
        <ele>63.507327</ele>
        <time>2022-05-26T08:23:06.236Z</time>
      </trkpt>
      <trkpt lat="42.01709" lon="19.44677">
        <ele>63.49199</ele>
        <time>2022-05-26T08:23:10.220Z</time>
      </trkpt>
      <trkpt lat="42.01701" lon="19.44669">
        <ele>63.476592</ele>
        <time>2022-05-26T08:23:14.226Z</time>
      </trkpt>
      <trkpt lat="42.01693" lon="19.44663">
        <ele>63.463705</ele>
        <time>2022-05-26T08:23:17.246Z</time>
      </trkpt>
      <trkpt lat="42.01684" lon="19.44657">
        <ele>63.449529</ele>
        <time>2022-05-26T08:23:20.267Z</time>
      </trkpt>
      <trkpt lat="42.01674" lon="19.44651">
        <ele>63.434967</ele>
        <time>2022-05-26T08:23:23.244Z</time>
      </trkpt>
      <trkpt lat="42.01664" lon="19.44644">
        <ele>63.418981</ele>
        <time>2022-05-26T08:23:26.231Z</time>
      </trkpt>
      <trkpt lat="42.01657" lon="19.44633">
        <ele>63.403083</ele>
        <time>2022-05-26T08:23:29.242Z</time>
      </trkpt>
      <trkpt lat="42.01651" lon="19.4462">
        <ele>63.387097</ele>
        <time>2022-05-26T08:23:32.234Z</time>
      </trkpt>
      <trkpt lat="42.0165" lon="19.44604">
        <ele>63.370347</ele>
        <time>2022-05-26T08:23:35.297Z</time>
      </trkpt>
      <trkpt lat="42.01651" lon="19.44586">
        <ele>63.351238</ele>
        <time>2022-05-26T08:23:38.253Z</time>
      </trkpt>
      <trkpt lat="42.01651" lon="19.44573">
        <ele>63.33783</ele>
        <time>2022-05-26T08:23:40.244Z</time>
      </trkpt>
      <trkpt lat="42.01651" lon="19.44559">
        <ele>63.323369</ele>
        <time>2022-05-26T08:23:42.234Z</time>
      </trkpt>
      <trkpt lat="42.01651" lon="19.44545">
        <ele>63.307852</ele>
        <time>2022-05-26T08:23:44.236Z</time>
      </trkpt>
      <trkpt lat="42.01651" lon="19.44529">
        <ele>63.145964</ele>
        <time>2022-05-26T08:23:46.219Z</time>
      </trkpt>
      <trkpt lat="42.01651" lon="19.44513">
        <ele>62.834337</ele>
        <time>2022-05-26T08:23:48.240Z</time>
      </trkpt>
      <trkpt lat="42.01651" lon="19.44496">
        <ele>62.514932</ele>
        <time>2022-05-26T08:23:50.248Z</time>
      </trkpt>
      <trkpt lat="42.01651" lon="19.4448">
        <ele>62.197463</ele>
        <time>2022-05-26T08:23:52.245Z</time>
      </trkpt>
      <trkpt lat="42.0165" lon="19.44464">
        <ele>61.885671</ele>
        <time>2022-05-26T08:23:54.223Z</time>
      </trkpt>
      <trkpt lat="42.01649" lon="19.44448">
        <ele>61.576603</ele>
        <time>2022-05-26T08:23:56.238Z</time>
      </trkpt>
      <trkpt lat="42.01647" lon="19.44432">
        <ele>61.263031</ele>
        <time>2022-05-26T08:23:58.268Z</time>
      </trkpt>
      <trkpt lat="42.01644" lon="19.44417">
        <ele>60.954251</ele>
        <time>2022-05-26T08:24:00.221Z</time>
      </trkpt>
      <trkpt lat="42.01641" lon="19.44402">
        <ele>60.651142</ele>
        <time>2022-05-26T08:24:02.228Z</time>
      </trkpt>
      <trkpt lat="42.01638" lon="19.44387">
        <ele>60.358687</ele>
        <time>2022-05-26T08:24:04.236Z</time>
      </trkpt>
      <trkpt lat="42.01635" lon="19.44373">
        <ele>60.064825</ele>
        <time>2022-05-26T08:24:06.245Z</time>
      </trkpt>
      <trkpt lat="42.01633" lon="19.4436">
        <ele>59.796977</ele>
        <time>2022-05-26T08:24:08.238Z</time>
      </trkpt>
      <trkpt lat="42.0163" lon="19.44347">
        <ele>59.54229</ele>
        <time>2022-05-26T08:24:10.257Z</time>
      </trkpt>
      <trkpt lat="42.01628" lon="19.44335">
        <ele>59.305972</ele>
        <time>2022-05-26T08:24:12.232Z</time>
      </trkpt>
      <trkpt lat="42.01625" lon="19.44318">
        <ele>58.959994</ele>
        <time>2022-05-26T08:24:15.236Z</time>
      </trkpt>
      <trkpt lat="42.01621" lon="19.44301">
        <ele>58.621554</ele>
        <time>2022-05-26T08:24:18.244Z</time>
      </trkpt>
      <trkpt lat="42.01618" lon="19.44284">
        <ele>58.50162</ele>
        <time>2022-05-26T08:24:21.230Z</time>
      </trkpt>
      <trkpt lat="42.01615" lon="19.44266">
        <ele>58.403375</ele>
        <time>2022-05-26T08:24:24.231Z</time>
      </trkpt>
      <trkpt lat="42.01612" lon="19.44253">
        <ele>58.332109</ele>
        <time>2022-05-26T08:24:26.244Z</time>
      </trkpt>
      <trkpt lat="42.01609" lon="19.4424">
        <ele>58.25625</ele>
        <time>2022-05-26T08:24:28.237Z</time>
      </trkpt>
      <trkpt lat="42.01605" lon="19.44227">
        <ele>58.179803</ele>
        <time>2022-05-26T08:24:30.241Z</time>
      </trkpt>
      <trkpt lat="42.01599" lon="19.44214">
        <ele>58.099327</ele>
        <time>2022-05-26T08:24:32.246Z</time>
      </trkpt>
      <trkpt lat="42.01593" lon="19.442">
        <ele>58.01814</ele>
        <time>2022-05-26T08:24:34.242Z</time>
      </trkpt>
      <trkpt lat="42.01588" lon="19.44187">
        <ele>57.939052</ele>
        <time>2022-05-26T08:24:36.248Z</time>
      </trkpt>
      <trkpt lat="42.01582" lon="19.44174">
        <ele>57.856765</ele>
        <time>2022-05-26T08:24:38.237Z</time>
      </trkpt>
      <trkpt lat="42.01575" lon="19.4416">
        <ele>57.767622</ele>
        <time>2022-05-26T08:24:40.250Z</time>
      </trkpt>
      <trkpt lat="42.01569" lon="19.44146">
        <ele>57.681567</ele>
        <time>2022-05-26T08:24:42.266Z</time>
      </trkpt>
      <trkpt lat="42.01563" lon="19.44132">
        <ele>57.595355</ele>
        <time>2022-05-26T08:24:44.243Z</time>
      </trkpt>
      <trkpt lat="42.01557" lon="19.44119">
        <ele>57.511247</ele>
        <time>2022-05-26T08:24:46.239Z</time>
      </trkpt>
      <trkpt lat="42.01551" lon="19.44106">
        <ele>57.431217</ele>
        <time>2022-05-26T08:24:48.234Z</time>
      </trkpt>
      <trkpt lat="42.01545" lon="19.44094">
        <ele>57.354685</ele>
        <time>2022-05-26T08:24:50.232Z</time>
      </trkpt>
      <trkpt lat="42.0154" lon="19.44081">
        <ele>57.31619</ele>
        <time>2022-05-26T08:24:52.243Z</time>
      </trkpt>
      <trkpt lat="42.01536" lon="19.44068">
        <ele>57.394334</ele>
        <time>2022-05-26T08:24:54.245Z</time>
      </trkpt>
      <trkpt lat="42.01533" lon="19.44055">
        <ele>57.471643</ele>
        <time>2022-05-26T08:24:56.236Z</time>
      </trkpt>
      <trkpt lat="42.01533" lon="19.44041">
        <ele>57.547308</ele>
        <time>2022-05-26T08:24:58.247Z</time>
      </trkpt>
      <trkpt lat="42.01535" lon="19.44028">
        <ele>57.623501</ele>
        <time>2022-05-26T08:25:00.252Z</time>
      </trkpt>
      <trkpt lat="42.0154" lon="19.44016">
        <ele>57.698002</ele>
        <time>2022-05-26T08:25:02.247Z</time>
      </trkpt>
      <trkpt lat="42.01545" lon="19.44004">
        <ele>57.771629</ele>
        <time>2022-05-26T08:25:04.225Z</time>
      </trkpt>
      <trkpt lat="42.01549" lon="19.43994">
        <ele>57.840663</ele>
        <time>2022-05-26T08:25:06.240Z</time>
      </trkpt>
      <trkpt lat="42.01555" lon="19.43979">
        <ele>57.93551</ele>
        <time>2022-05-26T08:25:09.235Z</time>
      </trkpt>
      <trkpt lat="42.0156" lon="19.43963">
        <ele>58.029357</ele>
        <time>2022-05-26T08:25:12.254Z</time>
      </trkpt>
      <trkpt lat="42.01563" lon="19.43952">
        <ele>58.097049</ele>
        <time>2022-05-26T08:25:14.242Z</time>
      </trkpt>
      <trkpt lat="42.01566" lon="19.43939">
        <ele>58.168943</ele>
        <time>2022-05-26T08:25:16.269Z</time>
      </trkpt>
      <trkpt lat="42.01568" lon="19.43926">
        <ele>58.246787</ele>
        <time>2022-05-26T08:25:18.228Z</time>
      </trkpt>
      <trkpt lat="42.0157" lon="19.4391">
        <ele>58.332391</ele>
        <time>2022-05-26T08:25:20.240Z</time>
      </trkpt>
      <trkpt lat="42.0157" lon="19.43895">
        <ele>58.416861</ele>
        <time>2022-05-26T08:25:22.269Z</time>
      </trkpt>
      <trkpt lat="42.01568" lon="19.43879">
        <ele>58.506186</ele>
        <time>2022-05-26T08:25:24.242Z</time>
      </trkpt>
      <trkpt lat="42.01564" lon="19.43864">
        <ele>58.597363</ele>
        <time>2022-05-26T08:25:26.234Z</time>
      </trkpt>
      <trkpt lat="42.0156" lon="19.43849">
        <ele>58.570965</ele>
        <time>2022-05-26T08:25:28.269Z</time>
      </trkpt>
      <trkpt lat="42.01555" lon="19.43834">
        <ele>58.429859</ele>
        <time>2022-05-26T08:25:30.235Z</time>
      </trkpt>
      <trkpt lat="42.01552" lon="19.43818">
        <ele>58.289036</ele>
        <time>2022-05-26T08:25:32.250Z</time>
      </trkpt>
      <trkpt lat="42.01549" lon="19.43803">
        <ele>58.153226</ele>
        <time>2022-05-26T08:25:34.240Z</time>
      </trkpt>
      <trkpt lat="42.01546" lon="19.43788">
        <ele>58.012917</ele>
        <time>2022-05-26T08:25:36.243Z</time>
      </trkpt>
      <trkpt lat="42.01544" lon="19.43772">
        <ele>57.871932</ele>
        <time>2022-05-26T08:25:38.236Z</time>
      </trkpt>
      <trkpt lat="42.01543" lon="19.43755">
        <ele>57.72944</ele>
        <time>2022-05-26T08:25:40.233Z</time>
      </trkpt>
      <trkpt lat="42.01543" lon="19.4374">
        <ele>57.592472</ele>
        <time>2022-05-26T08:25:42.243Z</time>
      </trkpt>
      <trkpt lat="42.01544" lon="19.43724">
        <ele>57.456653</ele>
        <time>2022-05-26T08:25:44.242Z</time>
      </trkpt>
      <trkpt lat="42.01546" lon="19.43709">
        <ele>57.321342</ele>
        <time>2022-05-26T08:25:46.228Z</time>
      </trkpt>
      <trkpt lat="42.01548" lon="19.43694">
        <ele>57.189911</ele>
        <time>2022-05-26T08:25:48.239Z</time>
      </trkpt>
      <trkpt lat="42.0155" lon="19.43679">
        <ele>57.058041</ele>
        <time>2022-05-26T08:25:50.261Z</time>
      </trkpt>
      <trkpt lat="42.01553" lon="19.43665">
        <ele>56.928199</ele>
        <time>2022-05-26T08:25:52.245Z</time>
      </trkpt>
      <trkpt lat="42.01555" lon="19.4365">
        <ele>56.798015</ele>
        <time>2022-05-26T08:25:54.241Z</time>
      </trkpt>
      <trkpt lat="42.01557" lon="19.43636">
        <ele>56.672554</ele>
        <time>2022-05-26T08:25:56.243Z</time>
      </trkpt>
      <trkpt lat="42.01558" lon="19.43622">
        <ele>56.550034</ele>
        <time>2022-05-26T08:25:58.250Z</time>
      </trkpt>
      <trkpt lat="42.0156" lon="19.43609">
        <ele>56.445574</ele>
        <time>2022-05-26T08:26:00.235Z</time>
      </trkpt>
      <trkpt lat="42.0156" lon="19.43595">
        <ele>56.343159</ele>
        <time>2022-05-26T08:26:02.237Z</time>
      </trkpt>
      <trkpt lat="42.0156" lon="19.43582">
        <ele>56.244469</ele>
        <time>2022-05-26T08:26:04.236Z</time>
      </trkpt>
      <trkpt lat="42.01557" lon="19.4357">
        <ele>56.148846</ele>
        <time>2022-05-26T08:26:06.239Z</time>
      </trkpt>
      <trkpt lat="42.01554" lon="19.43557">
        <ele>56.047452</ele>
        <time>2022-05-26T08:26:08.224Z</time>
      </trkpt>
      <trkpt lat="42.01551" lon="19.43544">
        <ele>55.941702</ele>
        <time>2022-05-26T08:26:10.243Z</time>
      </trkpt>
      <trkpt lat="42.01548" lon="19.4353">
        <ele>55.833611</ele>
        <time>2022-05-26T08:26:12.261Z</time>
      </trkpt>
      <trkpt lat="42.01545" lon="19.43516">
        <ele>55.721025</ele>
        <time>2022-05-26T08:26:14.243Z</time>
      </trkpt>
      <trkpt lat="42.01543" lon="19.43502">
        <ele>55.608978</ele>
        <time>2022-05-26T08:26:16.219Z</time>
      </trkpt>
      <trkpt lat="42.0154" lon="19.43486">
        <ele>55.490156</ele>
        <time>2022-05-26T08:26:18.239Z</time>
      </trkpt>
      <trkpt lat="42.01539" lon="19.4347">
        <ele>55.368839</ele>
        <time>2022-05-26T08:26:20.237Z</time>
      </trkpt>
      <trkpt lat="42.01538" lon="19.43454">
        <ele>55.24431</ele>
        <time>2022-05-26T08:26:22.252Z</time>
      </trkpt>
      <trkpt lat="42.01537" lon="19.43437">
        <ele>55.117443</ele>
        <time>2022-05-26T08:26:24.221Z</time>
      </trkpt>
      <trkpt lat="42.01536" lon="19.43421">
        <ele>54.991253</ele>
        <time>2022-05-26T08:26:26.237Z</time>
      </trkpt>
      <trkpt lat="42.01535" lon="19.43404">
        <ele>54.865636</ele>
        <time>2022-05-26T08:26:28.259Z</time>
      </trkpt>
      <trkpt lat="42.01534" lon="19.43387">
        <ele>54.735586</ele>
        <time>2022-05-26T08:26:30.257Z</time>
      </trkpt>
      <trkpt lat="42.01533" lon="19.4337">
        <ele>54.565798</ele>
        <time>2022-05-26T08:26:32.241Z</time>
      </trkpt>
      <trkpt lat="42.01531" lon="19.43354">
        <ele>54.383217</ele>
        <time>2022-05-26T08:26:34.272Z</time>
      </trkpt>
      <trkpt lat="42.0153" lon="19.43338">
        <ele>54.203575</ele>
        <time>2022-05-26T08:26:36.212Z</time>
      </trkpt>
      <trkpt lat="42.01528" lon="19.43321">
        <ele>54.018418</ele>
        <time>2022-05-26T08:26:38.226Z</time>
      </trkpt>
      <trkpt lat="42.01527" lon="19.43304">
        <ele>53.833677</ele>
        <time>2022-05-26T08:26:40.250Z</time>
      </trkpt>
      <trkpt lat="42.01526" lon="19.43288">
        <ele>53.653358</ele>
        <time>2022-05-26T08:26:42.235Z</time>
      </trkpt>
      <trkpt lat="42.01525" lon="19.43273">
        <ele>53.479229</ele>
        <time>2022-05-26T08:26:44.236Z</time>
      </trkpt>
      <trkpt lat="42.01524" lon="19.43257">
        <ele>53.299885</ele>
        <time>2022-05-26T08:26:46.257Z</time>
      </trkpt>
      <trkpt lat="42.01523" lon="19.4324">
        <ele>53.120075</ele>
        <time>2022-05-26T08:26:48.225Z</time>
      </trkpt>
      <trkpt lat="42.01521" lon="19.43225">
        <ele>52.942764</ele>
        <time>2022-05-26T08:26:50.219Z</time>
      </trkpt>
      <trkpt lat="42.01519" lon="19.43209">
        <ele>52.76303</ele>
        <time>2022-05-26T08:26:52.240Z</time>
      </trkpt>
      <trkpt lat="42.01517" lon="19.43193">
        <ele>52.589351</ele>
        <time>2022-05-26T08:26:54.257Z</time>
      </trkpt>
      <trkpt lat="42.01515" lon="19.43178">
        <ele>52.41665</ele>
        <time>2022-05-26T08:26:56.286Z</time>
      </trkpt>
      <trkpt lat="42.01513" lon="19.43163">
        <ele>52.249199</ele>
        <time>2022-05-26T08:26:58.241Z</time>
      </trkpt>
      <trkpt lat="42.01511" lon="19.43148">
        <ele>52.078511</ele>
        <time>2022-05-26T08:27:00.247Z</time>
      </trkpt>
      <trkpt lat="42.0151" lon="19.43133">
        <ele>52.090112</ele>
        <time>2022-05-26T08:27:02.269Z</time>
      </trkpt>
      <trkpt lat="42.01508" lon="19.43118">
        <ele>52.224207</ele>
        <time>2022-05-26T08:27:04.224Z</time>
      </trkpt>
      <trkpt lat="42.01506" lon="19.43103">
        <ele>52.360013</ele>
        <time>2022-05-26T08:27:06.245Z</time>
      </trkpt>
      <trkpt lat="42.01505" lon="19.43088">
        <ele>52.497727</ele>
        <time>2022-05-26T08:27:08.272Z</time>
      </trkpt>
      <trkpt lat="42.01505" lon="19.43073">
        <ele>52.635017</ele>
        <time>2022-05-26T08:27:10.209Z</time>
      </trkpt>
      <trkpt lat="42.01507" lon="19.43057">
        <ele>52.774382</ele>
        <time>2022-05-26T08:27:12.240Z</time>
      </trkpt>
      <trkpt lat="42.0151" lon="19.43043">
        <ele>52.905317</ele>
        <time>2022-05-26T08:27:14.231Z</time>
      </trkpt>
      <trkpt lat="42.01512" lon="19.43029">
        <ele>53.035112</ele>
        <time>2022-05-26T08:27:16.236Z</time>
      </trkpt>
      <trkpt lat="42.01515" lon="19.43015">
        <ele>53.163267</ele>
        <time>2022-05-26T08:27:18.259Z</time>
      </trkpt>
      <trkpt lat="42.01517" lon="19.43001">
        <ele>53.291011</ele>
        <time>2022-05-26T08:27:20.263Z</time>
      </trkpt>
      <trkpt lat="42.0152" lon="19.42988">
        <ele>53.412948</ele>
        <time>2022-05-26T08:27:22.233Z</time>
      </trkpt>
      <trkpt lat="42.01522" lon="19.42975">
        <ele>53.531112</ele>
        <time>2022-05-26T08:27:24.243Z</time>
      </trkpt>
      <trkpt lat="42.01524" lon="19.42963">
        <ele>53.649866</ele>
        <time>2022-05-26T08:27:26.236Z</time>
      </trkpt>
      <trkpt lat="42.01526" lon="19.4295">
        <ele>53.762844</ele>
        <time>2022-05-26T08:27:28.234Z</time>
      </trkpt>
      <trkpt lat="42.01529" lon="19.42938">
        <ele>53.875782</ele>
        <time>2022-05-26T08:27:30.219Z</time>
      </trkpt>
      <trkpt lat="42.01531" lon="19.42926">
        <ele>53.984376</ele>
        <time>2022-05-26T08:27:32.248Z</time>
      </trkpt>
      <trkpt lat="42.01535" lon="19.42909">
        <ele>54.146093</ele>
        <time>2022-05-26T08:27:35.232Z</time>
      </trkpt>
      <trkpt lat="42.0154" lon="19.42894">
        <ele>54.142915</ele>
        <time>2022-05-26T08:27:38.247Z</time>
      </trkpt>
      <trkpt lat="42.01546" lon="19.4288">
        <ele>54.093523</ele>
        <time>2022-05-26T08:27:41.237Z</time>
      </trkpt>
      <trkpt lat="42.01553" lon="19.42865">
        <ele>54.042032</ele>
        <time>2022-05-26T08:27:44.254Z</time>
      </trkpt>
      <trkpt lat="42.0156" lon="19.42851">
        <ele>53.990141</ele>
        <time>2022-05-26T08:27:47.236Z</time>
      </trkpt>
      <trkpt lat="42.01564" lon="19.42841">
        <ele>53.952835</ele>
        <time>2022-05-26T08:27:49.235Z</time>
      </trkpt>
      <trkpt lat="42.01569" lon="19.42829">
        <ele>53.913223</ele>
        <time>2022-05-26T08:27:51.279Z</time>
      </trkpt>
      <trkpt lat="42.01573" lon="19.42817">
        <ele>53.872919</ele>
        <time>2022-05-26T08:27:53.235Z</time>
      </trkpt>
      <trkpt lat="42.01577" lon="19.42804">
        <ele>53.831411</ele>
        <time>2022-05-26T08:27:55.243Z</time>
      </trkpt>
      <trkpt lat="42.01578" lon="19.42789">
        <ele>53.785038</ele>
        <time>2022-05-26T08:27:57.281Z</time>
      </trkpt>
      <trkpt lat="42.01574" lon="19.42775">
        <ele>53.740214</ele>
        <time>2022-05-26T08:27:59.240Z</time>
      </trkpt>
      <trkpt lat="42.01568" lon="19.42762">
        <ele>53.692431</ele>
        <time>2022-05-26T08:28:01.234Z</time>
      </trkpt>
      <trkpt lat="42.0156" lon="19.42749">
        <ele>53.641725</ele>
        <time>2022-05-26T08:28:03.272Z</time>
      </trkpt>
      <trkpt lat="42.01551" lon="19.42738">
        <ele>53.591399</ele>
        <time>2022-05-26T08:28:05.246Z</time>
      </trkpt>
      <trkpt lat="42.01541" lon="19.42727">
        <ele>53.539757</ele>
        <time>2022-05-26T08:28:07.232Z</time>
      </trkpt>
      <trkpt lat="42.01532" lon="19.42717">
        <ele>53.49151</ele>
        <time>2022-05-26T08:28:09.241Z</time>
      </trkpt>
      <trkpt lat="42.01523" lon="19.42707">
        <ele>53.444919</ele>
        <time>2022-05-26T08:28:11.232Z</time>
      </trkpt>
      <trkpt lat="42.01515" lon="19.42698">
        <ele>53.322735</ele>
        <time>2022-05-26T08:28:13.235Z</time>
      </trkpt>
      <trkpt lat="42.01507" lon="19.42688">
        <ele>53.200009</ele>
        <time>2022-05-26T08:28:15.239Z</time>
      </trkpt>
      <trkpt lat="42.01498" lon="19.42679">
        <ele>53.075242</ele>
        <time>2022-05-26T08:28:17.219Z</time>
      </trkpt>
      <trkpt lat="42.0149" lon="19.4267">
        <ele>52.95396</ele>
        <time>2022-05-26T08:28:19.262Z</time>
      </trkpt>
      <trkpt lat="42.01481" lon="19.42661">
        <ele>52.834432</ele>
        <time>2022-05-26T08:28:21.238Z</time>
      </trkpt>
      <trkpt lat="42.01473" lon="19.42651">
        <ele>52.713851</ele>
        <time>2022-05-26T08:28:23.229Z</time>
      </trkpt>
      <trkpt lat="42.01465" lon="19.42642">
        <ele>52.588554</ele>
        <time>2022-05-26T08:28:25.278Z</time>
      </trkpt>
      <trkpt lat="42.01456" lon="19.42632">
        <ele>52.464434</ele>
        <time>2022-05-26T08:28:27.235Z</time>
      </trkpt>
      <trkpt lat="42.01447" lon="19.42623">
        <ele>52.33653</ele>
        <time>2022-05-26T08:28:29.237Z</time>
      </trkpt>
      <trkpt lat="42.01439" lon="19.42613">
        <ele>52.211937</ele>
        <time>2022-05-26T08:28:31.243Z</time>
      </trkpt>
      <trkpt lat="42.0143" lon="19.42604">
        <ele>52.087344</ele>
        <time>2022-05-26T08:28:33.236Z</time>
      </trkpt>
      <trkpt lat="42.01421" lon="19.42595">
        <ele>51.963973</ele>
        <time>2022-05-26T08:28:35.236Z</time>
      </trkpt>
      <trkpt lat="42.01412" lon="19.42585">
        <ele>51.836068</ele>
        <time>2022-05-26T08:28:37.231Z</time>
      </trkpt>
      <trkpt lat="42.01403" lon="19.42576">
        <ele>51.708314</ele>
        <time>2022-05-26T08:28:39.235Z</time>
      </trkpt>
      <trkpt lat="42.01395" lon="19.42566">
        <ele>51.583721</ele>
        <time>2022-05-26T08:28:41.235Z</time>
      </trkpt>
      <trkpt lat="42.01386" lon="19.42557">
        <ele>51.457212</ele>
        <time>2022-05-26T08:28:43.237Z</time>
      </trkpt>
      <trkpt lat="42.01378" lon="19.42548">
        <ele>51.470485</ele>
        <time>2022-05-26T08:28:45.234Z</time>
      </trkpt>
      <trkpt lat="42.0137" lon="19.4254">
        <ele>51.524115</ele>
        <time>2022-05-26T08:28:47.261Z</time>
      </trkpt>
      <trkpt lat="42.01361" lon="19.42531">
        <ele>51.583818</ele>
        <time>2022-05-26T08:28:49.242Z</time>
      </trkpt>
      <trkpt lat="42.01353" lon="19.42522">
        <ele>51.642788</ele>
        <time>2022-05-26T08:28:51.243Z</time>
      </trkpt>
      <trkpt lat="42.01344" lon="19.42514">
        <ele>51.702364</ele>
        <time>2022-05-26T08:28:53.273Z</time>
      </trkpt>
      <trkpt lat="42.01336" lon="19.42504">
        <ele>51.75897</ele>
        <time>2022-05-26T08:28:55.236Z</time>
      </trkpt>
      <trkpt lat="42.01328" lon="19.42496">
        <ele>51.8114</ele>
        <time>2022-05-26T08:28:57.246Z</time>
      </trkpt>
      <trkpt lat="42.01321" lon="19.42487">
        <ele>51.86505</ele>
        <time>2022-05-26T08:28:59.244Z</time>
      </trkpt>
      <trkpt lat="42.01313" lon="19.42478">
        <ele>51.922067</ele>
        <time>2022-05-26T08:29:01.226Z</time>
      </trkpt>
      <trkpt lat="42.01304" lon="19.42468">
        <ele>51.981935</ele>
        <time>2022-05-26T08:29:03.235Z</time>
      </trkpt>
      <trkpt lat="42.01296" lon="19.42459">
        <ele>52.041128</ele>
        <time>2022-05-26T08:29:05.233Z</time>
      </trkpt>
      <trkpt lat="42.01288" lon="19.4245">
        <ele>52.097211</ele>
        <time>2022-05-26T08:29:07.259Z</time>
      </trkpt>
      <trkpt lat="42.0128" lon="19.42443">
        <ele>52.150301</ele>
        <time>2022-05-26T08:29:09.233Z</time>
      </trkpt>
      <trkpt lat="42.01273" lon="19.42434">
        <ele>52.201929</ele>
        <time>2022-05-26T08:29:11.239Z</time>
      </trkpt>
      <trkpt lat="42.01265" lon="19.42425">
        <ele>52.255057</ele>
        <time>2022-05-26T08:29:13.244Z</time>
      </trkpt>
      <trkpt lat="42.01258" lon="19.42417">
        <ele>52.307253</ele>
        <time>2022-05-26T08:29:15.275Z</time>
      </trkpt>
      <trkpt lat="42.01251" lon="19.42409">
        <ele>52.35807</ele>
        <time>2022-05-26T08:29:17.243Z</time>
      </trkpt>
      <trkpt lat="42.01244" lon="19.424">
        <ele>52.408992</ele>
        <time>2022-05-26T08:29:19.239Z</time>
      </trkpt>
      <trkpt lat="42.01237" lon="19.42391">
        <ele>52.45249</ele>
        <time>2022-05-26T08:29:21.235Z</time>
      </trkpt>
      <trkpt lat="42.01229" lon="19.42383">
        <ele>52.496769</ele>
        <time>2022-05-26T08:29:23.218Z</time>
      </trkpt>
      <trkpt lat="42.01222" lon="19.42374">
        <ele>52.540603</ele>
        <time>2022-05-26T08:29:25.244Z</time>
      </trkpt>
      <trkpt lat="42.01215" lon="19.42365">
        <ele>52.584101</ele>
        <time>2022-05-26T08:29:27.232Z</time>
      </trkpt>
      <trkpt lat="42.01207" lon="19.42357">
        <ele>52.628053</ele>
        <time>2022-05-26T08:29:29.257Z</time>
      </trkpt>
      <trkpt lat="42.012" lon="19.42348">
        <ele>52.671107</ele>
        <time>2022-05-26T08:29:31.232Z</time>
      </trkpt>
      <trkpt lat="42.01193" lon="19.42339">
        <ele>52.713715</ele>
        <time>2022-05-26T08:29:33.230Z</time>
      </trkpt>
      <trkpt lat="42.01186" lon="19.42331">
        <ele>52.75655</ele>
        <time>2022-05-26T08:29:35.228Z</time>
      </trkpt>
      <trkpt lat="42.01179" lon="19.42323">
        <ele>52.799944</ele>
        <time>2022-05-26T08:29:37.238Z</time>
      </trkpt>
      <trkpt lat="42.01172" lon="19.42314">
        <ele>52.84244</ele>
        <time>2022-05-26T08:29:39.317Z</time>
      </trkpt>
      <trkpt lat="42.01165" lon="19.42306">
        <ele>52.884823</ele>
        <time>2022-05-26T08:29:41.256Z</time>
      </trkpt>
      <trkpt lat="42.01158" lon="19.42297">
        <ele>52.928214</ele>
        <time>2022-05-26T08:29:43.241Z</time>
      </trkpt>
      <trkpt lat="42.0115" lon="19.42287">
        <ele>52.974615</ele>
        <time>2022-05-26T08:29:45.237Z</time>
      </trkpt>
      <trkpt lat="42.01142" lon="19.42278">
        <ele>53.021243</ele>
        <time>2022-05-26T08:29:47.221Z</time>
      </trkpt>
      <trkpt lat="42.01134" lon="19.42268">
        <ele>53.069204</ele>
        <time>2022-05-26T08:29:49.242Z</time>
      </trkpt>
      <trkpt lat="42.01126" lon="19.42259">
        <ele>53.11862</ele>
        <time>2022-05-26T08:29:51.239Z</time>
      </trkpt>
      <trkpt lat="42.01119" lon="19.4225">
        <ele>53.162234</ele>
        <time>2022-05-26T08:29:53.234Z</time>
      </trkpt>
      <trkpt lat="42.01112" lon="19.42241">
        <ele>53.206636</ele>
        <time>2022-05-26T08:29:55.240Z</time>
      </trkpt>
      <trkpt lat="42.01104" lon="19.42232">
        <ele>53.276465</ele>
        <time>2022-05-26T08:29:57.323Z</time>
      </trkpt>
      <trkpt lat="42.01097" lon="19.42224">
        <ele>53.34656</ele>
        <time>2022-05-26T08:29:59.244Z</time>
      </trkpt>
      <trkpt lat="42.01089" lon="19.42216">
        <ele>53.418802</ele>
        <time>2022-05-26T08:30:01.237Z</time>
      </trkpt>
      <trkpt lat="42.01082" lon="19.42207">
        <ele>53.491442</ele>
        <time>2022-05-26T08:30:03.223Z</time>
      </trkpt>
      <trkpt lat="42.01075" lon="19.42198">
        <ele>53.56405</ele>
        <time>2022-05-26T08:30:05.280Z</time>
      </trkpt>
      <trkpt lat="42.01068" lon="19.42189">
        <ele>53.631729</ele>
        <time>2022-05-26T08:30:07.235Z</time>
      </trkpt>
      <trkpt lat="42.01059" lon="19.42177">
        <ele>53.729175</ele>
        <time>2022-05-26T08:30:10.239Z</time>
      </trkpt>
      <trkpt lat="42.01049" lon="19.42165">
        <ele>53.828831</ele>
        <time>2022-05-26T08:30:13.230Z</time>
      </trkpt>
      <trkpt lat="42.01043" lon="19.42155">
        <ele>53.89831</ele>
        <time>2022-05-26T08:30:15.236Z</time>
      </trkpt>
      <trkpt lat="42.01038" lon="19.42144">
        <ele>53.970208</ele>
        <time>2022-05-26T08:30:17.232Z</time>
      </trkpt>
      <trkpt lat="42.01035" lon="19.42131">
        <ele>54.043743</ele>
        <time>2022-05-26T08:30:19.242Z</time>
      </trkpt>
      <trkpt lat="42.01033" lon="19.42118">
        <ele>54.115367</ele>
        <time>2022-05-26T08:30:21.289Z</time>
      </trkpt>
      <trkpt lat="42.01032" lon="19.42106">
        <ele>54.184982</ele>
        <time>2022-05-26T08:30:23.229Z</time>
      </trkpt>
      <trkpt lat="42.01032" lon="19.42094">
        <ele>54.251108</ele>
        <time>2022-05-26T08:30:25.234Z</time>
      </trkpt>
      <trkpt lat="42.01031" lon="19.42077">
        <ele>54.343698</ele>
        <time>2022-05-26T08:30:28.239Z</time>
      </trkpt>
      <trkpt lat="42.01031" lon="19.4206">
        <ele>54.438936</ele>
        <time>2022-05-26T08:30:31.249Z</time>
      </trkpt>
      <trkpt lat="42.01031" lon="19.42043">
        <ele>54.532532</ele>
        <time>2022-05-26T08:30:34.241Z</time>
      </trkpt>
      <trkpt lat="42.01031" lon="19.42025">
        <ele>54.59941</ele>
        <time>2022-05-26T08:30:37.272Z</time>
      </trkpt>
      <trkpt lat="42.01031" lon="19.42008">
        <ele>54.661679</ele>
        <time>2022-05-26T08:30:40.228Z</time>
      </trkpt>
      <trkpt lat="42.01031" lon="19.41991">
        <ele>54.726527</ele>
        <time>2022-05-26T08:30:43.242Z</time>
      </trkpt>
      <trkpt lat="42.01032" lon="19.41978">
        <ele>54.773359</ele>
        <time>2022-05-26T08:30:45.231Z</time>
      </trkpt>
      <trkpt lat="42.01034" lon="19.41965">
        <ele>54.820451</ele>
        <time>2022-05-26T08:30:47.245Z</time>
      </trkpt>
      <trkpt lat="42.01036" lon="19.41953">
        <ele>54.867739</ele>
        <time>2022-05-26T08:30:49.241Z</time>
      </trkpt>
      <trkpt lat="42.01039" lon="19.4194">
        <ele>54.915507</ele>
        <time>2022-05-26T08:30:51.233Z</time>
      </trkpt>
      <trkpt lat="42.0104" lon="19.41928">
        <ele>54.961447</ele>
        <time>2022-05-26T08:30:53.226Z</time>
      </trkpt>
      <trkpt lat="42.01041" lon="19.41915">
        <ele>55.008643</ele>
        <time>2022-05-26T08:30:55.245Z</time>
      </trkpt>
      <trkpt lat="42.01042" lon="19.41902">
        <ele>55.056994</ele>
        <time>2022-05-26T08:30:57.227Z</time>
      </trkpt>
      <trkpt lat="42.01041" lon="19.41889">
        <ele>55.102993</ele>
        <time>2022-05-26T08:30:59.237Z</time>
      </trkpt>
      <trkpt lat="42.0104" lon="19.41877">
        <ele>55.150307</ele>
        <time>2022-05-26T08:31:01.236Z</time>
      </trkpt>
      <trkpt lat="42.0104" lon="19.41864">
        <ele>55.197945</ele>
        <time>2022-05-26T08:31:03.233Z</time>
      </trkpt>
      <trkpt lat="42.0104" lon="19.4185">
        <ele>55.246304</ele>
        <time>2022-05-26T08:31:05.266Z</time>
      </trkpt>
      <trkpt lat="42.01041" lon="19.41837">
        <ele>55.293761</ele>
        <time>2022-05-26T08:31:07.247Z</time>
      </trkpt>
      <trkpt lat="42.01043" lon="19.41825">
        <ele>55.339274</ele>
        <time>2022-05-26T08:31:09.230Z</time>
      </trkpt>
      <trkpt lat="42.01045" lon="19.41813">
        <ele>55.387286</ele>
        <time>2022-05-26T08:31:11.239Z</time>
      </trkpt>
      <trkpt lat="42.01047" lon="19.418">
        <ele>55.431883</ele>
        <time>2022-05-26T08:31:13.244Z</time>
      </trkpt>
      <trkpt lat="42.0105" lon="19.41787">
        <ele>55.441902</ele>
        <time>2022-05-26T08:31:15.243Z</time>
      </trkpt>
      <trkpt lat="42.01052" lon="19.41773">
        <ele>55.452169</ele>
        <time>2022-05-26T08:31:17.250Z</time>
      </trkpt>
      <trkpt lat="42.01054" lon="19.41759">
        <ele>55.462677</ele>
        <time>2022-05-26T08:31:19.232Z</time>
      </trkpt>
      <trkpt lat="42.01056" lon="19.41746">
        <ele>55.47309</ele>
        <time>2022-05-26T08:31:21.245Z</time>
      </trkpt>
      <trkpt lat="42.01058" lon="19.41733">
        <ele>55.483244</ele>
        <time>2022-05-26T08:31:23.226Z</time>
      </trkpt>
      <trkpt lat="42.0106" lon="19.41719">
        <ele>55.493435</ele>
        <time>2022-05-26T08:31:25.255Z</time>
      </trkpt>
      <trkpt lat="42.01061" lon="19.41706">
        <ele>55.50361</ele>
        <time>2022-05-26T08:31:27.223Z</time>
      </trkpt>
      <trkpt lat="42.01063" lon="19.41692">
        <ele>55.514171</ele>
        <time>2022-05-26T08:31:29.247Z</time>
      </trkpt>
      <trkpt lat="42.01065" lon="19.41679">
        <ele>55.524198</ele>
        <time>2022-05-26T08:31:31.241Z</time>
      </trkpt>
      <trkpt lat="42.01067" lon="19.41666">
        <ele>55.533857</ele>
        <time>2022-05-26T08:31:33.234Z</time>
      </trkpt>
      <trkpt lat="42.01069" lon="19.41654">
        <ele>55.543029</ele>
        <time>2022-05-26T08:31:35.252Z</time>
      </trkpt>
      <trkpt lat="42.01072" lon="19.41642">
        <ele>55.552716</ele>
        <time>2022-05-26T08:31:37.266Z</time>
      </trkpt>
      <trkpt lat="42.01074" lon="19.41629">
        <ele>55.562783</ele>
        <time>2022-05-26T08:31:39.256Z</time>
      </trkpt>
      <trkpt lat="42.01077" lon="19.41616">
        <ele>55.572744</ele>
        <time>2022-05-26T08:31:41.239Z</time>
      </trkpt>
      <trkpt lat="42.0108" lon="19.41603">
        <ele>55.582666</ele>
        <time>2022-05-26T08:31:43.222Z</time>
      </trkpt>
      <trkpt lat="42.01082" lon="19.41591">
        <ele>55.59242</ele>
        <time>2022-05-26T08:31:45.260Z</time>
      </trkpt>
      <trkpt lat="42.01085" lon="19.41578">
        <ele>55.602596</ele>
        <time>2022-05-26T08:31:47.231Z</time>
      </trkpt>
      <trkpt lat="42.01087" lon="19.41564">
        <ele>55.611442</ele>
        <time>2022-05-26T08:31:49.229Z</time>
      </trkpt>
      <trkpt lat="42.01088" lon="19.41551">
        <ele>55.595522</ele>
        <time>2022-05-26T08:31:51.284Z</time>
      </trkpt>
      <trkpt lat="42.0109" lon="19.41538">
        <ele>55.580249</ele>
        <time>2022-05-26T08:31:53.239Z</time>
      </trkpt>
      <trkpt lat="42.01092" lon="19.41525">
        <ele>55.565239</ele>
        <time>2022-05-26T08:31:55.231Z</time>
      </trkpt>
      <trkpt lat="42.01093" lon="19.41512">
        <ele>55.550585</ele>
        <time>2022-05-26T08:31:57.240Z</time>
      </trkpt>
      <trkpt lat="42.01095" lon="19.415">
        <ele>55.53621</ele>
        <time>2022-05-26T08:31:59.226Z</time>
      </trkpt>
      <trkpt lat="42.01097" lon="19.41487">
        <ele>55.521834</ele>
        <time>2022-05-26T08:32:01.248Z</time>
      </trkpt>
      <trkpt lat="42.01099" lon="19.41475">
        <ele>55.507281</ele>
        <time>2022-05-26T08:32:03.233Z</time>
      </trkpt>
      <trkpt lat="42.01101" lon="19.41463">
        <ele>55.492985</ele>
        <time>2022-05-26T08:32:05.228Z</time>
      </trkpt>
      <trkpt lat="42.01103" lon="19.41451">
        <ele>55.479006</ele>
        <time>2022-05-26T08:32:07.224Z</time>
      </trkpt>
      <trkpt lat="42.01105" lon="19.41439">
        <ele>55.464863</ele>
        <time>2022-05-26T08:32:09.239Z</time>
      </trkpt>
      <trkpt lat="42.01107" lon="19.41427">
        <ele>55.45079</ele>
        <time>2022-05-26T08:32:11.261Z</time>
      </trkpt>
      <trkpt lat="42.0111" lon="19.41409">
        <ele>55.43053</ele>
        <time>2022-05-26T08:32:14.236Z</time>
      </trkpt>
      <trkpt lat="42.01113" lon="19.41392">
        <ele>55.410536</ele>
        <time>2022-05-26T08:32:17.235Z</time>
      </trkpt>
      <trkpt lat="42.01116" lon="19.41376">
        <ele>55.390652</ele>
        <time>2022-05-26T08:32:20.233Z</time>
      </trkpt>
      <trkpt lat="42.01119" lon="19.41364">
        <ele>55.376432</ele>
        <time>2022-05-26T08:32:22.226Z</time>
      </trkpt>
      <trkpt lat="42.01121" lon="19.41352">
        <ele>55.362322</ele>
        <time>2022-05-26T08:32:24.272Z</time>
      </trkpt>
      <trkpt lat="42.01124" lon="19.4134">
        <ele>55.348281</ele>
        <time>2022-05-26T08:32:26.252Z</time>
      </trkpt>
      <trkpt lat="42.01126" lon="19.41328">
        <ele>55.327889</ele>
        <time>2022-05-26T08:32:28.240Z</time>
      </trkpt>
      <trkpt lat="42.01128" lon="19.41315">
        <ele>55.2362</ele>
        <time>2022-05-26T08:32:30.261Z</time>
      </trkpt>
      <trkpt lat="42.0113" lon="19.41303">
        <ele>55.143071</ele>
        <time>2022-05-26T08:32:32.245Z</time>
      </trkpt>
      <trkpt lat="42.01133" lon="19.4129">
        <ele>55.051148</ele>
        <time>2022-05-26T08:32:34.218Z</time>
      </trkpt>
      <trkpt lat="42.01135" lon="19.41277">
        <ele>54.957121</ele>
        <time>2022-05-26T08:32:36.221Z</time>
      </trkpt>
      <trkpt lat="42.01137" lon="19.41265">
        <ele>54.864272</ele>
        <time>2022-05-26T08:32:38.243Z</time>
      </trkpt>
      <trkpt lat="42.01139" lon="19.41252">
        <ele>54.770969</ele>
        <time>2022-05-26T08:32:40.251Z</time>
      </trkpt>
      <trkpt lat="42.01142" lon="19.41239">
        <ele>54.677331</ele>
        <time>2022-05-26T08:32:42.224Z</time>
      </trkpt>
      <trkpt lat="42.01146" lon="19.41226">
        <ele>54.576547</ele>
        <time>2022-05-26T08:32:44.241Z</time>
      </trkpt>
      <trkpt lat="42.0115" lon="19.41213">
        <ele>54.477745</ele>
        <time>2022-05-26T08:32:46.209Z</time>
      </trkpt>
      <trkpt lat="42.01153" lon="19.412">
        <ele>54.378627</ele>
        <time>2022-05-26T08:32:48.237Z</time>
      </trkpt>
      <trkpt lat="42.01157" lon="19.41187">
        <ele>54.281442</ele>
        <time>2022-05-26T08:32:50.250Z</time>
      </trkpt>
      <trkpt lat="42.01161" lon="19.41175">
        <ele>54.184316</ele>
        <time>2022-05-26T08:32:52.276Z</time>
      </trkpt>
      <trkpt lat="42.01165" lon="19.41162">
        <ele>54.089175</ele>
        <time>2022-05-26T08:32:54.233Z</time>
      </trkpt>
      <trkpt lat="42.01168" lon="19.4115">
        <ele>53.996012</ele>
        <time>2022-05-26T08:32:56.225Z</time>
      </trkpt>
      <trkpt lat="42.01172" lon="19.41137">
        <ele>53.891807</ele>
        <time>2022-05-26T08:32:58.273Z</time>
      </trkpt>
      <trkpt lat="42.01176" lon="19.41123">
        <ele>53.785352</ele>
        <time>2022-05-26T08:33:00.243Z</time>
      </trkpt>
      <trkpt lat="42.0118" lon="19.41109">
        <ele>53.678897</ele>
        <time>2022-05-26T08:33:02.225Z</time>
      </trkpt>
      <trkpt lat="42.01184" lon="19.41095">
        <ele>53.60428</ele>
        <time>2022-05-26T08:33:04.266Z</time>
      </trkpt>
      <trkpt lat="42.01187" lon="19.41082">
        <ele>53.583385</ele>
        <time>2022-05-26T08:33:06.237Z</time>
      </trkpt>
      <trkpt lat="42.0119" lon="19.41068">
        <ele>53.561533</ele>
        <time>2022-05-26T08:33:08.241Z</time>
      </trkpt>
      <trkpt lat="42.01193" lon="19.41054">
        <ele>53.538804</ele>
        <time>2022-05-26T08:33:10.273Z</time>
      </trkpt>
      <trkpt lat="42.01196" lon="19.4104">
        <ele>53.516165</ele>
        <time>2022-05-26T08:33:12.232Z</time>
      </trkpt>
      <trkpt lat="42.01199" lon="19.41026">
        <ele>53.494076</ele>
        <time>2022-05-26T08:33:14.241Z</time>
      </trkpt>
      <trkpt lat="42.01202" lon="19.41012">
        <ele>53.472719</ele>
        <time>2022-05-26T08:33:16.218Z</time>
      </trkpt>
      <trkpt lat="42.01204" lon="19.40999">
        <ele>53.451671</ele>
        <time>2022-05-26T08:33:18.222Z</time>
      </trkpt>
      <trkpt lat="42.01207" lon="19.40986">
        <ele>53.431128</ele>
        <time>2022-05-26T08:33:20.246Z</time>
      </trkpt>
      <trkpt lat="42.0121" lon="19.40973">
        <ele>53.411052</ele>
        <time>2022-05-26T08:33:22.233Z</time>
      </trkpt>
      <trkpt lat="42.01212" lon="19.40961">
        <ele>53.391481</ele>
        <time>2022-05-26T08:33:24.244Z</time>
      </trkpt>
      <trkpt lat="42.01215" lon="19.40948">
        <ele>53.372075</ele>
        <time>2022-05-26T08:33:26.232Z</time>
      </trkpt>
      <trkpt lat="42.01218" lon="19.40936">
        <ele>53.352173</ele>
        <time>2022-05-26T08:33:28.231Z</time>
      </trkpt>
      <trkpt lat="42.0122" lon="19.40923">
        <ele>53.332353</ele>
        <time>2022-05-26T08:33:30.260Z</time>
      </trkpt>
      <trkpt lat="42.01223" lon="19.4091">
        <ele>53.312016</ele>
        <time>2022-05-26T08:33:32.231Z</time>
      </trkpt>
      <trkpt lat="42.01226" lon="19.40897">
        <ele>53.29022</ele>
        <time>2022-05-26T08:33:34.235Z</time>
      </trkpt>
      <trkpt lat="42.01229" lon="19.40882">
        <ele>53.267377</ele>
        <time>2022-05-26T08:33:36.214Z</time>
      </trkpt>
      <trkpt lat="42.01232" lon="19.40868">
        <ele>53.245233</ele>
        <time>2022-05-26T08:33:38.234Z</time>
      </trkpt>
      <trkpt lat="42.01236" lon="19.40854">
        <ele>53.179596</ele>
        <time>2022-05-26T08:33:40.233Z</time>
      </trkpt>
      <trkpt lat="42.01239" lon="19.4084">
        <ele>53.109077</ele>
        <time>2022-05-26T08:33:42.245Z</time>
      </trkpt>
      <trkpt lat="42.01243" lon="19.40825">
        <ele>53.037285</ele>
        <time>2022-05-26T08:33:44.235Z</time>
      </trkpt>
      <trkpt lat="42.01246" lon="19.40811">
        <ele>52.967273</ele>
        <time>2022-05-26T08:33:46.252Z</time>
      </trkpt>
      <trkpt lat="42.0125" lon="19.40798">
        <ele>52.898783</ele>
        <time>2022-05-26T08:33:48.262Z</time>
      </trkpt>
      <trkpt lat="42.01255" lon="19.40785">
        <ele>52.831763</ele>
        <time>2022-05-26T08:33:50.238Z</time>
      </trkpt>
      <trkpt lat="42.01259" lon="19.40772">
        <ele>52.764948</ele>
        <time>2022-05-26T08:33:52.236Z</time>
      </trkpt>
      <trkpt lat="42.01264" lon="19.40759">
        <ele>52.699224</ele>
        <time>2022-05-26T08:33:54.264Z</time>
      </trkpt>
      <trkpt lat="42.01269" lon="19.40747">
        <ele>52.634216</ele>
        <time>2022-05-26T08:33:56.238Z</time>
      </trkpt>
      <trkpt lat="42.01275" lon="19.40736">
        <ele>52.570489</ele>
        <time>2022-05-26T08:33:58.232Z</time>
      </trkpt>
      <trkpt lat="42.0128" lon="19.40724">
        <ele>52.505964</ele>
        <time>2022-05-26T08:34:00.240Z</time>
      </trkpt>
      <trkpt lat="42.01285" lon="19.40712">
        <ele>52.440864</ele>
        <time>2022-05-26T08:34:02.242Z</time>
      </trkpt>
      <trkpt lat="42.0129" lon="19.407">
        <ele>52.37617</ele>
        <time>2022-05-26T08:34:04.239Z</time>
      </trkpt>
      <trkpt lat="42.01295" lon="19.40687">
        <ele>52.310749</ele>
        <time>2022-05-26T08:34:06.237Z</time>
      </trkpt>
      <trkpt lat="42.01299" lon="19.40675">
        <ele>52.247059</ele>
        <time>2022-05-26T08:34:08.243Z</time>
      </trkpt>
      <trkpt lat="42.01303" lon="19.40663">
        <ele>52.184574</ele>
        <time>2022-05-26T08:34:10.240Z</time>
      </trkpt>
      <trkpt lat="42.01308" lon="19.40652">
        <ele>52.123027</ele>
        <time>2022-05-26T08:34:12.250Z</time>
      </trkpt>
      <trkpt lat="42.01313" lon="19.4064">
        <ele>52.097543</ele>
        <time>2022-05-26T08:34:14.237Z</time>
      </trkpt>
      <trkpt lat="42.01317" lon="19.40629">
        <ele>52.081896</ele>
        <time>2022-05-26T08:34:16.270Z</time>
      </trkpt>
      <trkpt lat="42.01322" lon="19.40618">
        <ele>52.066549</ele>
        <time>2022-05-26T08:34:18.241Z</time>
      </trkpt>
      <trkpt lat="42.01326" lon="19.40607">
        <ele>52.050857</ele>
        <time>2022-05-26T08:34:20.223Z</time>
      </trkpt>
      <trkpt lat="42.0133" lon="19.40596">
        <ele>52.034863</ele>
        <time>2022-05-26T08:34:22.212Z</time>
      </trkpt>
      <trkpt lat="42.01335" lon="19.40585">
        <ele>52.019439</ele>
        <time>2022-05-26T08:34:24.237Z</time>
      </trkpt>
      <trkpt lat="42.01339" lon="19.40574">
        <ele>52.003303</ele>
        <time>2022-05-26T08:34:26.235Z</time>
      </trkpt>
      <trkpt lat="42.01343" lon="19.40562">
        <ele>51.987355</ele>
        <time>2022-05-26T08:34:28.265Z</time>
      </trkpt>
      <trkpt lat="42.01348" lon="19.40551">
        <ele>51.971408</ele>
        <time>2022-05-26T08:34:30.243Z</time>
      </trkpt>
      <trkpt lat="42.01352" lon="19.4054">
        <ele>51.955798</ele>
        <time>2022-05-26T08:34:32.257Z</time>
      </trkpt>
      <trkpt lat="42.01358" lon="19.40524">
        <ele>51.933242</ele>
        <time>2022-05-26T08:34:35.233Z</time>
      </trkpt>
      <trkpt lat="42.01364" lon="19.40509">
        <ele>51.9114</ele>
        <time>2022-05-26T08:34:38.232Z</time>
      </trkpt>
      <trkpt lat="42.0137" lon="19.40493">
        <ele>51.889824</ele>
        <time>2022-05-26T08:34:41.225Z</time>
      </trkpt>
      <trkpt lat="42.01375" lon="19.40478">
        <ele>51.868287</ele>
        <time>2022-05-26T08:34:44.252Z</time>
      </trkpt>
      <trkpt lat="42.01381" lon="19.40462">
        <ele>51.846338</ele>
        <time>2022-05-26T08:34:47.243Z</time>
      </trkpt>
      <trkpt lat="42.01386" lon="19.40446">
        <ele>51.82392</ele>
        <time>2022-05-26T08:34:50.222Z</time>
      </trkpt>
      <trkpt lat="42.01392" lon="19.4043">
        <ele>51.803043</ele>
        <time>2022-05-26T08:34:53.249Z</time>
      </trkpt>
      <trkpt lat="42.01396" lon="19.40414">
        <ele>51.786893</ele>
        <time>2022-05-26T08:34:56.239Z</time>
      </trkpt>
      <trkpt lat="42.01401" lon="19.40398">
        <ele>51.770966</ele>
        <time>2022-05-26T08:34:59.235Z</time>
      </trkpt>
      <trkpt lat="42.01407" lon="19.40383">
        <ele>51.75494</ele>
        <time>2022-05-26T08:35:02.277Z</time>
      </trkpt>
      <trkpt lat="42.01411" lon="19.40367">
        <ele>51.738965</ele>
        <time>2022-05-26T08:35:05.232Z</time>
      </trkpt>
      <trkpt lat="42.01416" lon="19.40353">
        <ele>51.724153</ele>
        <time>2022-05-26T08:35:08.273Z</time>
      </trkpt>
      <trkpt lat="42.0142" lon="19.40339">
        <ele>51.709583</ele>
        <time>2022-05-26T08:35:11.264Z</time>
      </trkpt>
      <trkpt lat="42.01425" lon="19.40324">
        <ele>51.694278</ele>
        <time>2022-05-26T08:35:14.217Z</time>
      </trkpt>
      <trkpt lat="42.0143" lon="19.40308">
        <ele>51.677905</ele>
        <time>2022-05-26T08:35:17.232Z</time>
      </trkpt>
      <trkpt lat="42.01435" lon="19.40291">
        <ele>51.660647</ele>
        <time>2022-05-26T08:35:20.241Z</time>
      </trkpt>
      <trkpt lat="42.01438" lon="19.40279">
        <ele>51.648713</ele>
        <time>2022-05-26T08:35:22.240Z</time>
      </trkpt>
      <trkpt lat="42.01444" lon="19.40263">
        <ele>51.631655</ele>
        <time>2022-05-26T08:35:25.238Z</time>
      </trkpt>
      <trkpt lat="42.01447" lon="19.40251">
        <ele>51.619798</ele>
        <time>2022-05-26T08:35:27.243Z</time>
      </trkpt>
      <trkpt lat="42.01451" lon="19.4024">
        <ele>51.608063</ele>
        <time>2022-05-26T08:35:29.244Z</time>
      </trkpt>
      <trkpt lat="42.01456" lon="19.40223">
        <ele>51.590882</ele>
        <time>2022-05-26T08:35:32.232Z</time>
      </trkpt>
      <trkpt lat="42.0146" lon="19.40212">
        <ele>51.579319</ele>
        <time>2022-05-26T08:35:34.233Z</time>
      </trkpt>
      <trkpt lat="42.01464" lon="19.40201">
        <ele>51.725636</ele>
        <time>2022-05-26T08:35:36.239Z</time>
      </trkpt>
      <trkpt lat="42.01467" lon="19.40189">
        <ele>51.896918</ele>
        <time>2022-05-26T08:35:38.243Z</time>
      </trkpt>
      <trkpt lat="42.01473" lon="19.40173">
        <ele>52.141965</ele>
        <time>2022-05-26T08:35:41.273Z</time>
      </trkpt>
      <trkpt lat="42.01478" lon="19.40157">
        <ele>52.385987</ele>
        <time>2022-05-26T08:35:44.254Z</time>
      </trkpt>
      <trkpt lat="42.01483" lon="19.40143">
        <ele>52.604571</ele>
        <time>2022-05-26T08:35:47.249Z</time>
      </trkpt>
      <trkpt lat="42.0149" lon="19.4013">
        <ele>52.825771</ele>
        <time>2022-05-26T08:35:50.225Z</time>
      </trkpt>
      <trkpt lat="42.01496" lon="19.40117">
        <ele>53.043122</ele>
        <time>2022-05-26T08:35:53.257Z</time>
      </trkpt>
      <trkpt lat="42.01503" lon="19.40105">
        <ele>53.250458</ele>
        <time>2022-05-26T08:35:56.241Z</time>
      </trkpt>
      <trkpt lat="42.0151" lon="19.40093">
        <ele>53.455551</ele>
        <time>2022-05-26T08:35:59.225Z</time>
      </trkpt>
      <trkpt lat="42.01516" lon="19.40082">
        <ele>53.656395</ele>
        <time>2022-05-26T08:36:02.238Z</time>
      </trkpt>
      <trkpt lat="42.01522" lon="19.40071">
        <ele>53.844764</ele>
        <time>2022-05-26T08:36:05.244Z</time>
      </trkpt>
      <trkpt lat="42.01529" lon="19.4006">
        <ele>54.03434</ele>
        <time>2022-05-26T08:36:08.268Z</time>
      </trkpt>
      <trkpt lat="42.01535" lon="19.4005">
        <ele>54.223208</ele>
        <time>2022-05-26T08:36:11.241Z</time>
      </trkpt>
      <trkpt lat="42.01541" lon="19.40039">
        <ele>54.412696</ele>
        <time>2022-05-26T08:36:14.220Z</time>
      </trkpt>
      <trkpt lat="42.01548" lon="19.40028">
        <ele>54.607795</ele>
        <time>2022-05-26T08:36:17.250Z</time>
      </trkpt>
      <trkpt lat="42.01554" lon="19.40018">
        <ele>54.795123</ele>
        <time>2022-05-26T08:36:20.240Z</time>
      </trkpt>
      <trkpt lat="42.0156" lon="19.40007">
        <ele>54.981081</ele>
        <time>2022-05-26T08:36:23.250Z</time>
      </trkpt>
      <trkpt lat="42.01566" lon="19.39996">
        <ele>55.204227</ele>
        <time>2022-05-26T08:36:26.238Z</time>
      </trkpt>
      <trkpt lat="42.01572" lon="19.39985">
        <ele>55.432691</ele>
        <time>2022-05-26T08:36:29.245Z</time>
      </trkpt>
      <trkpt lat="42.01578" lon="19.39975">
        <ele>55.657198</ele>
        <time>2022-05-26T08:36:32.240Z</time>
      </trkpt>
      <trkpt lat="42.01584" lon="19.39965">
        <ele>55.864816</ele>
        <time>2022-05-26T08:36:35.234Z</time>
      </trkpt>
      <trkpt lat="42.01592" lon="19.39953">
        <ele>56.123883</ele>
        <time>2022-05-26T08:36:39.243Z</time>
      </trkpt>
      <trkpt lat="42.01599" lon="19.39942">
        <ele>56.37129</ele>
        <time>2022-05-26T08:36:43.232Z</time>
      </trkpt>
      <trkpt lat="42.01607" lon="19.39931">
        <ele>56.615981</ele>
        <time>2022-05-26T08:36:47.222Z</time>
      </trkpt>
      <trkpt lat="42.01615" lon="19.3992">
        <ele>56.866107</ele>
        <time>2022-05-26T08:36:51.225Z</time>
      </trkpt>
      <trkpt lat="42.01623" lon="19.3991">
        <ele>57.108419</ele>
        <time>2022-05-26T08:36:55.236Z</time>
      </trkpt>
      <trkpt lat="42.0163" lon="19.399">
        <ele>57.339847</ele>
        <time>2022-05-26T08:36:59.216Z</time>
      </trkpt>
      <trkpt lat="42.01638" lon="19.3989">
        <ele>57.569692</ele>
        <time>2022-05-26T08:37:03.239Z</time>
      </trkpt>
      <trkpt lat="42.01645" lon="19.39881">
        <ele>57.788614</ele>
        <time>2022-05-26T08:37:07.261Z</time>
      </trkpt>
      <trkpt lat="42.01652" lon="19.39872">
        <ele>58.007286</ele>
        <time>2022-05-26T08:37:11.224Z</time>
      </trkpt>
      <trkpt lat="42.01658" lon="19.39863">
        <ele>58.211815</ele>
        <time>2022-05-26T08:37:15.263Z</time>
      </trkpt>
      <trkpt lat="42.01666" lon="19.39853">
        <ele>58.443243</ele>
        <time>2022-05-26T08:37:19.269Z</time>
      </trkpt>
      <trkpt lat="42.01674" lon="19.39842">
        <ele>58.696445</ele>
        <time>2022-05-26T08:37:23.252Z</time>
      </trkpt>
      <trkpt lat="42.01682" lon="19.39831">
        <ele>58.925552</ele>
        <time>2022-05-26T08:37:27.260Z</time>
      </trkpt>
      <trkpt lat="42.01689" lon="19.39821">
        <ele>58.96602</ele>
        <time>2022-05-26T08:37:31.248Z</time>
      </trkpt>
      <trkpt lat="42.01697" lon="19.3981">
        <ele>59.00669</ele>
        <time>2022-05-26T08:37:35.246Z</time>
      </trkpt>
      <trkpt lat="42.01704" lon="19.398">
        <ele>59.04578</ele>
        <time>2022-05-26T08:37:39.233Z</time>
      </trkpt>
      <trkpt lat="42.01712" lon="19.3979">
        <ele>59.08622</ele>
        <time>2022-05-26T08:37:43.215Z</time>
      </trkpt>
      <trkpt lat="42.0172" lon="19.39782">
        <ele>59.121496</ele>
        <time>2022-05-26T08:37:46.232Z</time>
      </trkpt>
      <trkpt lat="42.01727" lon="19.39773">
        <ele>59.15824</ele>
        <time>2022-05-26T08:37:49.240Z</time>
      </trkpt>
      <trkpt lat="42.01736" lon="19.39764">
        <ele>59.199583</ele>
        <time>2022-05-26T08:37:52.236Z</time>
      </trkpt>
      <trkpt lat="42.01744" lon="19.39754">
        <ele>59.240486</ele>
        <time>2022-05-26T08:37:55.232Z</time>
      </trkpt>
      <trkpt lat="42.01753" lon="19.39745">
        <ele>59.281828</ele>
        <time>2022-05-26T08:37:58.231Z</time>
      </trkpt>
      <trkpt lat="42.01761" lon="19.39735">
        <ele>59.324388</ele>
        <time>2022-05-26T08:38:01.241Z</time>
      </trkpt>
      <trkpt lat="42.01769" lon="19.39725">
        <ele>59.365292</ele>
        <time>2022-05-26T08:38:04.221Z</time>
      </trkpt>
      <trkpt lat="42.01778" lon="19.39715">
        <ele>59.407489</ele>
        <time>2022-05-26T08:38:07.244Z</time>
      </trkpt>
      <trkpt lat="42.01785" lon="19.39704">
        <ele>59.446417</ele>
        <time>2022-05-26T08:38:10.273Z</time>
      </trkpt>
      <trkpt lat="42.0179" lon="19.39692">
        <ele>59.486106</ele>
        <time>2022-05-26T08:38:13.238Z</time>
      </trkpt>
      <trkpt lat="42.01794" lon="19.39677">
        <ele>59.529269</ele>
        <time>2022-05-26T08:38:16.240Z</time>
      </trkpt>
      <trkpt lat="42.01796" lon="19.3966">
        <ele>59.576094</ele>
        <time>2022-05-26T08:38:19.229Z</time>
      </trkpt>
      <trkpt lat="42.01797" lon="19.39648">
        <ele>59.522406</ele>
        <time>2022-05-26T08:38:21.265Z</time>
      </trkpt>
      <trkpt lat="42.01797" lon="19.39635">
        <ele>59.398802</ele>
        <time>2022-05-26T08:38:23.273Z</time>
      </trkpt>
      <trkpt lat="42.01798" lon="19.39621">
        <ele>59.266618</ele>
        <time>2022-05-26T08:38:25.246Z</time>
      </trkpt>
      <trkpt lat="42.01799" lon="19.39607">
        <ele>59.128791</ele>
        <time>2022-05-26T08:38:27.232Z</time>
      </trkpt>
      <trkpt lat="42.01799" lon="19.39592">
        <ele>58.987212</ele>
        <time>2022-05-26T08:38:29.225Z</time>
      </trkpt>
      <trkpt lat="42.01799" lon="19.39577">
        <ele>58.847637</ele>
        <time>2022-05-26T08:38:31.224Z</time>
      </trkpt>
      <trkpt lat="42.018" lon="19.39562">
        <ele>58.703924</ele>
        <time>2022-05-26T08:38:33.233Z</time>
      </trkpt>
      <trkpt lat="42.01802" lon="19.39548">
        <ele>58.560811</ele>
        <time>2022-05-26T08:38:35.222Z</time>
      </trkpt>
      <trkpt lat="42.01804" lon="19.39533">
        <ele>58.415638</ele>
        <time>2022-05-26T08:38:37.235Z</time>
      </trkpt>
      <trkpt lat="42.01807" lon="19.39518">
        <ele>58.270292</ele>
        <time>2022-05-26T08:38:39.234Z</time>
      </trkpt>
      <trkpt lat="42.0181" lon="19.39503">
        <ele>58.121566</ele>
        <time>2022-05-26T08:38:41.224Z</time>
      </trkpt>
      <trkpt lat="42.01813" lon="19.39487">
        <ele>57.965989</ele>
        <time>2022-05-26T08:38:43.218Z</time>
      </trkpt>
      <trkpt lat="42.01816" lon="19.39471">
        <ele>57.806125</ele>
        <time>2022-05-26T08:38:45.274Z</time>
      </trkpt>
      <trkpt lat="42.01819" lon="19.39455">
        <ele>57.647179</ele>
        <time>2022-05-26T08:38:47.237Z</time>
      </trkpt>
      <trkpt lat="42.01822" lon="19.39439">
        <ele>57.492884</ele>
        <time>2022-05-26T08:38:49.228Z</time>
      </trkpt>
      <trkpt lat="42.01824" lon="19.39423">
        <ele>57.342019</ele>
        <time>2022-05-26T08:38:51.236Z</time>
      </trkpt>
      <trkpt lat="42.01824" lon="19.39409">
        <ele>57.182175</ele>
        <time>2022-05-26T08:38:53.223Z</time>
      </trkpt>
      <trkpt lat="42.01824" lon="19.39394">
        <ele>57.007813</ele>
        <time>2022-05-26T08:38:55.243Z</time>
      </trkpt>
      <trkpt lat="42.01823" lon="19.3938">
        <ele>56.831554</ele>
        <time>2022-05-26T08:38:57.242Z</time>
      </trkpt>
      <trkpt lat="42.01822" lon="19.39365">
        <ele>56.654232</ele>
        <time>2022-05-26T08:38:59.243Z</time>
      </trkpt>
      <trkpt lat="42.01821" lon="19.39351">
        <ele>56.485352</ele>
        <time>2022-05-26T08:39:01.251Z</time>
      </trkpt>
      <trkpt lat="42.0182" lon="19.39338">
        <ele>56.322345</ele>
        <time>2022-05-26T08:39:03.251Z</time>
      </trkpt>
      <trkpt lat="42.01819" lon="19.39324">
        <ele>56.157339</ele>
        <time>2022-05-26T08:39:05.237Z</time>
      </trkpt>
      <trkpt lat="42.01818" lon="19.39311">
        <ele>55.989349</ele>
        <time>2022-05-26T08:39:07.223Z</time>
      </trkpt>
      <trkpt lat="42.01817" lon="19.39297">
        <ele>55.818951</ele>
        <time>2022-05-26T08:39:09.222Z</time>
      </trkpt>
      <trkpt lat="42.01816" lon="19.39283">
        <ele>55.651126</ele>
        <time>2022-05-26T08:39:11.289Z</time>
      </trkpt>
      <trkpt lat="42.01816" lon="19.39269">
        <ele>55.4826</ele>
        <time>2022-05-26T08:39:13.233Z</time>
      </trkpt>
      <trkpt lat="42.01815" lon="19.39255">
        <ele>55.307546</ele>
        <time>2022-05-26T08:39:15.237Z</time>
      </trkpt>
      <trkpt lat="42.01814" lon="19.3924">
        <ele>55.13143</ele>
        <time>2022-05-26T08:39:17.233Z</time>
      </trkpt>
      <trkpt lat="42.01813" lon="19.39225">
        <ele>54.953966</ele>
        <time>2022-05-26T08:39:19.246Z</time>
      </trkpt>
      <trkpt lat="42.01812" lon="19.39211">
        <ele>54.779956</ele>
        <time>2022-05-26T08:39:21.252Z</time>
      </trkpt>
      <trkpt lat="42.0181" lon="19.39197">
        <ele>54.612788</ele>
        <time>2022-05-26T08:39:23.241Z</time>
      </trkpt>
      <trkpt lat="42.01809" lon="19.39183">
        <ele>54.441348</ele>
        <time>2022-05-26T08:39:25.221Z</time>
      </trkpt>
      <trkpt lat="42.01809" lon="19.39169">
        <ele>54.30252</ele>
        <time>2022-05-26T08:39:27.225Z</time>
      </trkpt>
      <trkpt lat="42.01808" lon="19.39154">
        <ele>54.207534</ele>
        <time>2022-05-26T08:39:29.233Z</time>
      </trkpt>
      <trkpt lat="42.01807" lon="19.39138">
        <ele>54.110113</ele>
        <time>2022-05-26T08:39:31.248Z</time>
      </trkpt>
      <trkpt lat="42.01805" lon="19.39123">
        <ele>54.015031</ele>
        <time>2022-05-26T08:39:33.233Z</time>
      </trkpt>
      <trkpt lat="42.01804" lon="19.39109">
        <ele>53.920044</ele>
        <time>2022-05-26T08:39:35.238Z</time>
      </trkpt>
      <trkpt lat="42.01803" lon="19.39093">
        <ele>53.822344</ele>
        <time>2022-05-26T08:39:37.224Z</time>
      </trkpt>
      <trkpt lat="42.01801" lon="19.39078">
        <ele>53.724206</ele>
        <time>2022-05-26T08:39:39.255Z</time>
      </trkpt>
      <trkpt lat="42.018" lon="19.39062">
        <ele>53.624178</ele>
        <time>2022-05-26T08:39:41.264Z</time>
      </trkpt>
      <trkpt lat="42.018" lon="19.39046">
        <ele>53.524616</ele>
        <time>2022-05-26T08:39:43.249Z</time>
      </trkpt>
      <trkpt lat="42.018" lon="19.39031">
        <ele>53.428266</ele>
        <time>2022-05-26T08:39:45.237Z</time>
      </trkpt>
      <trkpt lat="42.018" lon="19.39016">
        <ele>53.331204</ele>
        <time>2022-05-26T08:39:47.232Z</time>
      </trkpt>
      <trkpt lat="42.01801" lon="19.39">
        <ele>53.230977</ele>
        <time>2022-05-26T08:39:49.245Z</time>
      </trkpt>
      <trkpt lat="42.01802" lon="19.38985">
        <ele>53.131663</ele>
        <time>2022-05-26T08:39:51.240Z</time>
      </trkpt>
      <trkpt lat="42.01803" lon="19.38969">
        <ele>53.034455</ele>
        <time>2022-05-26T08:39:53.234Z</time>
      </trkpt>
      <trkpt lat="42.01804" lon="19.38954">
        <ele>52.937578</ele>
        <time>2022-05-26T08:39:55.247Z</time>
      </trkpt>
      <trkpt lat="42.01805" lon="19.38939">
        <ele>52.843125</ele>
        <time>2022-05-26T08:39:57.241Z</time>
      </trkpt>
      <trkpt lat="42.01806" lon="19.38925">
        <ele>52.831005</ele>
        <time>2022-05-26T08:39:59.238Z</time>
      </trkpt>
      <trkpt lat="42.01808" lon="19.38911">
        <ele>52.858396</ele>
        <time>2022-05-26T08:40:01.243Z</time>
      </trkpt>
      <trkpt lat="42.01809" lon="19.38898">
        <ele>52.885333</ele>
        <time>2022-05-26T08:40:03.237Z</time>
      </trkpt>
      <trkpt lat="42.0181" lon="19.38884">
        <ele>52.912496</ele>
        <time>2022-05-26T08:40:05.228Z</time>
      </trkpt>
      <trkpt lat="42.01812" lon="19.3887">
        <ele>52.940274</ele>
        <time>2022-05-26T08:40:07.232Z</time>
      </trkpt>
      <trkpt lat="42.01813" lon="19.38856">
        <ele>52.967794</ele>
        <time>2022-05-26T08:40:09.246Z</time>
      </trkpt>
      <trkpt lat="42.01814" lon="19.38842">
        <ele>52.99448</ele>
        <time>2022-05-26T08:40:11.236Z</time>
      </trkpt>
      <trkpt lat="42.01815" lon="19.38828">
        <ele>53.021485</ele>
        <time>2022-05-26T08:40:13.241Z</time>
      </trkpt>
      <trkpt lat="42.01816" lon="19.38815">
        <ele>53.047952</ele>
        <time>2022-05-26T08:40:15.237Z</time>
      </trkpt>
      <trkpt lat="42.01817" lon="19.38801">
        <ele>53.074946</ele>
        <time>2022-05-26T08:40:17.265Z</time>
      </trkpt>
      <trkpt lat="42.01817" lon="19.38787">
        <ele>53.102284</ele>
        <time>2022-05-26T08:40:19.220Z</time>
      </trkpt>
      <trkpt lat="42.01816" lon="19.38773">
        <ele>53.130414</ele>
        <time>2022-05-26T08:40:21.212Z</time>
      </trkpt>
      <trkpt lat="42.01815" lon="19.38758">
        <ele>53.15916</ele>
        <time>2022-05-26T08:40:23.259Z</time>
      </trkpt>
      <trkpt lat="42.01813" lon="19.38743">
        <ele>53.188059</ele>
        <time>2022-05-26T08:40:25.214Z</time>
      </trkpt>
      <trkpt lat="42.01811" lon="19.38728">
        <ele>53.217773</ele>
        <time>2022-05-26T08:40:27.272Z</time>
      </trkpt>
      <trkpt lat="42.01809" lon="19.38714">
        <ele>53.247246</ele>
        <time>2022-05-26T08:40:29.231Z</time>
      </trkpt>
      <trkpt lat="42.01807" lon="19.38699">
        <ele>53.276767</ele>
        <time>2022-05-26T08:40:31.235Z</time>
      </trkpt>
      <trkpt lat="42.01805" lon="19.38684">
        <ele>53.298063</ele>
        <time>2022-05-26T08:40:33.298Z</time>
      </trkpt>
      <trkpt lat="42.01803" lon="19.38669">
        <ele>53.315367</ele>
        <time>2022-05-26T08:40:35.235Z</time>
      </trkpt>
      <trkpt lat="42.01801" lon="19.38654">
        <ele>53.332642</ele>
        <time>2022-05-26T08:40:37.239Z</time>
      </trkpt>
      <trkpt lat="42.018" lon="19.38639">
        <ele>53.349989</ele>
        <time>2022-05-26T08:40:39.232Z</time>
      </trkpt>
      <trkpt lat="42.018" lon="19.38624">
        <ele>53.367389</ele>
        <time>2022-05-26T08:40:41.239Z</time>
      </trkpt>
      <trkpt lat="42.018" lon="19.38609">
        <ele>53.384586</ele>
        <time>2022-05-26T08:40:43.244Z</time>
      </trkpt>
      <trkpt lat="42.01801" lon="19.38595">
        <ele>53.401391</ele>
        <time>2022-05-26T08:40:45.241Z</time>
      </trkpt>
      <trkpt lat="42.01803" lon="19.3858">
        <ele>53.418528</ele>
        <time>2022-05-26T08:40:47.256Z</time>
      </trkpt>
      <trkpt lat="42.01806" lon="19.38566">
        <ele>53.435841</ele>
        <time>2022-05-26T08:40:49.231Z</time>
      </trkpt>
      <trkpt lat="42.0181" lon="19.38552">
        <ele>53.452854</ele>
        <time>2022-05-26T08:40:51.249Z</time>
      </trkpt>
      <trkpt lat="42.01816" lon="19.38539">
        <ele>53.469632</ele>
        <time>2022-05-26T08:40:53.244Z</time>
      </trkpt>
      <trkpt lat="42.01822" lon="19.38528">
        <ele>53.485444</ele>
        <time>2022-05-26T08:40:55.240Z</time>
      </trkpt>
      <trkpt lat="42.01828" lon="19.38518">
        <ele>53.50056</ele>
        <time>2022-05-26T08:40:57.234Z</time>
      </trkpt>
      <trkpt lat="42.01835" lon="19.38508">
        <ele>53.516196</ele>
        <time>2022-05-26T08:40:59.257Z</time>
      </trkpt>
      <trkpt lat="42.01841" lon="19.38499">
        <ele>53.530608</ele>
        <time>2022-05-26T08:41:01.242Z</time>
      </trkpt>
      <trkpt lat="42.01848" lon="19.3849">
        <ele>53.545557</ele>
        <time>2022-05-26T08:41:03.240Z</time>
      </trkpt>
      <trkpt lat="42.01855" lon="19.38481">
        <ele>53.560407</ele>
        <time>2022-05-26T08:41:05.250Z</time>
      </trkpt>
      <trkpt lat="42.01863" lon="19.38472">
        <ele>53.557603</ele>
        <time>2022-05-26T08:41:07.239Z</time>
      </trkpt>
      <trkpt lat="42.0187" lon="19.38463">
        <ele>53.548886</ele>
        <time>2022-05-26T08:41:09.249Z</time>
      </trkpt>
      <trkpt lat="42.01877" lon="19.38455">
        <ele>53.540236</ele>
        <time>2022-05-26T08:41:11.251Z</time>
      </trkpt>
      <trkpt lat="42.01884" lon="19.38446">
        <ele>53.531677</ele>
        <time>2022-05-26T08:41:13.248Z</time>
      </trkpt>
      <trkpt lat="42.01891" lon="19.38437">
        <ele>53.522804</ele>
        <time>2022-05-26T08:41:15.319Z</time>
      </trkpt>
      <trkpt lat="42.01898" lon="19.38428">
        <ele>53.514127</ele>
        <time>2022-05-26T08:41:17.245Z</time>
      </trkpt>
      <trkpt lat="42.01904" lon="19.38418">
        <ele>53.505473</ele>
        <time>2022-05-26T08:41:19.255Z</time>
      </trkpt>
      <trkpt lat="42.01911" lon="19.38409">
        <ele>53.496668</ele>
        <time>2022-05-26T08:41:21.226Z</time>
      </trkpt>
      <trkpt lat="42.01917" lon="19.38399">
        <ele>53.487744</ele>
        <time>2022-05-26T08:41:23.237Z</time>
      </trkpt>
      <trkpt lat="42.01924" lon="19.38389">
        <ele>53.478941</ele>
        <time>2022-05-26T08:41:25.233Z</time>
      </trkpt>
      <trkpt lat="42.01931" lon="19.38379">
        <ele>53.470067</ele>
        <time>2022-05-26T08:41:27.253Z</time>
      </trkpt>
      <trkpt lat="42.01937" lon="19.38369">
        <ele>53.461229</ele>
        <time>2022-05-26T08:41:29.234Z</time>
      </trkpt>
      <trkpt lat="42.01942" lon="19.38359">
        <ele>53.452502</ele>
        <time>2022-05-26T08:41:31.247Z</time>
      </trkpt>
      <trkpt lat="42.01948" lon="19.38348">
        <ele>53.443934</ele>
        <time>2022-05-26T08:41:33.232Z</time>
      </trkpt>
      <trkpt lat="42.01953" lon="19.38338">
        <ele>53.435473</ele>
        <time>2022-05-26T08:41:35.236Z</time>
      </trkpt>
      <trkpt lat="42.01958" lon="19.38327">
        <ele>53.42704</ele>
        <time>2022-05-26T08:41:37.261Z</time>
      </trkpt>
      <trkpt lat="42.01963" lon="19.38316">
        <ele>53.418815</ele>
        <time>2022-05-26T08:41:39.237Z</time>
      </trkpt>
      <trkpt lat="42.01967" lon="19.38306">
        <ele>53.410372</ele>
        <time>2022-05-26T08:41:41.243Z</time>
      </trkpt>
      <trkpt lat="42.01972" lon="19.38295">
        <ele>53.401939</ele>
        <time>2022-05-26T08:41:43.236Z</time>
      </trkpt>
      <trkpt lat="42.01977" lon="19.38285">
        <ele>53.416136</ele>
        <time>2022-05-26T08:41:45.239Z</time>
      </trkpt>
      <trkpt lat="42.01982" lon="19.38275">
        <ele>53.430791</ele>
        <time>2022-05-26T08:41:47.248Z</time>
      </trkpt>
      <trkpt lat="42.01987" lon="19.38265">
        <ele>53.445652</ele>
        <time>2022-05-26T08:41:49.236Z</time>
      </trkpt>
      <trkpt lat="42.01995" lon="19.3825">
        <ele>53.467182</ele>
        <time>2022-05-26T08:41:52.240Z</time>
      </trkpt>
      <trkpt lat="42.02" lon="19.38239">
        <ele>53.481943</ele>
        <time>2022-05-26T08:41:54.325Z</time>
      </trkpt>
      <trkpt lat="42.02005" lon="19.38229">
        <ele>53.497206</ele>
        <time>2022-05-26T08:41:56.234Z</time>
      </trkpt>
      <trkpt lat="42.0201" lon="19.38218">
        <ele>53.51218</ele>
        <time>2022-05-26T08:41:58.242Z</time>
      </trkpt>
      <trkpt lat="42.02015" lon="19.38208">
        <ele>53.527342</ele>
        <time>2022-05-26T08:42:00.234Z</time>
      </trkpt>
      <trkpt lat="42.0202" lon="19.38197">
        <ele>53.542215</ele>
        <time>2022-05-26T08:42:02.241Z</time>
      </trkpt>
      <trkpt lat="42.02025" lon="19.38186">
        <ele>53.557325</ele>
        <time>2022-05-26T08:42:04.229Z</time>
      </trkpt>
      <trkpt lat="42.0203" lon="19.38176">
        <ele>53.571808</ele>
        <time>2022-05-26T08:42:06.216Z</time>
      </trkpt>
      <trkpt lat="42.02037" lon="19.38161">
        <ele>53.593263</ele>
        <time>2022-05-26T08:42:09.221Z</time>
      </trkpt>
      <trkpt lat="42.02043" lon="19.38145">
        <ele>53.615069</ele>
        <time>2022-05-26T08:42:12.233Z</time>
      </trkpt>
      <trkpt lat="42.02047" lon="19.38134">
        <ele>53.629737</ele>
        <time>2022-05-26T08:42:14.241Z</time>
      </trkpt>
      <trkpt lat="42.02051" lon="19.38123">
        <ele>53.644436</ele>
        <time>2022-05-26T08:42:16.268Z</time>
      </trkpt>
      <trkpt lat="42.02054" lon="19.38111">
        <ele>53.659573</ele>
        <time>2022-05-26T08:42:18.231Z</time>
      </trkpt>
      <trkpt lat="42.02057" lon="19.38099">
        <ele>53.674769</ele>
        <time>2022-05-26T08:42:20.221Z</time>
      </trkpt>
      <trkpt lat="42.02061" lon="19.38087">
        <ele>53.690358</ele>
        <time>2022-05-26T08:42:22.293Z</time>
      </trkpt>
      <trkpt lat="42.02064" lon="19.38074">
        <ele>53.612187</ele>
        <time>2022-05-26T08:42:24.217Z</time>
      </trkpt>
      <trkpt lat="42.02068" lon="19.38062">
        <ele>53.516801</ele>
        <time>2022-05-26T08:42:26.227Z</time>
      </trkpt>
      <trkpt lat="42.02071" lon="19.38049">
        <ele>53.42272</ele>
        <time>2022-05-26T08:42:28.270Z</time>
      </trkpt>
      <trkpt lat="42.02075" lon="19.38036">
        <ele>53.328638</ele>
        <time>2022-05-26T08:42:30.240Z</time>
      </trkpt>
      <trkpt lat="42.02078" lon="19.38023">
        <ele>53.233577</ele>
        <time>2022-05-26T08:42:32.243Z</time>
      </trkpt>
      <trkpt lat="42.02082" lon="19.38011">
        <ele>53.139127</ele>
        <time>2022-05-26T08:42:34.217Z</time>
      </trkpt>
      <trkpt lat="42.02085" lon="19.37998">
        <ele>53.046347</ele>
        <time>2022-05-26T08:42:36.238Z</time>
      </trkpt>
      <trkpt lat="42.02089" lon="19.37985">
        <ele>52.952839</ele>
        <time>2022-05-26T08:42:38.271Z</time>
      </trkpt>
      <trkpt lat="42.02092" lon="19.37973">
        <ele>52.859392</ele>
        <time>2022-05-26T08:42:40.257Z</time>
      </trkpt>
      <trkpt lat="42.02095" lon="19.3796">
        <ele>52.763668</ele>
        <time>2022-05-26T08:42:42.233Z</time>
      </trkpt>
      <trkpt lat="42.02098" lon="19.37947">
        <ele>52.671252</ele>
        <time>2022-05-26T08:42:44.225Z</time>
      </trkpt>
      <trkpt lat="42.021" lon="19.37934">
        <ele>52.57754</ele>
        <time>2022-05-26T08:42:46.219Z</time>
      </trkpt>
      <trkpt lat="42.02102" lon="19.3792">
        <ele>52.48279</ele>
        <time>2022-05-26T08:42:48.224Z</time>
      </trkpt>
      <trkpt lat="42.02104" lon="19.37908">
        <ele>52.391449</ele>
        <time>2022-05-26T08:42:50.227Z</time>
      </trkpt>
      <trkpt lat="42.02106" lon="19.37894">
        <ele>52.295268</ele>
        <time>2022-05-26T08:42:52.257Z</time>
      </trkpt>
      <trkpt lat="42.02106" lon="19.37879">
        <ele>52.193063</ele>
        <time>2022-05-26T08:42:54.235Z</time>
      </trkpt>
      <trkpt lat="42.02104" lon="19.37864">
        <ele>52.087729</ele>
        <time>2022-05-26T08:42:56.238Z</time>
      </trkpt>
      <trkpt lat="42.02099" lon="19.3785">
        <ele>52.018109</ele>
        <time>2022-05-26T08:42:58.223Z</time>
      </trkpt>
      <trkpt lat="42.02092" lon="19.37838">
        <ele>52.044936</ele>
        <time>2022-05-26T08:43:00.277Z</time>
      </trkpt>
      <trkpt lat="42.02084" lon="19.37828">
        <ele>52.071793</ele>
        <time>2022-05-26T08:43:02.241Z</time>
      </trkpt>
      <trkpt lat="42.02075" lon="19.37818">
        <ele>52.099464</ele>
        <time>2022-05-26T08:43:04.250Z</time>
      </trkpt>
      <trkpt lat="42.02066" lon="19.37808">
        <ele>52.126737</ele>
        <time>2022-05-26T08:43:06.239Z</time>
      </trkpt>
      <trkpt lat="42.02057" lon="19.37799">
        <ele>52.152922</ele>
        <time>2022-05-26T08:43:08.252Z</time>
      </trkpt>
      <trkpt lat="42.02048" lon="19.3779">
        <ele>52.178045</ele>
        <time>2022-05-26T08:43:10.213Z</time>
      </trkpt>
      <trkpt lat="42.0204" lon="19.37781">
        <ele>52.203382</ele>
        <time>2022-05-26T08:43:12.236Z</time>
      </trkpt>
      <trkpt lat="42.02031" lon="19.37772">
        <ele>52.229119</ele>
        <time>2022-05-26T08:43:14.218Z</time>
      </trkpt>
      <trkpt lat="42.02023" lon="19.37763">
        <ele>52.254783</ele>
        <time>2022-05-26T08:43:16.234Z</time>
      </trkpt>
      <trkpt lat="42.02014" lon="19.37754">
        <ele>52.280811</ele>
        <time>2022-05-26T08:43:18.223Z</time>
      </trkpt>
      <trkpt lat="42.02005" lon="19.37744">
        <ele>52.307767</ele>
        <time>2022-05-26T08:43:20.250Z</time>
      </trkpt>
      <trkpt lat="42.01995" lon="19.37734">
        <ele>52.335254</ele>
        <time>2022-05-26T08:43:22.281Z</time>
      </trkpt>
      <trkpt lat="42.01986" lon="19.37725">
        <ele>52.362502</ele>
        <time>2022-05-26T08:43:24.236Z</time>
      </trkpt>
      <trkpt lat="42.01977" lon="19.37715">
        <ele>52.39039</ele>
        <time>2022-05-26T08:43:26.230Z</time>
      </trkpt>
      <trkpt lat="42.01968" lon="19.37705">
        <ele>52.418169</ele>
        <time>2022-05-26T08:43:28.264Z</time>
      </trkpt>
      <trkpt lat="42.01958" lon="19.37695">
        <ele>52.482081</ele>
        <time>2022-05-26T08:43:30.256Z</time>
      </trkpt>
      <trkpt lat="42.01949" lon="19.37685">
        <ele>52.579501</ele>
        <time>2022-05-26T08:43:32.242Z</time>
      </trkpt>
      <trkpt lat="42.0194" lon="19.37675">
        <ele>52.676825</ele>
        <time>2022-05-26T08:43:34.212Z</time>
      </trkpt>
      <trkpt lat="42.0193" lon="19.37666">
        <ele>52.774267</ele>
        <time>2022-05-26T08:43:36.224Z</time>
      </trkpt>
      <trkpt lat="42.01921" lon="19.37656">
        <ele>52.870821</ele>
        <time>2022-05-26T08:43:38.228Z</time>
      </trkpt>
      <trkpt lat="42.01912" lon="19.37647">
        <ele>52.965322</ele>
        <time>2022-05-26T08:43:40.276Z</time>
      </trkpt>
      <trkpt lat="42.01902" lon="19.37636">
        <ele>53.06723</ele>
        <time>2022-05-26T08:43:42.234Z</time>
      </trkpt>
      <trkpt lat="42.01892" lon="19.37626">
        <ele>53.169138</ele>
        <time>2022-05-26T08:43:44.253Z</time>
      </trkpt>
      <trkpt lat="42.01883" lon="19.37616">
        <ele>53.267846</ele>
        <time>2022-05-26T08:43:46.233Z</time>
      </trkpt>
      <trkpt lat="42.01874" lon="19.37606">
        <ele>53.366935</ele>
        <time>2022-05-26T08:43:48.236Z</time>
      </trkpt>
      <trkpt lat="42.01864" lon="19.37596">
        <ele>53.463972</ele>
        <time>2022-05-26T08:43:50.245Z</time>
      </trkpt>
      <trkpt lat="42.01855" lon="19.37586">
        <ele>53.559342</ele>
        <time>2022-05-26T08:43:52.222Z</time>
      </trkpt>
      <trkpt lat="42.01847" lon="19.37576">
        <ele>53.653976</ele>
        <time>2022-05-26T08:43:54.224Z</time>
      </trkpt>
      <trkpt lat="42.01839" lon="19.37565">
        <ele>53.747905</ele>
        <time>2022-05-26T08:43:56.243Z</time>
      </trkpt>
      <trkpt lat="42.01831" lon="19.37554">
        <ele>53.838787</ele>
        <time>2022-05-26T08:43:58.243Z</time>
      </trkpt>
      <trkpt lat="42.01823" lon="19.37544">
        <ele>53.931131</ele>
        <time>2022-05-26T08:44:00.250Z</time>
      </trkpt>
      <trkpt lat="42.01816" lon="19.37532">
        <ele>54.034617</ele>
        <time>2022-05-26T08:44:02.239Z</time>
      </trkpt>
      <trkpt lat="42.01809" lon="19.37522">
        <ele>54.13645</ele>
        <time>2022-05-26T08:44:04.217Z</time>
      </trkpt>
      <trkpt lat="42.01802" lon="19.37511">
        <ele>54.23782</ele>
        <time>2022-05-26T08:44:06.233Z</time>
      </trkpt>
      <trkpt lat="42.01794" lon="19.37499">
        <ele>54.343577</ele>
        <time>2022-05-26T08:44:08.274Z</time>
      </trkpt>
      <trkpt lat="42.01787" lon="19.37488">
        <ele>54.450247</ele>
        <time>2022-05-26T08:44:10.239Z</time>
      </trkpt>
      <trkpt lat="42.01779" lon="19.37476">
        <ele>54.557842</ele>
        <time>2022-05-26T08:44:12.225Z</time>
      </trkpt>
      <trkpt lat="42.01772" lon="19.37465">
        <ele>54.663599</ele>
        <time>2022-05-26T08:44:14.242Z</time>
      </trkpt>
      <trkpt lat="42.01765" lon="19.37454">
        <ele>54.76497</ele>
        <time>2022-05-26T08:44:16.207Z</time>
      </trkpt>
      <trkpt lat="42.01758" lon="19.37442">
        <ele>54.869397</ele>
        <time>2022-05-26T08:44:18.220Z</time>
      </trkpt>
      <trkpt lat="42.01753" lon="19.37429">
        <ele>54.972285</ele>
        <time>2022-05-26T08:44:20.230Z</time>
      </trkpt>
      <trkpt lat="42.0175" lon="19.37415">
        <ele>55.071386</ele>
        <time>2022-05-26T08:44:22.217Z</time>
      </trkpt>
      <trkpt lat="42.01748" lon="19.37402">
        <ele>55.165271</ele>
        <time>2022-05-26T08:44:24.236Z</time>
      </trkpt>
      <trkpt lat="42.01746" lon="19.37389">
        <ele>55.256209</ele>
        <time>2022-05-26T08:44:26.226Z</time>
      </trkpt>
      <trkpt lat="42.01743" lon="19.37377">
        <ele>55.343434</ele>
        <time>2022-05-26T08:44:28.230Z</time>
      </trkpt>
      <trkpt lat="42.0174" lon="19.37365">
        <ele>55.428541</ele>
        <time>2022-05-26T08:44:31.215Z</time>
      </trkpt>
      <trkpt lat="42.01736" lon="19.37354">
        <ele>55.52039</ele>
        <time>2022-05-26T08:44:36.219Z</time>
      </trkpt>
      <trkpt lat="42.0173" lon="19.37344">
        <ele>55.595104</ele>
        <time>2022-05-26T08:44:40.232Z</time>
      </trkpt>
      <trkpt lat="42.01723" lon="19.37336">
        <ele>55.548686</ele>
        <time>2022-05-26T08:44:54.211Z</time>
      </trkpt>
      <trkpt lat="42.01717" lon="19.37322">
        <ele>55.496104</ele>
        <time>2022-05-26T08:44:59.218Z</time>
      </trkpt>
      <trkpt lat="42.01713" lon="19.37312">
        <ele>55.452788</ele>
        <time>2022-05-26T08:45:02.258Z</time>
      </trkpt>
      <trkpt lat="42.0171" lon="19.37299">
        <ele>55.405896</ele>
        <time>2022-05-26T08:45:05.224Z</time>
      </trkpt>
      <trkpt lat="42.01707" lon="19.37286">
        <ele>55.359933</ele>
        <time>2022-05-26T08:45:08.222Z</time>
      </trkpt>
      <trkpt lat="42.01704" lon="19.37274">
        <ele>55.314711</ele>
        <time>2022-05-26T08:45:11.232Z</time>
      </trkpt>
      <trkpt lat="42.01701" lon="19.3726">
        <ele>55.264917</ele>
        <time>2022-05-26T08:45:14.214Z</time>
      </trkpt>
      <trkpt lat="42.01697" lon="19.37249">
        <ele>55.218676</ele>
        <time>2022-05-26T08:45:17.340Z</time>
      </trkpt>
      <trkpt lat="42.01691" lon="19.37236">
        <ele>55.168342</ele>
        <time>2022-05-26T08:45:21.224Z</time>
      </trkpt>
      <trkpt lat="42.0169" lon="19.37211">
        <ele>55.079529</ele>
        <time>2022-05-26T08:51:50.251Z</time>
      </trkpt>
      <trkpt lat="42.01678" lon="19.37184">
        <ele>54.969379</ele>
        <time>2022-05-26T08:52:59.230Z</time>
      </trkpt>
      <trkpt lat="42.0167" lon="19.37172">
        <ele>54.911691</ele>
        <time>2022-05-26T08:53:02.246Z</time>
      </trkpt>
      <trkpt lat="42.01663" lon="19.3716">
        <ele>54.859569</ele>
        <time>2022-05-26T08:53:05.243Z</time>
      </trkpt>
      <trkpt lat="42.01657" lon="19.37148">
        <ele>54.809647</ele>
        <time>2022-05-26T08:53:08.241Z</time>
      </trkpt>
      <trkpt lat="42.01653" lon="19.37135">
        <ele>54.760077</ele>
        <time>2022-05-26T08:53:11.225Z</time>
      </trkpt>
      <trkpt lat="42.01651" lon="19.3712">
        <ele>54.51099</ele>
        <time>2022-05-26T08:53:14.218Z</time>
      </trkpt>
      <trkpt lat="42.01647" lon="19.37103">
        <ele>54.177655</ele>
        <time>2022-05-26T08:53:17.223Z</time>
      </trkpt>
      <trkpt lat="42.01644" lon="19.37086">
        <ele>53.844321</ele>
        <time>2022-05-26T08:53:20.229Z</time>
      </trkpt>
      <trkpt lat="42.01642" lon="19.37069">
        <ele>53.526981</ele>
        <time>2022-05-26T08:53:23.233Z</time>
      </trkpt>
      <trkpt lat="42.01639" lon="19.37054">
        <ele>53.240079</ele>
        <time>2022-05-26T08:53:26.277Z</time>
      </trkpt>
      <trkpt lat="42.01637" lon="19.37038">
        <ele>52.934811</ele>
        <time>2022-05-26T08:53:29.230Z</time>
      </trkpt>
      <trkpt lat="42.01635" lon="19.37025">
        <ele>52.669034</ele>
        <time>2022-05-26T08:53:31.244Z</time>
      </trkpt>
      <trkpt lat="42.01633" lon="19.37011">
        <ele>52.408311</ele>
        <time>2022-05-26T08:53:33.238Z</time>
      </trkpt>
      <trkpt lat="42.01631" lon="19.36998">
        <ele>52.157541</ele>
        <time>2022-05-26T08:53:35.223Z</time>
      </trkpt>
      <trkpt lat="42.01629" lon="19.36986">
        <ele>51.92746</ele>
        <time>2022-05-26T08:53:37.237Z</time>
      </trkpt>
      <trkpt lat="42.01627" lon="19.36974">
        <ele>51.692824</ele>
        <time>2022-05-26T08:53:39.236Z</time>
      </trkpt>
      <trkpt lat="42.01625" lon="19.36961">
        <ele>51.444473</ele>
        <time>2022-05-26T08:53:41.237Z</time>
      </trkpt>
      <trkpt lat="42.01621" lon="19.36949">
        <ele>51.184847</ele>
        <time>2022-05-26T08:53:43.235Z</time>
      </trkpt>
      <trkpt lat="42.01617" lon="19.36936">
        <ele>50.924462</ele>
        <time>2022-05-26T08:53:45.234Z</time>
      </trkpt>
      <trkpt lat="42.01613" lon="19.36924">
        <ele>50.668924</ele>
        <time>2022-05-26T08:53:47.264Z</time>
      </trkpt>
      <trkpt lat="42.01609" lon="19.36911">
        <ele>50.409597</ele>
        <time>2022-05-26T08:53:49.241Z</time>
      </trkpt>
      <trkpt lat="42.01605" lon="19.36899">
        <ele>50.171539</ele>
        <time>2022-05-26T08:53:51.237Z</time>
      </trkpt>
      <trkpt lat="42.01601" lon="19.36886">
        <ele>50.161872</ele>
        <time>2022-05-26T08:53:53.226Z</time>
      </trkpt>
      <trkpt lat="42.01596" lon="19.36874">
        <ele>50.152204</ele>
        <time>2022-05-26T08:53:55.241Z</time>
      </trkpt>
      <trkpt lat="42.01592" lon="19.36862">
        <ele>50.142708</ele>
        <time>2022-05-26T08:53:57.266Z</time>
      </trkpt>
      <trkpt lat="42.01588" lon="19.36851">
        <ele>50.133846</ele>
        <time>2022-05-26T08:53:59.264Z</time>
      </trkpt>
      <trkpt lat="42.01584" lon="19.3684">
        <ele>50.124628</ele>
        <time>2022-05-26T08:54:01.229Z</time>
      </trkpt>
      <trkpt lat="42.0158" lon="19.36828">
        <ele>50.115411</ele>
        <time>2022-05-26T08:54:03.216Z</time>
      </trkpt>
      <trkpt lat="42.01576" lon="19.36815">
        <ele>50.105457</ele>
        <time>2022-05-26T08:54:05.268Z</time>
      </trkpt>
      <trkpt lat="42.01572" lon="19.36803">
        <ele>50.095608</ele>
        <time>2022-05-26T08:54:07.237Z</time>
      </trkpt>
      <trkpt lat="42.01568" lon="19.36791">
        <ele>50.08593</ele>
        <time>2022-05-26T08:54:09.235Z</time>
      </trkpt>
      <trkpt lat="42.01564" lon="19.36779">
        <ele>50.076555</ele>
        <time>2022-05-26T08:54:11.266Z</time>
      </trkpt>
      <trkpt lat="42.0156" lon="19.36767">
        <ele>50.067207</ele>
        <time>2022-05-26T08:54:13.236Z</time>
      </trkpt>
      <trkpt lat="42.01556" lon="19.36755">
        <ele>50.05797</ele>
        <time>2022-05-26T08:54:15.238Z</time>
      </trkpt>
      <trkpt lat="42.01552" lon="19.36744">
        <ele>50.048701</ele>
        <time>2022-05-26T08:54:17.257Z</time>
      </trkpt>
      <trkpt lat="42.01548" lon="19.36732">
        <ele>50.039497</ele>
        <time>2022-05-26T08:54:19.240Z</time>
      </trkpt>
      <trkpt lat="42.01544" lon="19.36721">
        <ele>50.030518</ele>
        <time>2022-05-26T08:54:21.232Z</time>
      </trkpt>
      <trkpt lat="42.01541" lon="19.36709">
        <ele>50.021552</ele>
        <time>2022-05-26T08:54:23.265Z</time>
      </trkpt>
      <trkpt lat="42.01537" lon="19.36697">
        <ele>50.012216</ele>
        <time>2022-05-26T08:54:25.235Z</time>
      </trkpt>
      <trkpt lat="42.01533" lon="19.36686">
        <ele>50.002801</ele>
        <time>2022-05-26T08:54:27.239Z</time>
      </trkpt>
      <trkpt lat="42.01529" lon="19.36673">
        <ele>50.047532</ele>
        <time>2022-05-26T08:54:29.220Z</time>
      </trkpt>
      <trkpt lat="42.01525" lon="19.36661">
        <ele>50.149045</ele>
        <time>2022-05-26T08:54:31.237Z</time>
      </trkpt>
      <trkpt lat="42.0152" lon="19.3665">
        <ele>50.248939</ele>
        <time>2022-05-26T08:54:33.234Z</time>
      </trkpt>
      <trkpt lat="42.01516" lon="19.36638">
        <ele>50.350895</ele>
        <time>2022-05-26T08:54:35.283Z</time>
      </trkpt>
      <trkpt lat="42.01512" lon="19.36626">
        <ele>50.453101</ele>
        <time>2022-05-26T08:54:37.243Z</time>
      </trkpt>
      <trkpt lat="42.01507" lon="19.36614">
        <ele>50.555057</ele>
        <time>2022-05-26T08:54:39.234Z</time>
      </trkpt>
      <trkpt lat="42.01503" lon="19.36602">
        <ele>50.65678</ele>
        <time>2022-05-26T08:54:41.222Z</time>
      </trkpt>
      <trkpt lat="42.01499" lon="19.3659">
        <ele>50.75647</ele>
        <time>2022-05-26T08:54:43.238Z</time>
      </trkpt>
      <trkpt lat="42.01495" lon="19.36578">
        <ele>50.860499</ele>
        <time>2022-05-26T08:54:45.247Z</time>
      </trkpt>
      <trkpt lat="42.0149" lon="19.36565">
        <ele>50.966109</ele>
        <time>2022-05-26T08:54:47.214Z</time>
      </trkpt>
      <trkpt lat="42.01486" lon="19.36553">
        <ele>51.069893</ele>
        <time>2022-05-26T08:54:49.241Z</time>
      </trkpt>
      <trkpt lat="42.01482" lon="19.36541">
        <ele>51.171244</ele>
        <time>2022-05-26T08:54:51.248Z</time>
      </trkpt>
      <trkpt lat="42.01478" lon="19.36529">
        <ele>51.26931</ele>
        <time>2022-05-26T08:54:53.243Z</time>
      </trkpt>
      <trkpt lat="42.01473" lon="19.36518">
        <ele>51.368588</ele>
        <time>2022-05-26T08:54:55.236Z</time>
      </trkpt>
      <trkpt lat="42.01468" lon="19.36507">
        <ele>51.465972</ele>
        <time>2022-05-26T08:54:57.250Z</time>
      </trkpt>
      <trkpt lat="42.01463" lon="19.36497">
        <ele>51.558734</ele>
        <time>2022-05-26T08:54:59.217Z</time>
      </trkpt>
      <trkpt lat="42.01457" lon="19.36487">
        <ele>51.65582</ele>
        <time>2022-05-26T08:55:01.231Z</time>
      </trkpt>
      <trkpt lat="42.0145" lon="19.36478">
        <ele>51.757044</ele>
        <time>2022-05-26T08:55:03.272Z</time>
      </trkpt>
      <trkpt lat="42.01443" lon="19.36469">
        <ele>51.865612</ele>
        <time>2022-05-26T08:55:05.234Z</time>
      </trkpt>
      <trkpt lat="42.01436" lon="19.36462">
        <ele>52.292423</ele>
        <time>2022-05-26T08:55:07.239Z</time>
      </trkpt>
      <trkpt lat="42.01428" lon="19.36455">
        <ele>52.7056</ele>
        <time>2022-05-26T08:55:09.256Z</time>
      </trkpt>
      <trkpt lat="42.0142" lon="19.36448">
        <ele>53.129294</ele>
        <time>2022-05-26T08:55:11.238Z</time>
      </trkpt>
      <trkpt lat="42.01412" lon="19.36442">
        <ele>53.56333</ele>
        <time>2022-05-26T08:55:13.239Z</time>
      </trkpt>
      <trkpt lat="42.01401" lon="19.36436">
        <ele>54.135635</ele>
        <time>2022-05-26T08:55:16.244Z</time>
      </trkpt>
      <trkpt lat="42.01389" lon="19.3643">
        <ele>54.687139</ele>
        <time>2022-05-26T08:55:19.228Z</time>
      </trkpt>
      <trkpt lat="42.01378" lon="19.36425">
        <ele>55.258082</ele>
        <time>2022-05-26T08:55:22.240Z</time>
      </trkpt>
      <trkpt lat="42.01365" lon="19.3642">
        <ele>55.842423</ele>
        <time>2022-05-26T08:55:25.232Z</time>
      </trkpt>
      <trkpt lat="42.01355" lon="19.36415">
        <ele>56.353592</ele>
        <time>2022-05-26T08:55:28.227Z</time>
      </trkpt>
      <trkpt lat="42.01343" lon="19.3641">
        <ele>56.910396</ele>
        <time>2022-05-26T08:55:31.259Z</time>
      </trkpt>
      <trkpt lat="42.0133" lon="19.36404">
        <ele>57.542596</ele>
        <time>2022-05-26T08:55:34.220Z</time>
      </trkpt>
      <trkpt lat="42.01321" lon="19.36399">
        <ele>58.016932</ele>
        <time>2022-05-26T08:55:36.235Z</time>
      </trkpt>
      <trkpt lat="42.01312" lon="19.36393">
        <ele>58.48764</ele>
        <time>2022-05-26T08:55:38.227Z</time>
      </trkpt>
      <trkpt lat="42.01302" lon="19.36385">
        <ele>59.001722</ele>
        <time>2022-05-26T08:55:40.242Z</time>
      </trkpt>
      <trkpt lat="42.01292" lon="19.36377">
        <ele>59.529554</ele>
        <time>2022-05-26T08:55:42.256Z</time>
      </trkpt>
      <trkpt lat="42.01283" lon="19.36368">
        <ele>60.059011</ele>
        <time>2022-05-26T08:55:44.251Z</time>
      </trkpt>
      <trkpt lat="42.01273" lon="19.36359">
        <ele>60.022784</ele>
        <time>2022-05-26T08:55:46.237Z</time>
      </trkpt>
      <trkpt lat="42.01265" lon="19.36349">
        <ele>59.930845</ele>
        <time>2022-05-26T08:55:48.226Z</time>
      </trkpt>
      <trkpt lat="42.01256" lon="19.36338">
        <ele>59.835548</ele>
        <time>2022-05-26T08:55:50.215Z</time>
      </trkpt>
      <trkpt lat="42.01247" lon="19.36328">
        <ele>59.742626</ele>
        <time>2022-05-26T08:55:52.225Z</time>
      </trkpt>
      <trkpt lat="42.01239" lon="19.36317">
        <ele>59.653423</ele>
        <time>2022-05-26T08:55:54.267Z</time>
      </trkpt>
      <trkpt lat="42.01232" lon="19.36308">
        <ele>59.572096</ele>
        <time>2022-05-26T08:55:56.232Z</time>
      </trkpt>
      <trkpt lat="42.01224" lon="19.36298">
        <ele>59.488272</ele>
        <time>2022-05-26T08:55:58.223Z</time>
      </trkpt>
      <trkpt lat="42.01216" lon="19.36288">
        <ele>59.402661</ele>
        <time>2022-05-26T08:56:00.237Z</time>
      </trkpt>
      <trkpt lat="42.01208" lon="19.36278">
        <ele>59.316986</ele>
        <time>2022-05-26T08:56:02.233Z</time>
      </trkpt>
      <trkpt lat="42.01201" lon="19.36269">
        <ele>59.23375</ele>
        <time>2022-05-26T08:56:04.261Z</time>
      </trkpt>
      <trkpt lat="42.01193" lon="19.3626">
        <ele>59.155451</ele>
        <time>2022-05-26T08:56:06.239Z</time>
      </trkpt>
      <trkpt lat="42.01185" lon="19.36248">
        <ele>59.05827</ele>
        <time>2022-05-26T08:56:09.245Z</time>
      </trkpt>
      <trkpt lat="42.01179" lon="19.36237">
        <ele>58.975101</ele>
        <time>2022-05-26T08:56:12.240Z</time>
      </trkpt>
      <trkpt lat="42.01173" lon="19.36225">
        <ele>58.89498</ele>
        <time>2022-05-26T08:56:15.273Z</time>
      </trkpt>
      <trkpt lat="42.01168" lon="19.36213">
        <ele>58.815179</ele>
        <time>2022-05-26T08:56:18.228Z</time>
      </trkpt>
      <trkpt lat="42.01164" lon="19.36202">
        <ele>58.741948</ele>
        <time>2022-05-26T08:56:21.228Z</time>
      </trkpt>
      <trkpt lat="42.01161" lon="19.3619">
        <ele>58.629889</ele>
        <time>2022-05-26T08:56:24.248Z</time>
      </trkpt>
      <trkpt lat="42.01156" lon="19.36175">
        <ele>58.184962</ele>
        <time>2022-05-26T08:56:27.244Z</time>
      </trkpt>
      <trkpt lat="42.01152" lon="19.36164">
        <ele>57.834826</ele>
        <time>2022-05-26T08:56:29.241Z</time>
      </trkpt>
      <trkpt lat="42.01148" lon="19.36151">
        <ele>57.442603</ele>
        <time>2022-05-26T08:56:31.250Z</time>
      </trkpt>
      <trkpt lat="42.01143" lon="19.36137">
        <ele>57.011303</ele>
        <time>2022-05-26T08:56:33.232Z</time>
      </trkpt>
      <trkpt lat="42.01139" lon="19.36122">
        <ele>56.575128</ele>
        <time>2022-05-26T08:56:35.224Z</time>
      </trkpt>
      <trkpt lat="42.01135" lon="19.36107">
        <ele>56.118125</ele>
        <time>2022-05-26T08:56:37.267Z</time>
      </trkpt>
      <trkpt lat="42.0113" lon="19.36092">
        <ele>55.670012</ele>
        <time>2022-05-26T08:56:39.236Z</time>
      </trkpt>
      <trkpt lat="42.01125" lon="19.36076">
        <ele>55.208764</ele>
        <time>2022-05-26T08:56:41.235Z</time>
      </trkpt>
      <trkpt lat="42.0112" lon="19.36062">
        <ele>54.762819</ele>
        <time>2022-05-26T08:56:43.274Z</time>
      </trkpt>
      <trkpt lat="42.01116" lon="19.36047">
        <ele>54.323833</ele>
        <time>2022-05-26T08:56:45.233Z</time>
      </trkpt>
      <trkpt lat="42.01112" lon="19.36032">
        <ele>53.885074</ele>
        <time>2022-05-26T08:56:47.236Z</time>
      </trkpt>
      <trkpt lat="42.01107" lon="19.36018">
        <ele>53.442354</ele>
        <time>2022-05-26T08:56:49.267Z</time>
      </trkpt>
      <trkpt lat="42.01103" lon="19.36004">
        <ele>53.02046</ele>
        <time>2022-05-26T08:56:51.237Z</time>
      </trkpt>
      <trkpt lat="42.01099" lon="19.3599">
        <ele>52.605211</ele>
        <time>2022-05-26T08:56:53.236Z</time>
      </trkpt>
      <trkpt lat="42.01095" lon="19.35977">
        <ele>52.221174</ele>
        <time>2022-05-26T08:56:55.224Z</time>
      </trkpt>
      <trkpt lat="42.01093" lon="19.35964">
        <ele>51.973439</ele>
        <time>2022-05-26T08:56:57.224Z</time>
      </trkpt>
      <trkpt lat="42.01092" lon="19.3595">
        <ele>52.065974</ele>
        <time>2022-05-26T08:56:59.228Z</time>
      </trkpt>
      <trkpt lat="42.01093" lon="19.35936">
        <ele>52.153318</ele>
        <time>2022-05-26T08:57:01.231Z</time>
      </trkpt>
      <trkpt lat="42.01096" lon="19.35924">
        <ele>52.236404</ele>
        <time>2022-05-26T08:57:03.247Z</time>
      </trkpt>
      <trkpt lat="42.011" lon="19.35913">
        <ele>52.318363</ele>
        <time>2022-05-26T08:57:05.269Z</time>
      </trkpt>
      <trkpt lat="42.01105" lon="19.35903">
        <ele>52.39964</ele>
        <time>2022-05-26T08:57:07.259Z</time>
      </trkpt>
      <trkpt lat="42.0111" lon="19.35893">
        <ele>52.480378</ele>
        <time>2022-05-26T08:57:09.245Z</time>
      </trkpt>
      <trkpt lat="42.01115" lon="19.35882">
        <ele>52.560499</ele>
        <time>2022-05-26T08:57:11.256Z</time>
      </trkpt>
      <trkpt lat="42.01119" lon="19.35871">
        <ele>52.64064</ele>
        <time>2022-05-26T08:57:13.219Z</time>
      </trkpt>
      <trkpt lat="42.01122" lon="19.35859">
        <ele>52.724515</ele>
        <time>2022-05-26T08:57:15.234Z</time>
      </trkpt>
      <trkpt lat="42.01124" lon="19.35846">
        <ele>52.808161</ele>
        <time>2022-05-26T08:57:17.216Z</time>
      </trkpt>
      <trkpt lat="42.01126" lon="19.35833">
        <ele>52.893671</ele>
        <time>2022-05-26T08:57:19.264Z</time>
      </trkpt>
      <trkpt lat="42.01127" lon="19.35821">
        <ele>52.974531</ele>
        <time>2022-05-26T08:57:21.233Z</time>
      </trkpt>
      <trkpt lat="42.01129" lon="19.35809">
        <ele>53.055547</ele>
        <time>2022-05-26T08:57:23.271Z</time>
      </trkpt>
      <trkpt lat="42.0113" lon="19.35797">
        <ele>53.134971</ele>
        <time>2022-05-26T08:57:25.257Z</time>
      </trkpt>
      <trkpt lat="42.01133" lon="19.3578">
        <ele>53.248168</ele>
        <time>2022-05-26T08:57:28.243Z</time>
      </trkpt>
      <trkpt lat="42.01139" lon="19.35768">
        <ele>53.340105</ele>
        <time>2022-05-26T08:57:31.245Z</time>
      </trkpt>
      <trkpt lat="42.01149" lon="19.35761">
        <ele>53.438183</ele>
        <time>2022-05-26T08:57:34.225Z</time>
      </trkpt>
      <trkpt lat="42.01158" lon="19.35759">
        <ele>53.522369</ele>
        <time>2022-05-26T08:57:37.230Z</time>
      </trkpt>
      <trkpt lat="42.01169" lon="19.35758">
        <ele>53.676349</ele>
        <time>2022-05-26T08:57:40.255Z</time>
      </trkpt>
      <trkpt lat="42.01179" lon="19.35755">
        <ele>53.842238</ele>
        <time>2022-05-26T08:57:43.233Z</time>
      </trkpt>
      <trkpt lat="42.0119" lon="19.35752">
        <ele>54.001985</ele>
        <time>2022-05-26T08:57:46.227Z</time>
      </trkpt>
      <trkpt lat="42.012" lon="19.35748">
        <ele>54.159647</ele>
        <time>2022-05-26T08:57:49.254Z</time>
      </trkpt>
      <trkpt lat="42.0121" lon="19.35744">
        <ele>54.321477</ele>
        <time>2022-05-26T08:57:52.238Z</time>
      </trkpt>
      <trkpt lat="42.01219" lon="19.35739">
        <ele>54.47825</ele>
        <time>2022-05-26T08:57:55.215Z</time>
      </trkpt>
      <trkpt lat="42.01228" lon="19.35733">
        <ele>54.62944</ele>
        <time>2022-05-26T08:57:58.253Z</time>
      </trkpt>
      <trkpt lat="42.01238" lon="19.35727">
        <ele>54.789801</ele>
        <time>2022-05-26T08:58:01.228Z</time>
      </trkpt>
      <trkpt lat="42.01247" lon="19.3572">
        <ele>54.946509</ele>
        <time>2022-05-26T08:58:04.212Z</time>
      </trkpt>
      <trkpt lat="42.01255" lon="19.35711">
        <ele>55.111761</ele>
        <time>2022-05-26T08:58:07.265Z</time>
      </trkpt>
      <trkpt lat="42.01264" lon="19.35703">
        <ele>55.274787</ele>
        <time>2022-05-26T08:58:10.220Z</time>
      </trkpt>
      <trkpt lat="42.01272" lon="19.35691">
        <ele>55.45052</ele>
        <time>2022-05-26T08:58:13.221Z</time>
      </trkpt>
      <trkpt lat="42.01278" lon="19.35679">
        <ele>55.620829</ele>
        <time>2022-05-26T08:58:16.234Z</time>
      </trkpt>
      <trkpt lat="42.01281" lon="19.35662">
        <ele>55.820494</ele>
        <time>2022-05-26T08:58:19.237Z</time>
      </trkpt>
      <trkpt lat="42.01281" lon="19.35646">
        <ele>56.000498</ele>
        <time>2022-05-26T08:58:22.239Z</time>
      </trkpt>
      <trkpt lat="42.01277" lon="19.3563">
        <ele>56.186725</ele>
        <time>2022-05-26T08:58:25.223Z</time>
      </trkpt>
      <trkpt lat="42.01274" lon="19.35618">
        <ele>56.288005</ele>
        <time>2022-05-26T08:58:27.234Z</time>
      </trkpt>
      <trkpt lat="42.01271" lon="19.35604">
        <ele>56.347354</ele>
        <time>2022-05-26T08:58:29.242Z</time>
      </trkpt>
      <trkpt lat="42.01267" lon="19.3559">
        <ele>56.409616</ele>
        <time>2022-05-26T08:58:31.262Z</time>
      </trkpt>
      <trkpt lat="42.01264" lon="19.35577">
        <ele>56.469881</ele>
        <time>2022-05-26T08:58:33.232Z</time>
      </trkpt>
      <trkpt lat="42.01261" lon="19.35563">
        <ele>56.530663</ele>
        <time>2022-05-26T08:58:35.234Z</time>
      </trkpt>
      <trkpt lat="42.01257" lon="19.35549">
        <ele>56.590928</ele>
        <time>2022-05-26T08:58:37.255Z</time>
      </trkpt>
      <trkpt lat="42.01253" lon="19.35536">
        <ele>56.650016</ele>
        <time>2022-05-26T08:58:39.253Z</time>
      </trkpt>
      <trkpt lat="42.01249" lon="19.35524">
        <ele>56.708567</ele>
        <time>2022-05-26T08:58:41.213Z</time>
      </trkpt>
      <trkpt lat="42.01244" lon="19.35512">
        <ele>56.765493</ele>
        <time>2022-05-26T08:58:43.234Z</time>
      </trkpt>
      <trkpt lat="42.01239" lon="19.355">
        <ele>56.82166</ele>
        <time>2022-05-26T08:58:45.219Z</time>
      </trkpt>
      <trkpt lat="42.01234" lon="19.35488">
        <ele>56.880712</ele>
        <time>2022-05-26T08:58:47.253Z</time>
      </trkpt>
      <trkpt lat="42.01228" lon="19.35476">
        <ele>56.939659</ele>
        <time>2022-05-26T08:58:49.223Z</time>
      </trkpt>
      <trkpt lat="42.01222" lon="19.35465">
        <ele>56.999168</ele>
        <time>2022-05-26T08:58:51.229Z</time>
      </trkpt>
      <trkpt lat="42.01216" lon="19.35453">
        <ele>57.058347</ele>
        <time>2022-05-26T08:58:53.225Z</time>
      </trkpt>
      <trkpt lat="42.01209" lon="19.35442">
        <ele>57.115855</ele>
        <time>2022-05-26T08:58:55.242Z</time>
      </trkpt>
      <trkpt lat="42.01203" lon="19.35431">
        <ele>57.172347</ele>
        <time>2022-05-26T08:58:57.235Z</time>
      </trkpt>
      <trkpt lat="42.01198" lon="19.35421">
        <ele>57.227484</ele>
        <time>2022-05-26T08:58:59.244Z</time>
      </trkpt>
      <trkpt lat="42.01192" lon="19.3541">
        <ele>57.306178</ele>
        <time>2022-05-26T08:59:01.247Z</time>
      </trkpt>
      <trkpt lat="42.01186" lon="19.35399">
        <ele>57.59437</ele>
        <time>2022-05-26T08:59:03.232Z</time>
      </trkpt>
      <trkpt lat="42.0118" lon="19.35388">
        <ele>57.87735</ele>
        <time>2022-05-26T08:59:05.267Z</time>
      </trkpt>
      <trkpt lat="42.01174" lon="19.35377">
        <ele>58.16887</ele>
        <time>2022-05-26T08:59:07.248Z</time>
      </trkpt>
      <trkpt lat="42.01168" lon="19.35366">
        <ele>58.456935</ele>
        <time>2022-05-26T08:59:09.216Z</time>
      </trkpt>
      <trkpt lat="42.01161" lon="19.35355">
        <ele>58.75705</ele>
        <time>2022-05-26T08:59:11.280Z</time>
      </trkpt>
      <trkpt lat="42.01155" lon="19.35344">
        <ele>59.055286</ele>
        <time>2022-05-26T08:59:13.237Z</time>
      </trkpt>
      <trkpt lat="42.01149" lon="19.35332">
        <ele>59.358606</ele>
        <time>2022-05-26T08:59:15.267Z</time>
      </trkpt>
      <trkpt lat="42.01142" lon="19.35322">
        <ele>59.641733</ele>
        <time>2022-05-26T08:59:17.235Z</time>
      </trkpt>
      <trkpt lat="42.01136" lon="19.35311">
        <ele>59.918299</ele>
        <time>2022-05-26T08:59:19.228Z</time>
      </trkpt>
      <trkpt lat="42.0113" lon="19.35302">
        <ele>60.184442</ele>
        <time>2022-05-26T08:59:21.236Z</time>
      </trkpt>
      <trkpt lat="42.01123" lon="19.35288">
        <ele>60.553874</ele>
        <time>2022-05-26T08:59:24.244Z</time>
      </trkpt>
      <trkpt lat="42.01115" lon="19.35276">
        <ele>60.87784</ele>
        <time>2022-05-26T08:59:27.271Z</time>
      </trkpt>
      <trkpt lat="42.0111" lon="19.35266">
        <ele>61.139039</ele>
        <time>2022-05-26T08:59:30.235Z</time>
      </trkpt>
      <trkpt lat="42.01103" lon="19.35253">
        <ele>61.467941</ele>
        <time>2022-05-26T08:59:34.213Z</time>
      </trkpt>
      <trkpt lat="42.01096" lon="19.35242">
        <ele>61.786839</ele>
        <time>2022-05-26T08:59:38.267Z</time>
      </trkpt>
      <trkpt lat="42.01089" lon="19.3523">
        <ele>62.095268</ele>
        <time>2022-05-26T08:59:42.236Z</time>
      </trkpt>
      <trkpt lat="42.01083" lon="19.35218">
        <ele>62.38806</ele>
        <time>2022-05-26T08:59:46.247Z</time>
      </trkpt>
      <trkpt lat="42.01077" lon="19.35207">
        <ele>62.392781</ele>
        <time>2022-05-26T08:59:50.233Z</time>
      </trkpt>
      <trkpt lat="42.01072" lon="19.35196">
        <ele>62.397163</ele>
        <time>2022-05-26T08:59:54.259Z</time>
      </trkpt>
      <trkpt lat="42.01068" lon="19.35184">
        <ele>62.401435</ele>
        <time>2022-05-26T08:59:58.221Z</time>
      </trkpt>
      <trkpt lat="42.01064" lon="19.35172">
        <ele>62.405949</ele>
        <time>2022-05-26T09:00:02.236Z</time>
      </trkpt>
      <trkpt lat="42.0106" lon="19.3516">
        <ele>62.410694</ele>
        <time>2022-05-26T09:00:06.249Z</time>
      </trkpt>
      <trkpt lat="42.01053" lon="19.35147">
        <ele>62.416065</ele>
        <time>2022-05-26T09:00:10.214Z</time>
      </trkpt>
      <trkpt lat="42.01047" lon="19.35137">
        <ele>62.420401</ele>
        <time>2022-05-26T09:00:13.279Z</time>
      </trkpt>
      <trkpt lat="42.01039" lon="19.35127">
        <ele>62.425457</ele>
        <time>2022-05-26T09:00:16.227Z</time>
      </trkpt>
      <trkpt lat="42.01031" lon="19.3512">
        <ele>62.429626</ele>
        <time>2022-05-26T09:00:18.239Z</time>
      </trkpt>
      <trkpt lat="42.01023" lon="19.35113">
        <ele>62.433892</ele>
        <time>2022-05-26T09:00:20.244Z</time>
      </trkpt>
      <trkpt lat="42.01015" lon="19.35106">
        <ele>62.438686</ele>
        <time>2022-05-26T09:00:22.245Z</time>
      </trkpt>
      <trkpt lat="42.01006" lon="19.35097">
        <ele>62.443524</ele>
        <time>2022-05-26T09:00:24.263Z</time>
      </trkpt>
      <trkpt lat="42.00998" lon="19.3509">
        <ele>62.448015</ele>
        <time>2022-05-26T09:00:26.236Z</time>
      </trkpt>
      <trkpt lat="42.00989" lon="19.35082">
        <ele>62.452717</ele>
        <time>2022-05-26T09:00:28.234Z</time>
      </trkpt>
      <trkpt lat="42.0098" lon="19.35073">
        <ele>62.458026</ele>
        <time>2022-05-26T09:00:30.233Z</time>
      </trkpt>
      <trkpt lat="42.0097" lon="19.35062">
        <ele>62.463841</ele>
        <time>2022-05-26T09:00:32.247Z</time>
      </trkpt>
      <trkpt lat="42.00962" lon="19.35048">
        <ele>62.469844</ele>
        <time>2022-05-26T09:00:34.227Z</time>
      </trkpt>
      <trkpt lat="42.00955" lon="19.35033">
        <ele>62.243316</ele>
        <time>2022-05-26T09:00:36.239Z</time>
      </trkpt>
      <trkpt lat="42.00951" lon="19.35017">
        <ele>62.021281</ele>
        <time>2022-05-26T09:00:38.239Z</time>
      </trkpt>
      <trkpt lat="42.00948" lon="19.35002">
        <ele>61.808099</ele>
        <time>2022-05-26T09:00:40.247Z</time>
      </trkpt>
      <trkpt lat="42.00946" lon="19.34987">
        <ele>61.607182</ele>
        <time>2022-05-26T09:00:42.245Z</time>
      </trkpt>
      <trkpt lat="42.00944" lon="19.34972">
        <ele>61.411486</ele>
        <time>2022-05-26T09:00:44.244Z</time>
      </trkpt>
      <trkpt lat="42.00942" lon="19.34959">
        <ele>61.226217</ele>
        <time>2022-05-26T09:00:46.248Z</time>
      </trkpt>
      <trkpt lat="42.0094" lon="19.34945">
        <ele>61.043551</ele>
        <time>2022-05-26T09:00:48.231Z</time>
      </trkpt>
      <trkpt lat="42.00938" lon="19.34932">
        <ele>60.863487</ele>
        <time>2022-05-26T09:00:50.245Z</time>
      </trkpt>
      <trkpt lat="42.00936" lon="19.34919">
        <ele>60.686291</ele>
        <time>2022-05-26T09:00:52.280Z</time>
      </trkpt>
      <trkpt lat="42.00935" lon="19.34905">
        <ele>60.508817</ele>
        <time>2022-05-26T09:00:54.239Z</time>
      </trkpt>
      <trkpt lat="42.00934" lon="19.34892">
        <ele>60.332186</ele>
        <time>2022-05-26T09:00:56.225Z</time>
      </trkpt>
      <trkpt lat="42.00935" lon="19.3488">
        <ele>60.167401</ele>
        <time>2022-05-26T09:00:58.227Z</time>
      </trkpt>
      <trkpt lat="42.00936" lon="19.34867">
        <ele>60.002281</ele>
        <time>2022-05-26T09:01:00.236Z</time>
      </trkpt>
      <trkpt lat="42.00938" lon="19.34855">
        <ele>59.83353</ele>
        <time>2022-05-26T09:01:02.220Z</time>
      </trkpt>
      <trkpt lat="42.00942" lon="19.34843">
        <ele>59.66435</ele>
        <time>2022-05-26T09:01:04.222Z</time>
      </trkpt>
      <trkpt lat="42.00946" lon="19.34832">
        <ele>59.502619</ele>
        <time>2022-05-26T09:01:06.249Z</time>
      </trkpt>
      <trkpt lat="42.0095" lon="19.34821">
        <ele>59.341686</ele>
        <time>2022-05-26T09:01:08.243Z</time>
      </trkpt>
      <trkpt lat="42.00954" lon="19.3481">
        <ele>59.217114</ele>
        <time>2022-05-26T09:01:10.236Z</time>
      </trkpt>
      <trkpt lat="42.0096" lon="19.34794">
        <ele>59.093448</ele>
        <time>2022-05-26T09:01:13.245Z</time>
      </trkpt>
      <trkpt lat="42.00965" lon="19.34784">
        <ele>59.00946</ele>
        <time>2022-05-26T09:01:15.236Z</time>
      </trkpt>
      <trkpt lat="42.00971" lon="19.34768">
        <ele>58.888624</ele>
        <time>2022-05-26T09:01:18.245Z</time>
      </trkpt>
      <trkpt lat="42.00977" lon="19.34753">
        <ele>58.771123</ele>
        <time>2022-05-26T09:01:21.238Z</time>
      </trkpt>
      <trkpt lat="42.00983" lon="19.34737">
        <ele>58.651576</ele>
        <time>2022-05-26T09:01:24.242Z</time>
      </trkpt>
      <trkpt lat="42.00989" lon="19.34722">
        <ele>58.533658</ele>
        <time>2022-05-26T09:01:27.236Z</time>
      </trkpt>
      <trkpt lat="42.00995" lon="19.34706">
        <ele>58.413506</ele>
        <time>2022-05-26T09:01:30.254Z</time>
      </trkpt>
      <trkpt lat="42.01001" lon="19.3469">
        <ele>58.293959</ele>
        <time>2022-05-26T09:01:33.236Z</time>
      </trkpt>
      <trkpt lat="42.01006" lon="19.34675">
        <ele>58.177675</ele>
        <time>2022-05-26T09:01:36.245Z</time>
      </trkpt>
      <trkpt lat="42.01012" lon="19.3466">
        <ele>58.061302</ele>
        <time>2022-05-26T09:01:39.250Z</time>
      </trkpt>
      <trkpt lat="42.01018" lon="19.34645">
        <ele>57.946243</ele>
        <time>2022-05-26T09:01:42.236Z</time>
      </trkpt>
      <trkpt lat="42.01023" lon="19.34629">
        <ele>57.828731</ele>
        <time>2022-05-26T09:01:45.228Z</time>
      </trkpt>
      <trkpt lat="42.01029" lon="19.34614">
        <ele>57.710623</ele>
        <time>2022-05-26T09:01:48.245Z</time>
      </trkpt>
      <trkpt lat="42.01035" lon="19.34598">
        <ele>57.611485</ele>
        <time>2022-05-26T09:01:51.258Z</time>
      </trkpt>
      <trkpt lat="42.0104" lon="19.34583">
        <ele>57.618984</ele>
        <time>2022-05-26T09:01:54.225Z</time>
      </trkpt>
      <trkpt lat="42.01046" lon="19.34567">
        <ele>57.626719</ele>
        <time>2022-05-26T09:01:57.241Z</time>
      </trkpt>
      <trkpt lat="42.01052" lon="19.34551">
        <ele>57.634573</ele>
        <time>2022-05-26T09:02:00.235Z</time>
      </trkpt>
      <trkpt lat="42.01057" lon="19.34536">
        <ele>57.641983</ele>
        <time>2022-05-26T09:02:03.230Z</time>
      </trkpt>
      <trkpt lat="42.01062" lon="19.3452">
        <ele>57.649621</ele>
        <time>2022-05-26T09:02:06.243Z</time>
      </trkpt>
      <trkpt lat="42.01065" lon="19.34503">
        <ele>57.657274</ele>
        <time>2022-05-26T09:02:09.245Z</time>
      </trkpt>
      <trkpt lat="42.01067" lon="19.34485">
        <ele>57.665186</ele>
        <time>2022-05-26T09:02:12.253Z</time>
      </trkpt>
      <trkpt lat="42.01068" lon="19.34468">
        <ele>57.672696</ele>
        <time>2022-05-26T09:02:15.235Z</time>
      </trkpt>
      <trkpt lat="42.01068" lon="19.34452">
        <ele>57.680008</ele>
        <time>2022-05-26T09:02:18.226Z</time>
      </trkpt>
      <trkpt lat="42.01068" lon="19.34435">
        <ele>57.687325</ele>
        <time>2022-05-26T09:02:21.234Z</time>
      </trkpt>
      <trkpt lat="42.01068" lon="19.34417">
        <ele>57.695032</ele>
        <time>2022-05-26T09:02:24.273Z</time>
      </trkpt>
      <trkpt lat="42.01069" lon="19.344">
        <ele>57.702655</ele>
        <time>2022-05-26T09:02:27.235Z</time>
      </trkpt>
      <trkpt lat="42.01069" lon="19.34382">
        <ele>57.710671</ele>
        <time>2022-05-26T09:02:30.286Z</time>
      </trkpt>
      <trkpt lat="42.01069" lon="19.34364">
        <ele>57.757833</ele>
        <time>2022-05-26T09:02:33.233Z</time>
      </trkpt>
      <trkpt lat="42.01069" lon="19.34346">
        <ele>57.961229</ele>
        <time>2022-05-26T09:02:36.232Z</time>
      </trkpt>
      <trkpt lat="42.01069" lon="19.34334">
        <ele>58.103628</ele>
        <time>2022-05-26T09:02:38.245Z</time>
      </trkpt>
      <trkpt lat="42.01069" lon="19.34321">
        <ele>58.245173</ele>
        <time>2022-05-26T09:02:40.246Z</time>
      </trkpt>
      <trkpt lat="42.0107" lon="19.34309">
        <ele>58.386626</ele>
        <time>2022-05-26T09:02:42.238Z</time>
      </trkpt>
      <trkpt lat="42.0107" lon="19.34297">
        <ele>58.526796</ele>
        <time>2022-05-26T09:02:44.233Z</time>
      </trkpt>
      <trkpt lat="42.0107" lon="19.34279">
        <ele>58.732394</ele>
        <time>2022-05-26T09:02:47.259Z</time>
      </trkpt>
      <trkpt lat="42.01069" lon="19.34267">
        <ele>58.871417</ele>
        <time>2022-05-26T09:02:49.247Z</time>
      </trkpt>
      <trkpt lat="42.01068" lon="19.3425">
        <ele>59.068384</ele>
        <time>2022-05-26T09:02:52.224Z</time>
      </trkpt>
      <trkpt lat="42.01067" lon="19.34232">
        <ele>59.273529</ele>
        <time>2022-05-26T09:02:55.256Z</time>
      </trkpt>
      <trkpt lat="42.01063" lon="19.34215">
        <ele>59.481238</ele>
        <time>2022-05-26T09:02:58.273Z</time>
      </trkpt>
      <trkpt lat="42.01059" lon="19.34197">
        <ele>59.688837</ele>
        <time>2022-05-26T09:03:01.237Z</time>
      </trkpt>
      <trkpt lat="42.01055" lon="19.34181">
        <ele>59.890141</ele>
        <time>2022-05-26T09:03:04.275Z</time>
      </trkpt>
      <trkpt lat="42.01051" lon="19.34165">
        <ele>60.085687</ele>
        <time>2022-05-26T09:03:07.245Z</time>
      </trkpt>
      <trkpt lat="42.0105" lon="19.34148">
        <ele>60.278672</ele>
        <time>2022-05-26T09:03:10.263Z</time>
      </trkpt>
      <trkpt lat="42.01051" lon="19.3413">
        <ele>60.480219</ele>
        <time>2022-05-26T09:03:13.228Z</time>
      </trkpt>
      <trkpt lat="42.01055" lon="19.34114">
        <ele>60.672594</ele>
        <time>2022-05-26T09:03:16.239Z</time>
      </trkpt>
      <trkpt lat="42.01061" lon="19.34101">
        <ele>60.850871</ele>
        <time>2022-05-26T09:03:19.222Z</time>
      </trkpt>
      <trkpt lat="42.01067" lon="19.3409">
        <ele>61.006733</ele>
        <time>2022-05-26T09:03:22.217Z</time>
      </trkpt>
      <trkpt lat="42.01074" lon="19.34079">
        <ele>61.167225</ele>
        <time>2022-05-26T09:03:25.238Z</time>
      </trkpt>
      <trkpt lat="42.01081" lon="19.34067">
        <ele>61.332235</ele>
        <time>2022-05-26T09:03:28.219Z</time>
      </trkpt>
      <trkpt lat="42.01087" lon="19.34056">
        <ele>61.495284</ele>
        <time>2022-05-26T09:03:31.233Z</time>
      </trkpt>
      <trkpt lat="42.01094" lon="19.34044">
        <ele>61.657427</ele>
        <time>2022-05-26T09:03:34.225Z</time>
      </trkpt>
      <trkpt lat="42.011" lon="19.34032">
        <ele>61.817788</ele>
        <time>2022-05-26T09:03:37.247Z</time>
      </trkpt>
      <trkpt lat="42.01105" lon="19.34018">
        <ele>61.992861</ele>
        <time>2022-05-26T09:03:40.279Z</time>
      </trkpt>
      <trkpt lat="42.01108" lon="19.34002">
        <ele>62.178808</ele>
        <time>2022-05-26T09:03:43.260Z</time>
      </trkpt>
      <trkpt lat="42.01108" lon="19.33986">
        <ele>62.358372</ele>
        <time>2022-05-26T09:03:46.239Z</time>
      </trkpt>
      <trkpt lat="42.01106" lon="19.33969">
        <ele>62.554234</ele>
        <time>2022-05-26T09:03:49.268Z</time>
      </trkpt>
      <trkpt lat="42.01104" lon="19.33957">
        <ele>62.691619</ele>
        <time>2022-05-26T09:03:51.238Z</time>
      </trkpt>
      <trkpt lat="42.01101" lon="19.3394">
        <ele>62.891414</ele>
        <time>2022-05-26T09:03:54.256Z</time>
      </trkpt>
      <trkpt lat="42.01098" lon="19.33922">
        <ele>63.091535</ele>
        <time>2022-05-26T09:03:57.247Z</time>
      </trkpt>
      <trkpt lat="42.01096" lon="19.3391">
        <ele>63.209124</ele>
        <time>2022-05-26T09:03:59.236Z</time>
      </trkpt>
      <trkpt lat="42.01094" lon="19.33897">
        <ele>63.172794</ele>
        <time>2022-05-26T09:04:01.248Z</time>
      </trkpt>
      <trkpt lat="42.01092" lon="19.33885">
        <ele>63.13595</ele>
        <time>2022-05-26T09:04:03.236Z</time>
      </trkpt>
      <trkpt lat="42.0109" lon="19.33872">
        <ele>63.09856</ele>
        <time>2022-05-26T09:04:05.238Z</time>
      </trkpt>
      <trkpt lat="42.01088" lon="19.33859">
        <ele>63.062535</ele>
        <time>2022-05-26T09:04:07.239Z</time>
      </trkpt>
      <trkpt lat="42.01086" lon="19.33846">
        <ele>63.025775</ele>
        <time>2022-05-26T09:04:09.260Z</time>
      </trkpt>
      <trkpt lat="42.01084" lon="19.33834">
        <ele>62.99048</ele>
        <time>2022-05-26T09:04:11.271Z</time>
      </trkpt>
      <trkpt lat="42.01082" lon="19.33821">
        <ele>62.954541</ele>
        <time>2022-05-26T09:04:13.265Z</time>
      </trkpt>
      <trkpt lat="42.0108" lon="19.33809">
        <ele>62.918957</ele>
        <time>2022-05-26T09:04:15.223Z</time>
      </trkpt>
      <trkpt lat="42.01078" lon="19.33796">
        <ele>62.882744</ele>
        <time>2022-05-26T09:04:17.258Z</time>
      </trkpt>
      <trkpt lat="42.01076" lon="19.33784">
        <ele>62.846446</ele>
        <time>2022-05-26T09:04:19.236Z</time>
      </trkpt>
      <trkpt lat="42.01074" lon="19.33771">
        <ele>62.810314</ele>
        <time>2022-05-26T09:04:21.230Z</time>
      </trkpt>
      <trkpt lat="42.01072" lon="19.33759">
        <ele>62.774533</ele>
        <time>2022-05-26T09:04:23.223Z</time>
      </trkpt>
      <trkpt lat="42.0107" lon="19.33746">
        <ele>62.738753</ele>
        <time>2022-05-26T09:04:25.238Z</time>
      </trkpt>
      <trkpt lat="42.01067" lon="19.33729">
        <ele>62.688846</ele>
        <time>2022-05-26T09:04:28.223Z</time>
      </trkpt>
      <trkpt lat="42.01064" lon="19.33712">
        <ele>62.639972</ele>
        <time>2022-05-26T09:04:31.282Z</time>
      </trkpt>
      <trkpt lat="42.01061" lon="19.33695">
        <ele>62.592607</ele>
        <time>2022-05-26T09:04:34.228Z</time>
      </trkpt>
      <trkpt lat="42.01059" lon="19.3368">
        <ele>62.547498</ele>
        <time>2022-05-26T09:04:37.225Z</time>
      </trkpt>
      <trkpt lat="42.01057" lon="19.33664">
        <ele>62.670362</ele>
        <time>2022-05-26T09:04:40.236Z</time>
      </trkpt>
      <trkpt lat="42.01056" lon="19.33649">
        <ele>62.865257</ele>
        <time>2022-05-26T09:04:43.249Z</time>
      </trkpt>
      <trkpt lat="42.01057" lon="19.33633">
        <ele>63.067905</ele>
        <time>2022-05-26T09:04:46.228Z</time>
      </trkpt>
      <trkpt lat="42.0106" lon="19.33618">
        <ele>63.258941</ele>
        <time>2022-05-26T09:04:49.239Z</time>
      </trkpt>
      <trkpt lat="42.01064" lon="19.33604">
        <ele>63.449092</ele>
        <time>2022-05-26T09:04:52.277Z</time>
      </trkpt>
      <trkpt lat="42.01069" lon="19.3359">
        <ele>63.639995</ele>
        <time>2022-05-26T09:04:55.238Z</time>
      </trkpt>
      <trkpt lat="42.01073" lon="19.33576">
        <ele>63.826505</ele>
        <time>2022-05-26T09:04:58.235Z</time>
      </trkpt>
      <trkpt lat="42.01079" lon="19.33562">
        <ele>64.022621</ele>
        <time>2022-05-26T09:05:01.241Z</time>
      </trkpt>
      <trkpt lat="42.01084" lon="19.33548">
        <ele>64.212399</ele>
        <time>2022-05-26T09:05:04.217Z</time>
      </trkpt>
      <trkpt lat="42.01089" lon="19.33535">
        <ele>64.402959</ele>
        <time>2022-05-26T09:05:07.243Z</time>
      </trkpt>
      <trkpt lat="42.01095" lon="19.33522">
        <ele>64.595769</ele>
        <time>2022-05-26T09:05:10.232Z</time>
      </trkpt>
      <trkpt lat="42.01102" lon="19.3351">
        <ele>64.784121</ele>
        <time>2022-05-26T09:05:13.226Z</time>
      </trkpt>
      <trkpt lat="42.01109" lon="19.33498">
        <ele>64.974499</ele>
        <time>2022-05-26T09:05:16.251Z</time>
      </trkpt>
      <trkpt lat="42.01117" lon="19.33487">
        <ele>65.159527</ele>
        <time>2022-05-26T09:05:19.275Z</time>
      </trkpt>
      <trkpt lat="42.01124" lon="19.33477">
        <ele>65.337194</ele>
        <time>2022-05-26T09:05:22.253Z</time>
      </trkpt>
      <trkpt lat="42.01133" lon="19.33467">
        <ele>65.528495</ele>
        <time>2022-05-26T09:05:25.246Z</time>
      </trkpt>
      <trkpt lat="42.01141" lon="19.33457">
        <ele>65.681309</ele>
        <time>2022-05-26T09:05:28.243Z</time>
      </trkpt>
      <trkpt lat="42.01149" lon="19.33447">
        <ele>65.831068</ele>
        <time>2022-05-26T09:05:31.265Z</time>
      </trkpt>
      <trkpt lat="42.01158" lon="19.33437">
        <ele>65.980891</ele>
        <time>2022-05-26T09:05:34.228Z</time>
      </trkpt>
      <trkpt lat="42.01166" lon="19.33426">
        <ele>66.13136</ele>
        <time>2022-05-26T09:05:37.240Z</time>
      </trkpt>
      <trkpt lat="42.01175" lon="19.33416">
        <ele>66.282452</ele>
        <time>2022-05-26T09:05:40.236Z</time>
      </trkpt>
      <trkpt lat="42.01183" lon="19.33405">
        <ele>66.439327</ele>
        <time>2022-05-26T09:05:43.273Z</time>
      </trkpt>
      <trkpt lat="42.01191" lon="19.33396">
        <ele>66.576445</ele>
        <time>2022-05-26T09:05:46.225Z</time>
      </trkpt>
      <trkpt lat="42.01199" lon="19.33386">
        <ele>66.710415</ele>
        <time>2022-05-26T09:05:49.253Z</time>
      </trkpt>
      <trkpt lat="42.01206" lon="19.33377">
        <ele>66.838008</ele>
        <time>2022-05-26T09:05:52.242Z</time>
      </trkpt>
      <trkpt lat="42.01212" lon="19.33368">
        <ele>66.958561</ele>
        <time>2022-05-26T09:05:55.226Z</time>
      </trkpt>
      <trkpt lat="42.01218" lon="19.33359">
        <ele>67.081047</ele>
        <time>2022-05-26T09:05:58.247Z</time>
      </trkpt>
      <trkpt lat="42.01222" lon="19.33347">
        <ele>67.208305</ele>
        <time>2022-05-26T09:06:01.234Z</time>
      </trkpt>
      <trkpt lat="42.01226" lon="19.33334">
        <ele>67.347089</ele>
        <time>2022-05-26T09:06:04.215Z</time>
      </trkpt>
      <trkpt lat="42.01228" lon="19.3332">
        <ele>67.481342</ele>
        <time>2022-05-26T09:06:07.233Z</time>
      </trkpt>
      <trkpt lat="42.01226" lon="19.33305">
        <ele>67.633366</ele>
        <time>2022-05-26T09:06:10.230Z</time>
      </trkpt>
      <trkpt lat="42.01221" lon="19.33291">
        <ele>67.788049</ele>
        <time>2022-05-26T09:06:13.216Z</time>
      </trkpt>
      <trkpt lat="42.01211" lon="19.33277">
        <ele>67.908264</ele>
        <time>2022-05-26T09:06:16.240Z</time>
      </trkpt>
      <trkpt lat="42.012" lon="19.33268">
        <ele>67.859349</ele>
        <time>2022-05-26T09:06:19.263Z</time>
      </trkpt>
      <trkpt lat="42.01191" lon="19.33264">
        <ele>67.825396</ele>
        <time>2022-05-26T09:06:21.234Z</time>
      </trkpt>
      <trkpt lat="42.01181" lon="19.3326">
        <ele>67.789098</ele>
        <time>2022-05-26T09:06:23.237Z</time>
      </trkpt>
      <trkpt lat="42.01172" lon="19.33254">
        <ele>67.749649</ele>
        <time>2022-05-26T09:06:25.261Z</time>
      </trkpt>
      <trkpt lat="42.01162" lon="19.33245">
        <ele>67.705283</ele>
        <time>2022-05-26T09:06:27.248Z</time>
      </trkpt>
      <trkpt lat="42.01154" lon="19.33232">
        <ele>67.659566</ele>
        <time>2022-05-26T09:06:29.244Z</time>
      </trkpt>
      <trkpt lat="42.01146" lon="19.33219">
        <ele>67.614434</ele>
        <time>2022-05-26T09:06:31.216Z</time>
      </trkpt>
      <trkpt lat="42.0114" lon="19.33206">
        <ele>67.571685</ele>
        <time>2022-05-26T09:06:33.227Z</time>
      </trkpt>
      <trkpt lat="42.01133" lon="19.33195">
        <ele>67.531084</ele>
        <time>2022-05-26T09:06:35.224Z</time>
      </trkpt>
      <trkpt lat="42.01125" lon="19.33184">
        <ele>67.491781</ele>
        <time>2022-05-26T09:06:37.244Z</time>
      </trkpt>
      <trkpt lat="42.01118" lon="19.33174">
        <ele>67.451966</ele>
        <time>2022-05-26T09:06:39.231Z</time>
      </trkpt>
      <trkpt lat="42.01109" lon="19.33164">
        <ele>67.410922</ele>
        <time>2022-05-26T09:06:41.229Z</time>
      </trkpt>
      <trkpt lat="42.011" lon="19.33155">
        <ele>67.369767</ele>
        <time>2022-05-26T09:06:43.235Z</time>
      </trkpt>
      <trkpt lat="42.01092" lon="19.33146">
        <ele>67.329749</ele>
        <time>2022-05-26T09:06:45.210Z</time>
      </trkpt>
      <trkpt lat="42.01083" lon="19.33137">
        <ele>67.290477</ele>
        <time>2022-05-26T09:06:47.237Z</time>
      </trkpt>
      <trkpt lat="42.01075" lon="19.33128">
        <ele>67.239069</ele>
        <time>2022-05-26T09:06:49.227Z</time>
      </trkpt>
      <trkpt lat="42.01066" lon="19.33119">
        <ele>67.155345</ele>
        <time>2022-05-26T09:06:51.220Z</time>
      </trkpt>
      <trkpt lat="42.01058" lon="19.3311">
        <ele>67.070468</ele>
        <time>2022-05-26T09:06:53.225Z</time>
      </trkpt>
      <trkpt lat="42.01049" lon="19.33101">
        <ele>66.985763</ele>
        <time>2022-05-26T09:06:55.245Z</time>
      </trkpt>
      <trkpt lat="42.01041" lon="19.33092">
        <ele>66.89927</ele>
        <time>2022-05-26T09:06:57.230Z</time>
      </trkpt>
      <trkpt lat="42.01032" lon="19.33083">
        <ele>66.81518</ele>
        <time>2022-05-26T09:06:59.234Z</time>
      </trkpt>
      <trkpt lat="42.01024" lon="19.33075">
        <ele>66.730839</ele>
        <time>2022-05-26T09:07:01.279Z</time>
      </trkpt>
      <trkpt lat="42.01015" lon="19.33066">
        <ele>66.647295</ele>
        <time>2022-05-26T09:07:03.250Z</time>
      </trkpt>
      <trkpt lat="42.01007" lon="19.33058">
        <ele>66.564099</ele>
        <time>2022-05-26T09:07:05.227Z</time>
      </trkpt>
      <trkpt lat="42.00998" lon="19.3305">
        <ele>66.481932</ele>
        <time>2022-05-26T09:07:07.262Z</time>
      </trkpt>
      <trkpt lat="42.0099" lon="19.33042">
        <ele>66.403386</ele>
        <time>2022-05-26T09:07:09.213Z</time>
      </trkpt>
      <trkpt lat="42.00982" lon="19.33035">
        <ele>66.324461</ele>
        <time>2022-05-26T09:07:11.216Z</time>
      </trkpt>
      <trkpt lat="42.00973" lon="19.33029">
        <ele>66.248307</ele>
        <time>2022-05-26T09:07:13.238Z</time>
      </trkpt>
      <trkpt lat="42.00964" lon="19.33024">
        <ele>66.172475</ele>
        <time>2022-05-26T09:07:15.233Z</time>
      </trkpt>
      <trkpt lat="42.00955" lon="19.33019">
        <ele>66.095434</ele>
        <time>2022-05-26T09:07:17.235Z</time>
      </trkpt>
      <trkpt lat="42.00946" lon="19.33014">
        <ele>66.020089</ele>
        <time>2022-05-26T09:07:19.209Z</time>
      </trkpt>
      <trkpt lat="42.00937" lon="19.3301">
        <ele>65.944344</ele>
        <time>2022-05-26T09:07:21.230Z</time>
      </trkpt>
      <trkpt lat="42.00928" lon="19.33005">
        <ele>65.868999</ele>
        <time>2022-05-26T09:07:23.268Z</time>
      </trkpt>
      <trkpt lat="42.00919" lon="19.33001">
        <ele>65.900092</ele>
        <time>2022-05-26T09:07:25.216Z</time>
      </trkpt>
      <trkpt lat="42.0091" lon="19.32997">
        <ele>65.991729</ele>
        <time>2022-05-26T09:07:27.228Z</time>
      </trkpt>
      <trkpt lat="42.00901" lon="19.32992">
        <ele>66.081339</ele>
        <time>2022-05-26T09:07:29.219Z</time>
      </trkpt>
      <trkpt lat="42.00892" lon="19.32988">
        <ele>66.171186</ele>
        <time>2022-05-26T09:07:31.235Z</time>
      </trkpt>
      <trkpt lat="42.00884" lon="19.32984">
        <ele>66.259215</ele>
        <time>2022-05-26T09:07:33.239Z</time>
      </trkpt>
      <trkpt lat="42.00875" lon="19.3298">
        <ele>66.344541</ele>
        <time>2022-05-26T09:07:35.214Z</time>
      </trkpt>
      <trkpt lat="42.00866" lon="19.32976">
        <ele>66.43257</ele>
        <time>2022-05-26T09:07:37.231Z</time>
      </trkpt>
      <trkpt lat="42.00858" lon="19.32972">
        <ele>66.51796</ele>
        <time>2022-05-26T09:07:39.234Z</time>
      </trkpt>
      <trkpt lat="42.00849" lon="19.32968">
        <ele>66.605313</ele>
        <time>2022-05-26T09:07:41.231Z</time>
      </trkpt>
      <trkpt lat="42.00841" lon="19.32964">
        <ele>66.69244</ele>
        <time>2022-05-26T09:07:43.237Z</time>
      </trkpt>
      <trkpt lat="42.00832" lon="19.3296">
        <ele>66.780921</ele>
        <time>2022-05-26T09:07:45.249Z</time>
      </trkpt>
      <trkpt lat="42.00823" lon="19.32956">
        <ele>66.869478</ele>
        <time>2022-05-26T09:07:47.226Z</time>
      </trkpt>
      <trkpt lat="42.00814" lon="19.32951">
        <ele>66.960458</ele>
        <time>2022-05-26T09:07:49.240Z</time>
      </trkpt>
      <trkpt lat="42.00805" lon="19.32947">
        <ele>67.049015</ele>
        <time>2022-05-26T09:07:51.245Z</time>
      </trkpt>
      <trkpt lat="42.00793" lon="19.3294">
        <ele>67.176596</ele>
        <time>2022-05-26T09:07:54.247Z</time>
      </trkpt>
      <trkpt lat="42.00781" lon="19.32933">
        <ele>67.303454</ele>
        <time>2022-05-26T09:07:57.235Z</time>
      </trkpt>
      <trkpt lat="42.00769" lon="19.32925">
        <ele>67.430325</ele>
        <time>2022-05-26T09:08:00.268Z</time>
      </trkpt>
      <trkpt lat="42.00757" lon="19.32918">
        <ele>67.550612</ele>
        <time>2022-05-26T09:08:03.237Z</time>
      </trkpt>
      <trkpt lat="42.00746" lon="19.32911">
        <ele>67.559402</ele>
        <time>2022-05-26T09:08:06.247Z</time>
      </trkpt>
      <trkpt lat="42.00735" lon="19.32904">
        <ele>67.568195</ele>
        <time>2022-05-26T09:08:09.227Z</time>
      </trkpt>
      <trkpt lat="42.00723" lon="19.32896">
        <ele>67.577721</ele>
        <time>2022-05-26T09:08:12.281Z</time>
      </trkpt>
      <trkpt lat="42.00711" lon="19.32887">
        <ele>67.587311</ele>
        <time>2022-05-26T09:08:15.241Z</time>
      </trkpt>
      <trkpt lat="42.00699" lon="19.3288">
        <ele>67.596758</ele>
        <time>2022-05-26T09:08:18.218Z</time>
      </trkpt>
      <trkpt lat="42.00687" lon="19.32872">
        <ele>67.606357</ele>
        <time>2022-05-26T09:08:21.272Z</time>
      </trkpt>
      <trkpt lat="42.00675" lon="19.32864">
        <ele>67.615716</ele>
        <time>2022-05-26T09:08:24.239Z</time>
      </trkpt>
      <trkpt lat="42.00663" lon="19.32857">
        <ele>67.625008</ele>
        <time>2022-05-26T09:08:27.233Z</time>
      </trkpt>
      <trkpt lat="42.00652" lon="19.32849">
        <ele>67.634344</ele>
        <time>2022-05-26T09:08:30.245Z</time>
      </trkpt>
      <trkpt lat="42.0064" lon="19.32842">
        <ele>67.643791</ele>
        <time>2022-05-26T09:08:33.230Z</time>
      </trkpt>
      <trkpt lat="42.00628" lon="19.32834">
        <ele>67.653413</ele>
        <time>2022-05-26T09:08:36.223Z</time>
      </trkpt>
      <trkpt lat="42.00616" lon="19.32826">
        <ele>67.662731</ele>
        <time>2022-05-26T09:08:39.216Z</time>
      </trkpt>
      <trkpt lat="42.00604" lon="19.32818">
        <ele>67.672282</ele>
        <time>2022-05-26T09:08:42.229Z</time>
      </trkpt>
      <trkpt lat="42.00592" lon="19.3281">
        <ele>67.815465</ele>
        <time>2022-05-26T09:08:45.227Z</time>
      </trkpt>
      <trkpt lat="42.00581" lon="19.32803">
        <ele>68.31222</ele>
        <time>2022-05-26T09:08:48.244Z</time>
      </trkpt>
      <trkpt lat="42.0057" lon="19.32796">
        <ele>68.786326</ele>
        <time>2022-05-26T09:08:51.236Z</time>
      </trkpt>
      <trkpt lat="42.00559" lon="19.32788">
        <ele>69.273426</ele>
        <time>2022-05-26T09:08:54.236Z</time>
      </trkpt>
      <trkpt lat="42.00552" lon="19.32781">
        <ele>69.630311</ele>
        <time>2022-05-26T09:08:56.223Z</time>
      </trkpt>
      <trkpt lat="42.00546" lon="19.32771">
        <ele>70.023563</ele>
        <time>2022-05-26T09:08:58.228Z</time>
      </trkpt>
      <trkpt lat="42.00541" lon="19.3276">
        <ele>70.387994</ele>
        <time>2022-05-26T09:09:00.237Z</time>
      </trkpt>
      <trkpt lat="42.00539" lon="19.32745">
        <ele>70.842843</ele>
        <time>2022-05-26T09:09:03.259Z</time>
      </trkpt>
      <trkpt lat="42.00539" lon="19.32729">
        <ele>71.315332</ele>
        <time>2022-05-26T09:09:07.244Z</time>
      </trkpt>
      <trkpt lat="42.00538" lon="19.32716">
        <ele>71.720388</ele>
        <time>2022-05-26T09:09:12.235Z</time>
      </trkpt>
      <trkpt lat="42.00538" lon="19.32703">
        <ele>72.078061</ele>
        <time>2022-05-26T09:09:17.248Z</time>
      </trkpt>
      <trkpt lat="42.00536" lon="19.3269">
        <ele>72.479496</ele>
        <time>2022-05-26T09:09:23.221Z</time>
      </trkpt>
      <trkpt lat="42.00532" lon="19.32678">
        <ele>72.861984</ele>
        <time>2022-05-26T09:09:29.241Z</time>
      </trkpt>
      <trkpt lat="42.0053" lon="19.32666">
        <ele>73.230015</ele>
        <time>2022-05-26T09:09:34.218Z</time>
      </trkpt>
      <trkpt lat="42.00527" lon="19.32652">
        <ele>73.664759</ele>
        <time>2022-05-26T09:09:41.245Z</time>
      </trkpt>
      <trkpt lat="42.00525" lon="19.3264">
        <ele>74.027931</ele>
        <time>2022-05-26T09:09:46.224Z</time>
      </trkpt>
      <trkpt lat="42.00526" lon="19.32626">
        <ele>74.430038</ele>
        <time>2022-05-26T09:09:52.239Z</time>
      </trkpt>
      <trkpt lat="42.00529" lon="19.32613">
        <ele>74.861585</ele>
        <time>2022-05-26T09:09:58.218Z</time>
      </trkpt>
      <trkpt lat="42.00534" lon="19.32601">
        <ele>75.451458</ele>
        <time>2022-05-26T09:10:04.238Z</time>
      </trkpt>
      <trkpt lat="42.00541" lon="19.3259">
        <ele>76.074254</ele>
        <time>2022-05-26T09:10:10.225Z</time>
      </trkpt>
      <trkpt lat="42.00548" lon="19.3258">
        <ele>76.654143</ele>
        <time>2022-05-26T09:10:16.232Z</time>
      </trkpt>
      <trkpt lat="42.00553" lon="19.3257">
        <ele>77.202723</ele>
        <time>2022-05-26T09:10:22.237Z</time>
      </trkpt>
      <trkpt lat="42.00556" lon="19.32557">
        <ele>77.767546</ele>
        <time>2022-05-26T09:10:28.236Z</time>
      </trkpt>
      <trkpt lat="42.00559" lon="19.32545">
        <ele>78.316791</ele>
        <time>2022-05-26T09:10:33.236Z</time>
      </trkpt>
      <trkpt lat="42.00561" lon="19.32532">
        <ele>78.880048</ele>
        <time>2022-05-26T09:10:38.236Z</time>
      </trkpt>
      <trkpt lat="42.00564" lon="19.32519">
        <ele>79.472928</ele>
        <time>2022-05-26T09:10:43.235Z</time>
      </trkpt>
      <trkpt lat="42.00569" lon="19.32506">
        <ele>80.093444</ele>
        <time>2022-05-26T09:10:48.273Z</time>
      </trkpt>
      <trkpt lat="42.00574" lon="19.32496">
        <ele>80.634256</ele>
        <time>2022-05-26T09:10:53.239Z</time>
      </trkpt>
      <trkpt lat="42.00582" lon="19.32487">
        <ele>81.241479</ele>
        <time>2022-05-26T09:10:59.264Z</time>
      </trkpt>
      <trkpt lat="42.00591" lon="19.3248">
        <ele>81.812932</ele>
        <time>2022-05-26T09:11:05.236Z</time>
      </trkpt>
      <trkpt lat="42.00599" lon="19.32473">
        <ele>82.365547</ele>
        <time>2022-05-26T09:11:11.247Z</time>
      </trkpt>
      <trkpt lat="42.00607" lon="19.32467">
        <ele>82.910123</ele>
        <time>2022-05-26T09:11:16.270Z</time>
      </trkpt>
      <trkpt lat="42.00615" lon="19.32461">
        <ele>83.456909</ele>
        <time>2022-05-26T09:11:21.246Z</time>
      </trkpt>
      <trkpt lat="42.00624" lon="19.32455">
        <ele>84.056818</ele>
        <time>2022-05-26T09:11:26.253Z</time>
      </trkpt>
      <trkpt lat="42.00633" lon="19.32448">
        <ele>84.63821</ele>
        <time>2022-05-26T09:11:31.235Z</time>
      </trkpt>
      <trkpt lat="42.00641" lon="19.3244">
        <ele>85.238837</ele>
        <time>2022-05-26T09:11:36.240Z</time>
      </trkpt>
      <trkpt lat="42.0065" lon="19.32431">
        <ele>85.193829</ele>
        <time>2022-05-26T09:11:41.263Z</time>
      </trkpt>
      <trkpt lat="42.00657" lon="19.32421">
        <ele>85.10789</ele>
        <time>2022-05-26T09:11:45.223Z</time>
      </trkpt>
      <trkpt lat="42.00664" lon="19.32412">
        <ele>85.021522</ele>
        <time>2022-05-26T09:11:49.242Z</time>
      </trkpt>
      <trkpt lat="42.00671" lon="19.32401">
        <ele>84.930884</ele>
        <time>2022-05-26T09:11:53.228Z</time>
      </trkpt>
      <trkpt lat="42.00678" lon="19.32389">
        <ele>84.827439</ele>
        <time>2022-05-26T09:11:57.239Z</time>
      </trkpt>
      <trkpt lat="42.00685" lon="19.32378">
        <ele>84.736316</ele>
        <time>2022-05-26T09:12:00.241Z</time>
      </trkpt>
      <trkpt lat="42.00693" lon="19.32367">
        <ele>84.636847</ele>
        <time>2022-05-26T09:12:03.221Z</time>
      </trkpt>
      <trkpt lat="42.00701" lon="19.32353">
        <ele>84.527235</ele>
        <time>2022-05-26T09:12:06.238Z</time>
      </trkpt>
      <trkpt lat="42.00709" lon="19.3234">
        <ele>84.416174</ele>
        <time>2022-05-26T09:12:09.253Z</time>
      </trkpt>
      <trkpt lat="42.00716" lon="19.32327">
        <ele>84.313953</ele>
        <time>2022-05-26T09:12:12.225Z</time>
      </trkpt>
      <trkpt lat="42.00723" lon="19.32315">
        <ele>84.215788</ele>
        <time>2022-05-26T09:12:15.238Z</time>
      </trkpt>
      <trkpt lat="42.00728" lon="19.32301">
        <ele>84.117466</ele>
        <time>2022-05-26T09:12:18.243Z</time>
      </trkpt>
      <trkpt lat="42.00733" lon="19.32286">
        <ele>84.007012</ele>
        <time>2022-05-26T09:12:21.216Z</time>
      </trkpt>
      <trkpt lat="42.00737" lon="19.32273">
        <ele>83.923499</ele>
        <time>2022-05-26T09:12:23.231Z</time>
      </trkpt>
      <trkpt lat="42.0074" lon="19.32261">
        <ele>83.834247</ele>
        <time>2022-05-26T09:12:25.236Z</time>
      </trkpt>
      <trkpt lat="42.00744" lon="19.32247">
        <ele>83.738975</ele>
        <time>2022-05-26T09:12:27.251Z</time>
      </trkpt>
      <trkpt lat="42.00749" lon="19.32233">
        <ele>83.525169</ele>
        <time>2022-05-26T09:12:29.233Z</time>
      </trkpt>
      <trkpt lat="42.00752" lon="19.32219">
        <ele>83.303542</ele>
        <time>2022-05-26T09:12:31.252Z</time>
      </trkpt>
      <trkpt lat="42.00756" lon="19.32207">
        <ele>83.105084</ele>
        <time>2022-05-26T09:12:33.238Z</time>
      </trkpt>
      <trkpt lat="42.00758" lon="19.32192">
        <ele>82.860435</ele>
        <time>2022-05-26T09:12:36.234Z</time>
      </trkpt>
      <trkpt lat="42.00758" lon="19.32176">
        <ele>82.619349</ele>
        <time>2022-05-26T09:12:40.235Z</time>
      </trkpt>
      <trkpt lat="42.00755" lon="19.32163">
        <ele>82.414846</ele>
        <time>2022-05-26T09:12:44.248Z</time>
      </trkpt>
      <trkpt lat="42.00752" lon="19.32149">
        <ele>82.183188</ele>
        <time>2022-05-26T09:12:48.244Z</time>
      </trkpt>
      <trkpt lat="42.00749" lon="19.32135">
        <ele>81.959693</ele>
        <time>2022-05-26T09:12:52.217Z</time>
      </trkpt>
      <trkpt lat="42.00749" lon="19.32121">
        <ele>81.746415</ele>
        <time>2022-05-26T09:12:55.271Z</time>
      </trkpt>
      <trkpt lat="42.00752" lon="19.32106">
        <ele>81.514291</ele>
        <time>2022-05-26T09:12:58.256Z</time>
      </trkpt>
      <trkpt lat="42.00759" lon="19.32091">
        <ele>81.229212</ele>
        <time>2022-05-26T09:13:01.244Z</time>
      </trkpt>
      <trkpt lat="42.00765" lon="19.32079">
        <ele>81.00962</ele>
        <time>2022-05-26T09:13:03.228Z</time>
      </trkpt>
      <trkpt lat="42.00772" lon="19.32068">
        <ele>80.786238</ele>
        <time>2022-05-26T09:13:05.243Z</time>
      </trkpt>
      <trkpt lat="42.00778" lon="19.32057">
        <ele>80.571483</ele>
        <time>2022-05-26T09:13:07.239Z</time>
      </trkpt>
      <trkpt lat="42.00785" lon="19.32047">
        <ele>80.364317</ele>
        <time>2022-05-26T09:13:09.274Z</time>
      </trkpt>
      <trkpt lat="42.0079" lon="19.32037">
        <ele>80.173304</ele>
        <time>2022-05-26T09:13:11.238Z</time>
      </trkpt>
      <trkpt lat="42.00795" lon="19.32026">
        <ele>79.984849</ele>
        <time>2022-05-26T09:13:13.239Z</time>
      </trkpt>
      <trkpt lat="42.00799" lon="19.32015">
        <ele>80.058425</ele>
        <time>2022-05-26T09:13:15.238Z</time>
      </trkpt>
      <trkpt lat="42.00803" lon="19.32004">
        <ele>80.128944</ele>
        <time>2022-05-26T09:13:17.273Z</time>
      </trkpt>
      <trkpt lat="42.00808" lon="19.31987">
        <ele>80.233157</ele>
        <time>2022-05-26T09:13:20.274Z</time>
      </trkpt>
      <trkpt lat="42.00812" lon="19.31971">
        <ele>80.335216</ele>
        <time>2022-05-26T09:13:23.235Z</time>
      </trkpt>
      <trkpt lat="42.00814" lon="19.31959">
        <ele>80.406239</ele>
        <time>2022-05-26T09:13:25.212Z</time>
      </trkpt>
      <trkpt lat="42.00817" lon="19.31947">
        <ele>80.481246</ele>
        <time>2022-05-26T09:13:27.223Z</time>
      </trkpt>
      <trkpt lat="42.0082" lon="19.31935">
        <ele>80.556814</ele>
        <time>2022-05-26T09:13:29.236Z</time>
      </trkpt>
      <trkpt lat="42.00822" lon="19.31922">
        <ele>80.633882</ele>
        <time>2022-05-26T09:13:31.221Z</time>
      </trkpt>
      <trkpt lat="42.00823" lon="19.31909">
        <ele>80.707989</ele>
        <time>2022-05-26T09:13:33.233Z</time>
      </trkpt>
      <trkpt lat="42.00823" lon="19.31897">
        <ele>80.781716</ele>
        <time>2022-05-26T09:13:35.240Z</time>
      </trkpt>
      <trkpt lat="42.00824" lon="19.31884">
        <ele>80.856093</ele>
        <time>2022-05-26T09:13:37.234Z</time>
      </trkpt>
      <trkpt lat="42.00825" lon="19.31872">
        <ele>80.928751</ele>
        <time>2022-05-26T09:13:39.243Z</time>
      </trkpt>
      <trkpt lat="42.00827" lon="19.3186">
        <ele>81.001227</ele>
        <time>2022-05-26T09:13:41.249Z</time>
      </trkpt>
      <trkpt lat="42.00831" lon="19.31847">
        <ele>81.080285</ele>
        <time>2022-05-26T09:13:43.231Z</time>
      </trkpt>
      <trkpt lat="42.00837" lon="19.31837">
        <ele>81.154937</ele>
        <time>2022-05-26T09:13:45.230Z</time>
      </trkpt>
      <trkpt lat="42.00844" lon="19.31828">
        <ele>81.230571</ele>
        <time>2022-05-26T09:13:47.224Z</time>
      </trkpt>
      <trkpt lat="42.00854" lon="19.31816">
        <ele>81.33312</ele>
        <time>2022-05-26T09:13:50.230Z</time>
      </trkpt>
      <trkpt lat="42.0086" lon="19.31806">
        <ele>81.433432</ele>
        <time>2022-05-26T09:13:52.243Z</time>
      </trkpt>
      <trkpt lat="42.00866" lon="19.31795">
        <ele>81.690416</ele>
        <time>2022-05-26T09:13:54.216Z</time>
      </trkpt>
      <trkpt lat="42.0087" lon="19.31783">
        <ele>81.94487</ele>
        <time>2022-05-26T09:13:56.231Z</time>
      </trkpt>
      <trkpt lat="42.00875" lon="19.3177">
        <ele>82.207809</ele>
        <time>2022-05-26T09:13:58.223Z</time>
      </trkpt>
      <trkpt lat="42.00879" lon="19.31758">
        <ele>82.470174</ele>
        <time>2022-05-26T09:14:00.243Z</time>
      </trkpt>
      <trkpt lat="42.00883" lon="19.31746">
        <ele>82.716767</ele>
        <time>2022-05-26T09:14:02.244Z</time>
      </trkpt>
      <trkpt lat="42.00888" lon="19.31735">
        <ele>82.967345</ele>
        <time>2022-05-26T09:14:04.236Z</time>
      </trkpt>
      <trkpt lat="42.00892" lon="19.31722">
        <ele>83.220162</ele>
        <time>2022-05-26T09:14:06.238Z</time>
      </trkpt>
      <trkpt lat="42.00896" lon="19.31711">
        <ele>83.46671</ele>
        <time>2022-05-26T09:14:08.239Z</time>
      </trkpt>
      <trkpt lat="42.00901" lon="19.31699">
        <ele>83.710984</ele>
        <time>2022-05-26T09:14:10.233Z</time>
      </trkpt>
      <trkpt lat="42.00906" lon="19.31683">
        <ele>84.04347</ele>
        <time>2022-05-26T09:14:13.239Z</time>
      </trkpt>
      <trkpt lat="42.00912" lon="19.31668">
        <ele>84.364089</ele>
        <time>2022-05-26T09:14:16.239Z</time>
      </trkpt>
      <trkpt lat="42.00918" lon="19.31653">
        <ele>84.693566</ele>
        <time>2022-05-26T09:14:19.236Z</time>
      </trkpt>
      <trkpt lat="42.00924" lon="19.31639">
        <ele>85.002917</ele>
        <time>2022-05-26T09:14:22.228Z</time>
      </trkpt>
      <trkpt lat="42.00929" lon="19.31625">
        <ele>85.292987</ele>
        <time>2022-05-26T09:14:25.224Z</time>
      </trkpt>
      <trkpt lat="42.00934" lon="19.31612">
        <ele>85.558186</ele>
        <time>2022-05-26T09:14:28.257Z</time>
      </trkpt>
      <trkpt lat="42.00939" lon="19.316">
        <ele>85.829799</ele>
        <time>2022-05-26T09:14:31.248Z</time>
      </trkpt>
      <trkpt lat="42.00944" lon="19.31586">
        <ele>86.006603</ele>
        <time>2022-05-26T09:14:34.215Z</time>
      </trkpt>
      <trkpt lat="42.00949" lon="19.31573">
        <ele>86.057531</ele>
        <time>2022-05-26T09:14:37.237Z</time>
      </trkpt>
      <trkpt lat="42.00955" lon="19.3156">
        <ele>86.109208</ele>
        <time>2022-05-26T09:14:40.233Z</time>
      </trkpt>
      <trkpt lat="42.0096" lon="19.31548">
        <ele>86.158727</ele>
        <time>2022-05-26T09:14:43.233Z</time>
      </trkpt>
      <trkpt lat="42.00966" lon="19.31536">
        <ele>86.208542</ele>
        <time>2022-05-26T09:14:46.241Z</time>
      </trkpt>
      <trkpt lat="42.00971" lon="19.31523">
        <ele>86.259188</ele>
        <time>2022-05-26T09:14:49.259Z</time>
      </trkpt>
      <trkpt lat="42.00977" lon="19.31511">
        <ele>86.309242</ele>
        <time>2022-05-26T09:14:52.220Z</time>
      </trkpt>
      <trkpt lat="42.00982" lon="19.31498">
        <ele>86.35896</ele>
        <time>2022-05-26T09:14:55.235Z</time>
      </trkpt>
      <trkpt lat="42.00988" lon="19.31485">
        <ele>86.410563</ele>
        <time>2022-05-26T09:14:58.240Z</time>
      </trkpt>
      <trkpt lat="42.00993" lon="19.31473">
        <ele>86.460567</ele>
        <time>2022-05-26T09:15:01.228Z</time>
      </trkpt>
      <trkpt lat="42.00998" lon="19.3146">
        <ele>86.510236</ele>
        <time>2022-05-26T09:15:04.251Z</time>
      </trkpt>
      <trkpt lat="42.01003" lon="19.31448">
        <ele>86.556202</ele>
        <time>2022-05-26T09:15:07.225Z</time>
      </trkpt>
      <trkpt lat="42.01007" lon="19.31434">
        <ele>86.606977</ele>
        <time>2022-05-26T09:15:10.230Z</time>
      </trkpt>
      <trkpt lat="42.01009" lon="19.31421">
        <ele>86.656099</ele>
        <time>2022-05-26T09:15:13.276Z</time>
      </trkpt>
      <trkpt lat="42.0101" lon="19.31406">
        <ele>86.70569</ele>
        <time>2022-05-26T09:15:16.246Z</time>
      </trkpt>
      <trkpt lat="42.01009" lon="19.31393">
        <ele>86.752489</ele>
        <time>2022-05-26T09:15:19.256Z</time>
      </trkpt>
      <trkpt lat="42.01005" lon="19.3138">
        <ele>86.799866</ele>
        <time>2022-05-26T09:15:22.235Z</time>
      </trkpt>
      <trkpt lat="42.01" lon="19.31367">
        <ele>86.720483</ele>
        <time>2022-05-26T09:15:25.218Z</time>
      </trkpt>
      <trkpt lat="42.00994" lon="19.31356">
        <ele>86.569529</ele>
        <time>2022-05-26T09:15:28.246Z</time>
      </trkpt>
      <trkpt lat="42.00987" lon="19.31347">
        <ele>86.426283</ele>
        <time>2022-05-26T09:15:31.258Z</time>
      </trkpt>
      <trkpt lat="42.00979" lon="19.31338">
        <ele>86.280034</ele>
        <time>2022-05-26T09:15:34.245Z</time>
      </trkpt>
      <trkpt lat="42.0097" lon="19.31331">
        <ele>86.137856</ele>
        <time>2022-05-26T09:15:37.244Z</time>
      </trkpt>
      <trkpt lat="42.00961" lon="19.31324">
        <ele>85.990576</ele>
        <time>2022-05-26T09:15:40.315Z</time>
      </trkpt>
      <trkpt lat="42.00951" lon="19.31314">
        <ele>85.812986</ele>
        <time>2022-05-26T09:15:43.232Z</time>
      </trkpt>
      <trkpt lat="42.00943" lon="19.31306">
        <ele>85.670939</ele>
        <time>2022-05-26T09:15:45.244Z</time>
      </trkpt>
      <trkpt lat="42.00936" lon="19.31295">
        <ele>85.511269</ele>
        <time>2022-05-26T09:15:47.204Z</time>
      </trkpt>
      <trkpt lat="42.0093" lon="19.31281">
        <ele>85.351549</ele>
        <time>2022-05-26T09:15:49.222Z</time>
      </trkpt>
      <trkpt lat="42.00927" lon="19.31266">
        <ele>85.182411</ele>
        <time>2022-05-26T09:15:51.234Z</time>
      </trkpt>
      <trkpt lat="42.00925" lon="19.31249">
        <ele>85.005557</ele>
        <time>2022-05-26T09:15:53.219Z</time>
      </trkpt>
      <trkpt lat="42.00926" lon="19.31233">
        <ele>84.827916</ele>
        <time>2022-05-26T09:15:55.241Z</time>
      </trkpt>
      <trkpt lat="42.00926" lon="19.31215">
        <ele>84.642935</ele>
        <time>2022-05-26T09:15:57.255Z</time>
      </trkpt>
      <trkpt lat="42.00926" lon="19.31196">
        <ele>84.445235</ele>
        <time>2022-05-26T09:15:59.224Z</time>
      </trkpt>
      <trkpt lat="42.00925" lon="19.31178">
        <ele>84.246577</ele>
        <time>2022-05-26T09:16:01.223Z</time>
      </trkpt>
      <trkpt lat="42.00926" lon="19.31159">
        <ele>84.052234</ele>
        <time>2022-05-26T09:16:03.277Z</time>
      </trkpt>
      <trkpt lat="42.00928" lon="19.31141">
        <ele>83.862274</ele>
        <time>2022-05-26T09:16:05.235Z</time>
      </trkpt>
      <trkpt lat="42.00932" lon="19.31127">
        <ele>83.697086</ele>
        <time>2022-05-26T09:16:07.227Z</time>
      </trkpt>
      <trkpt lat="42.00935" lon="19.3111">
        <ele>83.513355</ele>
        <time>2022-05-26T09:16:09.269Z</time>
      </trkpt>
      <trkpt lat="42.00938" lon="19.31093">
        <ele>83.324874</ele>
        <time>2022-05-26T09:16:11.247Z</time>
      </trkpt>
      <trkpt lat="42.00942" lon="19.31078">
        <ele>83.166276</ele>
        <time>2022-05-26T09:16:13.253Z</time>
      </trkpt>
      <trkpt lat="42.00944" lon="19.31062">
        <ele>82.989633</ele>
        <time>2022-05-26T09:16:16.249Z</time>
      </trkpt>
      <trkpt lat="42.00938" lon="19.31051">
        <ele>82.847286</ele>
        <time>2022-05-26T09:16:19.250Z</time>
      </trkpt>
      <trkpt lat="42.00929" lon="19.31046">
        <ele>82.709076</ele>
        <time>2022-05-26T09:16:22.233Z</time>
      </trkpt>
      <trkpt lat="42.00949" lon="19.31035">
        <ele>82.396825</ele>
        <time>2022-05-26T09:35:37.217Z</time>
      </trkpt>
      <trkpt lat="42.00954" lon="19.31024">
        <ele>82.268705</ele>
        <time>2022-05-26T09:35:40.207Z</time>
      </trkpt>
      <trkpt lat="42.00958" lon="19.31014">
        <ele>82.139652</ele>
        <time>2022-05-26T09:35:42.231Z</time>
      </trkpt>
      <trkpt lat="42.00963" lon="19.31001">
        <ele>81.98234</ele>
        <time>2022-05-26T09:35:44.213Z</time>
      </trkpt>
      <trkpt lat="42.00964" lon="19.30986">
        <ele>81.828047</ele>
        <time>2022-05-26T09:35:46.209Z</time>
      </trkpt>
      <trkpt lat="42.00961" lon="19.30971">
        <ele>81.702469</ele>
        <time>2022-05-26T09:35:48.233Z</time>
      </trkpt>
      <trkpt lat="42.00956" lon="19.30961">
        <ele>81.691751</ele>
        <time>2022-05-26T09:35:50.289Z</time>
      </trkpt>
      <trkpt lat="42.00948" lon="19.30955">
        <ele>81.681148</ele>
        <time>2022-05-26T09:35:52.210Z</time>
      </trkpt>
      <trkpt lat="42.00939" lon="19.30952">
        <ele>81.669829</ele>
        <time>2022-05-26T09:35:54.237Z</time>
      </trkpt>
      <trkpt lat="42.00928" lon="19.3095">
        <ele>81.657654</ele>
        <time>2022-05-26T09:35:56.219Z</time>
      </trkpt>
      <trkpt lat="42.00918" lon="19.30948">
        <ele>81.645603</ele>
        <time>2022-05-26T09:35:58.212Z</time>
      </trkpt>
      <trkpt lat="42.00908" lon="19.30945">
        <ele>81.633438</ele>
        <time>2022-05-26T09:36:00.208Z</time>
      </trkpt>
      <trkpt lat="42.00897" lon="19.30942">
        <ele>81.620975</ele>
        <time>2022-05-26T09:36:02.209Z</time>
      </trkpt>
      <trkpt lat="42.00887" lon="19.3094">
        <ele>81.608812</ele>
        <time>2022-05-26T09:36:04.203Z</time>
      </trkpt>
      <trkpt lat="42.00876" lon="19.30936">
        <ele>81.596594</ele>
        <time>2022-05-26T09:36:06.207Z</time>
      </trkpt>
      <trkpt lat="42.00867" lon="19.30933">
        <ele>81.58492</ele>
        <time>2022-05-26T09:36:08.207Z</time>
      </trkpt>
      <trkpt lat="42.00856" lon="19.3093">
        <ele>81.572624</ele>
        <time>2022-05-26T09:36:10.206Z</time>
      </trkpt>
      <trkpt lat="42.00846" lon="19.30927">
        <ele>81.56055</ele>
        <time>2022-05-26T09:36:12.203Z</time>
      </trkpt>
      <trkpt lat="42.00836" lon="19.30923">
        <ele>81.548251</ele>
        <time>2022-05-26T09:36:14.214Z</time>
      </trkpt>
      <trkpt lat="42.00826" lon="19.30918">
        <ele>81.535742</ele>
        <time>2022-05-26T09:36:16.203Z</time>
      </trkpt>
      <trkpt lat="42.00816" lon="19.30912">
        <ele>81.523101</ele>
        <time>2022-05-26T09:36:18.209Z</time>
      </trkpt>
      <trkpt lat="42.00806" lon="19.30905">
        <ele>81.510723</ele>
        <time>2022-05-26T09:36:20.217Z</time>
      </trkpt>
      <trkpt lat="42.00798" lon="19.30897">
        <ele>81.498948</ele>
        <time>2022-05-26T09:36:22.226Z</time>
      </trkpt>
      <trkpt lat="42.00791" lon="19.30888">
        <ele>81.477859</ele>
        <time>2022-05-26T09:36:24.214Z</time>
      </trkpt>
      <trkpt lat="42.00786" lon="19.30877">
        <ele>81.455454</ele>
        <time>2022-05-26T09:36:26.205Z</time>
      </trkpt>
      <trkpt lat="42.00781" lon="19.30866">
        <ele>81.432659</ele>
        <time>2022-05-26T09:36:28.225Z</time>
      </trkpt>
      <trkpt lat="42.00777" lon="19.30854">
        <ele>81.409604</ele>
        <time>2022-05-26T09:36:30.211Z</time>
      </trkpt>
      <trkpt lat="42.00774" lon="19.30837">
        <ele>81.37905</ele>
        <time>2022-05-26T09:36:33.211Z</time>
      </trkpt>
      <trkpt lat="42.00772" lon="19.30824">
        <ele>81.355956</ele>
        <time>2022-05-26T09:36:35.216Z</time>
      </trkpt>
      <trkpt lat="42.00771" lon="19.30811">
        <ele>81.333102</ele>
        <time>2022-05-26T09:36:37.215Z</time>
      </trkpt>
      <trkpt lat="42.00771" lon="19.30798">
        <ele>81.311493</ele>
        <time>2022-05-26T09:36:39.218Z</time>
      </trkpt>
      <trkpt lat="42.00772" lon="19.30781">
        <ele>81.281394</ele>
        <time>2022-05-26T09:36:42.207Z</time>
      </trkpt>
      <trkpt lat="42.00773" lon="19.30764">
        <ele>81.251418</ele>
        <time>2022-05-26T09:36:45.215Z</time>
      </trkpt>
      <trkpt lat="42.00774" lon="19.3075">
        <ele>81.227324</ele>
        <time>2022-05-26T09:36:47.207Z</time>
      </trkpt>
      <trkpt lat="42.00775" lon="19.30736">
        <ele>81.202819</ele>
        <time>2022-05-26T09:36:49.224Z</time>
      </trkpt>
      <trkpt lat="42.00775" lon="19.30723">
        <ele>81.179472</ele>
        <time>2022-05-26T09:36:51.223Z</time>
      </trkpt>
      <trkpt lat="42.00775" lon="19.30709">
        <ele>81.156299</ele>
        <time>2022-05-26T09:36:53.222Z</time>
      </trkpt>
      <trkpt lat="42.00774" lon="19.30697">
        <ele>81.134653</ele>
        <time>2022-05-26T09:36:55.204Z</time>
      </trkpt>
      <trkpt lat="42.00771" lon="19.30685">
        <ele>81.112772</ele>
        <time>2022-05-26T09:36:57.223Z</time>
      </trkpt>
      <trkpt lat="42.00768" lon="19.30673">
        <ele>81.091117</ele>
        <time>2022-05-26T09:36:59.211Z</time>
      </trkpt>
      <trkpt lat="42.00765" lon="19.30662">
        <ele>81.055695</ele>
        <time>2022-05-26T09:37:01.206Z</time>
      </trkpt>
      <trkpt lat="42.00757" lon="19.30648">
        <ele>80.943562</ele>
        <time>2022-05-26T09:37:04.202Z</time>
      </trkpt>
      <trkpt lat="42.00747" lon="19.30637">
        <ele>80.830745</ele>
        <time>2022-05-26T09:37:07.207Z</time>
      </trkpt>
      <trkpt lat="42.00737" lon="19.30627">
        <ele>80.717962</ele>
        <time>2022-05-26T09:37:10.213Z</time>
      </trkpt>
      <trkpt lat="42.00728" lon="19.30621">
        <ele>80.633655</ele>
        <time>2022-05-26T09:37:12.207Z</time>
      </trkpt>
      <trkpt lat="42.00719" lon="19.30617">
        <ele>80.55299</ele>
        <time>2022-05-26T09:37:14.228Z</time>
      </trkpt>
      <trkpt lat="42.00711" lon="19.30612">
        <ele>80.469876</ele>
        <time>2022-05-26T09:37:16.221Z</time>
      </trkpt>
      <trkpt lat="42.00701" lon="19.30607">
        <ele>80.382401</ele>
        <time>2022-05-26T09:37:18.212Z</time>
      </trkpt>
      <trkpt lat="42.00692" lon="19.30602">
        <ele>80.294277</ele>
        <time>2022-05-26T09:37:20.201Z</time>
      </trkpt>
      <trkpt lat="42.00683" lon="19.30597">
        <ele>80.206485</ele>
        <time>2022-05-26T09:37:22.204Z</time>
      </trkpt>
      <trkpt lat="42.00672" lon="19.30592">
        <ele>80.111196</ele>
        <time>2022-05-26T09:37:24.205Z</time>
      </trkpt>
      <trkpt lat="42.00662" lon="19.30588">
        <ele>80.013195</ele>
        <time>2022-05-26T09:37:26.229Z</time>
      </trkpt>
      <trkpt lat="42.00651" lon="19.30584">
        <ele>79.915608</ele>
        <time>2022-05-26T09:37:28.225Z</time>
      </trkpt>
      <trkpt lat="42.0064" lon="19.30581">
        <ele>79.820915</ele>
        <time>2022-05-26T09:37:30.262Z</time>
      </trkpt>
      <trkpt lat="42.0063" lon="19.30578">
        <ele>79.728787</ele>
        <time>2022-05-26T09:37:32.240Z</time>
      </trkpt>
      <trkpt lat="42.0062" lon="19.30575">
        <ele>79.639221</ele>
        <time>2022-05-26T09:37:34.216Z</time>
      </trkpt>
      <trkpt lat="42.0061" lon="19.30571">
        <ele>79.548206</ele>
        <time>2022-05-26T09:37:36.204Z</time>
      </trkpt>
      <trkpt lat="42.006" lon="19.30568">
        <ele>79.522605</ele>
        <time>2022-05-26T09:37:38.204Z</time>
      </trkpt>
      <trkpt lat="42.0059" lon="19.30565">
        <ele>79.560224</ele>
        <time>2022-05-26T09:37:40.209Z</time>
      </trkpt>
      <trkpt lat="42.00579" lon="19.30563">
        <ele>79.598203</ele>
        <time>2022-05-26T09:37:42.208Z</time>
      </trkpt>
      <trkpt lat="42.0057" lon="19.30561">
        <ele>79.633783</ele>
        <time>2022-05-26T09:37:44.203Z</time>
      </trkpt>
      <trkpt lat="42.0056" lon="19.30558">
        <ele>79.669864</ele>
        <time>2022-05-26T09:37:46.205Z</time>
      </trkpt>
      <trkpt lat="42.00551" lon="19.30556">
        <ele>79.704507</ele>
        <time>2022-05-26T09:37:48.208Z</time>
      </trkpt>
      <trkpt lat="42.00542" lon="19.30553">
        <ele>79.73943</ele>
        <time>2022-05-26T09:37:50.206Z</time>
      </trkpt>
      <trkpt lat="42.00532" lon="19.3055">
        <ele>79.775547</ele>
        <time>2022-05-26T09:37:52.209Z</time>
      </trkpt>
      <trkpt lat="42.00522" lon="19.30547">
        <ele>79.811898</ele>
        <time>2022-05-26T09:37:54.207Z</time>
      </trkpt>
      <trkpt lat="42.00512" lon="19.30543">
        <ele>79.850142</ele>
        <time>2022-05-26T09:37:56.210Z</time>
      </trkpt>
      <trkpt lat="42.00503" lon="19.30536">
        <ele>79.889184</ele>
        <time>2022-05-26T09:37:58.208Z</time>
      </trkpt>
      <trkpt lat="42.00495" lon="19.30526">
        <ele>79.92852</ele>
        <time>2022-05-26T09:38:00.239Z</time>
      </trkpt>
      <trkpt lat="42.0049" lon="19.30513">
        <ele>79.968354</ele>
        <time>2022-05-26T09:38:02.217Z</time>
      </trkpt>
      <trkpt lat="42.00487" lon="19.30499">
        <ele>80.008903</ele>
        <time>2022-05-26T09:38:04.209Z</time>
      </trkpt>
      <trkpt lat="42.00488" lon="19.30484">
        <ele>80.049423</ele>
        <time>2022-05-26T09:38:06.276Z</time>
      </trkpt>
      <trkpt lat="42.0049" lon="19.3047">
        <ele>80.087339</ele>
        <time>2022-05-26T09:38:08.204Z</time>
      </trkpt>
      <trkpt lat="42.00493" lon="19.30457">
        <ele>80.123511</ele>
        <time>2022-05-26T09:38:10.204Z</time>
      </trkpt>
      <trkpt lat="42.00495" lon="19.30446">
        <ele>80.156677</ele>
        <time>2022-05-26T09:38:12.221Z</time>
      </trkpt>
      <trkpt lat="42.00495" lon="19.30429">
        <ele>80.156446</ele>
        <time>2022-05-26T09:38:15.209Z</time>
      </trkpt>
      <trkpt lat="42.00492" lon="19.30414">
        <ele>80.151638</ele>
        <time>2022-05-26T09:38:18.207Z</time>
      </trkpt>
      <trkpt lat="42.00488" lon="19.30399">
        <ele>80.14667</ele>
        <time>2022-05-26T09:38:21.206Z</time>
      </trkpt>
      <trkpt lat="42.00482" lon="19.30388">
        <ele>80.142203</ele>
        <time>2022-05-26T09:38:24.222Z</time>
      </trkpt>
      <trkpt lat="42.00474" lon="19.30378">
        <ele>80.137833</ele>
        <time>2022-05-26T09:38:27.212Z</time>
      </trkpt>
      <trkpt lat="42.00463" lon="19.3037">
        <ele>80.13277</ele>
        <time>2022-05-26T09:38:30.206Z</time>
      </trkpt>
      <trkpt lat="42.00455" lon="19.30365">
        <ele>80.128875</ele>
        <time>2022-05-26T09:38:32.203Z</time>
      </trkpt>
      <trkpt lat="42.00445" lon="19.30359">
        <ele>80.12446</ele>
        <time>2022-05-26T09:38:34.228Z</time>
      </trkpt>
      <trkpt lat="42.00435" lon="19.30352">
        <ele>80.119599</ele>
        <time>2022-05-26T09:38:36.209Z</time>
      </trkpt>
      <trkpt lat="42.00424" lon="19.30344">
        <ele>80.114398</ele>
        <time>2022-05-26T09:38:38.209Z</time>
      </trkpt>
      <trkpt lat="42.00413" lon="19.30336">
        <ele>80.109204</ele>
        <time>2022-05-26T09:38:40.231Z</time>
      </trkpt>
      <trkpt lat="42.00403" lon="19.30329">
        <ele>80.104244</ele>
        <time>2022-05-26T09:38:42.206Z</time>
      </trkpt>
      <trkpt lat="42.00392" lon="19.30321">
        <ele>80.099352</ele>
        <time>2022-05-26T09:38:44.212Z</time>
      </trkpt>
      <trkpt lat="42.00382" lon="19.30313">
        <ele>80.094449</ele>
        <time>2022-05-26T09:38:46.251Z</time>
      </trkpt>
      <trkpt lat="42.00373" lon="19.30304">
        <ele>80.089659</ele>
        <time>2022-05-26T09:38:48.202Z</time>
      </trkpt>
      <trkpt lat="42.00364" lon="19.30295">
        <ele>80.116165</ele>
        <time>2022-05-26T09:38:50.206Z</time>
      </trkpt>
      <trkpt lat="42.00356" lon="19.30285">
        <ele>80.269842</ele>
        <time>2022-05-26T09:38:52.205Z</time>
      </trkpt>
      <trkpt lat="42.0035" lon="19.30273">
        <ele>80.416175</ele>
        <time>2022-05-26T09:38:54.217Z</time>
      </trkpt>
      <trkpt lat="42.00345" lon="19.30262">
        <ele>80.556313</ele>
        <time>2022-05-26T09:38:56.210Z</time>
      </trkpt>
      <trkpt lat="42.00342" lon="19.30249">
        <ele>80.694495</ele>
        <time>2022-05-26T09:38:58.200Z</time>
      </trkpt>
      <trkpt lat="42.00339" lon="19.30237">
        <ele>80.827932</ele>
        <time>2022-05-26T09:39:00.203Z</time>
      </trkpt>
      <trkpt lat="42.00336" lon="19.30219">
        <ele>81.014415</ele>
        <time>2022-05-26T09:39:03.220Z</time>
      </trkpt>
      <trkpt lat="42.00333" lon="19.30203">
        <ele>81.192164</ele>
        <time>2022-05-26T09:39:06.209Z</time>
      </trkpt>
      <trkpt lat="42.00331" lon="19.30187">
        <ele>81.358123</ele>
        <time>2022-05-26T09:39:09.205Z</time>
      </trkpt>
      <trkpt lat="42.00328" lon="19.30173">
        <ele>81.514525</ele>
        <time>2022-05-26T09:39:12.210Z</time>
      </trkpt>
      <trkpt lat="42.00326" lon="19.30159">
        <ele>81.661858</ele>
        <time>2022-05-26T09:39:15.214Z</time>
      </trkpt>
      <trkpt lat="42.00324" lon="19.30143">
        <ele>81.826797</ele>
        <time>2022-05-26T09:39:18.204Z</time>
      </trkpt>
      <trkpt lat="42.00322" lon="19.30126">
        <ele>82.009408</ele>
        <time>2022-05-26T09:39:21.224Z</time>
      </trkpt>
      <trkpt lat="42.0032" lon="19.30113">
        <ele>82.142815</ele>
        <time>2022-05-26T09:39:23.212Z</time>
      </trkpt>
      <trkpt lat="42.00318" lon="19.30101">
        <ele>82.276018</ele>
        <time>2022-05-26T09:39:25.205Z</time>
      </trkpt>
      <trkpt lat="42.00316" lon="19.30088">
        <ele>82.408659</ele>
        <time>2022-05-26T09:39:27.220Z</time>
      </trkpt>
      <trkpt lat="42.00314" lon="19.30076">
        <ele>82.540278</ele>
        <time>2022-05-26T09:39:29.215Z</time>
      </trkpt>
      <trkpt lat="42.00312" lon="19.30063">
        <ele>82.666931</ele>
        <time>2022-05-26T09:39:31.213Z</time>
      </trkpt>
      <trkpt lat="42.00311" lon="19.30051">
        <ele>82.77632</ele>
        <time>2022-05-26T09:39:33.219Z</time>
      </trkpt>
      <trkpt lat="42.00308" lon="19.30034">
        <ele>82.935307</ele>
        <time>2022-05-26T09:39:36.237Z</time>
      </trkpt>
      <trkpt lat="42.00305" lon="19.30017">
        <ele>83.087238</ele>
        <time>2022-05-26T09:39:39.216Z</time>
      </trkpt>
      <trkpt lat="42.00303" lon="19.3">
        <ele>83.244964</ele>
        <time>2022-05-26T09:39:42.232Z</time>
      </trkpt>
      <trkpt lat="42.003" lon="19.29984">
        <ele>83.398624</ele>
        <time>2022-05-26T09:39:45.213Z</time>
      </trkpt>
      <trkpt lat="42.00298" lon="19.29967">
        <ele>83.545864</ele>
        <time>2022-05-26T09:39:48.236Z</time>
      </trkpt>
      <trkpt lat="42.00296" lon="19.29951">
        <ele>83.696655</ele>
        <time>2022-05-26T09:39:51.215Z</time>
      </trkpt>
      <trkpt lat="42.00295" lon="19.29934">
        <ele>83.847673</ele>
        <time>2022-05-26T09:39:54.239Z</time>
      </trkpt>
      <trkpt lat="42.00295" lon="19.29918">
        <ele>83.994543</ele>
        <time>2022-05-26T09:39:57.209Z</time>
      </trkpt>
      <trkpt lat="42.00297" lon="19.299">
        <ele>84.157985</ele>
        <time>2022-05-26T09:40:00.211Z</time>
      </trkpt>
      <trkpt lat="42.00299" lon="19.29888">
        <ele>84.271067</ele>
        <time>2022-05-26T09:40:02.205Z</time>
      </trkpt>
      <trkpt lat="42.00304" lon="19.29873">
        <ele>84.418005</ele>
        <time>2022-05-26T09:40:05.242Z</time>
      </trkpt>
      <trkpt lat="42.00309" lon="19.29859">
        <ele>84.562386</ele>
        <time>2022-05-26T09:40:08.215Z</time>
      </trkpt>
      <trkpt lat="42.00316" lon="19.29845">
        <ele>84.707726</ele>
        <time>2022-05-26T09:40:11.209Z</time>
      </trkpt>
      <trkpt lat="42.00323" lon="19.29833">
        <ele>84.863166</ele>
        <time>2022-05-26T09:40:14.213Z</time>
      </trkpt>
      <trkpt lat="42.00329" lon="19.29822">
        <ele>85.042591</ele>
        <time>2022-05-26T09:40:17.211Z</time>
      </trkpt>
      <trkpt lat="42.00336" lon="19.2981">
        <ele>85.234184</ele>
        <time>2022-05-26T09:40:20.217Z</time>
      </trkpt>
      <trkpt lat="42.00342" lon="19.29797">
        <ele>85.432968</ele>
        <time>2022-05-26T09:40:23.224Z</time>
      </trkpt>
      <trkpt lat="42.00349" lon="19.29784">
        <ele>85.627543</ele>
        <time>2022-05-26T09:40:26.214Z</time>
      </trkpt>
      <trkpt lat="42.00356" lon="19.29772">
        <ele>85.818105</ele>
        <time>2022-05-26T09:40:29.214Z</time>
      </trkpt>
      <trkpt lat="42.00362" lon="19.2976">
        <ele>86.006606</ele>
        <time>2022-05-26T09:40:32.239Z</time>
      </trkpt>
      <trkpt lat="42.0037" lon="19.29748">
        <ele>86.200462</ele>
        <time>2022-05-26T09:40:35.213Z</time>
      </trkpt>
      <trkpt lat="42.00377" lon="19.29737">
        <ele>86.38905</ele>
        <time>2022-05-26T09:40:38.235Z</time>
      </trkpt>
      <trkpt lat="42.00384" lon="19.29725">
        <ele>86.583184</ele>
        <time>2022-05-26T09:40:41.215Z</time>
      </trkpt>
      <trkpt lat="42.00393" lon="19.29715">
        <ele>86.779634</ele>
        <time>2022-05-26T09:40:44.231Z</time>
      </trkpt>
      <trkpt lat="42.00402" lon="19.29706">
        <ele>86.972074</ele>
        <time>2022-05-26T09:40:47.213Z</time>
      </trkpt>
      <trkpt lat="42.00412" lon="19.29697">
        <ele>87.176583</ele>
        <time>2022-05-26T09:40:50.224Z</time>
      </trkpt>
      <trkpt lat="42.00422" lon="19.29691">
        <ele>87.363654</ele>
        <time>2022-05-26T09:40:53.208Z</time>
      </trkpt>
      <trkpt lat="42.00432" lon="19.29686">
        <ele>87.537434</ele>
        <time>2022-05-26T09:40:56.232Z</time>
      </trkpt>
      <trkpt lat="42.00442" lon="19.2968">
        <ele>87.726121</ele>
        <time>2022-05-26T09:40:59.220Z</time>
      </trkpt>
      <trkpt lat="42.00451" lon="19.29671">
        <ele>87.8456</ele>
        <time>2022-05-26T09:41:02.204Z</time>
      </trkpt>
      <trkpt lat="42.00459" lon="19.29662">
        <ele>87.850402</ele>
        <time>2022-05-26T09:41:05.216Z</time>
      </trkpt>
      <trkpt lat="42.00467" lon="19.29651">
        <ele>87.855812</ele>
        <time>2022-05-26T09:41:08.233Z</time>
      </trkpt>
      <trkpt lat="42.00475" lon="19.29639">
        <ele>87.86142</ele>
        <time>2022-05-26T09:41:11.222Z</time>
      </trkpt>
      <trkpt lat="42.00479" lon="19.29627">
        <ele>87.866116</ele>
        <time>2022-05-26T09:41:14.240Z</time>
      </trkpt>
      <trkpt lat="42.00487" lon="19.29613">
        <ele>87.87214</ele>
        <time>2022-05-26T09:41:17.218Z</time>
      </trkpt>
      <trkpt lat="42.00494" lon="19.29601">
        <ele>87.877408</ele>
        <time>2022-05-26T09:41:20.237Z</time>
      </trkpt>
      <trkpt lat="42.005" lon="19.29589">
        <ele>87.882565</ele>
        <time>2022-05-26T09:41:23.212Z</time>
      </trkpt>
      <trkpt lat="42.00506" lon="19.29576">
        <ele>87.888093</ele>
        <time>2022-05-26T09:41:26.231Z</time>
      </trkpt>
      <trkpt lat="42.00513" lon="19.29563">
        <ele>87.893365</ele>
        <time>2022-05-26T09:41:29.211Z</time>
      </trkpt>
      <trkpt lat="42.00518" lon="19.2955">
        <ele>87.898453</ele>
        <time>2022-05-26T09:41:32.237Z</time>
      </trkpt>
      <trkpt lat="42.00522" lon="19.29537">
        <ele>87.903351</ele>
        <time>2022-05-26T09:41:35.212Z</time>
      </trkpt>
      <trkpt lat="42.00525" lon="19.29526">
        <ele>87.907687</ele>
        <time>2022-05-26T09:41:38.226Z</time>
      </trkpt>
      <trkpt lat="42.00527" lon="19.29514">
        <ele>87.911916</ele>
        <time>2022-05-26T09:41:41.213Z</time>
      </trkpt>
      <trkpt lat="42.0053" lon="19.29502">
        <ele>87.916233</ele>
        <time>2022-05-26T09:41:44.209Z</time>
      </trkpt>
      <trkpt lat="42.00533" lon="19.29488">
        <ele>87.921298</ele>
        <time>2022-05-26T09:41:48.217Z</time>
      </trkpt>
      <trkpt lat="42.00536" lon="19.29473">
        <ele>87.926912</ele>
        <time>2022-05-26T09:41:52.220Z</time>
      </trkpt>
      <trkpt lat="42.00538" lon="19.2946">
        <ele>88.22813</ele>
        <time>2022-05-26T09:41:55.235Z</time>
      </trkpt>
      <trkpt lat="42.00541" lon="19.29446">
        <ele>88.655772</ele>
        <time>2022-05-26T09:41:58.220Z</time>
      </trkpt>
      <trkpt lat="42.00543" lon="19.29434">
        <ele>89.058681</ele>
        <time>2022-05-26T09:42:01.242Z</time>
      </trkpt>
      <trkpt lat="42.00545" lon="19.29422">
        <ele>89.432877</ele>
        <time>2022-05-26T09:42:04.205Z</time>
      </trkpt>
      <trkpt lat="42.00549" lon="19.29407">
        <ele>89.923733</ele>
        <time>2022-05-26T09:42:08.216Z</time>
      </trkpt>
      <trkpt lat="42.00551" lon="19.29393">
        <ele>90.367287</ele>
        <time>2022-05-26T09:42:12.207Z</time>
      </trkpt>
      <trkpt lat="42.00554" lon="19.29378">
        <ele>90.831744</ele>
        <time>2022-05-26T09:42:16.215Z</time>
      </trkpt>
      <trkpt lat="42.00556" lon="19.29362">
        <ele>91.315391</ele>
        <time>2022-05-26T09:42:20.206Z</time>
      </trkpt>
      <trkpt lat="42.00559" lon="19.29351">
        <ele>91.692312</ele>
        <time>2022-05-26T09:42:23.207Z</time>
      </trkpt>
      <trkpt lat="42.00561" lon="19.29339">
        <ele>92.070319</ele>
        <time>2022-05-26T09:42:26.212Z</time>
      </trkpt>
      <trkpt lat="42.00563" lon="19.29323">
        <ele>92.559163</ele>
        <time>2022-05-26T09:42:30.227Z</time>
      </trkpt>
      <trkpt lat="42.00566" lon="19.29308">
        <ele>93.035566</ele>
        <time>2022-05-26T09:42:34.205Z</time>
      </trkpt>
      <trkpt lat="42.00569" lon="19.29293">
        <ele>93.528204</ele>
        <time>2022-05-26T09:42:38.217Z</time>
      </trkpt>
      <trkpt lat="42.00573" lon="19.29278">
        <ele>94.012709</ele>
        <time>2022-05-26T09:42:42.208Z</time>
      </trkpt>
      <trkpt lat="42.00576" lon="19.29263">
        <ele>94.488447</ele>
        <time>2022-05-26T09:42:46.214Z</time>
      </trkpt>
      <trkpt lat="42.0058" lon="19.29248">
        <ele>94.965321</ele>
        <time>2022-05-26T09:42:50.206Z</time>
      </trkpt>
      <trkpt lat="42.00584" lon="19.29236">
        <ele>95.369687</ele>
        <time>2022-05-26T09:42:53.212Z</time>
      </trkpt>
      <trkpt lat="42.00587" lon="19.29224">
        <ele>95.452779</ele>
        <time>2022-05-26T09:42:56.206Z</time>
      </trkpt>
      <trkpt lat="42.00592" lon="19.29211">
        <ele>95.540332</ele>
        <time>2022-05-26T09:42:59.210Z</time>
      </trkpt>
      <trkpt lat="42.00596" lon="19.29197">
        <ele>95.637719</ele>
        <time>2022-05-26T09:43:02.212Z</time>
      </trkpt>
      <trkpt lat="42.006" lon="19.29183">
        <ele>95.730035</ele>
        <time>2022-05-26T09:43:05.216Z</time>
      </trkpt>
      <trkpt lat="42.00604" lon="19.2917">
        <ele>95.819052</ele>
        <time>2022-05-26T09:43:08.203Z</time>
      </trkpt>
      <trkpt lat="42.00608" lon="19.29158">
        <ele>95.904542</ele>
        <time>2022-05-26T09:43:11.199Z</time>
      </trkpt>
      <trkpt lat="42.00612" lon="19.29145">
        <ele>95.990032</ele>
        <time>2022-05-26T09:43:14.208Z</time>
      </trkpt>
      <trkpt lat="42.00616" lon="19.29134">
        <ele>96.068544</ele>
        <time>2022-05-26T09:43:17.209Z</time>
      </trkpt>
      <trkpt lat="42.0062" lon="19.29121">
        <ele>96.157609</ele>
        <time>2022-05-26T09:43:20.209Z</time>
      </trkpt>
      <trkpt lat="42.00624" lon="19.29109">
        <ele>96.244098</ele>
        <time>2022-05-26T09:43:23.210Z</time>
      </trkpt>
      <trkpt lat="42.00628" lon="19.29095">
        <ele>96.338821</ele>
        <time>2022-05-26T09:43:26.243Z</time>
      </trkpt>
      <trkpt lat="42.00633" lon="19.29081">
        <ele>96.433406</ele>
        <time>2022-05-26T09:43:29.214Z</time>
      </trkpt>
      <trkpt lat="42.00637" lon="19.29067">
        <ele>96.531579</ele>
        <time>2022-05-26T09:43:32.227Z</time>
      </trkpt>
      <trkpt lat="42.00642" lon="19.29053">
        <ele>96.628007</ele>
        <time>2022-05-26T09:43:35.203Z</time>
      </trkpt>
      <trkpt lat="42.00648" lon="19.29039">
        <ele>96.728979</ele>
        <time>2022-05-26T09:43:38.224Z</time>
      </trkpt>
      <trkpt lat="42.00652" lon="19.29025">
        <ele>96.825874</ele>
        <time>2022-05-26T09:43:41.208Z</time>
      </trkpt>
      <trkpt lat="42.00657" lon="19.29011">
        <ele>96.870569</ele>
        <time>2022-05-26T09:43:44.239Z</time>
      </trkpt>
      <trkpt lat="42.00663" lon="19.28996">
        <ele>96.725741</ele>
        <time>2022-05-26T09:43:47.202Z</time>
      </trkpt>
      <trkpt lat="42.00668" lon="19.28984">
        <ele>96.61644</ele>
        <time>2022-05-26T09:43:49.207Z</time>
      </trkpt>
      <trkpt lat="42.00675" lon="19.28973">
        <ele>96.498488</ele>
        <time>2022-05-26T09:43:51.206Z</time>
      </trkpt>
      <trkpt lat="42.00683" lon="19.28963">
        <ele>96.379059</ele>
        <time>2022-05-26T09:43:53.219Z</time>
      </trkpt>
      <trkpt lat="42.00691" lon="19.28954">
        <ele>96.258788</ele>
        <time>2022-05-26T09:43:55.211Z</time>
      </trkpt>
      <trkpt lat="42.007" lon="19.28947">
        <ele>96.146351</ele>
        <time>2022-05-26T09:43:57.210Z</time>
      </trkpt>
      <trkpt lat="42.00709" lon="19.2894">
        <ele>96.030762</ele>
        <time>2022-05-26T09:43:59.204Z</time>
      </trkpt>
      <trkpt lat="42.00718" lon="19.28933">
        <ele>95.922012</ele>
        <time>2022-05-26T09:44:01.208Z</time>
      </trkpt>
      <trkpt lat="42.00726" lon="19.28927">
        <ele>95.821583</ele>
        <time>2022-05-26T09:44:03.222Z</time>
      </trkpt>
      <trkpt lat="42.00734" lon="19.28914">
        <ele>95.683748</ele>
        <time>2022-05-26T09:44:06.211Z</time>
      </trkpt>
      <trkpt lat="42.00738" lon="19.28903">
        <ele>95.580332</ele>
        <time>2022-05-26T09:44:08.209Z</time>
      </trkpt>
      <trkpt lat="42.00741" lon="19.2889">
        <ele>95.471661</ele>
        <time>2022-05-26T09:44:10.205Z</time>
      </trkpt>
      <trkpt lat="42.00744" lon="19.28877">
        <ele>95.356691</ele>
        <time>2022-05-26T09:44:12.197Z</time>
      </trkpt>
      <trkpt lat="42.00749" lon="19.28865">
        <ele>95.246426</ele>
        <time>2022-05-26T09:44:14.214Z</time>
      </trkpt>
      <trkpt lat="42.00753" lon="19.28853">
        <ele>95.137508</ele>
        <time>2022-05-26T09:44:16.203Z</time>
      </trkpt>
      <trkpt lat="42.00758" lon="19.28843">
        <ele>95.036379</ele>
        <time>2022-05-26T09:44:18.214Z</time>
      </trkpt>
      <trkpt lat="42.00764" lon="19.2883">
        <ele>94.91585</ele>
        <time>2022-05-26T09:44:21.214Z</time>
      </trkpt>
      <trkpt lat="42.0077" lon="19.28821">
        <ele>95.083899</ele>
        <time>2022-05-26T09:44:24.229Z</time>
      </trkpt>
      <trkpt lat="42.00776" lon="19.28808">
        <ele>95.282215</ele>
        <time>2022-05-26T09:44:28.203Z</time>
      </trkpt>
      <trkpt lat="42.00779" lon="19.28795">
        <ele>95.479818</ele>
        <time>2022-05-26T09:44:32.202Z</time>
      </trkpt>
      <trkpt lat="42.00782" lon="19.2878">
        <ele>95.688751</ele>
        <time>2022-05-26T09:44:36.202Z</time>
      </trkpt>
      <trkpt lat="42.00783" lon="19.28768">
        <ele>95.859275</ele>
        <time>2022-05-26T09:44:39.219Z</time>
      </trkpt>
      <trkpt lat="42.00785" lon="19.28754">
        <ele>96.051431</ele>
        <time>2022-05-26T09:44:42.208Z</time>
      </trkpt>
      <trkpt lat="42.00788" lon="19.28738">
        <ele>96.273206</ele>
        <time>2022-05-26T09:44:45.205Z</time>
      </trkpt>
      <trkpt lat="42.00792" lon="19.28722">
        <ele>96.506749</ele>
        <time>2022-05-26T09:44:48.204Z</time>
      </trkpt>
      <trkpt lat="42.00797" lon="19.28707">
        <ele>96.736919</ele>
        <time>2022-05-26T09:44:51.202Z</time>
      </trkpt>
      <trkpt lat="42.00803" lon="19.28693">
        <ele>96.945152</ele>
        <time>2022-05-26T09:44:54.227Z</time>
      </trkpt>
      <trkpt lat="42.00808" lon="19.2868">
        <ele>97.156671</ele>
        <time>2022-05-26T09:44:57.217Z</time>
      </trkpt>
      <trkpt lat="42.00814" lon="19.28665">
        <ele>97.379391</ele>
        <time>2022-05-26T09:45:00.203Z</time>
      </trkpt>
      <trkpt lat="42.00818" lon="19.28649">
        <ele>97.61412</ele>
        <time>2022-05-26T09:45:03.202Z</time>
      </trkpt>
      <trkpt lat="42.00822" lon="19.28632">
        <ele>97.858634</ele>
        <time>2022-05-26T09:45:06.206Z</time>
      </trkpt>
      <trkpt lat="42.00825" lon="19.28615">
        <ele>98.098105</ele>
        <time>2022-05-26T09:45:09.229Z</time>
      </trkpt>
      <trkpt lat="42.00828" lon="19.28598">
        <ele>98.256236</ele>
        <time>2022-05-26T09:45:12.202Z</time>
      </trkpt>
      <trkpt lat="42.00831" lon="19.28582">
        <ele>98.318686</ele>
        <time>2022-05-26T09:45:15.231Z</time>
      </trkpt>
      <trkpt lat="42.00833" lon="19.2857">
        <ele>98.366786</ele>
        <time>2022-05-26T09:45:17.205Z</time>
      </trkpt>
      <trkpt lat="42.00835" lon="19.28557">
        <ele>98.414973</ele>
        <time>2022-05-26T09:45:19.218Z</time>
      </trkpt>
      <trkpt lat="42.00837" lon="19.28545">
        <ele>98.465752</ele>
        <time>2022-05-26T09:45:21.227Z</time>
      </trkpt>
      <trkpt lat="42.00841" lon="19.28532">
        <ele>98.51668</ele>
        <time>2022-05-26T09:45:23.209Z</time>
      </trkpt>
      <trkpt lat="42.00845" lon="19.28519">
        <ele>98.570357</ele>
        <time>2022-05-26T09:45:25.201Z</time>
      </trkpt>
      <trkpt lat="42.00851" lon="19.28509">
        <ele>98.620674</ele>
        <time>2022-05-26T09:45:27.223Z</time>
      </trkpt>
      <trkpt lat="42.00863" lon="19.28498">
        <ele>98.693848</ele>
        <time>2022-05-26T09:45:30.212Z</time>
      </trkpt>
      <trkpt lat="42.00873" lon="19.28493">
        <ele>98.747234</ele>
        <time>2022-05-26T09:45:32.216Z</time>
      </trkpt>
      <trkpt lat="42.00885" lon="19.28488">
        <ele>98.811124</ele>
        <time>2022-05-26T09:45:35.215Z</time>
      </trkpt>
      <trkpt lat="42.00894" lon="19.28484">
        <ele>98.860622</ele>
        <time>2022-05-26T09:45:38.199Z</time>
      </trkpt>
      <trkpt lat="42.00904" lon="19.28477">
        <ele>98.916652</ele>
        <time>2022-05-26T09:45:42.207Z</time>
      </trkpt>
      <trkpt lat="42.00913" lon="19.28467">
        <ele>98.977044</ele>
        <time>2022-05-26T09:45:46.203Z</time>
      </trkpt>
      <trkpt lat="42.00919" lon="19.28457">
        <ele>99.027143</ele>
        <time>2022-05-26T09:45:49.219Z</time>
      </trkpt>
      <trkpt lat="42.00925" lon="19.28446">
        <ele>99.077161</ele>
        <time>2022-05-26T09:45:52.203Z</time>
      </trkpt>
      <trkpt lat="42.0093" lon="19.28436">
        <ele>99.125776</ele>
        <time>2022-05-26T09:45:55.222Z</time>
      </trkpt>
      <trkpt lat="42.00935" lon="19.28424">
        <ele>99.363389</ele>
        <time>2022-05-26T09:45:58.212Z</time>
      </trkpt>
      <trkpt lat="42.00939" lon="19.28412">
        <ele>99.721613</ele>
        <time>2022-05-26T09:46:01.215Z</time>
      </trkpt>
      <trkpt lat="42.00944" lon="19.284">
        <ele>100.074394</ele>
        <time>2022-05-26T09:46:04.233Z</time>
      </trkpt>
      <trkpt lat="42.00948" lon="19.28388">
        <ele>100.411263</ele>
        <time>2022-05-26T09:46:07.208Z</time>
      </trkpt>
      <trkpt lat="42.00953" lon="19.28377">
        <ele>100.756416</ele>
        <time>2022-05-26T09:46:10.213Z</time>
      </trkpt>
      <trkpt lat="42.00958" lon="19.28365">
        <ele>101.118918</ele>
        <time>2022-05-26T09:46:13.223Z</time>
      </trkpt>
      <trkpt lat="42.00962" lon="19.28354">
        <ele>101.466388</ele>
        <time>2022-05-26T09:46:16.204Z</time>
      </trkpt>
      <trkpt lat="42.00967" lon="19.28342">
        <ele>101.801792</ele>
        <time>2022-05-26T09:46:19.252Z</time>
      </trkpt>
      <trkpt lat="42.00971" lon="19.28331">
        <ele>102.142622</ele>
        <time>2022-05-26T09:46:22.205Z</time>
      </trkpt>
      <trkpt lat="42.00977" lon="19.28317">
        <ele>102.55426</ele>
        <time>2022-05-26T09:46:26.201Z</time>
      </trkpt>
      <trkpt lat="42.00981" lon="19.28306">
        <ele>102.877698</ele>
        <time>2022-05-26T09:46:29.211Z</time>
      </trkpt>
      <trkpt lat="42.00985" lon="19.28296">
        <ele>103.198775</ele>
        <time>2022-05-26T09:46:32.206Z</time>
      </trkpt>
      <trkpt lat="42.0099" lon="19.28281">
        <ele>103.617107</ele>
        <time>2022-05-26T09:46:36.228Z</time>
      </trkpt>
      <trkpt lat="42.00996" lon="19.28268">
        <ele>104.025338</ele>
        <time>2022-05-26T09:46:40.198Z</time>
      </trkpt>
      <trkpt lat="42.00999" lon="19.28257">
        <ele>104.352255</ele>
        <time>2022-05-26T09:46:43.217Z</time>
      </trkpt>
      <trkpt lat="42.01003" lon="19.28242">
        <ele>104.758395</ele>
        <time>2022-05-26T09:46:47.245Z</time>
      </trkpt>
      <trkpt lat="42.01005" lon="19.28228">
        <ele>105.133948</ele>
        <time>2022-05-26T09:46:51.215Z</time>
      </trkpt>
      <trkpt lat="42.01005" lon="19.28213">
        <ele>105.523915</ele>
        <time>2022-05-26T09:46:56.214Z</time>
      </trkpt>
      <trkpt lat="42.01005" lon="19.28201">
        <ele>106.176503</ele>
        <time>2022-05-26T09:47:01.206Z</time>
      </trkpt>
      <trkpt lat="42.01004" lon="19.28188">
        <ele>106.870098</ele>
        <time>2022-05-26T09:47:06.202Z</time>
      </trkpt>
      <trkpt lat="42.01002" lon="19.28176">
        <ele>107.547758</ele>
        <time>2022-05-26T09:47:11.204Z</time>
      </trkpt>
      <trkpt lat="42.01001" lon="19.28164">
        <ele>108.240429</ele>
        <time>2022-05-26T09:47:16.200Z</time>
      </trkpt>
      <trkpt lat="42.00999" lon="19.28151">
        <ele>108.940852</ele>
        <time>2022-05-26T09:47:21.204Z</time>
      </trkpt>
      <trkpt lat="42.00999" lon="19.28138">
        <ele>109.653183</ele>
        <time>2022-05-26T09:47:26.199Z</time>
      </trkpt>
      <trkpt lat="42.01001" lon="19.28125">
        <ele>110.378415</ele>
        <time>2022-05-26T09:47:31.204Z</time>
      </trkpt>
      <trkpt lat="42.01005" lon="19.28112">
        <ele>111.138789</ele>
        <time>2022-05-26T09:47:37.247Z</time>
      </trkpt>
      <trkpt lat="42.0101" lon="19.28101">
        <ele>111.836044</ele>
        <time>2022-05-26T09:47:42.212Z</time>
      </trkpt>
      <trkpt lat="42.01017" lon="19.2809">
        <ele>112.610144</ele>
        <time>2022-05-26T09:47:48.232Z</time>
      </trkpt>
      <trkpt lat="42.01023" lon="19.28079">
        <ele>113.375506</ele>
        <time>2022-05-26T09:47:54.201Z</time>
      </trkpt>
      <trkpt lat="42.01029" lon="19.28068">
        <ele>114.132568</ele>
        <time>2022-05-26T09:48:00.207Z</time>
      </trkpt>
      <trkpt lat="42.01034" lon="19.28056">
        <ele>114.868487</ele>
        <time>2022-05-26T09:48:06.209Z</time>
      </trkpt>
      <trkpt lat="42.01036" lon="19.28043">
        <ele>115.602843</ele>
        <time>2022-05-26T09:48:12.203Z</time>
      </trkpt>
      <trkpt lat="42.01036" lon="19.28029">
        <ele>116.348193</ele>
        <time>2022-05-26T09:48:18.204Z</time>
      </trkpt>
      <trkpt lat="42.01035" lon="19.28017">
        <ele>117.040861</ele>
        <time>2022-05-26T09:48:24.209Z</time>
      </trkpt>
      <trkpt lat="42.01031" lon="19.28004">
        <ele>117.794574</ele>
        <time>2022-05-26T09:48:31.211Z</time>
      </trkpt>
      <trkpt lat="42.01026" lon="19.27993">
        <ele>118.481447</ele>
        <time>2022-05-26T09:48:38.213Z</time>
      </trkpt>
      <trkpt lat="42.01021" lon="19.27981">
        <ele>119.199285</ele>
        <time>2022-05-26T09:48:43.207Z</time>
      </trkpt>
      <trkpt lat="42.01016" lon="19.2797">
        <ele>119.787972</ele>
        <time>2022-05-26T09:48:49.206Z</time>
      </trkpt>
      <trkpt lat="42.01012" lon="19.27959">
        <ele>120.368219</ele>
        <time>2022-05-26T09:48:55.209Z</time>
      </trkpt>
      <trkpt lat="42.01008" lon="19.27947">
        <ele>120.950829</ele>
        <time>2022-05-26T09:49:02.209Z</time>
      </trkpt>
      <trkpt lat="42.01007" lon="19.27935">
        <ele>121.518714</ele>
        <time>2022-05-26T09:49:08.240Z</time>
      </trkpt>
      <trkpt lat="42.01008" lon="19.27923">
        <ele>122.078396</ele>
        <time>2022-05-26T09:49:13.203Z</time>
      </trkpt>
      <trkpt lat="42.01009" lon="19.27909">
        <ele>122.739526</ele>
        <time>2022-05-26T09:49:19.208Z</time>
      </trkpt>
      <trkpt lat="42.01011" lon="19.27895">
        <ele>123.357547</ele>
        <time>2022-05-26T09:49:25.214Z</time>
      </trkpt>
      <trkpt lat="42.01014" lon="19.27882">
        <ele>123.99037</ele>
        <time>2022-05-26T09:49:31.209Z</time>
      </trkpt>
      <trkpt lat="42.01018" lon="19.27871">
        <ele>124.571952</ele>
        <time>2022-05-26T09:49:37.210Z</time>
      </trkpt>
      <trkpt lat="42.01022" lon="19.27859">
        <ele>125.161362</ele>
        <time>2022-05-26T09:49:43.204Z</time>
      </trkpt>
      <trkpt lat="42.01027" lon="19.2785">
        <ele>125.732564</ele>
        <time>2022-05-26T09:49:49.208Z</time>
      </trkpt>
      <trkpt lat="42.01035" lon="19.2784">
        <ele>126.36827</ele>
        <time>2022-05-26T09:49:55.201Z</time>
      </trkpt>
      <trkpt lat="42.01042" lon="19.27833">
        <ele>126.948943</ele>
        <time>2022-05-26T09:50:00.205Z</time>
      </trkpt>
      <trkpt lat="42.01052" lon="19.27826">
        <ele>127.617053</ele>
        <time>2022-05-26T09:50:07.227Z</time>
      </trkpt>
      <trkpt lat="42.0106" lon="19.2782">
        <ele>128.225041</ele>
        <time>2022-05-26T09:50:13.229Z</time>
      </trkpt>
      <trkpt lat="42.01069" lon="19.27811">
        <ele>128.893208</ele>
        <time>2022-05-26T09:50:20.206Z</time>
      </trkpt>
      <trkpt lat="42.01078" lon="19.27802">
        <ele>129.56093</ele>
        <time>2022-05-26T09:50:27.212Z</time>
      </trkpt>
      <trkpt lat="42.01085" lon="19.27793">
        <ele>130.049481</ele>
        <time>2022-05-26T09:50:33.212Z</time>
      </trkpt>
      <trkpt lat="42.01092" lon="19.27784">
        <ele>130.193884</ele>
        <time>2022-05-26T09:50:39.203Z</time>
      </trkpt>
      <trkpt lat="42.01098" lon="19.27774">
        <ele>130.329699</ele>
        <time>2022-05-26T09:50:44.211Z</time>
      </trkpt>
      <trkpt lat="42.01106" lon="19.27765">
        <ele>130.484429</ele>
        <time>2022-05-26T09:50:49.203Z</time>
      </trkpt>
      <trkpt lat="42.01114" lon="19.27755">
        <ele>130.639076</ele>
        <time>2022-05-26T09:50:54.209Z</time>
      </trkpt>
      <trkpt lat="42.01121" lon="19.27747">
        <ele>130.783924</ele>
        <time>2022-05-26T09:50:58.213Z</time>
      </trkpt>
      <trkpt lat="42.01129" lon="19.27738">
        <ele>130.93121</ele>
        <time>2022-05-26T09:51:02.211Z</time>
      </trkpt>
      <trkpt lat="42.01138" lon="19.27729">
        <ele>131.094423</ele>
        <time>2022-05-26T09:51:06.202Z</time>
      </trkpt>
      <trkpt lat="42.01146" lon="19.2772">
        <ele>131.251035</ele>
        <time>2022-05-26T09:51:10.215Z</time>
      </trkpt>
      <trkpt lat="42.01153" lon="19.27711">
        <ele>131.390099</ele>
        <time>2022-05-26T09:51:14.208Z</time>
      </trkpt>
      <trkpt lat="42.0116" lon="19.27701">
        <ele>131.535213</ele>
        <time>2022-05-26T09:51:17.206Z</time>
      </trkpt>
      <trkpt lat="42.01166" lon="19.27688">
        <ele>131.696058</ele>
        <time>2022-05-26T09:51:21.237Z</time>
      </trkpt>
      <trkpt lat="42.01171" lon="19.27677">
        <ele>131.840997</ele>
        <time>2022-05-26T09:51:25.214Z</time>
      </trkpt>
      <trkpt lat="42.01176" lon="19.27666">
        <ele>131.979669</ele>
        <time>2022-05-26T09:51:29.203Z</time>
      </trkpt>
      <trkpt lat="42.0118" lon="19.27655">
        <ele>132.1167</ele>
        <time>2022-05-26T09:51:33.233Z</time>
      </trkpt>
      <trkpt lat="42.01184" lon="19.27644">
        <ele>132.249496</ele>
        <time>2022-05-26T09:51:37.206Z</time>
      </trkpt>
      <trkpt lat="42.01188" lon="19.27633">
        <ele>132.384235</ele>
        <time>2022-05-26T09:51:42.207Z</time>
      </trkpt>
      <trkpt lat="42.01192" lon="19.27621">
        <ele>132.52164</ele>
        <time>2022-05-26T09:51:47.209Z</time>
      </trkpt>
      <trkpt lat="42.01196" lon="19.2761">
        <ele>132.676259</ele>
        <time>2022-05-26T09:51:52.211Z</time>
      </trkpt>
      <trkpt lat="42.01199" lon="19.27599">
        <ele>132.936749</ele>
        <time>2022-05-26T09:51:57.210Z</time>
      </trkpt>
      <trkpt lat="42.01204" lon="19.27586">
        <ele>133.235417</ele>
        <time>2022-05-26T09:52:03.207Z</time>
      </trkpt>
      <trkpt lat="42.01208" lon="19.27574">
        <ele>133.525148</ele>
        <time>2022-05-26T09:52:08.220Z</time>
      </trkpt>
      <trkpt lat="42.01212" lon="19.27562">
        <ele>133.806548</ele>
        <time>2022-05-26T09:52:13.203Z</time>
      </trkpt>
      <trkpt lat="42.01217" lon="19.27549">
        <ele>134.111523</ele>
        <time>2022-05-26T09:52:19.204Z</time>
      </trkpt>
      <trkpt lat="42.01221" lon="19.27537">
        <ele>134.403183</ele>
        <time>2022-05-26T09:52:25.203Z</time>
      </trkpt>
      <trkpt lat="42.01225" lon="19.27525">
        <ele>134.664119</ele>
        <time>2022-05-26T09:52:31.203Z</time>
      </trkpt>
      <trkpt lat="42.01229" lon="19.27514">
        <ele>134.938624</ele>
        <time>2022-05-26T09:52:36.210Z</time>
      </trkpt>
      <trkpt lat="42.01233" lon="19.27501">
        <ele>135.230665</ele>
        <time>2022-05-26T09:52:41.213Z</time>
      </trkpt>
      <trkpt lat="42.01237" lon="19.27489">
        <ele>135.519186</ele>
        <time>2022-05-26T09:52:46.219Z</time>
      </trkpt>
      <trkpt lat="42.01241" lon="19.27477">
        <ele>135.803406</ele>
        <time>2022-05-26T09:52:51.204Z</time>
      </trkpt>
      <trkpt lat="42.01245" lon="19.27464">
        <ele>136.093864</ele>
        <time>2022-05-26T09:52:57.233Z</time>
      </trkpt>
      <trkpt lat="42.01249" lon="19.27452">
        <ele>136.370306</ele>
        <time>2022-05-26T09:53:02.206Z</time>
      </trkpt>
      <trkpt lat="42.01254" lon="19.2744">
        <ele>136.669527</ele>
        <time>2022-05-26T09:53:07.202Z</time>
      </trkpt>
      <trkpt lat="42.01259" lon="19.27427">
        <ele>136.982757</ele>
        <time>2022-05-26T09:53:12.221Z</time>
      </trkpt>
      <trkpt lat="42.01264" lon="19.27413">
        <ele>137.302059</ele>
        <time>2022-05-26T09:53:17.204Z</time>
      </trkpt>
      <trkpt lat="42.01269" lon="19.27401">
        <ele>137.610663</ele>
        <time>2022-05-26T09:53:22.205Z</time>
      </trkpt>
      <trkpt lat="42.01274" lon="19.27389">
        <ele>137.85963</ele>
        <time>2022-05-26T09:53:27.223Z</time>
      </trkpt>
      <trkpt lat="42.01279" lon="19.27377">
        <ele>138.045893</ele>
        <time>2022-05-26T09:53:32.223Z</time>
      </trkpt>
      <trkpt lat="42.01283" lon="19.27366">
        <ele>138.226025</ele>
        <time>2022-05-26T09:53:37.231Z</time>
      </trkpt>
      <trkpt lat="42.01289" lon="19.27353">
        <ele>138.435184</ele>
        <time>2022-05-26T09:53:43.229Z</time>
      </trkpt>
      <trkpt lat="42.01293" lon="19.27342">
        <ele>138.610237</ele>
        <time>2022-05-26T09:53:47.200Z</time>
      </trkpt>
      <trkpt lat="42.01299" lon="19.27329">
        <ele>138.814023</ele>
        <time>2022-05-26T09:53:52.201Z</time>
      </trkpt>
      <trkpt lat="42.01303" lon="19.27317">
        <ele>138.992391</ele>
        <time>2022-05-26T09:53:56.215Z</time>
      </trkpt>
      <trkpt lat="42.01307" lon="19.27306">
        <ele>139.172396</ele>
        <time>2022-05-26T09:54:00.204Z</time>
      </trkpt>
      <trkpt lat="42.01311" lon="19.27294">
        <ele>139.353756</ele>
        <time>2022-05-26T09:54:04.213Z</time>
      </trkpt>
      <trkpt lat="42.01314" lon="19.27282">
        <ele>139.522995</ele>
        <time>2022-05-26T09:54:08.201Z</time>
      </trkpt>
      <trkpt lat="42.01317" lon="19.27269">
        <ele>139.717988</ele>
        <time>2022-05-26T09:54:13.203Z</time>
      </trkpt>
      <trkpt lat="42.01318" lon="19.27255">
        <ele>139.907069</ele>
        <time>2022-05-26T09:54:18.217Z</time>
      </trkpt>
      <trkpt lat="42.0132" lon="19.27241">
        <ele>140.103218</ele>
        <time>2022-05-26T09:54:23.233Z</time>
      </trkpt>
      <trkpt lat="42.0132" lon="19.27229">
        <ele>140.271397</ele>
        <time>2022-05-26T09:54:28.214Z</time>
      </trkpt>
      <trkpt lat="42.0132" lon="19.27216">
        <ele>140.450529</ele>
        <time>2022-05-26T09:54:34.203Z</time>
      </trkpt>
      <trkpt lat="42.01321" lon="19.27203">
        <ele>140.629894</ele>
        <time>2022-05-26T09:54:40.212Z</time>
      </trkpt>
      <trkpt lat="42.01322" lon="19.27191">
        <ele>140.803296</ele>
        <time>2022-05-26T09:54:46.201Z</time>
      </trkpt>
      <trkpt lat="42.01324" lon="19.27179">
        <ele>140.97638</ele>
        <time>2022-05-26T09:54:51.206Z</time>
      </trkpt>
      <trkpt lat="42.01326" lon="19.27165">
        <ele>141.165003</ele>
        <time>2022-05-26T09:54:57.205Z</time>
      </trkpt>
      <trkpt lat="42.01329" lon="19.27153">
        <ele>141.261088</ele>
        <time>2022-05-26T09:55:02.205Z</time>
      </trkpt>
      <trkpt lat="42.01331" lon="19.2714">
        <ele>141.372807</ele>
        <time>2022-05-26T09:55:08.216Z</time>
      </trkpt>
      <trkpt lat="42.01334" lon="19.27128">
        <ele>141.470395</ele>
        <time>2022-05-26T09:55:13.209Z</time>
      </trkpt>
      <trkpt lat="42.01338" lon="19.27116">
        <ele>141.571711</ele>
        <time>2022-05-26T09:55:17.202Z</time>
      </trkpt>
      <trkpt lat="42.01341" lon="19.27105">
        <ele>141.667488</ele>
        <time>2022-05-26T09:55:20.224Z</time>
      </trkpt>
      <trkpt lat="42.01346" lon="19.27093">
        <ele>141.77393</ele>
        <time>2022-05-26T09:55:23.204Z</time>
      </trkpt>
      <trkpt lat="42.0135" lon="19.2708">
        <ele>141.883547</ele>
        <time>2022-05-26T09:55:26.210Z</time>
      </trkpt>
      <trkpt lat="42.01353" lon="19.27067">
        <ele>141.998569</ele>
        <time>2022-05-26T09:55:29.205Z</time>
      </trkpt>
      <trkpt lat="42.01358" lon="19.27053">
        <ele>142.11975</ele>
        <time>2022-05-26T09:55:32.199Z</time>
      </trkpt>
      <trkpt lat="42.01362" lon="19.27041">
        <ele>142.225028</ele>
        <time>2022-05-26T09:55:35.216Z</time>
      </trkpt>
      <trkpt lat="42.01367" lon="19.27026">
        <ele>142.350408</ele>
        <time>2022-05-26T09:55:38.203Z</time>
      </trkpt>
      <trkpt lat="42.01371" lon="19.27015">
        <ele>142.449041</ele>
        <time>2022-05-26T09:55:40.212Z</time>
      </trkpt>
      <trkpt lat="42.01374" lon="19.27003">
        <ele>142.546688</ele>
        <time>2022-05-26T09:55:42.209Z</time>
      </trkpt>
      <trkpt lat="42.01378" lon="19.26992">
        <ele>142.645767</ele>
        <time>2022-05-26T09:55:44.213Z</time>
      </trkpt>
      <trkpt lat="42.01382" lon="19.26975">
        <ele>142.786394</ele>
        <time>2022-05-26T09:55:47.204Z</time>
      </trkpt>
      <trkpt lat="42.01386" lon="19.2696">
        <ele>142.91594</ele>
        <time>2022-05-26T09:55:50.213Z</time>
      </trkpt>
      <trkpt lat="42.01389" lon="19.26947">
        <ele>143.020986</ele>
        <time>2022-05-26T09:55:53.203Z</time>
      </trkpt>
      <trkpt lat="42.01391" lon="19.26933">
        <ele>143.076408</ele>
        <time>2022-05-26T09:55:56.209Z</time>
      </trkpt>
      <trkpt lat="42.01395" lon="19.26921">
        <ele>143.083129</ele>
        <time>2022-05-26T09:55:59.203Z</time>
      </trkpt>
      <trkpt lat="42.014" lon="19.26908">
        <ele>143.090006</ele>
        <time>2022-05-26T09:56:02.208Z</time>
      </trkpt>
      <trkpt lat="42.01405" lon="19.26896">
        <ele>143.096912</ele>
        <time>2022-05-26T09:56:05.209Z</time>
      </trkpt>
      <trkpt lat="42.01412" lon="19.26885">
        <ele>143.104167</ele>
        <time>2022-05-26T09:56:08.207Z</time>
      </trkpt>
      <trkpt lat="42.01422" lon="19.26873">
        <ele>143.11272</ele>
        <time>2022-05-26T09:56:11.208Z</time>
      </trkpt>
      <trkpt lat="42.01433" lon="19.26861">
        <ele>143.121723</ele>
        <time>2022-05-26T09:56:14.229Z</time>
      </trkpt>
      <trkpt lat="42.0144" lon="19.26853">
        <ele>143.128078</ele>
        <time>2022-05-26T09:56:16.203Z</time>
      </trkpt>
      <trkpt lat="42.01447" lon="19.26845">
        <ele>143.134238</ele>
        <time>2022-05-26T09:56:18.222Z</time>
      </trkpt>
      <trkpt lat="42.01456" lon="19.26833">
        <ele>143.142476</ele>
        <time>2022-05-26T09:56:21.212Z</time>
      </trkpt>
      <trkpt lat="42.01462" lon="19.26821">
        <ele>143.149572</ele>
        <time>2022-05-26T09:56:24.224Z</time>
      </trkpt>
      <trkpt lat="42.01467" lon="19.26807">
        <ele>143.156976</ele>
        <time>2022-05-26T09:56:27.201Z</time>
      </trkpt>
      <trkpt lat="42.01471" lon="19.2679">
        <ele>143.165622</ele>
        <time>2022-05-26T09:56:30.199Z</time>
      </trkpt>
      <trkpt lat="42.01473" lon="19.26777">
        <ele>143.172108</ele>
        <time>2022-05-26T09:56:32.219Z</time>
      </trkpt>
      <trkpt lat="42.01474" lon="19.26763">
        <ele>143.179143</ele>
        <time>2022-05-26T09:56:34.207Z</time>
      </trkpt>
      <trkpt lat="42.01475" lon="19.26748">
        <ele>143.186121</ele>
        <time>2022-05-26T09:56:36.203Z</time>
      </trkpt>
      <trkpt lat="42.01476" lon="19.26736">
        <ele>143.195992</ele>
        <time>2022-05-26T09:56:38.211Z</time>
      </trkpt>
      <trkpt lat="42.01478" lon="19.26723">
        <ele>143.218346</ele>
        <time>2022-05-26T09:56:40.201Z</time>
      </trkpt>
      <trkpt lat="42.0148" lon="19.26706">
        <ele>143.247977</ele>
        <time>2022-05-26T09:56:43.203Z</time>
      </trkpt>
      <trkpt lat="42.01482" lon="19.26691">
        <ele>143.274409</ele>
        <time>2022-05-26T09:56:46.214Z</time>
      </trkpt>
      <trkpt lat="42.01485" lon="19.26677">
        <ele>143.298571</ele>
        <time>2022-05-26T09:56:49.208Z</time>
      </trkpt>
      <trkpt lat="42.01488" lon="19.26664">
        <ele>143.322772</ele>
        <time>2022-05-26T09:56:52.211Z</time>
      </trkpt>
      <trkpt lat="42.01492" lon="19.26652">
        <ele>143.345795</ele>
        <time>2022-05-26T09:56:55.201Z</time>
      </trkpt>
      <trkpt lat="42.01496" lon="19.26641">
        <ele>143.366653</ele>
        <time>2022-05-26T09:56:58.210Z</time>
      </trkpt>
      <trkpt lat="42.01501" lon="19.26628">
        <ele>143.390176</ele>
        <time>2022-05-26T09:57:02.217Z</time>
      </trkpt>
      <trkpt lat="42.01506" lon="19.26616">
        <ele>143.414299</ele>
        <time>2022-05-26T09:57:07.216Z</time>
      </trkpt>
      <trkpt lat="42.01511" lon="19.26603">
        <ele>143.439424</ele>
        <time>2022-05-26T09:57:12.203Z</time>
      </trkpt>
      <trkpt lat="42.01516" lon="19.26591">
        <ele>143.463512</ele>
        <time>2022-05-26T09:57:16.225Z</time>
      </trkpt>
      <trkpt lat="42.01519" lon="19.26579">
        <ele>143.484974</ele>
        <time>2022-05-26T09:57:20.220Z</time>
      </trkpt>
      <trkpt lat="42.0152" lon="19.26566">
        <ele>143.507424</ele>
        <time>2022-05-26T09:57:24.212Z</time>
      </trkpt>
      <trkpt lat="42.0152" lon="19.26552">
        <ele>143.531152</ele>
        <time>2022-05-26T09:57:28.212Z</time>
      </trkpt>
      <trkpt lat="42.01518" lon="19.26539">
        <ele>143.554777</ele>
        <time>2022-05-26T09:57:32.210Z</time>
      </trkpt>
      <trkpt lat="42.01513" lon="19.26526">
        <ele>143.580314</ele>
        <time>2022-05-26T09:57:36.209Z</time>
      </trkpt>
      <trkpt lat="42.01507" lon="19.26515">
        <ele>143.603363</ele>
        <time>2022-05-26T09:57:39.208Z</time>
      </trkpt>
      <trkpt lat="42.01499" lon="19.26505">
        <ele>144.194996</ele>
        <time>2022-05-26T09:57:42.217Z</time>
      </trkpt>
      <trkpt lat="42.01488" lon="19.26497">
        <ele>144.928682</ele>
        <time>2022-05-26T09:57:45.215Z</time>
      </trkpt>
      <trkpt lat="42.01477" lon="19.26492">
        <ele>145.659579</ele>
        <time>2022-05-26T09:57:48.221Z</time>
      </trkpt>
      <trkpt lat="42.01466" lon="19.26488">
        <ele>146.376299</ele>
        <time>2022-05-26T09:57:51.205Z</time>
      </trkpt>
      <trkpt lat="42.01455" lon="19.26484">
        <ele>147.094133</ele>
        <time>2022-05-26T09:57:54.208Z</time>
      </trkpt>
      <trkpt lat="42.01444" lon="19.2648">
        <ele>147.805462</ele>
        <time>2022-05-26T09:57:57.205Z</time>
      </trkpt>
      <trkpt lat="42.01435" lon="19.26472">
        <ele>148.465505</ele>
        <time>2022-05-26T09:58:00.201Z</time>
      </trkpt>
      <trkpt lat="42.01429" lon="19.26463">
        <ele>149.055074</ele>
        <time>2022-05-26T09:58:03.215Z</time>
      </trkpt>
      <trkpt lat="42.01423" lon="19.26451">
        <ele>149.689564</ele>
        <time>2022-05-26T09:58:07.201Z</time>
      </trkpt>
      <trkpt lat="42.0142" lon="19.26439">
        <ele>150.27827</ele>
        <time>2022-05-26T09:58:12.213Z</time>
      </trkpt>
      <trkpt lat="42.01418" lon="19.26427">
        <ele>150.868508</ele>
        <time>2022-05-26T09:58:17.229Z</time>
      </trkpt>
      <trkpt lat="42.01415" lon="19.26412">
        <ele>151.576872</ele>
        <time>2022-05-26T09:58:22.220Z</time>
      </trkpt>
      <trkpt lat="42.01413" lon="19.264">
        <ele>152.152447</ele>
        <time>2022-05-26T09:58:26.209Z</time>
      </trkpt>
      <trkpt lat="42.01411" lon="19.26387">
        <ele>152.738351</ele>
        <time>2022-05-26T09:58:30.209Z</time>
      </trkpt>
      <trkpt lat="42.0141" lon="19.26372">
        <ele>153.433229</ele>
        <time>2022-05-26T09:58:35.252Z</time>
      </trkpt>
      <trkpt lat="42.0141" lon="19.26357">
        <ele>154.125963</ele>
        <time>2022-05-26T09:58:40.222Z</time>
      </trkpt>
      <trkpt lat="42.01411" lon="19.26345">
        <ele>154.687471</ele>
        <time>2022-05-26T09:58:44.260Z</time>
      </trkpt>
      <trkpt lat="42.01412" lon="19.26331">
        <ele>155.106731</ele>
        <time>2022-05-26T09:58:49.212Z</time>
      </trkpt>
      <trkpt lat="42.01412" lon="19.26316">
        <ele>155.487369</ele>
        <time>2022-05-26T09:58:54.208Z</time>
      </trkpt>
      <trkpt lat="42.01413" lon="19.26304">
        <ele>155.806499</ele>
        <time>2022-05-26T09:58:58.224Z</time>
      </trkpt>
      <trkpt lat="42.01412" lon="19.2629">
        <ele>156.175806</ele>
        <time>2022-05-26T09:59:04.212Z</time>
      </trkpt>
      <trkpt lat="42.01409" lon="19.26278">
        <ele>156.527086</ele>
        <time>2022-05-26T09:59:09.224Z</time>
      </trkpt>
      <trkpt lat="42.01405" lon="19.26266">
        <ele>156.87198</ele>
        <time>2022-05-26T09:59:14.209Z</time>
      </trkpt>
      <trkpt lat="42.01401" lon="19.26254">
        <ele>157.220685</ele>
        <time>2022-05-26T09:59:19.211Z</time>
      </trkpt>
      <trkpt lat="42.01398" lon="19.26242">
        <ele>157.553153</ele>
        <time>2022-05-26T09:59:24.220Z</time>
      </trkpt>
      <trkpt lat="42.01395" lon="19.2623">
        <ele>157.880585</ele>
        <time>2022-05-26T09:59:29.197Z</time>
      </trkpt>
      <trkpt lat="42.01393" lon="19.26217">
        <ele>158.227369</ele>
        <time>2022-05-26T09:59:34.213Z</time>
      </trkpt>
      <trkpt lat="42.01392" lon="19.26203">
        <ele>158.603351</ele>
        <time>2022-05-26T09:59:39.217Z</time>
      </trkpt>
      <trkpt lat="42.01391" lon="19.26189">
        <ele>158.962475</ele>
        <time>2022-05-26T09:59:44.200Z</time>
      </trkpt>
      <trkpt lat="42.01391" lon="19.26176">
        <ele>159.305225</ele>
        <time>2022-05-26T09:59:49.220Z</time>
      </trkpt>
      <trkpt lat="42.0139" lon="19.26164">
        <ele>159.637528</ele>
        <time>2022-05-26T09:59:54.218Z</time>
      </trkpt>
      <trkpt lat="42.01391" lon="19.26149">
        <ele>160.030304</ele>
        <time>2022-05-26T10:00:00.212Z</time>
      </trkpt>
      <trkpt lat="42.01392" lon="19.26136">
        <ele>160.376561</ele>
        <time>2022-05-26T10:00:05.226Z</time>
      </trkpt>
      <trkpt lat="42.01393" lon="19.26123">
        <ele>160.726692</ele>
        <time>2022-05-26T10:00:10.211Z</time>
      </trkpt>
      <trkpt lat="42.01395" lon="19.2611">
        <ele>161.068267</ele>
        <time>2022-05-26T10:00:15.207Z</time>
      </trkpt>
      <trkpt lat="42.01396" lon="19.26096">
        <ele>161.399302</ele>
        <time>2022-05-26T10:00:20.213Z</time>
      </trkpt>
      <trkpt lat="42.01398" lon="19.26082">
        <ele>161.710699</ele>
        <time>2022-05-26T10:00:25.205Z</time>
      </trkpt>
      <trkpt lat="42.01401" lon="19.26069">
        <ele>162.014143</ele>
        <time>2022-05-26T10:00:30.200Z</time>
      </trkpt>
      <trkpt lat="42.01403" lon="19.26055">
        <ele>162.322605</ele>
        <time>2022-05-26T10:00:35.203Z</time>
      </trkpt>
      <trkpt lat="42.01405" lon="19.26042">
        <ele>162.627802</ele>
        <time>2022-05-26T10:00:40.231Z</time>
      </trkpt>
      <trkpt lat="42.01407" lon="19.26029">
        <ele>162.911204</ele>
        <time>2022-05-26T10:00:45.200Z</time>
      </trkpt>
      <trkpt lat="42.01409" lon="19.26017">
        <ele>163.198166</ele>
        <time>2022-05-26T10:00:50.207Z</time>
      </trkpt>
      <trkpt lat="42.01412" lon="19.26003">
        <ele>163.523338</ele>
        <time>2022-05-26T10:00:55.205Z</time>
      </trkpt>
      <trkpt lat="42.01415" lon="19.25991">
        <ele>163.797749</ele>
        <time>2022-05-26T10:00:59.223Z</time>
      </trkpt>
      <trkpt lat="42.01418" lon="19.25977">
        <ele>164.124614</ele>
        <time>2022-05-26T10:01:04.212Z</time>
      </trkpt>
      <trkpt lat="42.0142" lon="19.25964">
        <ele>164.409661</ele>
        <time>2022-05-26T10:01:09.201Z</time>
      </trkpt>
      <trkpt lat="42.01421" lon="19.25952">
        <ele>164.688396</ele>
        <time>2022-05-26T10:01:14.200Z</time>
      </trkpt>
      <trkpt lat="42.0142" lon="19.25939">
        <ele>164.966828</ele>
        <time>2022-05-26T10:01:19.203Z</time>
      </trkpt>
      <trkpt lat="42.01418" lon="19.25926">
        <ele>165.255651</ele>
        <time>2022-05-26T10:01:24.220Z</time>
      </trkpt>
      <trkpt lat="42.01416" lon="19.25914">
        <ele>165.546184</ele>
        <time>2022-05-26T10:01:29.203Z</time>
      </trkpt>
      <trkpt lat="42.01413" lon="19.25901">
        <ele>165.836247</ele>
        <time>2022-05-26T10:01:34.212Z</time>
      </trkpt>
      <trkpt lat="42.01408" lon="19.25888">
        <ele>166.163084</ele>
        <time>2022-05-26T10:01:39.198Z</time>
      </trkpt>
      <trkpt lat="42.01408" lon="19.25874">
        <ele>166.460172</ele>
        <time>2022-05-26T10:01:43.201Z</time>
      </trkpt>
      <trkpt lat="42.01411" lon="19.25862">
        <ele>166.759306</ele>
        <time>2022-05-26T10:01:47.213Z</time>
      </trkpt>
      <trkpt lat="42.01414" lon="19.25848">
        <ele>167.113176</ele>
        <time>2022-05-26T10:01:52.212Z</time>
      </trkpt>
      <trkpt lat="42.01417" lon="19.25834">
        <ele>167.473021</ele>
        <time>2022-05-26T10:01:57.206Z</time>
      </trkpt>
      <trkpt lat="42.0142" lon="19.25821">
        <ele>167.790141</ele>
        <time>2022-05-26T10:02:02.206Z</time>
      </trkpt>
      <trkpt lat="42.01423" lon="19.25807">
        <ele>168.148633</ele>
        <time>2022-05-26T10:02:07.217Z</time>
      </trkpt>
      <trkpt lat="42.01426" lon="19.25794">
        <ele>168.479726</ele>
        <time>2022-05-26T10:02:12.216Z</time>
      </trkpt>
      <trkpt lat="42.0143" lon="19.25781">
        <ele>168.828753</ele>
        <time>2022-05-26T10:02:17.213Z</time>
      </trkpt>
      <trkpt lat="42.01433" lon="19.25767">
        <ele>169.18396</ele>
        <time>2022-05-26T10:02:22.218Z</time>
      </trkpt>
      <trkpt lat="42.01436" lon="19.25753">
        <ele>169.53528</ele>
        <time>2022-05-26T10:02:27.199Z</time>
      </trkpt>
      <trkpt lat="42.01439" lon="19.25741">
        <ele>169.851315</ele>
        <time>2022-05-26T10:02:32.209Z</time>
      </trkpt>
      <trkpt lat="42.01442" lon="19.25727">
        <ele>170.202327</ele>
        <time>2022-05-26T10:02:37.207Z</time>
      </trkpt>
      <trkpt lat="42.01445" lon="19.25715">
        <ele>170.50406</ele>
        <time>2022-05-26T10:02:42.209Z</time>
      </trkpt>
      <trkpt lat="42.01448" lon="19.25703">
        <ele>170.818909</ele>
        <time>2022-05-26T10:02:47.212Z</time>
      </trkpt>
      <trkpt lat="42.01451" lon="19.2569">
        <ele>171.150388</ele>
        <time>2022-05-26T10:02:52.208Z</time>
      </trkpt>
      <trkpt lat="42.01454" lon="19.25678">
        <ele>171.455403</ele>
        <time>2022-05-26T10:02:57.201Z</time>
      </trkpt>
      <trkpt lat="42.01455" lon="19.25665">
        <ele>171.768655</ele>
        <time>2022-05-26T10:03:03.210Z</time>
      </trkpt>
      <trkpt lat="42.01457" lon="19.25651">
        <ele>172.103696</ele>
        <time>2022-05-26T10:03:08.231Z</time>
      </trkpt>
      <trkpt lat="42.01458" lon="19.25638">
        <ele>172.432945</ele>
        <time>2022-05-26T10:03:13.206Z</time>
      </trkpt>
      <trkpt lat="42.01461" lon="19.25624">
        <ele>173.010856</ele>
        <time>2022-05-26T10:03:18.205Z</time>
      </trkpt>
      <trkpt lat="42.01464" lon="19.25612">
        <ele>173.504176</ele>
        <time>2022-05-26T10:03:23.205Z</time>
      </trkpt>
      <trkpt lat="42.01467" lon="19.25601">
        <ele>173.981397</ele>
        <time>2022-05-26T10:03:28.207Z</time>
      </trkpt>
      <trkpt lat="42.01471" lon="19.25589">
        <ele>174.492832</ele>
        <time>2022-05-26T10:03:33.208Z</time>
      </trkpt>
      <trkpt lat="42.01475" lon="19.25577">
        <ele>174.978088</ele>
        <time>2022-05-26T10:03:38.201Z</time>
      </trkpt>
      <trkpt lat="42.01479" lon="19.25565">
        <ele>175.494632</ele>
        <time>2022-05-26T10:03:43.198Z</time>
      </trkpt>
      <trkpt lat="42.01482" lon="19.25552">
        <ele>176.051034</ele>
        <time>2022-05-26T10:03:49.206Z</time>
      </trkpt>
      <trkpt lat="42.01486" lon="19.2554">
        <ele>176.539906</ele>
        <time>2022-05-26T10:03:54.208Z</time>
      </trkpt>
      <trkpt lat="42.01489" lon="19.25527">
        <ele>177.083724</ele>
        <time>2022-05-26T10:03:59.201Z</time>
      </trkpt>
      <trkpt lat="42.01492" lon="19.25513">
        <ele>177.635844</ele>
        <time>2022-05-26T10:04:06.219Z</time>
      </trkpt>
      <trkpt lat="42.01495" lon="19.255">
        <ele>178.182313</ele>
        <time>2022-05-26T10:04:12.206Z</time>
      </trkpt>
      <trkpt lat="42.01498" lon="19.25486">
        <ele>178.753582</ele>
        <time>2022-05-26T10:04:18.213Z</time>
      </trkpt>
      <trkpt lat="42.015" lon="19.25473">
        <ele>179.261485</ele>
        <time>2022-05-26T10:04:23.201Z</time>
      </trkpt>
      <trkpt lat="42.01503" lon="19.25461">
        <ele>179.778123</ele>
        <time>2022-05-26T10:04:28.213Z</time>
      </trkpt>
      <trkpt lat="42.01505" lon="19.25448">
        <ele>180.268671</ele>
        <time>2022-05-26T10:04:32.209Z</time>
      </trkpt>
      <trkpt lat="42.01507" lon="19.25435">
        <ele>180.784084</ele>
        <time>2022-05-26T10:04:37.237Z</time>
      </trkpt>
      <trkpt lat="42.01507" lon="19.25421">
        <ele>181.342677</ele>
        <time>2022-05-26T10:04:42.205Z</time>
      </trkpt>
      <trkpt lat="42.01505" lon="19.25407">
        <ele>181.910355</ele>
        <time>2022-05-26T10:04:48.234Z</time>
      </trkpt>
      <trkpt lat="42.01501" lon="19.25393">
        <ele>182.434339</ele>
        <time>2022-05-26T10:04:54.208Z</time>
      </trkpt>
      <trkpt lat="42.015" lon="19.25379">
        <ele>182.942258</ele>
        <time>2022-05-26T10:04:59.234Z</time>
      </trkpt>
      <trkpt lat="42.01502" lon="19.25365">
        <ele>183.44507</ele>
        <time>2022-05-26T10:05:04.206Z</time>
      </trkpt>
      <trkpt lat="42.01504" lon="19.25353">
        <ele>183.882723</ele>
        <time>2022-05-26T10:05:08.223Z</time>
      </trkpt>
      <trkpt lat="42.01506" lon="19.25341">
        <ele>184.333647</ele>
        <time>2022-05-26T10:05:13.203Z</time>
      </trkpt>
      <trkpt lat="42.01508" lon="19.25327">
        <ele>184.840328</ele>
        <time>2022-05-26T10:05:18.202Z</time>
      </trkpt>
      <trkpt lat="42.0151" lon="19.25314">
        <ele>185.317602</ele>
        <time>2022-05-26T10:05:23.240Z</time>
      </trkpt>
      <trkpt lat="42.01512" lon="19.253">
        <ele>185.816891</ele>
        <time>2022-05-26T10:05:28.225Z</time>
      </trkpt>
      <trkpt lat="42.01514" lon="19.25287">
        <ele>186.284521</ele>
        <time>2022-05-26T10:05:33.217Z</time>
      </trkpt>
      <trkpt lat="42.01516" lon="19.25274">
        <ele>186.783809</ele>
        <time>2022-05-26T10:05:38.202Z</time>
      </trkpt>
      <trkpt lat="42.01517" lon="19.25261">
        <ele>187.245434</ele>
        <time>2022-05-26T10:05:43.214Z</time>
      </trkpt>
      <trkpt lat="42.01519" lon="19.25248">
        <ele>187.723047</ele>
        <time>2022-05-26T10:05:48.204Z</time>
      </trkpt>
      <trkpt lat="42.01521" lon="19.25234">
        <ele>188.237587</ele>
        <time>2022-05-26T10:05:53.211Z</time>
      </trkpt>
      <trkpt lat="42.01522" lon="19.2522">
        <ele>188.748585</ele>
        <time>2022-05-26T10:05:58.205Z</time>
      </trkpt>
      <trkpt lat="42.01524" lon="19.25207">
        <ele>189.206651</ele>
        <time>2022-05-26T10:06:03.202Z</time>
      </trkpt>
      <trkpt lat="42.01526" lon="19.25195">
        <ele>189.649453</ele>
        <time>2022-05-26T10:06:08.207Z</time>
      </trkpt>
      <trkpt lat="42.01527" lon="19.25182">
        <ele>190.131391</ele>
        <time>2022-05-26T10:06:13.203Z</time>
      </trkpt>
      <trkpt lat="42.01527" lon="19.25168">
        <ele>190.581652</ele>
        <time>2022-05-26T10:06:18.226Z</time>
      </trkpt>
      <trkpt lat="42.01524" lon="19.25155">
        <ele>190.901432</ele>
        <time>2022-05-26T10:06:23.209Z</time>
      </trkpt>
      <trkpt lat="42.01519" lon="19.25142">
        <ele>191.225291</ele>
        <time>2022-05-26T10:06:27.201Z</time>
      </trkpt>
      <trkpt lat="42.01513" lon="19.25131">
        <ele>191.534579</ele>
        <time>2022-05-26T10:06:31.203Z</time>
      </trkpt>
      <trkpt lat="42.01509" lon="19.2512">
        <ele>191.820965</ele>
        <time>2022-05-26T10:06:35.226Z</time>
      </trkpt>
      <trkpt lat="42.01502" lon="19.25108">
        <ele>192.164305</ele>
        <time>2022-05-26T10:06:40.212Z</time>
      </trkpt>
      <trkpt lat="42.01497" lon="19.25094">
        <ele>192.495859</ele>
        <time>2022-05-26T10:06:44.204Z</time>
      </trkpt>
      <trkpt lat="42.01495" lon="19.25081">
        <ele>192.812925</ele>
        <time>2022-05-26T10:06:48.203Z</time>
      </trkpt>
      <trkpt lat="42.01493" lon="19.25068">
        <ele>193.111156</ele>
        <time>2022-05-26T10:06:52.222Z</time>
      </trkpt>
      <trkpt lat="42.01491" lon="19.25054">
        <ele>193.432789</ele>
        <time>2022-05-26T10:06:57.199Z</time>
      </trkpt>
      <trkpt lat="42.01488" lon="19.2504">
        <ele>193.76907</ele>
        <time>2022-05-26T10:07:03.200Z</time>
      </trkpt>
      <trkpt lat="42.01484" lon="19.25027">
        <ele>194.079164</ele>
        <time>2022-05-26T10:07:07.209Z</time>
      </trkpt>
      <trkpt lat="42.0148" lon="19.25015">
        <ele>194.376024</ele>
        <time>2022-05-26T10:07:11.220Z</time>
      </trkpt>
      <trkpt lat="42.01476" lon="19.25003">
        <ele>194.671003</ele>
        <time>2022-05-26T10:07:15.229Z</time>
      </trkpt>
      <trkpt lat="42.01474" lon="19.24989">
        <ele>194.991076</ele>
        <time>2022-05-26T10:07:20.204Z</time>
      </trkpt>
      <trkpt lat="42.01473" lon="19.24976">
        <ele>195.280441</ele>
        <time>2022-05-26T10:07:24.215Z</time>
      </trkpt>
      <trkpt lat="42.01472" lon="19.24962">
        <ele>195.600254</ele>
        <time>2022-05-26T10:07:28.215Z</time>
      </trkpt>
      <trkpt lat="42.01471" lon="19.24949">
        <ele>195.900536</ele>
        <time>2022-05-26T10:07:32.198Z</time>
      </trkpt>
      <trkpt lat="42.0147" lon="19.24937">
        <ele>196.262202</ele>
        <time>2022-05-26T10:07:37.205Z</time>
      </trkpt>
      <trkpt lat="42.01469" lon="19.24924">
        <ele>196.681582</ele>
        <time>2022-05-26T10:07:41.212Z</time>
      </trkpt>
      <trkpt lat="42.0147" lon="19.24909">
        <ele>197.169643</ele>
        <time>2022-05-26T10:07:46.209Z</time>
      </trkpt>
      <trkpt lat="42.01469" lon="19.24896">
        <ele>197.605488</ele>
        <time>2022-05-26T10:07:51.206Z</time>
      </trkpt>
      <trkpt lat="42.01468" lon="19.24883">
        <ele>198.029069</ele>
        <time>2022-05-26T10:07:56.210Z</time>
      </trkpt>
      <trkpt lat="42.01468" lon="19.2487">
        <ele>198.464371</ele>
        <time>2022-05-26T10:08:01.228Z</time>
      </trkpt>
      <trkpt lat="42.01468" lon="19.24857">
        <ele>198.889967</ele>
        <time>2022-05-26T10:08:06.215Z</time>
      </trkpt>
      <trkpt lat="42.01469" lon="19.24843">
        <ele>199.358307</ele>
        <time>2022-05-26T10:08:12.220Z</time>
      </trkpt>
      <trkpt lat="42.01469" lon="19.2483">
        <ele>199.797692</ele>
        <time>2022-05-26T10:08:17.205Z</time>
      </trkpt>
      <trkpt lat="42.01471" lon="19.24817">
        <ele>200.229015</ele>
        <time>2022-05-26T10:08:23.227Z</time>
      </trkpt>
      <trkpt lat="42.01474" lon="19.24804">
        <ele>200.678214</ele>
        <time>2022-05-26T10:08:29.206Z</time>
      </trkpt>
      <trkpt lat="42.01478" lon="19.24791">
        <ele>201.149285</ele>
        <time>2022-05-26T10:08:35.193Z</time>
      </trkpt>
      <trkpt lat="42.01482" lon="19.24777">
        <ele>201.622262</ele>
        <time>2022-05-26T10:08:41.206Z</time>
      </trkpt>
      <trkpt lat="42.01486" lon="19.24764">
        <ele>202.07888</ele>
        <time>2022-05-26T10:08:47.211Z</time>
      </trkpt>
      <trkpt lat="42.01489" lon="19.24751">
        <ele>202.553491</ele>
        <time>2022-05-26T10:08:53.209Z</time>
      </trkpt>
      <trkpt lat="42.01493" lon="19.2474">
        <ele>202.962507</ele>
        <time>2022-05-26T10:08:58.200Z</time>
      </trkpt>
      <trkpt lat="42.01497" lon="19.24728">
        <ele>203.361474</ele>
        <time>2022-05-26T10:09:03.202Z</time>
      </trkpt>
      <trkpt lat="42.01502" lon="19.24716">
        <ele>203.831731</ele>
        <time>2022-05-26T10:09:09.208Z</time>
      </trkpt>
      <trkpt lat="42.01508" lon="19.24704">
        <ele>204.185178</ele>
        <time>2022-05-26T10:09:15.206Z</time>
      </trkpt>
      <trkpt lat="42.01515" lon="19.24695">
        <ele>204.467784</ele>
        <time>2022-05-26T10:09:21.198Z</time>
      </trkpt>
      <trkpt lat="42.01522" lon="19.24686">
        <ele>204.751519</ele>
        <time>2022-05-26T10:09:28.217Z</time>
      </trkpt>
      <trkpt lat="42.01529" lon="19.24678">
        <ele>205.009519</ele>
        <time>2022-05-26T10:09:34.212Z</time>
      </trkpt>
      <trkpt lat="42.01537" lon="19.24669">
        <ele>205.28492</ele>
        <time>2022-05-26T10:09:40.203Z</time>
      </trkpt>
      <trkpt lat="42.01545" lon="19.2466">
        <ele>205.57502</ele>
        <time>2022-05-26T10:09:45.206Z</time>
      </trkpt>
      <trkpt lat="42.01552" lon="19.24651">
        <ele>205.851795</ele>
        <time>2022-05-26T10:09:50.214Z</time>
      </trkpt>
      <trkpt lat="42.01559" lon="19.24642">
        <ele>206.11962</ele>
        <time>2022-05-26T10:09:55.202Z</time>
      </trkpt>
      <trkpt lat="42.01565" lon="19.24633">
        <ele>206.379735</ele>
        <time>2022-05-26T10:10:00.212Z</time>
      </trkpt>
      <trkpt lat="42.01571" lon="19.24623">
        <ele>206.64051</ele>
        <time>2022-05-26T10:10:05.255Z</time>
      </trkpt>
      <trkpt lat="42.01575" lon="19.24609">
        <ele>206.95022</ele>
        <time>2022-05-26T10:10:10.219Z</time>
      </trkpt>
      <trkpt lat="42.01578" lon="19.24598">
        <ele>207.206528</ele>
        <time>2022-05-26T10:10:15.209Z</time>
      </trkpt>
      <trkpt lat="42.01581" lon="19.24585">
        <ele>207.481777</ele>
        <time>2022-05-26T10:10:22.218Z</time>
      </trkpt>
      <trkpt lat="42.01584" lon="19.24572">
        <ele>207.76817</ele>
        <time>2022-05-26T10:10:29.227Z</time>
      </trkpt>
      <trkpt lat="42.01586" lon="19.24558">
        <ele>208.06061</ele>
        <time>2022-05-26T10:10:35.202Z</time>
      </trkpt>
      <trkpt lat="42.01588" lon="19.24545">
        <ele>208.347276</ele>
        <time>2022-05-26T10:10:40.235Z</time>
      </trkpt>
      <trkpt lat="42.0159" lon="19.24532">
        <ele>208.625953</ele>
        <time>2022-05-26T10:10:46.207Z</time>
      </trkpt>
      <trkpt lat="42.01591" lon="19.24516">
        <ele>208.946481</ele>
        <time>2022-05-26T10:10:52.200Z</time>
      </trkpt>
      <trkpt lat="42.01591" lon="19.24504">
        <ele>209.145954</ele>
        <time>2022-05-26T10:10:56.219Z</time>
      </trkpt>
      <trkpt lat="42.0159" lon="19.24491">
        <ele>209.316975</ele>
        <time>2022-05-26T10:11:01.199Z</time>
      </trkpt>
      <trkpt lat="42.01592" lon="19.24477">
        <ele>209.514529</ele>
        <time>2022-05-26T10:11:05.202Z</time>
      </trkpt>
      <trkpt lat="42.01592" lon="19.24462">
        <ele>209.71057</ele>
        <time>2022-05-26T10:11:10.205Z</time>
      </trkpt>
      <trkpt lat="42.01592" lon="19.24448">
        <ele>209.902432</ele>
        <time>2022-05-26T10:11:14.199Z</time>
      </trkpt>
      <trkpt lat="42.01592" lon="19.24435">
        <ele>210.085154</ele>
        <time>2022-05-26T10:11:19.205Z</time>
      </trkpt>
      <trkpt lat="42.01593" lon="19.2442">
        <ele>210.277867</ele>
        <time>2022-05-26T10:11:24.202Z</time>
      </trkpt>
      <trkpt lat="42.01592" lon="19.24407">
        <ele>210.460588</ele>
        <time>2022-05-26T10:11:29.203Z</time>
      </trkpt>
      <trkpt lat="42.01592" lon="19.24394">
        <ele>210.63893</ele>
        <time>2022-05-26T10:11:34.211Z</time>
      </trkpt>
      <trkpt lat="42.01592" lon="19.24379">
        <ele>210.836196</ele>
        <time>2022-05-26T10:11:39.203Z</time>
      </trkpt>
      <trkpt lat="42.01592" lon="19.24367">
        <ele>211.003888</ele>
        <time>2022-05-26T10:11:44.219Z</time>
      </trkpt>
      <trkpt lat="42.01591" lon="19.24354">
        <ele>211.16897</ele>
        <time>2022-05-26T10:11:49.207Z</time>
      </trkpt>
      <trkpt lat="42.01591" lon="19.24341">
        <ele>211.351592</ele>
        <time>2022-05-26T10:11:54.219Z</time>
      </trkpt>
      <trkpt lat="42.01591" lon="19.24328">
        <ele>211.531515</ele>
        <time>2022-05-26T10:11:59.232Z</time>
      </trkpt>
      <trkpt lat="42.01592" lon="19.24314">
        <ele>211.712642</ele>
        <time>2022-05-26T10:12:04.220Z</time>
      </trkpt>
      <trkpt lat="42.01592" lon="19.243">
        <ele>211.911284</ele>
        <time>2022-05-26T10:12:10.221Z</time>
      </trkpt>
      <trkpt lat="42.01592" lon="19.24286">
        <ele>212.096703</ele>
        <time>2022-05-26T10:12:15.202Z</time>
      </trkpt>
      <trkpt lat="42.01595" lon="19.24273">
        <ele>212.282512</ele>
        <time>2022-05-26T10:12:20.197Z</time>
      </trkpt>
      <trkpt lat="42.01596" lon="19.24258">
        <ele>212.417686</ele>
        <time>2022-05-26T10:12:25.204Z</time>
      </trkpt>
      <trkpt lat="42.01597" lon="19.24243">
        <ele>212.551928</ele>
        <time>2022-05-26T10:12:30.207Z</time>
      </trkpt>
      <trkpt lat="42.01599" lon="19.2423">
        <ele>212.669939</ele>
        <time>2022-05-26T10:12:35.209Z</time>
      </trkpt>
      <trkpt lat="42.01601" lon="19.24217">
        <ele>212.78795</ele>
        <time>2022-05-26T10:12:40.213Z</time>
      </trkpt>
      <trkpt lat="42.01604" lon="19.24203">
        <ele>212.918816</ele>
        <time>2022-05-26T10:12:45.243Z</time>
      </trkpt>
      <trkpt lat="42.01605" lon="19.24189">
        <ele>213.047365</ele>
        <time>2022-05-26T10:12:50.208Z</time>
      </trkpt>
      <trkpt lat="42.01607" lon="19.24174">
        <ele>213.177853</ele>
        <time>2022-05-26T10:12:55.198Z</time>
      </trkpt>
      <trkpt lat="42.01607" lon="19.2416">
        <ele>213.305996</ele>
        <time>2022-05-26T10:13:00.204Z</time>
      </trkpt>
      <trkpt lat="42.01608" lon="19.24146">
        <ele>213.428877</ele>
        <time>2022-05-26T10:13:05.227Z</time>
      </trkpt>
      <trkpt lat="42.01607" lon="19.24131">
        <ele>213.560784</ele>
        <time>2022-05-26T10:13:10.212Z</time>
      </trkpt>
      <trkpt lat="42.01606" lon="19.24117">
        <ele>213.689949</ele>
        <time>2022-05-26T10:13:15.213Z</time>
      </trkpt>
      <trkpt lat="42.01607" lon="19.24102">
        <ele>213.822419</ele>
        <time>2022-05-26T10:13:20.231Z</time>
      </trkpt>
      <trkpt lat="42.01606" lon="19.24089">
        <ele>213.932749</ele>
        <time>2022-05-26T10:13:24.284Z</time>
      </trkpt>
      <trkpt lat="42.01607" lon="19.24075">
        <ele>214.057341</ele>
        <time>2022-05-26T10:13:28.231Z</time>
      </trkpt>
      <trkpt lat="42.01608" lon="19.24061">
        <ele>214.185018</ele>
        <time>2022-05-26T10:13:32.240Z</time>
      </trkpt>
      <trkpt lat="42.0161" lon="19.24049">
        <ele>214.296338</ele>
        <time>2022-05-26T10:13:36.233Z</time>
      </trkpt>
      <trkpt lat="42.01612" lon="19.24037">
        <ele>214.407979</ele>
        <time>2022-05-26T10:13:40.248Z</time>
      </trkpt>
      <trkpt lat="42.01615" lon="19.24025">
        <ele>214.551135</ele>
        <time>2022-05-26T10:13:44.214Z</time>
      </trkpt>
      <trkpt lat="42.01618" lon="19.24012">
        <ele>214.724124</ele>
        <time>2022-05-26T10:13:48.226Z</time>
      </trkpt>
      <trkpt lat="42.01622" lon="19.24">
        <ele>214.903336</ele>
        <time>2022-05-26T10:13:52.222Z</time>
      </trkpt>
      <trkpt lat="42.01626" lon="19.23988">
        <ele>215.081502</ele>
        <time>2022-05-26T10:13:56.226Z</time>
      </trkpt>
      <trkpt lat="42.0163" lon="19.23976">
        <ele>215.251437</ele>
        <time>2022-05-26T10:14:00.241Z</time>
      </trkpt>
      <trkpt lat="42.01635" lon="19.23964">
        <ele>215.429809</ele>
        <time>2022-05-26T10:14:04.209Z</time>
      </trkpt>
      <trkpt lat="42.0164" lon="19.23952">
        <ele>215.620861</ele>
        <time>2022-05-26T10:14:09.260Z</time>
      </trkpt>
      <trkpt lat="42.01647" lon="19.23942">
        <ele>215.805852</ele>
        <time>2022-05-26T10:14:13.219Z</time>
      </trkpt>
      <trkpt lat="42.01654" lon="19.23932">
        <ele>215.990418</ele>
        <time>2022-05-26T10:14:17.234Z</time>
      </trkpt>
      <trkpt lat="42.01662" lon="19.23921">
        <ele>216.183229</ele>
        <time>2022-05-26T10:14:21.283Z</time>
      </trkpt>
      <trkpt lat="42.01668" lon="19.23911">
        <ele>216.360872</ele>
        <time>2022-05-26T10:14:25.231Z</time>
      </trkpt>
      <trkpt lat="42.01674" lon="19.23901">
        <ele>216.535243</ele>
        <time>2022-05-26T10:14:29.233Z</time>
      </trkpt>
      <trkpt lat="42.01679" lon="19.23887">
        <ele>216.73463</ele>
        <time>2022-05-26T10:14:33.224Z</time>
      </trkpt>
      <trkpt lat="42.01681" lon="19.23875">
        <ele>216.901158</ele>
        <time>2022-05-26T10:14:37.217Z</time>
      </trkpt>
      <trkpt lat="42.01683" lon="19.23862">
        <ele>217.080633</ele>
        <time>2022-05-26T10:14:41.222Z</time>
      </trkpt>
      <trkpt lat="42.01685" lon="19.23848">
        <ele>217.269621</ele>
        <time>2022-05-26T10:14:46.210Z</time>
      </trkpt>
      <trkpt lat="42.01688" lon="19.23835">
        <ele>217.448865</ele>
        <time>2022-05-26T10:14:50.234Z</time>
      </trkpt>
      <trkpt lat="42.01692" lon="19.23824">
        <ele>217.620922</ele>
        <time>2022-05-26T10:14:54.267Z</time>
      </trkpt>
      <trkpt lat="42.01697" lon="19.2381">
        <ele>218.054066</ele>
        <time>2022-05-26T10:14:59.256Z</time>
      </trkpt>
      <trkpt lat="42.01701" lon="19.23797">
        <ele>218.600814</ele>
        <time>2022-05-26T10:15:04.233Z</time>
      </trkpt>
      <trkpt lat="42.01704" lon="19.23784">
        <ele>219.115383</ele>
        <time>2022-05-26T10:15:09.238Z</time>
      </trkpt>
      <trkpt lat="42.01706" lon="19.23771">
        <ele>219.609288</ele>
        <time>2022-05-26T10:15:14.213Z</time>
      </trkpt>
      <trkpt lat="42.0171" lon="19.23759">
        <ele>220.102768</ele>
        <time>2022-05-26T10:15:19.237Z</time>
      </trkpt>
      <trkpt lat="42.01712" lon="19.23747">
        <ele>220.557717</ele>
        <time>2022-05-26T10:15:24.221Z</time>
      </trkpt>
      <trkpt lat="42.01715" lon="19.23736">
        <ele>221.023019</ele>
        <time>2022-05-26T10:15:29.236Z</time>
      </trkpt>
      <trkpt lat="42.01719" lon="19.23724">
        <ele>221.500528</ele>
        <time>2022-05-26T10:15:35.219Z</time>
      </trkpt>
      <trkpt lat="42.01722" lon="19.23711">
        <ele>222.008687</ele>
        <time>2022-05-26T10:15:41.229Z</time>
      </trkpt>
      <trkpt lat="42.01725" lon="19.23698">
        <ele>222.527096</ele>
        <time>2022-05-26T10:15:47.234Z</time>
      </trkpt>
      <trkpt lat="42.01729" lon="19.23685">
        <ele>223.039928</ele>
        <time>2022-05-26T10:15:53.232Z</time>
      </trkpt>
      <trkpt lat="42.01732" lon="19.23673">
        <ele>223.535091</ele>
        <time>2022-05-26T10:15:59.215Z</time>
      </trkpt>
      <trkpt lat="42.01735" lon="19.23661">
        <ele>224.017903</ele>
        <time>2022-05-26T10:16:05.229Z</time>
      </trkpt>
      <trkpt lat="42.01738" lon="19.23649">
        <ele>224.470893</ele>
        <time>2022-05-26T10:16:11.233Z</time>
      </trkpt>
      <trkpt lat="42.01741" lon="19.23637">
        <ele>224.962734</ele>
        <time>2022-05-26T10:16:17.241Z</time>
      </trkpt>
      <trkpt lat="42.01745" lon="19.23625">
        <ele>225.45116</ele>
        <time>2022-05-26T10:16:23.225Z</time>
      </trkpt>
      <trkpt lat="42.01748" lon="19.23612">
        <ele>225.944638</ele>
        <time>2022-05-26T10:16:29.244Z</time>
      </trkpt>
      <trkpt lat="42.01752" lon="19.236">
        <ele>226.443303</ele>
        <time>2022-05-26T10:16:35.248Z</time>
      </trkpt>
      <trkpt lat="42.01755" lon="19.23588">
        <ele>226.854602</ele>
        <time>2022-05-26T10:16:41.227Z</time>
      </trkpt>
      <trkpt lat="42.01757" lon="19.23576">
        <ele>227.096029</ele>
        <time>2022-05-26T10:16:47.261Z</time>
      </trkpt>
      <trkpt lat="42.01761" lon="19.23564">
        <ele>227.334289</ele>
        <time>2022-05-26T10:16:53.252Z</time>
      </trkpt>
      <trkpt lat="42.01764" lon="19.23552">
        <ele>227.587054</ele>
        <time>2022-05-26T10:16:59.261Z</time>
      </trkpt>
      <trkpt lat="42.01768" lon="19.23539">
        <ele>227.861782</ele>
        <time>2022-05-26T10:17:05.255Z</time>
      </trkpt>
      <trkpt lat="42.01772" lon="19.23526">
        <ele>228.126511</ele>
        <time>2022-05-26T10:17:11.266Z</time>
      </trkpt>
      <trkpt lat="42.01776" lon="19.23513">
        <ele>228.395703</ele>
        <time>2022-05-26T10:17:18.236Z</time>
      </trkpt>
      <trkpt lat="42.01779" lon="19.23502">
        <ele>228.632209</ele>
        <time>2022-05-26T10:17:24.273Z</time>
      </trkpt>
      <trkpt lat="42.01784" lon="19.23491">
        <ele>228.880824</ele>
        <time>2022-05-26T10:17:30.215Z</time>
      </trkpt>
      <trkpt lat="42.01788" lon="19.23478">
        <ele>229.139358</ele>
        <time>2022-05-26T10:17:36.208Z</time>
      </trkpt>
      <trkpt lat="42.01793" lon="19.23467">
        <ele>229.384092</ele>
        <time>2022-05-26T10:17:41.223Z</time>
      </trkpt>
      <trkpt lat="42.01797" lon="19.23456">
        <ele>229.621726</ele>
        <time>2022-05-26T10:17:46.269Z</time>
      </trkpt>
      <trkpt lat="42.018" lon="19.23444">
        <ele>229.875716</ele>
        <time>2022-05-26T10:17:51.222Z</time>
      </trkpt>
      <trkpt lat="42.01803" lon="19.23431">
        <ele>230.130269</ele>
        <time>2022-05-26T10:17:55.243Z</time>
      </trkpt>
      <trkpt lat="42.01806" lon="19.23419">
        <ele>230.39133</ele>
        <time>2022-05-26T10:17:59.226Z</time>
      </trkpt>
      <trkpt lat="42.01809" lon="19.23404">
        <ele>230.677297</ele>
        <time>2022-05-26T10:18:04.242Z</time>
      </trkpt>
      <trkpt lat="42.01813" lon="19.2339">
        <ele>230.968847</ele>
        <time>2022-05-26T10:18:09.216Z</time>
      </trkpt>
      <trkpt lat="42.01817" lon="19.23377">
        <ele>231.232381</ele>
        <time>2022-05-26T10:18:13.246Z</time>
      </trkpt>
      <trkpt lat="42.0182" lon="19.23365">
        <ele>231.452561</ele>
        <time>2022-05-26T10:18:17.226Z</time>
      </trkpt>
      <trkpt lat="42.01824" lon="19.23352">
        <ele>231.50521</ele>
        <time>2022-05-26T10:18:21.225Z</time>
      </trkpt>
      <trkpt lat="42.01827" lon="19.23337">
        <ele>231.565312</ele>
        <time>2022-05-26T10:18:25.233Z</time>
      </trkpt>
      <trkpt lat="42.01831" lon="19.23322">
        <ele>231.625964</ele>
        <time>2022-05-26T10:18:29.236Z</time>
      </trkpt>
      <trkpt lat="42.01835" lon="19.2331">
        <ele>231.673477</ele>
        <time>2022-05-26T10:18:32.259Z</time>
      </trkpt>
      <trkpt lat="42.01839" lon="19.23295">
        <ele>231.734105</ele>
        <time>2022-05-26T10:18:36.230Z</time>
      </trkpt>
      <trkpt lat="42.01842" lon="19.23283">
        <ele>231.782678</ele>
        <time>2022-05-26T10:18:39.221Z</time>
      </trkpt>
      <trkpt lat="42.01845" lon="19.23271">
        <ele>231.829873</ele>
        <time>2022-05-26T10:18:42.209Z</time>
      </trkpt>
      <trkpt lat="42.01849" lon="19.2326">
        <ele>231.877473</ele>
        <time>2022-05-26T10:18:45.231Z</time>
      </trkpt>
      <trkpt lat="42.01853" lon="19.23247">
        <ele>231.927118</ele>
        <time>2022-05-26T10:18:48.231Z</time>
      </trkpt>
      <trkpt lat="42.01856" lon="19.23235">
        <ele>231.976575</ele>
        <time>2022-05-26T10:18:51.226Z</time>
      </trkpt>
      <trkpt lat="42.0186" lon="19.23223">
        <ele>232.024817</ele>
        <time>2022-05-26T10:18:54.236Z</time>
      </trkpt>
      <trkpt lat="42.01864" lon="19.23208">
        <ele>232.085828</ele>
        <time>2022-05-26T10:18:58.246Z</time>
      </trkpt>
      <trkpt lat="42.01867" lon="19.23194">
        <ele>232.140351</ele>
        <time>2022-05-26T10:19:02.235Z</time>
      </trkpt>
      <trkpt lat="42.0187" lon="19.23182">
        <ele>232.187355</ele>
        <time>2022-05-26T10:19:05.233Z</time>
      </trkpt>
      <trkpt lat="42.01872" lon="19.2317">
        <ele>232.234973</ele>
        <time>2022-05-26T10:19:08.222Z</time>
      </trkpt>
      <trkpt lat="42.01874" lon="19.23154">
        <ele>232.296913</ele>
        <time>2022-05-26T10:19:12.236Z</time>
      </trkpt>
      <trkpt lat="42.01877" lon="19.23141">
        <ele>232.348908</ele>
        <time>2022-05-26T10:19:15.218Z</time>
      </trkpt>
      <trkpt lat="42.01879" lon="19.23128">
        <ele>232.457663</ele>
        <time>2022-05-26T10:19:18.223Z</time>
      </trkpt>
      <trkpt lat="42.01882" lon="19.23113">
        <ele>232.59045</ele>
        <time>2022-05-26T10:19:21.239Z</time>
      </trkpt>
      <trkpt lat="42.01884" lon="19.23099">
        <ele>232.720228</ele>
        <time>2022-05-26T10:19:24.217Z</time>
      </trkpt>
      <trkpt lat="42.01887" lon="19.23085">
        <ele>232.849819</ele>
        <time>2022-05-26T10:19:27.236Z</time>
      </trkpt>
      <trkpt lat="42.01889" lon="19.23072">
        <ele>232.969481</ele>
        <time>2022-05-26T10:19:30.229Z</time>
      </trkpt>
      <trkpt lat="42.01891" lon="19.2306">
        <ele>233.085025</ele>
        <time>2022-05-26T10:19:33.224Z</time>
      </trkpt>
      <trkpt lat="42.01894" lon="19.23046">
        <ele>233.214252</ele>
        <time>2022-05-26T10:19:36.232Z</time>
      </trkpt>
      <trkpt lat="42.01896" lon="19.23032">
        <ele>233.340955</ele>
        <time>2022-05-26T10:19:39.224Z</time>
      </trkpt>
      <trkpt lat="42.01898" lon="19.23019">
        <ele>233.461008</ele>
        <time>2022-05-26T10:19:42.253Z</time>
      </trkpt>
      <trkpt lat="42.019" lon="19.23006">
        <ele>233.576837</ele>
        <time>2022-05-26T10:19:45.226Z</time>
      </trkpt>
      <trkpt lat="42.01902" lon="19.22994">
        <ele>233.688714</ele>
        <time>2022-05-26T10:19:48.224Z</time>
      </trkpt>
      <trkpt lat="42.01903" lon="19.22981">
        <ele>233.806156</ele>
        <time>2022-05-26T10:19:51.264Z</time>
      </trkpt>
      <trkpt lat="42.01905" lon="19.22968">
        <ele>233.923806</ele>
        <time>2022-05-26T10:19:54.229Z</time>
      </trkpt>
      <trkpt lat="42.01907" lon="19.22955">
        <ele>234.042588</ele>
        <time>2022-05-26T10:19:57.262Z</time>
      </trkpt>
      <trkpt lat="42.01909" lon="19.22943">
        <ele>234.159763</ele>
        <time>2022-05-26T10:20:00.215Z</time>
      </trkpt>
      <trkpt lat="42.01911" lon="19.2293">
        <ele>234.27164</ele>
        <time>2022-05-26T10:20:03.274Z</time>
      </trkpt>
      <trkpt lat="42.01913" lon="19.22918">
        <ele>234.387788</ele>
        <time>2022-05-26T10:20:06.258Z</time>
      </trkpt>
      <trkpt lat="42.01915" lon="19.22905">
        <ele>234.509607</ele>
        <time>2022-05-26T10:20:09.265Z</time>
      </trkpt>
      <trkpt lat="42.01917" lon="19.22892">
        <ele>234.648562</ele>
        <time>2022-05-26T10:20:12.233Z</time>
      </trkpt>
      <trkpt lat="42.01919" lon="19.22879">
        <ele>234.798214</ele>
        <time>2022-05-26T10:20:15.252Z</time>
      </trkpt>
      <trkpt lat="42.01921" lon="19.22866">
        <ele>234.953459</ele>
        <time>2022-05-26T10:20:18.246Z</time>
      </trkpt>
      <trkpt lat="42.01924" lon="19.22853">
        <ele>235.114236</ele>
        <time>2022-05-26T10:20:21.254Z</time>
      </trkpt>
      <trkpt lat="42.01926" lon="19.2284">
        <ele>235.265462</ele>
        <time>2022-05-26T10:20:24.236Z</time>
      </trkpt>
      <trkpt lat="42.01928" lon="19.22827">
        <ele>235.411412</ele>
        <time>2022-05-26T10:20:27.291Z</time>
      </trkpt>
      <trkpt lat="42.0193" lon="19.22812">
        <ele>235.592645</ele>
        <time>2022-05-26T10:20:31.230Z</time>
      </trkpt>
      <trkpt lat="42.01933" lon="19.22796">
        <ele>235.777578</ele>
        <time>2022-05-26T10:20:35.234Z</time>
      </trkpt>
      <trkpt lat="42.01935" lon="19.22784">
        <ele>235.919487</ele>
        <time>2022-05-26T10:20:38.263Z</time>
      </trkpt>
      <trkpt lat="42.01937" lon="19.22772">
        <ele>236.0591</ele>
        <time>2022-05-26T10:20:41.233Z</time>
      </trkpt>
      <trkpt lat="42.01939" lon="19.2276">
        <ele>236.198712</ele>
        <time>2022-05-26T10:20:44.280Z</time>
      </trkpt>
      <trkpt lat="42.01942" lon="19.22746">
        <ele>236.371035</ele>
        <time>2022-05-26T10:20:49.216Z</time>
      </trkpt>
      <trkpt lat="42.01945" lon="19.22733">
        <ele>236.522409</ele>
        <time>2022-05-26T10:20:54.239Z</time>
      </trkpt>
      <trkpt lat="42.01948" lon="19.22722">
        <ele>236.663333</ele>
        <time>2022-05-26T10:20:59.240Z</time>
      </trkpt>
      <trkpt lat="42.01951" lon="19.2271">
        <ele>236.810173</ele>
        <time>2022-05-26T10:21:04.229Z</time>
      </trkpt>
      <trkpt lat="42.01955" lon="19.22698">
        <ele>236.957622</ele>
        <time>2022-05-26T10:21:09.233Z</time>
      </trkpt>
      <trkpt lat="42.01959" lon="19.22684">
        <ele>237.126515</ele>
        <time>2022-05-26T10:21:15.240Z</time>
      </trkpt>
      <trkpt lat="42.01962" lon="19.22672">
        <ele>237.271841</ele>
        <time>2022-05-26T10:21:20.219Z</time>
      </trkpt>
      <trkpt lat="42.01966" lon="19.2266">
        <ele>237.48571</ele>
        <time>2022-05-26T10:21:25.217Z</time>
      </trkpt>
      <trkpt lat="42.0197" lon="19.22647">
        <ele>237.747621</ele>
        <time>2022-05-26T10:21:30.237Z</time>
      </trkpt>
      <trkpt lat="42.01976" lon="19.22635">
        <ele>238.011469</ele>
        <time>2022-05-26T10:21:35.273Z</time>
      </trkpt>
      <trkpt lat="42.01982" lon="19.22622">
        <ele>238.284472</ele>
        <time>2022-05-26T10:21:40.223Z</time>
      </trkpt>
      <trkpt lat="42.01987" lon="19.22612">
        <ele>238.510785</ele>
        <time>2022-05-26T10:21:45.248Z</time>
      </trkpt>
      <trkpt lat="42.01993" lon="19.22602">
        <ele>238.7495</ele>
        <time>2022-05-26T10:21:50.244Z</time>
      </trkpt>
      <trkpt lat="42.01999" lon="19.22593">
        <ele>238.978599</ele>
        <time>2022-05-26T10:21:55.225Z</time>
      </trkpt>
      <trkpt lat="42.02006" lon="19.22584">
        <ele>239.21041</ele>
        <time>2022-05-26T10:22:00.219Z</time>
      </trkpt>
      <trkpt lat="42.02014" lon="19.22575">
        <ele>239.462388</ele>
        <time>2022-05-26T10:22:05.234Z</time>
      </trkpt>
      <trkpt lat="42.0202" lon="19.22567">
        <ele>239.685567</ele>
        <time>2022-05-26T10:22:09.233Z</time>
      </trkpt>
      <trkpt lat="42.02027" lon="19.22557">
        <ele>239.931398</ele>
        <time>2022-05-26T10:22:13.235Z</time>
      </trkpt>
      <trkpt lat="42.02034" lon="19.22547">
        <ele>240.1789</ele>
        <time>2022-05-26T10:22:17.243Z</time>
      </trkpt>
      <trkpt lat="42.02039" lon="19.22535">
        <ele>240.440158</ele>
        <time>2022-05-26T10:22:22.236Z</time>
      </trkpt>
      <trkpt lat="42.02046" lon="19.22523">
        <ele>240.713159</ele>
        <time>2022-05-26T10:22:27.209Z</time>
      </trkpt>
      <trkpt lat="42.02052" lon="19.22511">
        <ele>240.985846</ele>
        <time>2022-05-26T10:22:32.236Z</time>
      </trkpt>
      <trkpt lat="42.02058" lon="19.225">
        <ele>241.221682</ele>
        <time>2022-05-26T10:22:36.212Z</time>
      </trkpt>
      <trkpt lat="42.02063" lon="19.22489">
        <ele>241.477168</ele>
        <time>2022-05-26T10:22:40.225Z</time>
      </trkpt>
      <trkpt lat="42.02069" lon="19.22477">
        <ele>241.732877</ele>
        <time>2022-05-26T10:22:44.229Z</time>
      </trkpt>
      <trkpt lat="42.02075" lon="19.22467">
        <ele>241.873755</ele>
        <time>2022-05-26T10:22:48.217Z</time>
      </trkpt>
      <trkpt lat="42.0208" lon="19.22456">
        <ele>242.016323</ele>
        <time>2022-05-26T10:22:52.223Z</time>
      </trkpt>
      <trkpt lat="42.02086" lon="19.22445">
        <ele>242.151786</ele>
        <time>2022-05-26T10:22:56.246Z</time>
      </trkpt>
      <trkpt lat="42.02091" lon="19.22433">
        <ele>242.295076</ele>
        <time>2022-05-26T10:23:00.230Z</time>
      </trkpt>
      <trkpt lat="42.02097" lon="19.22421">
        <ele>242.444857</ele>
        <time>2022-05-26T10:23:04.222Z</time>
      </trkpt>
      <trkpt lat="42.02102" lon="19.2241">
        <ele>242.587191</ele>
        <time>2022-05-26T10:23:08.234Z</time>
      </trkpt>
      <trkpt lat="42.02108" lon="19.22399">
        <ele>242.725488</ele>
        <time>2022-05-26T10:23:12.224Z</time>
      </trkpt>
      <trkpt lat="42.02113" lon="19.22387">
        <ele>242.869095</ele>
        <time>2022-05-26T10:23:16.236Z</time>
      </trkpt>
      <trkpt lat="42.02118" lon="19.22374">
        <ele>243.017389</ele>
        <time>2022-05-26T10:23:20.232Z</time>
      </trkpt>
      <trkpt lat="42.02124" lon="19.22362">
        <ele>243.171387</ele>
        <time>2022-05-26T10:23:24.232Z</time>
      </trkpt>
      <trkpt lat="42.02129" lon="19.22349">
        <ele>243.325025</ele>
        <time>2022-05-26T10:23:28.274Z</time>
      </trkpt>
      <trkpt lat="42.02135" lon="19.22336">
        <ele>243.484034</ele>
        <time>2022-05-26T10:23:32.213Z</time>
      </trkpt>
      <trkpt lat="42.0214" lon="19.22323">
        <ele>243.636156</ele>
        <time>2022-05-26T10:23:36.240Z</time>
      </trkpt>
      <trkpt lat="42.02145" lon="19.2231">
        <ele>243.784271</ele>
        <time>2022-05-26T10:23:40.238Z</time>
      </trkpt>
      <trkpt lat="42.02151" lon="19.22297">
        <ele>243.940416</ele>
        <time>2022-05-26T10:23:44.244Z</time>
      </trkpt>
      <trkpt lat="42.02156" lon="19.22286">
        <ele>244.075783</ele>
        <time>2022-05-26T10:23:47.223Z</time>
      </trkpt>
      <trkpt lat="42.0216" lon="19.22275">
        <ele>244.206137</ele>
        <time>2022-05-26T10:23:50.228Z</time>
      </trkpt>
      <trkpt lat="42.02165" lon="19.22264">
        <ele>244.400954</ele>
        <time>2022-05-26T10:23:53.263Z</time>
      </trkpt>
      <trkpt lat="42.0217" lon="19.22253">
        <ele>244.660757</ele>
        <time>2022-05-26T10:23:56.238Z</time>
      </trkpt>
      <trkpt lat="42.02175" lon="19.22238">
        <ele>244.987877</ele>
        <time>2022-05-26T10:24:00.242Z</time>
      </trkpt>
      <trkpt lat="42.0218" lon="19.22225">
        <ele>245.293093</ele>
        <time>2022-05-26T10:24:04.235Z</time>
      </trkpt>
      <trkpt lat="42.02185" lon="19.22214">
        <ele>245.569372</ele>
        <time>2022-05-26T10:24:08.257Z</time>
      </trkpt>
      <trkpt lat="42.02189" lon="19.22201">
        <ele>245.847556</ele>
        <time>2022-05-26T10:24:12.235Z</time>
      </trkpt>
      <trkpt lat="42.02195" lon="19.22188">
        <ele>246.14697</ele>
        <time>2022-05-26T10:24:16.232Z</time>
      </trkpt>
      <trkpt lat="42.022" lon="19.22176">
        <ele>246.443602</ele>
        <time>2022-05-26T10:24:20.221Z</time>
      </trkpt>
      <trkpt lat="42.02205" lon="19.22163">
        <ele>246.736357</ele>
        <time>2022-05-26T10:24:24.216Z</time>
      </trkpt>
      <trkpt lat="42.02211" lon="19.22152">
        <ele>247.013549</ele>
        <time>2022-05-26T10:24:28.236Z</time>
      </trkpt>
      <trkpt lat="42.02215" lon="19.22141">
        <ele>247.269389</ele>
        <time>2022-05-26T10:24:32.252Z</time>
      </trkpt>
      <trkpt lat="42.0222" lon="19.22128">
        <ele>247.55633</ele>
        <time>2022-05-26T10:24:37.251Z</time>
      </trkpt>
      <trkpt lat="42.02225" lon="19.22118">
        <ele>247.809188</ele>
        <time>2022-05-26T10:24:41.237Z</time>
      </trkpt>
      <trkpt lat="42.0223" lon="19.22105">
        <ele>248.094879</ele>
        <time>2022-05-26T10:24:45.237Z</time>
      </trkpt>
      <trkpt lat="42.02234" lon="19.22093">
        <ele>248.381819</ele>
        <time>2022-05-26T10:24:49.226Z</time>
      </trkpt>
      <trkpt lat="42.02239" lon="19.22082">
        <ele>248.644789</ele>
        <time>2022-05-26T10:24:53.219Z</time>
      </trkpt>
      <trkpt lat="42.02245" lon="19.22071">
        <ele>248.91003</ele>
        <time>2022-05-26T10:24:57.237Z</time>
      </trkpt>
      <trkpt lat="42.02252" lon="19.22063">
        <ele>249.174257</ele>
        <time>2022-05-26T10:25:01.231Z</time>
      </trkpt>
      <trkpt lat="42.02262" lon="19.22055">
        <ele>249.276094</ele>
        <time>2022-05-26T10:25:06.323Z</time>
      </trkpt>
      <trkpt lat="42.02271" lon="19.22048">
        <ele>249.340305</ele>
        <time>2022-05-26T10:25:11.231Z</time>
      </trkpt>
      <trkpt lat="42.02279" lon="19.22041">
        <ele>249.403752</ele>
        <time>2022-05-26T10:25:16.237Z</time>
      </trkpt>
      <trkpt lat="42.02288" lon="19.22033">
        <ele>249.468856</ele>
        <time>2022-05-26T10:25:21.230Z</time>
      </trkpt>
      <trkpt lat="42.02295" lon="19.22022">
        <ele>249.536282</ele>
        <time>2022-05-26T10:25:26.265Z</time>
      </trkpt>
      <trkpt lat="42.02299" lon="19.2201">
        <ele>249.598459</ele>
        <time>2022-05-26T10:25:31.223Z</time>
      </trkpt>
      <trkpt lat="42.02298" lon="19.21998">
        <ele>249.654402</ele>
        <time>2022-05-26T10:25:36.244Z</time>
      </trkpt>
      <trkpt lat="42.02294" lon="19.21985">
        <ele>249.718718</ele>
        <time>2022-05-26T10:25:42.223Z</time>
      </trkpt>
      <trkpt lat="42.02289" lon="19.21974">
        <ele>249.778785</ele>
        <time>2022-05-26T10:25:47.295Z</time>
      </trkpt>
      <trkpt lat="42.02284" lon="19.21962">
        <ele>249.83972</ele>
        <time>2022-05-26T10:25:51.219Z</time>
      </trkpt>
      <trkpt lat="42.02281" lon="19.21947">
        <ele>249.913371</ele>
        <time>2022-05-26T10:25:55.233Z</time>
      </trkpt>
      <trkpt lat="42.02282" lon="19.21933">
        <ele>249.975475</ele>
        <time>2022-05-26T10:25:58.232Z</time>
      </trkpt>
      <trkpt lat="42.02285" lon="19.21921">
        <ele>250.034851</ele>
        <time>2022-05-26T10:26:01.229Z</time>
      </trkpt>
      <trkpt lat="42.0229" lon="19.21908">
        <ele>250.100932</ele>
        <time>2022-05-26T10:26:05.263Z</time>
      </trkpt>
      <trkpt lat="42.02295" lon="19.21898">
        <ele>250.158226</ele>
        <time>2022-05-26T10:26:09.225Z</time>
      </trkpt>
      <trkpt lat="42.02302" lon="19.21885">
        <ele>250.228592</ele>
        <time>2022-05-26T10:26:13.227Z</time>
      </trkpt>
      <trkpt lat="42.02308" lon="19.21873">
        <ele>250.298959</ele>
        <time>2022-05-26T10:26:17.232Z</time>
      </trkpt>
      <trkpt lat="42.02315" lon="19.2186">
        <ele>250.447981</ele>
        <time>2022-05-26T10:26:21.232Z</time>
      </trkpt>
      <trkpt lat="42.0232" lon="19.2185">
        <ele>250.607171</ele>
        <time>2022-05-26T10:26:24.234Z</time>
      </trkpt>
      <trkpt lat="42.02326" lon="19.21837">
        <ele>250.808862</ele>
        <time>2022-05-26T10:26:28.236Z</time>
      </trkpt>
      <trkpt lat="42.02332" lon="19.21824">
        <ele>251.000197</ele>
        <time>2022-05-26T10:26:32.241Z</time>
      </trkpt>
      <trkpt lat="42.02337" lon="19.21811">
        <ele>251.192351</ele>
        <time>2022-05-26T10:26:36.255Z</time>
      </trkpt>
      <trkpt lat="42.02341" lon="19.21799">
        <ele>251.372643</ele>
        <time>2022-05-26T10:26:40.233Z</time>
      </trkpt>
      <trkpt lat="42.02346" lon="19.21787">
        <ele>251.551079</ele>
        <time>2022-05-26T10:26:44.265Z</time>
      </trkpt>
      <trkpt lat="42.02351" lon="19.21775">
        <ele>251.731505</ele>
        <time>2022-05-26T10:26:48.240Z</time>
      </trkpt>
      <trkpt lat="42.02357" lon="19.21762">
        <ele>251.924296</ele>
        <time>2022-05-26T10:26:52.250Z</time>
      </trkpt>
      <trkpt lat="42.02361" lon="19.21752">
        <ele>252.084721</ele>
        <time>2022-05-26T10:26:55.237Z</time>
      </trkpt>
      <trkpt lat="42.02367" lon="19.21738">
        <ele>252.287534</ele>
        <time>2022-05-26T10:26:59.244Z</time>
      </trkpt>
      <trkpt lat="42.02372" lon="19.21728">
        <ele>252.450987</ele>
        <time>2022-05-26T10:27:02.227Z</time>
      </trkpt>
      <trkpt lat="42.02377" lon="19.21717">
        <ele>252.618261</ele>
        <time>2022-05-26T10:27:05.246Z</time>
      </trkpt>
      <trkpt lat="42.02382" lon="19.21706">
        <ele>252.779674</ele>
        <time>2022-05-26T10:27:08.235Z</time>
      </trkpt>
      <trkpt lat="42.02387" lon="19.21692">
        <ele>252.986697</ele>
        <time>2022-05-26T10:27:12.277Z</time>
      </trkpt>
      <trkpt lat="42.02392" lon="19.21678">
        <ele>253.190716</ele>
        <time>2022-05-26T10:27:16.221Z</time>
      </trkpt>
      <trkpt lat="42.02396" lon="19.21664">
        <ele>253.380356</ele>
        <time>2022-05-26T10:27:20.230Z</time>
      </trkpt>
      <trkpt lat="42.02399" lon="19.21652">
        <ele>253.52249</ele>
        <time>2022-05-26T10:27:24.244Z</time>
      </trkpt>
      <trkpt lat="42.02401" lon="19.21639">
        <ele>253.588097</ele>
        <time>2022-05-26T10:27:28.197Z</time>
      </trkpt>
      <trkpt lat="42.02404" lon="19.21627">
        <ele>253.649157</ele>
        <time>2022-05-26T10:27:32.218Z</time>
      </trkpt>
      <trkpt lat="42.02406" lon="19.21614">
        <ele>253.716554</ele>
        <time>2022-05-26T10:27:36.202Z</time>
      </trkpt>
      <trkpt lat="42.02409" lon="19.21599">
        <ele>253.795152</ele>
        <time>2022-05-26T10:27:40.228Z</time>
      </trkpt>
      <trkpt lat="42.02411" lon="19.21584">
        <ele>253.870412</ele>
        <time>2022-05-26T10:27:44.212Z</time>
      </trkpt>
      <trkpt lat="42.02414" lon="19.21572">
        <ele>253.934302</ele>
        <time>2022-05-26T10:27:48.204Z</time>
      </trkpt>
      <trkpt lat="42.02416" lon="19.2156">
        <ele>253.998002</ele>
        <time>2022-05-26T10:27:52.229Z</time>
      </trkpt>
      <trkpt lat="42.02419" lon="19.21546">
        <ele>254.069943</ele>
        <time>2022-05-26T10:27:56.203Z</time>
      </trkpt>
      <trkpt lat="42.02421" lon="19.21533">
        <ele>254.136223</ele>
        <time>2022-05-26T10:28:00.204Z</time>
      </trkpt>
      <trkpt lat="42.02424" lon="19.21519">
        <ele>254.209542</ele>
        <time>2022-05-26T10:28:04.204Z</time>
      </trkpt>
      <trkpt lat="42.02427" lon="19.21507">
        <ele>254.273544</ele>
        <time>2022-05-26T10:28:07.206Z</time>
      </trkpt>
      <trkpt lat="42.02429" lon="19.21493">
        <ele>254.3434</ele>
        <time>2022-05-26T10:28:10.208Z</time>
      </trkpt>
      <trkpt lat="42.02432" lon="19.21481">
        <ele>254.409329</ele>
        <time>2022-05-26T10:28:13.207Z</time>
      </trkpt>
      <trkpt lat="42.02436" lon="19.21466">
        <ele>254.488617</ele>
        <time>2022-05-26T10:28:17.199Z</time>
      </trkpt>
      <trkpt lat="42.0244" lon="19.21453">
        <ele>254.558039</ele>
        <time>2022-05-26T10:28:21.216Z</time>
      </trkpt>
      <trkpt lat="42.02445" lon="19.21439">
        <ele>254.636446</ele>
        <time>2022-05-26T10:28:25.209Z</time>
      </trkpt>
      <trkpt lat="42.02449" lon="19.21426">
        <ele>254.706037</ele>
        <time>2022-05-26T10:28:29.207Z</time>
      </trkpt>
      <trkpt lat="42.02454" lon="19.21413">
        <ele>254.989138</ele>
        <time>2022-05-26T10:28:33.207Z</time>
      </trkpt>
      <trkpt lat="42.02458" lon="19.214">
        <ele>255.28941</ele>
        <time>2022-05-26T10:28:37.217Z</time>
      </trkpt>
      <trkpt lat="42.02461" lon="19.21388">
        <ele>255.585223</ele>
        <time>2022-05-26T10:28:41.200Z</time>
      </trkpt>
      <trkpt lat="42.02465" lon="19.21376">
        <ele>255.856601</ele>
        <time>2022-05-26T10:28:45.219Z</time>
      </trkpt>
      <trkpt lat="42.02469" lon="19.21363">
        <ele>256.158863</ele>
        <time>2022-05-26T10:28:49.209Z</time>
      </trkpt>
      <trkpt lat="42.02472" lon="19.21352">
        <ele>256.425243</ele>
        <time>2022-05-26T10:28:52.205Z</time>
      </trkpt>
      <trkpt lat="42.02476" lon="19.21338">
        <ele>256.749666</ele>
        <time>2022-05-26T10:28:56.207Z</time>
      </trkpt>
      <trkpt lat="42.02479" lon="19.21323">
        <ele>257.084173</ele>
        <time>2022-05-26T10:29:00.208Z</time>
      </trkpt>
      <trkpt lat="42.02483" lon="19.2131">
        <ele>257.393304</ele>
        <time>2022-05-26T10:29:04.211Z</time>
      </trkpt>
      <trkpt lat="42.02487" lon="19.21297">
        <ele>257.692331</ele>
        <time>2022-05-26T10:29:08.200Z</time>
      </trkpt>
      <trkpt lat="42.02491" lon="19.21283">
        <ele>258.019134</ele>
        <time>2022-05-26T10:29:12.209Z</time>
      </trkpt>
      <trkpt lat="42.02494" lon="19.2127">
        <ele>258.301413</ele>
        <time>2022-05-26T10:29:16.202Z</time>
      </trkpt>
      <trkpt lat="42.02497" lon="19.21258">
        <ele>258.595206</ele>
        <time>2022-05-26T10:29:20.217Z</time>
      </trkpt>
      <trkpt lat="42.02501" lon="19.21244">
        <ele>258.905756</ele>
        <time>2022-05-26T10:29:24.200Z</time>
      </trkpt>
      <trkpt lat="42.02503" lon="19.21232">
        <ele>259.184714</ele>
        <time>2022-05-26T10:29:28.207Z</time>
      </trkpt>
      <trkpt lat="42.02505" lon="19.21217">
        <ele>259.511596</ele>
        <time>2022-05-26T10:29:33.210Z</time>
      </trkpt>
      <trkpt lat="42.02507" lon="19.21202">
        <ele>259.831198</ele>
        <time>2022-05-26T10:29:38.202Z</time>
      </trkpt>
      <trkpt lat="42.02508" lon="19.21188">
        <ele>260.131362</ele>
        <time>2022-05-26T10:29:43.200Z</time>
      </trkpt>
      <trkpt lat="42.0251" lon="19.21174">
        <ele>260.429359</ele>
        <time>2022-05-26T10:29:48.209Z</time>
      </trkpt>
      <trkpt lat="42.02514" lon="19.21161">
        <ele>260.690994</ele>
        <time>2022-05-26T10:29:52.212Z</time>
      </trkpt>
      <trkpt lat="42.02518" lon="19.21149">
        <ele>260.957658</ele>
        <time>2022-05-26T10:29:56.200Z</time>
      </trkpt>
      <trkpt lat="42.02522" lon="19.21136">
        <ele>261.248105</ele>
        <time>2022-05-26T10:30:00.205Z</time>
      </trkpt>
      <trkpt lat="42.02527" lon="19.21125">
        <ele>261.502725</ele>
        <time>2022-05-26T10:30:04.211Z</time>
      </trkpt>
      <trkpt lat="42.02531" lon="19.21112">
        <ele>261.786547</ele>
        <time>2022-05-26T10:30:09.212Z</time>
      </trkpt>
      <trkpt lat="42.02536" lon="19.21099">
        <ele>262.089771</ele>
        <time>2022-05-26T10:30:14.203Z</time>
      </trkpt>
      <trkpt lat="42.0254" lon="19.21087">
        <ele>262.356174</ele>
        <time>2022-05-26T10:30:18.208Z</time>
      </trkpt>
      <trkpt lat="42.02543" lon="19.21075">
        <ele>262.611218</ele>
        <time>2022-05-26T10:30:22.210Z</time>
      </trkpt>
      <trkpt lat="42.02547" lon="19.21061">
        <ele>262.907846</ele>
        <time>2022-05-26T10:30:27.227Z</time>
      </trkpt>
      <trkpt lat="42.02551" lon="19.21049">
        <ele>263.178147</ele>
        <time>2022-05-26T10:30:32.215Z</time>
      </trkpt>
      <trkpt lat="42.02555" lon="19.21037">
        <ele>263.441351</ele>
        <time>2022-05-26T10:30:37.204Z</time>
      </trkpt>
      <trkpt lat="42.02559" lon="19.21024">
        <ele>263.720138</ele>
        <time>2022-05-26T10:30:43.206Z</time>
      </trkpt>
      <trkpt lat="42.02562" lon="19.21011">
        <ele>263.997187</ele>
        <time>2022-05-26T10:30:48.200Z</time>
      </trkpt>
      <trkpt lat="42.02565" lon="19.20996">
        <ele>264.303175</ele>
        <time>2022-05-26T10:30:54.219Z</time>
      </trkpt>
      <trkpt lat="42.02568" lon="19.20984">
        <ele>264.561627</ele>
        <time>2022-05-26T10:30:58.211Z</time>
      </trkpt>
      <trkpt lat="42.0257" lon="19.2097">
        <ele>264.84843</ele>
        <time>2022-05-26T10:31:03.199Z</time>
      </trkpt>
      <trkpt lat="42.02572" lon="19.20957">
        <ele>264.985007</ele>
        <time>2022-05-26T10:31:08.209Z</time>
      </trkpt>
      <trkpt lat="42.02573" lon="19.20945">
        <ele>265.115881</ele>
        <time>2022-05-26T10:31:13.208Z</time>
      </trkpt>
      <trkpt lat="42.02574" lon="19.20932">
        <ele>265.251429</ele>
        <time>2022-05-26T10:31:18.202Z</time>
      </trkpt>
      <trkpt lat="42.02575" lon="19.20919">
        <ele>265.384538</ele>
        <time>2022-05-26T10:31:23.202Z</time>
      </trkpt>
      <trkpt lat="42.02576" lon="19.20905">
        <ele>265.533455</ele>
        <time>2022-05-26T10:31:28.234Z</time>
      </trkpt>
      <trkpt lat="42.02577" lon="19.2089">
        <ele>265.683495</ele>
        <time>2022-05-26T10:31:33.204Z</time>
      </trkpt>
      <trkpt lat="42.02577" lon="19.20878">
        <ele>265.81453</ele>
        <time>2022-05-26T10:31:37.242Z</time>
      </trkpt>
      <trkpt lat="42.02577" lon="19.20865">
        <ele>265.942446</ele>
        <time>2022-05-26T10:31:41.202Z</time>
      </trkpt>
      <trkpt lat="42.02577" lon="19.20852">
        <ele>266.082809</ele>
        <time>2022-05-26T10:31:46.205Z</time>
      </trkpt>
      <trkpt lat="42.02578" lon="19.20838">
        <ele>266.232435</ele>
        <time>2022-05-26T10:31:51.195Z</time>
      </trkpt>
      <trkpt lat="42.02578" lon="19.20825">
        <ele>266.362671</ele>
        <time>2022-05-26T10:31:56.201Z</time>
      </trkpt>
      <trkpt lat="42.02577" lon="19.20812">
        <ele>266.496116</ele>
        <time>2022-05-26T10:32:01.215Z</time>
      </trkpt>
      <trkpt lat="42.02574" lon="19.20798">
        <ele>266.647509</ele>
        <time>2022-05-26T10:32:06.204Z</time>
      </trkpt>
      <trkpt lat="42.02572" lon="19.20786">
        <ele>266.775479</ele>
        <time>2022-05-26T10:32:10.208Z</time>
      </trkpt>
      <trkpt lat="42.0257" lon="19.20772">
        <ele>266.926018</ele>
        <time>2022-05-26T10:32:15.200Z</time>
      </trkpt>
      <trkpt lat="42.02567" lon="19.20759">
        <ele>267.070747</ele>
        <time>2022-05-26T10:32:21.203Z</time>
      </trkpt>
      <trkpt lat="42.02564" lon="19.20745">
        <ele>267.220135</ele>
        <time>2022-05-26T10:32:26.211Z</time>
      </trkpt>
      <trkpt lat="42.02563" lon="19.20733">
        <ele>267.346431</ele>
        <time>2022-05-26T10:32:30.219Z</time>
      </trkpt>
      <trkpt lat="42.02562" lon="19.20719">
        <ele>267.476353</ele>
        <time>2022-05-26T10:32:35.215Z</time>
      </trkpt>
      <trkpt lat="42.02561" lon="19.20707">
        <ele>267.588765</ele>
        <time>2022-05-26T10:32:39.197Z</time>
      </trkpt>
      <trkpt lat="42.0256" lon="19.20692">
        <ele>267.72317</ele>
        <time>2022-05-26T10:32:45.199Z</time>
      </trkpt>
      <trkpt lat="42.02558" lon="19.2068">
        <ele>267.842168</ele>
        <time>2022-05-26T10:32:50.232Z</time>
      </trkpt>
      <trkpt lat="42.02556" lon="19.20667">
        <ele>267.958018</ele>
        <time>2022-05-26T10:32:54.199Z</time>
      </trkpt>
      <trkpt lat="42.02554" lon="19.20653">
        <ele>268.091692</ele>
        <time>2022-05-26T10:32:58.202Z</time>
      </trkpt>
      <trkpt lat="42.02551" lon="19.20639">
        <ele>268.228954</ele>
        <time>2022-05-26T10:33:02.225Z</time>
      </trkpt>
      <trkpt lat="42.02548" lon="19.20625">
        <ele>268.365324</ele>
        <time>2022-05-26T10:33:06.198Z</time>
      </trkpt>
      <trkpt lat="42.02545" lon="19.20611">
        <ele>268.493143</ele>
        <time>2022-05-26T10:33:10.210Z</time>
      </trkpt>
      <trkpt lat="42.02543" lon="19.20599">
        <ele>268.609846</ele>
        <time>2022-05-26T10:33:14.200Z</time>
      </trkpt>
      <trkpt lat="42.0254" lon="19.20586">
        <ele>268.736257</ele>
        <time>2022-05-26T10:33:18.202Z</time>
      </trkpt>
      <trkpt lat="42.02537" lon="19.20572">
        <ele>268.874169</ele>
        <time>2022-05-26T10:33:23.204Z</time>
      </trkpt>
      <trkpt lat="42.02534" lon="19.20558">
        <ele>269.005877</ele>
        <time>2022-05-26T10:33:27.205Z</time>
      </trkpt>
      <trkpt lat="42.02531" lon="19.20544">
        <ele>269.136016</ele>
        <time>2022-05-26T10:33:31.199Z</time>
      </trkpt>
      <trkpt lat="42.02528" lon="19.2053">
        <ele>269.268823</ele>
        <time>2022-05-26T10:33:35.208Z</time>
      </trkpt>
      <trkpt lat="42.02525" lon="19.20516">
        <ele>269.406543</ele>
        <time>2022-05-26T10:33:39.198Z</time>
      </trkpt>
      <trkpt lat="42.02522" lon="19.20504">
        <ele>269.519894</ele>
        <time>2022-05-26T10:33:42.302Z</time>
      </trkpt>
      <trkpt lat="42.02518" lon="19.2049">
        <ele>269.597842</ele>
        <time>2022-05-26T10:33:46.206Z</time>
      </trkpt>
      <trkpt lat="42.02515" lon="19.20477">
        <ele>269.602908</ele>
        <time>2022-05-26T10:33:50.206Z</time>
      </trkpt>
      <trkpt lat="42.02513" lon="19.20463">
        <ele>269.608337</ele>
        <time>2022-05-26T10:33:54.205Z</time>
      </trkpt>
      <trkpt lat="42.02511" lon="19.20449">
        <ele>269.613743</ele>
        <time>2022-05-26T10:33:58.200Z</time>
      </trkpt>
      <trkpt lat="42.02509" lon="19.20437">
        <ele>269.618345</ele>
        <time>2022-05-26T10:34:01.240Z</time>
      </trkpt>
      <trkpt lat="42.02507" lon="19.20421">
        <ele>269.624382</ele>
        <time>2022-05-26T10:34:05.215Z</time>
      </trkpt>
      <trkpt lat="42.02506" lon="19.20408">
        <ele>269.629052</ele>
        <time>2022-05-26T10:34:08.205Z</time>
      </trkpt>
      <trkpt lat="42.02503" lon="19.20394">
        <ele>269.634577</ele>
        <time>2022-05-26T10:34:12.214Z</time>
      </trkpt>
      <trkpt lat="42.02501" lon="19.2038">
        <ele>269.640139</ele>
        <time>2022-05-26T10:34:16.205Z</time>
      </trkpt>
      <trkpt lat="42.02499" lon="19.20366">
        <ele>269.645453</ele>
        <time>2022-05-26T10:34:19.201Z</time>
      </trkpt>
      <trkpt lat="42.02496" lon="19.20352">
        <ele>269.650677</ele>
        <time>2022-05-26T10:34:22.199Z</time>
      </trkpt>
      <trkpt lat="42.02494" lon="19.20339">
        <ele>269.655657</ele>
        <time>2022-05-26T10:34:25.198Z</time>
      </trkpt>
      <trkpt lat="42.02492" lon="19.20327">
        <ele>269.660519</ele>
        <time>2022-05-26T10:34:28.207Z</time>
      </trkpt>
      <trkpt lat="42.0249" lon="19.20313">
        <ele>269.665791</ele>
        <time>2022-05-26T10:34:31.210Z</time>
      </trkpt>
      <trkpt lat="42.02487" lon="19.20299">
        <ele>269.671367</ele>
        <time>2022-05-26T10:34:34.220Z</time>
      </trkpt>
      <trkpt lat="42.02483" lon="19.20284">
        <ele>269.677238</ele>
        <time>2022-05-26T10:34:37.224Z</time>
      </trkpt>
      <trkpt lat="42.0248" lon="19.20269">
        <ele>269.683009</ele>
        <time>2022-05-26T10:34:40.203Z</time>
      </trkpt>
      <trkpt lat="42.02477" lon="19.20254">
        <ele>269.659493</ele>
        <time>2022-05-26T10:34:43.217Z</time>
      </trkpt>
      <trkpt lat="42.02473" lon="19.2024">
        <ele>269.611428</ele>
        <time>2022-05-26T10:34:46.210Z</time>
      </trkpt>
      <trkpt lat="42.02469" lon="19.20228">
        <ele>269.565822</ele>
        <time>2022-05-26T10:34:49.199Z</time>
      </trkpt>
      <trkpt lat="42.02465" lon="19.20215">
        <ele>269.522729</ele>
        <time>2022-05-26T10:34:52.208Z</time>
      </trkpt>
      <trkpt lat="42.02462" lon="19.20203">
        <ele>269.477429</ele>
        <time>2022-05-26T10:34:56.199Z</time>
      </trkpt>
      <trkpt lat="42.02458" lon="19.20189">
        <ele>269.428578</ele>
        <time>2022-05-26T10:35:00.203Z</time>
      </trkpt>
      <trkpt lat="42.02455" lon="19.20178">
        <ele>269.387815</ele>
        <time>2022-05-26T10:35:03.204Z</time>
      </trkpt>
      <trkpt lat="42.02451" lon="19.20165">
        <ele>269.344878</ele>
        <time>2022-05-26T10:35:06.223Z</time>
      </trkpt>
      <trkpt lat="42.02448" lon="19.20151">
        <ele>269.29617</ele>
        <time>2022-05-26T10:35:09.198Z</time>
      </trkpt>
      <trkpt lat="42.02445" lon="19.20137">
        <ele>269.24711</ele>
        <time>2022-05-26T10:35:12.198Z</time>
      </trkpt>
      <trkpt lat="42.02442" lon="19.20124">
        <ele>269.19975</ele>
        <time>2022-05-26T10:35:15.211Z</time>
      </trkpt>
      <trkpt lat="42.0244" lon="19.2011">
        <ele>269.15374</ele>
        <time>2022-05-26T10:35:18.208Z</time>
      </trkpt>
      <trkpt lat="42.02437" lon="19.20095">
        <ele>269.103046</ele>
        <time>2022-05-26T10:35:21.199Z</time>
      </trkpt>
      <trkpt lat="42.02435" lon="19.20078">
        <ele>269.046554</ele>
        <time>2022-05-26T10:35:24.203Z</time>
      </trkpt>
      <trkpt lat="42.02432" lon="19.20061">
        <ele>268.988021</ele>
        <time>2022-05-26T10:35:27.205Z</time>
      </trkpt>
      <trkpt lat="42.02429" lon="19.20045">
        <ele>268.931969</ele>
        <time>2022-05-26T10:35:30.213Z</time>
      </trkpt>
      <trkpt lat="42.02426" lon="19.20029">
        <ele>268.885047</ele>
        <time>2022-05-26T10:35:33.232Z</time>
      </trkpt>
      <trkpt lat="42.02424" lon="19.20013">
        <ele>268.908555</ele>
        <time>2022-05-26T10:35:36.199Z</time>
      </trkpt>
      <trkpt lat="42.02422" lon="19.20001">
        <ele>268.928944</ele>
        <time>2022-05-26T10:35:39.207Z</time>
      </trkpt>
      <trkpt lat="42.02419" lon="19.19986">
        <ele>268.952028</ele>
        <time>2022-05-26T10:35:42.204Z</time>
      </trkpt>
      <trkpt lat="42.02417" lon="19.19971">
        <ele>268.975752</ele>
        <time>2022-05-26T10:35:45.198Z</time>
      </trkpt>
      <trkpt lat="42.02416" lon="19.19957">
        <ele>268.997109</ele>
        <time>2022-05-26T10:35:48.200Z</time>
      </trkpt>
      <trkpt lat="42.02418" lon="19.19942">
        <ele>269.019253</ele>
        <time>2022-05-26T10:35:51.217Z</time>
      </trkpt>
      <trkpt lat="42.0242" lon="19.19928">
        <ele>269.041396</ele>
        <time>2022-05-26T10:35:54.206Z</time>
      </trkpt>
      <trkpt lat="42.02424" lon="19.19913">
        <ele>269.065762</ele>
        <time>2022-05-26T10:35:57.203Z</time>
      </trkpt>
      <trkpt lat="42.02427" lon="19.19899">
        <ele>269.088517</ele>
        <time>2022-05-26T10:36:00.211Z</time>
      </trkpt>
      <trkpt lat="42.02429" lon="19.19886">
        <ele>269.109057</ele>
        <time>2022-05-26T10:36:03.198Z</time>
      </trkpt>
      <trkpt lat="42.02431" lon="19.19871">
        <ele>269.131501</ele>
        <time>2022-05-26T10:36:06.213Z</time>
      </trkpt>
      <trkpt lat="42.02433" lon="19.19856">
        <ele>269.154471</ele>
        <time>2022-05-26T10:36:09.202Z</time>
      </trkpt>
      <trkpt lat="42.02436" lon="19.19843">
        <ele>269.174957</ele>
        <time>2022-05-26T10:36:12.209Z</time>
      </trkpt>
      <trkpt lat="42.02438" lon="19.19829">
        <ele>269.197142</ele>
        <time>2022-05-26T10:36:15.203Z</time>
      </trkpt>
      <trkpt lat="42.0244" lon="19.19814">
        <ele>269.22055</ele>
        <time>2022-05-26T10:36:18.203Z</time>
      </trkpt>
      <trkpt lat="42.02442" lon="19.198">
        <ele>269.243033</ele>
        <time>2022-05-26T10:36:21.204Z</time>
      </trkpt>
      <trkpt lat="42.02444" lon="19.19785">
        <ele>269.299302</ele>
        <time>2022-05-26T10:36:24.212Z</time>
      </trkpt>
      <trkpt lat="42.02447" lon="19.1977">
        <ele>269.382679</ele>
        <time>2022-05-26T10:36:27.200Z</time>
      </trkpt>
      <trkpt lat="42.02447" lon="19.19755">
        <ele>269.467803</ele>
        <time>2022-05-26T10:36:30.208Z</time>
      </trkpt>
      <trkpt lat="42.02448" lon="19.19739">
        <ele>269.555557</ele>
        <time>2022-05-26T10:36:33.200Z</time>
      </trkpt>
      <trkpt lat="42.02449" lon="19.19722">
        <ele>269.644534</ele>
        <time>2022-05-26T10:36:36.202Z</time>
      </trkpt>
      <trkpt lat="42.0245" lon="19.19707">
        <ele>269.729229</ele>
        <time>2022-05-26T10:36:39.203Z</time>
      </trkpt>
      <trkpt lat="42.02451" lon="19.19692">
        <ele>269.811081</ele>
        <time>2022-05-26T10:36:42.201Z</time>
      </trkpt>
      <trkpt lat="42.02454" lon="19.19677">
        <ele>269.895674</ele>
        <time>2022-05-26T10:36:45.203Z</time>
      </trkpt>
      <trkpt lat="42.02456" lon="19.19662">
        <ele>269.977074</ele>
        <time>2022-05-26T10:36:48.204Z</time>
      </trkpt>
      <trkpt lat="42.02459" lon="19.19647">
        <ele>270.059007</ele>
        <time>2022-05-26T10:36:51.199Z</time>
      </trkpt>
      <trkpt lat="42.02461" lon="19.19633">
        <ele>270.139854</ele>
        <time>2022-05-26T10:36:54.204Z</time>
      </trkpt>
      <trkpt lat="42.02463" lon="19.19619">
        <ele>270.216928</ele>
        <time>2022-05-26T10:36:57.204Z</time>
      </trkpt>
      <trkpt lat="42.02465" lon="19.19606">
        <ele>270.289735</ele>
        <time>2022-05-26T10:37:00.225Z</time>
      </trkpt>
      <trkpt lat="42.02467" lon="19.19592">
        <ele>270.365471</ele>
        <time>2022-05-26T10:37:04.200Z</time>
      </trkpt>
      <trkpt lat="42.02468" lon="19.19579">
        <ele>270.439256</ele>
        <time>2022-05-26T10:37:10.212Z</time>
      </trkpt>
      <trkpt lat="42.02466" lon="19.19564">
        <ele>270.520301</ele>
        <time>2022-05-26T10:37:14.205Z</time>
      </trkpt>
      <trkpt lat="42.02463" lon="19.1955">
        <ele>270.45513</ele>
        <time>2022-05-26T10:37:17.196Z</time>
      </trkpt>
      <trkpt lat="42.02458" lon="19.19535">
        <ele>270.077595</ele>
        <time>2022-05-26T10:37:20.208Z</time>
      </trkpt>
      <trkpt lat="42.02454" lon="19.19525">
        <ele>269.790558</ele>
        <time>2022-05-26T10:37:22.218Z</time>
      </trkpt>
      <trkpt lat="42.02448" lon="19.19513">
        <ele>269.47304</ele>
        <time>2022-05-26T10:37:24.203Z</time>
      </trkpt>
      <trkpt lat="42.02442" lon="19.19501">
        <ele>269.13272</ele>
        <time>2022-05-26T10:37:26.221Z</time>
      </trkpt>
      <trkpt lat="42.02436" lon="19.19489">
        <ele>268.79696</ele>
        <time>2022-05-26T10:37:28.203Z</time>
      </trkpt>
      <trkpt lat="42.0243" lon="19.19476">
        <ele>268.455459</ele>
        <time>2022-05-26T10:37:30.211Z</time>
      </trkpt>
      <trkpt lat="42.02424" lon="19.19463">
        <ele>268.107615</ele>
        <time>2022-05-26T10:37:32.201Z</time>
      </trkpt>
      <trkpt lat="42.02418" lon="19.19451">
        <ele>267.762465</ele>
        <time>2022-05-26T10:37:34.204Z</time>
      </trkpt>
      <trkpt lat="42.02413" lon="19.1944">
        <ele>267.453559</ele>
        <time>2022-05-26T10:37:36.215Z</time>
      </trkpt>
      <trkpt lat="42.02407" lon="19.19428">
        <ele>267.133528</ele>
        <time>2022-05-26T10:37:38.214Z</time>
      </trkpt>
      <trkpt lat="42.02403" lon="19.19417">
        <ele>266.848059</ele>
        <time>2022-05-26T10:37:40.200Z</time>
      </trkpt>
      <trkpt lat="42.02398" lon="19.19406">
        <ele>266.564133</ele>
        <time>2022-05-26T10:37:42.199Z</time>
      </trkpt>
      <trkpt lat="42.02393" lon="19.19391">
        <ele>266.159243</ele>
        <time>2022-05-26T10:37:45.207Z</time>
      </trkpt>
      <trkpt lat="42.02387" lon="19.19375">
        <ele>265.749228</ele>
        <time>2022-05-26T10:37:48.218Z</time>
      </trkpt>
      <trkpt lat="42.02382" lon="19.1936">
        <ele>265.373793</ele>
        <time>2022-05-26T10:37:51.203Z</time>
      </trkpt>
      <trkpt lat="42.0238" lon="19.19343">
        <ele>264.978182</ele>
        <time>2022-05-26T10:37:54.214Z</time>
      </trkpt>
      <trkpt lat="42.02379" lon="19.19326">
        <ele>264.862839</ele>
        <time>2022-05-26T10:37:57.202Z</time>
      </trkpt>
      <trkpt lat="42.0238" lon="19.19308">
        <ele>264.741787</ele>
        <time>2022-05-26T10:38:00.209Z</time>
      </trkpt>
      <trkpt lat="42.02381" lon="19.19296">
        <ele>264.658497</ele>
        <time>2022-05-26T10:38:02.206Z</time>
      </trkpt>
      <trkpt lat="42.02382" lon="19.19284">
        <ele>264.575987</ele>
        <time>2022-05-26T10:38:04.212Z</time>
      </trkpt>
      <trkpt lat="42.02383" lon="19.19271">
        <ele>264.492546</ele>
        <time>2022-05-26T10:38:06.214Z</time>
      </trkpt>
      <trkpt lat="42.02384" lon="19.19259">
        <ele>264.410744</ele>
        <time>2022-05-26T10:38:08.229Z</time>
      </trkpt>
      <trkpt lat="42.02386" lon="19.19247">
        <ele>264.327951</ele>
        <time>2022-05-26T10:38:10.212Z</time>
      </trkpt>
      <trkpt lat="42.02387" lon="19.19235">
        <ele>264.243316</ele>
        <time>2022-05-26T10:38:12.201Z</time>
      </trkpt>
      <trkpt lat="42.02388" lon="19.19223">
        <ele>264.160806</ele>
        <time>2022-05-26T10:38:14.200Z</time>
      </trkpt>
      <trkpt lat="42.0239" lon="19.19205">
        <ele>264.040362</ele>
        <time>2022-05-26T10:38:17.206Z</time>
      </trkpt>
      <trkpt lat="42.02391" lon="19.19193">
        <ele>263.957273</ele>
        <time>2022-05-26T10:38:19.205Z</time>
      </trkpt>
      <trkpt lat="42.02392" lon="19.1918">
        <ele>263.863977</ele>
        <time>2022-05-26T10:38:21.205Z</time>
      </trkpt>
      <trkpt lat="42.02393" lon="19.19166">
        <ele>263.774728</ele>
        <time>2022-05-26T10:38:23.229Z</time>
      </trkpt>
      <trkpt lat="42.02393" lon="19.19153">
        <ele>263.684549</ele>
        <time>2022-05-26T10:38:25.205Z</time>
      </trkpt>
      <trkpt lat="42.02393" lon="19.19141">
        <ele>263.599111</ele>
        <time>2022-05-26T10:38:27.203Z</time>
      </trkpt>
      <trkpt lat="42.02393" lon="19.19128">
        <ele>263.513036</ele>
        <time>2022-05-26T10:38:29.228Z</time>
      </trkpt>
      <trkpt lat="42.02392" lon="19.19115">
        <ele>263.424179</ele>
        <time>2022-05-26T10:38:31.197Z</time>
      </trkpt>
      <trkpt lat="42.02392" lon="19.19097">
        <ele>263.340966</ele>
        <time>2022-05-26T10:38:34.198Z</time>
      </trkpt>
      <trkpt lat="42.02392" lon="19.1908">
        <ele>263.347585</ele>
        <time>2022-05-26T10:38:37.200Z</time>
      </trkpt>
      <trkpt lat="42.02391" lon="19.19068">
        <ele>263.352362</ele>
        <time>2022-05-26T10:38:39.201Z</time>
      </trkpt>
      <trkpt lat="42.02391" lon="19.19051">
        <ele>263.358904</ele>
        <time>2022-05-26T10:38:42.199Z</time>
      </trkpt>
      <trkpt lat="42.0239" lon="19.19035">
        <ele>263.365561</ele>
        <time>2022-05-26T10:38:45.201Z</time>
      </trkpt>
      <trkpt lat="42.02391" lon="19.19017">
        <ele>263.372298</ele>
        <time>2022-05-26T10:38:48.199Z</time>
      </trkpt>
      <trkpt lat="42.02392" lon="19.19002">
        <ele>263.378605</ele>
        <time>2022-05-26T10:38:51.208Z</time>
      </trkpt>
      <trkpt lat="42.02396" lon="19.18988">
        <ele>263.384283</ele>
        <time>2022-05-26T10:38:54.202Z</time>
      </trkpt>
      <trkpt lat="42.02405" lon="19.18976">
        <ele>263.390958</ele>
        <time>2022-05-26T10:38:57.209Z</time>
      </trkpt>
      <trkpt lat="42.02411" lon="19.18965">
        <ele>263.396178</ele>
        <time>2022-05-26T10:38:59.196Z</time>
      </trkpt>
      <trkpt lat="42.02418" lon="19.18955">
        <ele>263.401626</ele>
        <time>2022-05-26T10:39:01.197Z</time>
      </trkpt>
      <trkpt lat="42.02425" lon="19.18943">
        <ele>263.407659</ele>
        <time>2022-05-26T10:39:03.209Z</time>
      </trkpt>
      <trkpt lat="42.02433" lon="19.18932">
        <ele>263.413723</ele>
        <time>2022-05-26T10:39:05.208Z</time>
      </trkpt>
      <trkpt lat="42.02442" lon="19.18922">
        <ele>263.419977</ele>
        <time>2022-05-26T10:39:07.202Z</time>
      </trkpt>
      <trkpt lat="42.02451" lon="19.18911">
        <ele>263.426555</ele>
        <time>2022-05-26T10:39:09.209Z</time>
      </trkpt>
      <trkpt lat="42.02457" lon="19.18898">
        <ele>263.432433</ele>
        <time>2022-05-26T10:39:11.203Z</time>
      </trkpt>
      <trkpt lat="42.0246" lon="19.18882">
        <ele>263.279885</ele>
        <time>2022-05-26T10:39:13.205Z</time>
      </trkpt>
      <trkpt lat="42.02465" lon="19.18863">
        <ele>263.037494</ele>
        <time>2022-05-26T10:39:15.206Z</time>
      </trkpt>
      <trkpt lat="42.02469" lon="19.18846">
        <ele>262.803276</ele>
        <time>2022-05-26T10:39:17.201Z</time>
      </trkpt>
      <trkpt lat="42.02475" lon="19.18829">
        <ele>262.566514</ele>
        <time>2022-05-26T10:39:19.212Z</time>
      </trkpt>
      <trkpt lat="42.0248" lon="19.18807">
        <ele>262.276263</ele>
        <time>2022-05-26T10:39:21.195Z</time>
      </trkpt>
      <trkpt lat="42.02484" lon="19.18794">
        <ele>262.103777</ele>
        <time>2022-05-26T10:39:22.203Z</time>
      </trkpt>
      <trkpt lat="42.02487" lon="19.18781">
        <ele>261.93016</ele>
        <time>2022-05-26T10:39:23.211Z</time>
      </trkpt>
      <trkpt lat="42.02491" lon="19.18768">
        <ele>261.759422</ele>
        <time>2022-05-26T10:39:24.207Z</time>
      </trkpt>
      <trkpt lat="42.02495" lon="19.18757">
        <ele>261.606025</ele>
        <time>2022-05-26T10:39:25.201Z</time>
      </trkpt>
      <trkpt lat="42.02499" lon="19.18746">
        <ele>261.447002</ele>
        <time>2022-05-26T10:39:26.240Z</time>
      </trkpt>
      <trkpt lat="42.02503" lon="19.18735">
        <ele>261.29263</ele>
        <time>2022-05-26T10:39:27.205Z</time>
      </trkpt>
      <trkpt lat="42.02506" lon="19.18723">
        <ele>261.140006</ele>
        <time>2022-05-26T10:39:28.208Z</time>
      </trkpt>
      <trkpt lat="42.02508" lon="19.18711">
        <ele>260.98232</ele>
        <time>2022-05-26T10:39:29.235Z</time>
      </trkpt>
      <trkpt lat="42.02512" lon="19.18688">
        <ele>260.686571</ele>
        <time>2022-05-26T10:39:31.198Z</time>
      </trkpt>
      <trkpt lat="42.02516" lon="19.18666">
        <ele>260.404209</ele>
        <time>2022-05-26T10:39:33.206Z</time>
      </trkpt>
      <trkpt lat="42.0252" lon="19.18645">
        <ele>259.924994</ele>
        <time>2022-05-26T10:39:35.212Z</time>
      </trkpt>
      <trkpt lat="42.02523" lon="19.18624">
        <ele>259.428318</ele>
        <time>2022-05-26T10:39:37.196Z</time>
      </trkpt>
      <trkpt lat="42.02526" lon="19.18603">
        <ele>258.931684</ele>
        <time>2022-05-26T10:39:39.207Z</time>
      </trkpt>
      <trkpt lat="42.02528" lon="19.18582">
        <ele>258.460342</ele>
        <time>2022-05-26T10:39:41.207Z</time>
      </trkpt>
      <trkpt lat="42.02532" lon="19.18565">
        <ele>258.05355</ele>
        <time>2022-05-26T10:39:43.226Z</time>
      </trkpt>
      <trkpt lat="42.02537" lon="19.18551">
        <ele>257.68551</ele>
        <time>2022-05-26T10:39:45.204Z</time>
      </trkpt>
      <trkpt lat="42.02544" lon="19.1854">
        <ele>257.360395</ele>
        <time>2022-05-26T10:39:47.203Z</time>
      </trkpt>
      <trkpt lat="42.02552" lon="19.1853">
        <ele>257.032951</ele>
        <time>2022-05-26T10:39:50.201Z</time>
      </trkpt>
      <trkpt lat="42.0256" lon="19.18522">
        <ele>256.713852</ele>
        <time>2022-05-26T10:39:55.201Z</time>
      </trkpt>
      <trkpt lat="42.02567" lon="19.18513">
        <ele>256.41989</ele>
        <time>2022-05-26T10:39:57.200Z</time>
      </trkpt>
      <trkpt lat="42.02573" lon="19.18501">
        <ele>256.103439</ele>
        <time>2022-05-26T10:39:59.198Z</time>
      </trkpt>
      <trkpt lat="42.02576" lon="19.1849">
        <ele>255.811592</ele>
        <time>2022-05-26T10:40:01.223Z</time>
      </trkpt>
      <trkpt lat="42.02581" lon="19.18474">
        <ele>255.423279</ele>
        <time>2022-05-26T10:40:04.208Z</time>
      </trkpt>
      <trkpt lat="42.02587" lon="19.18461">
        <ele>255.082551</ele>
        <time>2022-05-26T10:40:07.219Z</time>
      </trkpt>
      <trkpt lat="42.02596" lon="19.18451">
        <ele>254.800489</ele>
        <time>2022-05-26T10:40:10.199Z</time>
      </trkpt>
      <trkpt lat="42.02606" lon="19.18442">
        <ele>254.629147</ele>
        <time>2022-05-26T10:40:13.224Z</time>
      </trkpt>
      <trkpt lat="42.02614" lon="19.1843">
        <ele>254.451592</ele>
        <time>2022-05-26T10:40:16.203Z</time>
      </trkpt>
      <trkpt lat="42.02619" lon="19.18419">
        <ele>254.316748</ele>
        <time>2022-05-26T10:40:18.205Z</time>
      </trkpt>
      <trkpt lat="42.02624" lon="19.18408">
        <ele>254.184127</ele>
        <time>2022-05-26T10:40:20.201Z</time>
      </trkpt>
      <trkpt lat="42.02628" lon="19.18392">
        <ele>253.997012</ele>
        <time>2022-05-26T10:40:23.208Z</time>
      </trkpt>
      <trkpt lat="42.02631" lon="19.18376">
        <ele>253.828711</ele>
        <time>2022-05-26T10:40:26.210Z</time>
      </trkpt>
      <trkpt lat="42.02632" lon="19.18361">
        <ele>253.670957</ele>
        <time>2022-05-26T10:40:30.206Z</time>
      </trkpt>
      <trkpt lat="42.02635" lon="19.18347">
        <ele>253.515333</ele>
        <time>2022-05-26T10:40:35.208Z</time>
      </trkpt>
      <trkpt lat="42.02639" lon="19.18333">
        <ele>253.350639</ele>
        <time>2022-05-26T10:40:39.202Z</time>
      </trkpt>
      <trkpt lat="42.02641" lon="19.1832">
        <ele>253.217702</ele>
        <time>2022-05-26T10:40:42.226Z</time>
      </trkpt>
      <trkpt lat="42.02643" lon="19.18305">
        <ele>253.052793</ele>
        <time>2022-05-26T10:40:45.207Z</time>
      </trkpt>
      <trkpt lat="42.02645" lon="19.1829">
        <ele>252.892848</ele>
        <time>2022-05-26T10:40:48.199Z</time>
      </trkpt>
      <trkpt lat="42.02646" lon="19.18276">
        <ele>252.737632</ele>
        <time>2022-05-26T10:40:51.209Z</time>
      </trkpt>
      <trkpt lat="42.02648" lon="19.18262">
        <ele>252.586809</ele>
        <time>2022-05-26T10:40:54.200Z</time>
      </trkpt>
      <trkpt lat="42.02648" lon="19.18249">
        <ele>252.447633</ele>
        <time>2022-05-26T10:40:57.202Z</time>
      </trkpt>
      <trkpt lat="42.02648" lon="19.18236">
        <ele>252.31263</ele>
        <time>2022-05-26T10:41:00.203Z</time>
      </trkpt>
      <trkpt lat="42.02647" lon="19.18223">
        <ele>252.117497</ele>
        <time>2022-05-26T10:41:03.204Z</time>
      </trkpt>
      <trkpt lat="42.02645" lon="19.18211">
        <ele>251.910147</ele>
        <time>2022-05-26T10:41:06.218Z</time>
      </trkpt>
      <trkpt lat="42.02645" lon="19.18198">
        <ele>251.695613</ele>
        <time>2022-05-26T10:41:09.197Z</time>
      </trkpt>
      <trkpt lat="42.02645" lon="19.18184">
        <ele>251.46545</ele>
        <time>2022-05-26T10:41:12.212Z</time>
      </trkpt>
      <trkpt lat="42.02646" lon="19.18168">
        <ele>251.199143</ele>
        <time>2022-05-26T10:41:15.224Z</time>
      </trkpt>
      <trkpt lat="42.02651" lon="19.18153">
        <ele>250.922618</ele>
        <time>2022-05-26T10:41:18.200Z</time>
      </trkpt>
      <trkpt lat="42.02658" lon="19.18138">
        <ele>250.637056</ele>
        <time>2022-05-26T10:41:21.235Z</time>
      </trkpt>
      <trkpt lat="42.02665" lon="19.18125">
        <ele>250.361891</ele>
        <time>2022-05-26T10:41:24.198Z</time>
      </trkpt>
      <trkpt lat="42.02671" lon="19.18115">
        <ele>250.159784</ele>
        <time>2022-05-26T10:41:26.205Z</time>
      </trkpt>
      <trkpt lat="42.02677" lon="19.18105">
        <ele>249.945652</ele>
        <time>2022-05-26T10:41:28.215Z</time>
      </trkpt>
      <trkpt lat="42.02683" lon="19.18095">
        <ele>249.727098</ele>
        <time>2022-05-26T10:41:30.200Z</time>
      </trkpt>
      <trkpt lat="42.0269" lon="19.18085">
        <ele>249.494724</ele>
        <time>2022-05-26T10:41:32.201Z</time>
      </trkpt>
      <trkpt lat="42.02697" lon="19.18074">
        <ele>249.25533</ele>
        <time>2022-05-26T10:41:34.205Z</time>
      </trkpt>
      <trkpt lat="42.02703" lon="19.18062">
        <ele>249.023269</ele>
        <time>2022-05-26T10:41:36.206Z</time>
      </trkpt>
      <trkpt lat="42.02708" lon="19.18051">
        <ele>248.806336</ele>
        <time>2022-05-26T10:41:38.207Z</time>
      </trkpt>
      <trkpt lat="42.02714" lon="19.1804">
        <ele>248.582908</ele>
        <time>2022-05-26T10:41:40.214Z</time>
      </trkpt>
      <trkpt lat="42.02719" lon="19.18028">
        <ele>248.362564</ele>
        <time>2022-05-26T10:41:42.211Z</time>
      </trkpt>
      <trkpt lat="42.02722" lon="19.1801">
        <ele>248.197128</ele>
        <time>2022-05-26T10:41:45.206Z</time>
      </trkpt>
      <trkpt lat="42.02723" lon="19.17997">
        <ele>248.116562</ele>
        <time>2022-05-26T10:41:47.207Z</time>
      </trkpt>
      <trkpt lat="42.02724" lon="19.17981">
        <ele>248.025135</ele>
        <time>2022-05-26T10:41:49.230Z</time>
      </trkpt>
      <trkpt lat="42.02726" lon="19.17966">
        <ele>247.929385</ele>
        <time>2022-05-26T10:41:51.205Z</time>
      </trkpt>
      <trkpt lat="42.0273" lon="19.17953">
        <ele>247.846093</ele>
        <time>2022-05-26T10:41:53.198Z</time>
      </trkpt>
      <trkpt lat="42.02735" lon="19.1794">
        <ele>247.757792</ele>
        <time>2022-05-26T10:41:55.234Z</time>
      </trkpt>
      <trkpt lat="42.02741" lon="19.17928">
        <ele>247.673649</ele>
        <time>2022-05-26T10:41:57.198Z</time>
      </trkpt>
      <trkpt lat="42.02748" lon="19.17919">
        <ele>247.592472</ele>
        <time>2022-05-26T10:41:59.205Z</time>
      </trkpt>
      <trkpt lat="42.02755" lon="19.17909">
        <ele>247.508491</ele>
        <time>2022-05-26T10:42:01.229Z</time>
      </trkpt>
      <trkpt lat="42.02761" lon="19.179">
        <ele>247.435344</ele>
        <time>2022-05-26T10:42:03.201Z</time>
      </trkpt>
      <trkpt lat="42.0277" lon="19.17889">
        <ele>247.336418</ele>
        <time>2022-05-26T10:42:06.211Z</time>
      </trkpt>
      <trkpt lat="42.02777" lon="19.17877">
        <ele>247.243133</ele>
        <time>2022-05-26T10:42:09.209Z</time>
      </trkpt>
      <trkpt lat="42.02785" lon="19.17864">
        <ele>247.144255</ele>
        <time>2022-05-26T10:42:12.206Z</time>
      </trkpt>
      <trkpt lat="42.02791" lon="19.1785">
        <ele>247.043009</ele>
        <time>2022-05-26T10:42:15.207Z</time>
      </trkpt>
      <trkpt lat="42.02797" lon="19.17834">
        <ele>246.939759</ele>
        <time>2022-05-26T10:42:18.231Z</time>
      </trkpt>
      <trkpt lat="42.02802" lon="19.1782">
        <ele>246.845707</ele>
        <time>2022-05-26T10:42:21.214Z</time>
      </trkpt>
      <trkpt lat="42.02807" lon="19.17803">
        <ele>246.593749</ele>
        <time>2022-05-26T10:42:24.245Z</time>
      </trkpt>
      <trkpt lat="42.02811" lon="19.17786">
        <ele>246.316466</ele>
        <time>2022-05-26T10:42:27.216Z</time>
      </trkpt>
      <trkpt lat="42.02815" lon="19.17775">
        <ele>246.126984</ele>
        <time>2022-05-26T10:42:29.221Z</time>
      </trkpt>
      <trkpt lat="42.0282" lon="19.17758">
        <ele>245.844185</ele>
        <time>2022-05-26T10:42:32.223Z</time>
      </trkpt>
      <trkpt lat="42.02826" lon="19.17742">
        <ele>245.56961</ele>
        <time>2022-05-26T10:42:35.234Z</time>
      </trkpt>
      <trkpt lat="42.02831" lon="19.17732">
        <ele>245.380595</ele>
        <time>2022-05-26T10:42:37.221Z</time>
      </trkpt>
      <trkpt lat="42.02838" lon="19.17717">
        <ele>245.098418</ele>
        <time>2022-05-26T10:42:40.241Z</time>
      </trkpt>
      <trkpt lat="42.02843" lon="19.17705">
        <ele>244.886447</ele>
        <time>2022-05-26T10:42:42.236Z</time>
      </trkpt>
      <trkpt lat="42.02848" lon="19.17694">
        <ele>244.688856</ele>
        <time>2022-05-26T10:42:44.238Z</time>
      </trkpt>
      <trkpt lat="42.02856" lon="19.1768">
        <ele>244.413395</ele>
        <time>2022-05-26T10:42:47.222Z</time>
      </trkpt>
      <trkpt lat="42.02864" lon="19.17665">
        <ele>244.130423</ele>
        <time>2022-05-26T10:42:50.232Z</time>
      </trkpt>
      <trkpt lat="42.0287" lon="19.17654">
        <ele>243.923518</ele>
        <time>2022-05-26T10:42:52.265Z</time>
      </trkpt>
      <trkpt lat="42.02877" lon="19.17644">
        <ele>243.711296</ele>
        <time>2022-05-26T10:42:54.230Z</time>
      </trkpt>
      <trkpt lat="42.02884" lon="19.17634">
        <ele>243.486153</ele>
        <time>2022-05-26T10:42:56.247Z</time>
      </trkpt>
      <trkpt lat="42.02893" lon="19.17625">
        <ele>243.263384</ele>
        <time>2022-05-26T10:42:58.226Z</time>
      </trkpt>
      <trkpt lat="42.02901" lon="19.17616">
        <ele>243.059431</ele>
        <time>2022-05-26T10:43:00.215Z</time>
      </trkpt>
      <trkpt lat="42.0291" lon="19.17607">
        <ele>243.019435</ele>
        <time>2022-05-26T10:43:02.242Z</time>
      </trkpt>
      <trkpt lat="42.02918" lon="19.176">
        <ele>242.987908</ele>
        <time>2022-05-26T10:43:04.237Z</time>
      </trkpt>
      <trkpt lat="42.02927" lon="19.17595">
        <ele>242.954014</ele>
        <time>2022-05-26T10:43:06.233Z</time>
      </trkpt>
      <trkpt lat="42.02936" lon="19.17588">
        <ele>242.91678</ele>
        <time>2022-05-26T10:43:08.234Z</time>
      </trkpt>
      <trkpt lat="42.02944" lon="19.17582">
        <ele>242.882711</ele>
        <time>2022-05-26T10:43:10.235Z</time>
      </trkpt>
      <trkpt lat="42.02956" lon="19.17576">
        <ele>242.838285</ele>
        <time>2022-05-26T10:43:13.226Z</time>
      </trkpt>
      <trkpt lat="42.02969" lon="19.17571">
        <ele>242.792445</ele>
        <time>2022-05-26T10:43:16.232Z</time>
      </trkpt>
      <trkpt lat="42.02979" lon="19.17565">
        <ele>242.754741</ele>
        <time>2022-05-26T10:43:18.227Z</time>
      </trkpt>
      <trkpt lat="42.02987" lon="19.17559">
        <ele>242.720364</ele>
        <time>2022-05-26T10:43:20.254Z</time>
      </trkpt>
      <trkpt lat="42.02996" lon="19.1755">
        <ele>242.682343</ele>
        <time>2022-05-26T10:43:22.239Z</time>
      </trkpt>
      <trkpt lat="42.03001" lon="19.17539">
        <ele>242.648365</ele>
        <time>2022-05-26T10:43:24.215Z</time>
      </trkpt>
      <trkpt lat="42.03003" lon="19.17522">
        <ele>242.604003</ele>
        <time>2022-05-26T10:43:27.224Z</time>
      </trkpt>
      <trkpt lat="42.03005" lon="19.17505">
        <ele>242.560087</ele>
        <time>2022-05-26T10:43:30.234Z</time>
      </trkpt>
      <trkpt lat="42.03011" lon="19.17492">
        <ele>242.518154</ele>
        <time>2022-05-26T10:43:33.224Z</time>
      </trkpt>
      <trkpt lat="42.03023" lon="19.17486">
        <ele>242.475271</ele>
        <time>2022-05-26T10:43:35.218Z</time>
      </trkpt>
      <trkpt lat="42.03037" lon="19.1748">
        <ele>242.449294</ele>
        <time>2022-05-26T10:43:37.237Z</time>
      </trkpt>
      <trkpt lat="42.03048" lon="19.17474">
        <ele>242.522549</ele>
        <time>2022-05-26T10:43:39.238Z</time>
      </trkpt>
      <trkpt lat="42.03057" lon="19.17467">
        <ele>242.582511</ele>
        <time>2022-05-26T10:43:41.232Z</time>
      </trkpt>
      <trkpt lat="42.03066" lon="19.17465">
        <ele>242.638486</ele>
        <time>2022-05-26T10:43:43.235Z</time>
      </trkpt>
      <trkpt lat="42.03075" lon="19.17462">
        <ele>242.694506</ele>
        <time>2022-05-26T10:43:45.220Z</time>
      </trkpt>
      <trkpt lat="42.03085" lon="19.17462">
        <ele>242.753997</ele>
        <time>2022-05-26T10:43:47.224Z</time>
      </trkpt>
      <trkpt lat="42.03094" lon="19.17464">
        <ele>242.810327</ele>
        <time>2022-05-26T10:43:49.236Z</time>
      </trkpt>
      <trkpt lat="42.03106" lon="19.17467">
        <ele>242.888854</ele>
        <time>2022-05-26T10:43:52.229Z</time>
      </trkpt>
      <trkpt lat="42.03119" lon="19.17468">
        <ele>242.967989</ele>
        <time>2022-05-26T10:43:55.216Z</time>
      </trkpt>
      <trkpt lat="42.03128" lon="19.17468">
        <ele>243.024362</ele>
        <time>2022-05-26T10:43:57.225Z</time>
      </trkpt>
      <trkpt lat="42.03139" lon="19.17464">
        <ele>243.09166</ele>
        <time>2022-05-26T10:44:00.260Z</time>
      </trkpt>
      <trkpt lat="42.03146" lon="19.17455">
        <ele>243.152103</ele>
        <time>2022-05-26T10:44:03.266Z</time>
      </trkpt>
      <trkpt lat="42.0315" lon="19.17444">
        <ele>243.208649</ele>
        <time>2022-05-26T10:44:06.218Z</time>
      </trkpt>
      <trkpt lat="42.03156" lon="19.17429">
        <ele>243.285065</ele>
        <time>2022-05-26T10:44:09.239Z</time>
      </trkpt>
      <trkpt lat="42.03162" lon="19.17415">
        <ele>243.358172</ele>
        <time>2022-05-26T10:44:12.236Z</time>
      </trkpt>
      <trkpt lat="42.03167" lon="19.17403">
        <ele>243.421956</ele>
        <time>2022-05-26T10:44:15.223Z</time>
      </trkpt>
      <trkpt lat="42.03172" lon="19.17391">
        <ele>243.482572</ele>
        <time>2022-05-26T10:44:18.236Z</time>
      </trkpt>
      <trkpt lat="42.03178" lon="19.17379">
        <ele>243.574761</ele>
        <time>2022-05-26T10:44:21.252Z</time>
      </trkpt>
      <trkpt lat="42.03185" lon="19.17366">
        <ele>243.816293</ele>
        <time>2022-05-26T10:44:24.221Z</time>
      </trkpt>
      <trkpt lat="42.03192" lon="19.17354">
        <ele>244.057321</ele>
        <time>2022-05-26T10:44:27.272Z</time>
      </trkpt>
      <trkpt lat="42.032" lon="19.1734">
        <ele>244.30603</ele>
        <time>2022-05-26T10:44:30.243Z</time>
      </trkpt>
      <trkpt lat="42.03201" lon="19.17328">
        <ele>244.487954</ele>
        <time>2022-05-26T10:44:34.210Z</time>
      </trkpt>
      <trkpt lat="42.03211" lon="19.17319">
        <ele>244.720218</ele>
        <time>2022-05-26T10:44:37.223Z</time>
      </trkpt>
      <trkpt lat="42.0322" lon="19.17312">
        <ele>244.938533</ele>
        <time>2022-05-26T10:44:41.225Z</time>
      </trkpt>
      <trkpt lat="42.03231" lon="19.17306">
        <ele>245.170567</ele>
        <time>2022-05-26T10:44:47.232Z</time>
      </trkpt>
      <trkpt lat="42.0324" lon="19.17302">
        <ele>245.361541</ele>
        <time>2022-05-26T10:44:52.220Z</time>
      </trkpt>
      <trkpt lat="42.03244" lon="19.17287">
        <ele>245.598963</ele>
        <time>2022-05-26T10:44:58.229Z</time>
      </trkpt>
      <trkpt lat="42.03254" lon="19.1729">
        <ele>245.805389</ele>
        <time>2022-05-26T10:48:05.252Z</time>
      </trkpt>
      <trkpt lat="42.03263" lon="19.17283">
        <ele>246.020252</ele>
        <time>2022-05-26T10:48:09.217Z</time>
      </trkpt>
      <trkpt lat="42.03269" lon="19.17271">
        <ele>246.235568</ele>
        <time>2022-05-26T10:48:12.222Z</time>
      </trkpt>
      <trkpt lat="42.03273" lon="19.17258">
        <ele>246.442365</ele>
        <time>2022-05-26T10:48:15.254Z</time>
      </trkpt>
      <trkpt lat="42.03276" lon="19.17247">
        <ele>246.626688</ele>
        <time>2022-05-26T10:48:18.227Z</time>
      </trkpt>
      <trkpt lat="42.03282" lon="19.17233">
        <ele>246.862516</ele>
        <time>2022-05-26T10:48:22.334Z</time>
      </trkpt>
      <trkpt lat="42.03286" lon="19.17219">
        <ele>247.08314</ele>
        <time>2022-05-26T10:48:26.222Z</time>
      </trkpt>
      <trkpt lat="42.03289" lon="19.17206">
        <ele>247.06418</ele>
        <time>2022-05-26T10:48:29.208Z</time>
      </trkpt>
      <trkpt lat="42.03291" lon="19.17193">
        <ele>246.956474</ele>
        <time>2022-05-26T10:48:32.201Z</time>
      </trkpt>
      <trkpt lat="42.03297" lon="19.1718">
        <ele>246.833522</ele>
        <time>2022-05-26T10:48:36.221Z</time>
      </trkpt>
      <trkpt lat="42.03304" lon="19.17171">
        <ele>246.724792</ele>
        <time>2022-05-26T10:48:39.219Z</time>
      </trkpt>
      <trkpt lat="42.03312" lon="19.17164">
        <ele>246.621489</ele>
        <time>2022-05-26T10:48:42.296Z</time>
      </trkpt>
      <trkpt lat="42.0332" lon="19.17157">
        <ele>246.518175</ele>
        <time>2022-05-26T10:48:45.254Z</time>
      </trkpt>
      <trkpt lat="42.03328" lon="19.17149">
        <ele>246.411629</ele>
        <time>2022-05-26T10:48:48.212Z</time>
      </trkpt>
      <trkpt lat="42.03337" lon="19.17143">
        <ele>246.301894</ele>
        <time>2022-05-26T10:48:51.277Z</time>
      </trkpt>
      <trkpt lat="42.03346" lon="19.17135">
        <ele>246.181296</ele>
        <time>2022-05-26T10:48:54.214Z</time>
      </trkpt>
      <trkpt lat="42.03357" lon="19.17127">
        <ele>246.052771</ele>
        <time>2022-05-26T10:48:57.214Z</time>
      </trkpt>
      <trkpt lat="42.03366" lon="19.17122">
        <ele>245.942288</ele>
        <time>2022-05-26T10:49:00.228Z</time>
      </trkpt>
      <trkpt lat="42.03374" lon="19.17116">
        <ele>245.841738</ele>
        <time>2022-05-26T10:49:03.212Z</time>
      </trkpt>
      <trkpt lat="42.03386" lon="19.17112">
        <ele>245.713196</ele>
        <time>2022-05-26T10:49:07.216Z</time>
      </trkpt>
      <trkpt lat="42.03395" lon="19.17109">
        <ele>245.610907</ele>
        <time>2022-05-26T10:49:10.216Z</time>
      </trkpt>
      <trkpt lat="42.03405" lon="19.17106">
        <ele>245.495758</ele>
        <time>2022-05-26T10:49:13.224Z</time>
      </trkpt>
      <trkpt lat="42.03415" lon="19.17098">
        <ele>245.369165</ele>
        <time>2022-05-26T10:49:16.220Z</time>
      </trkpt>
      <trkpt lat="42.03422" lon="19.17087">
        <ele>245.252767</ele>
        <time>2022-05-26T10:49:19.211Z</time>
      </trkpt>
      <trkpt lat="42.03427" lon="19.17074">
        <ele>245.153074</ele>
        <time>2022-05-26T10:49:23.209Z</time>
      </trkpt>
      <trkpt lat="42.03429" lon="19.17062">
        <ele>245.093177</ele>
        <time>2022-05-26T10:49:26.230Z</time>
      </trkpt>
      <trkpt lat="42.03431" lon="19.17046">
        <ele>245.017275</ele>
        <time>2022-05-26T10:49:30.218Z</time>
      </trkpt>
      <trkpt lat="42.03432" lon="19.17032">
        <ele>244.950757</ele>
        <time>2022-05-26T10:49:33.214Z</time>
      </trkpt>
      <trkpt lat="42.03435" lon="19.17018">
        <ele>244.881087</ele>
        <time>2022-05-26T10:49:36.220Z</time>
      </trkpt>
      <trkpt lat="42.03441" lon="19.17007">
        <ele>244.81535</ele>
        <time>2022-05-26T10:49:39.214Z</time>
      </trkpt>
      <trkpt lat="42.03447" lon="19.16996">
        <ele>244.750149</ele>
        <time>2022-05-26T10:49:42.227Z</time>
      </trkpt>
      <trkpt lat="42.03453" lon="19.16985">
        <ele>244.683094</ele>
        <time>2022-05-26T10:49:45.226Z</time>
      </trkpt>
      <trkpt lat="42.0346" lon="19.16974">
        <ele>244.613382</ele>
        <time>2022-05-26T10:49:48.237Z</time>
      </trkpt>
      <trkpt lat="42.03468" lon="19.16963">
        <ele>244.541263</ele>
        <time>2022-05-26T10:49:51.232Z</time>
      </trkpt>
      <trkpt lat="42.03477" lon="19.16954">
        <ele>244.471638</ele>
        <time>2022-05-26T10:49:54.213Z</time>
      </trkpt>
      <trkpt lat="42.03486" lon="19.16945">
        <ele>244.398218</ele>
        <time>2022-05-26T10:49:57.227Z</time>
      </trkpt>
      <trkpt lat="42.03495" lon="19.16936">
        <ele>244.324917</ele>
        <time>2022-05-26T10:50:00.256Z</time>
      </trkpt>
      <trkpt lat="42.03505" lon="19.16928">
        <ele>244.251344</ele>
        <time>2022-05-26T10:50:03.224Z</time>
      </trkpt>
      <trkpt lat="42.03514" lon="19.1692">
        <ele>244.178348</ele>
        <time>2022-05-26T10:50:06.205Z</time>
      </trkpt>
      <trkpt lat="42.03525" lon="19.16912">
        <ele>244.100238</ele>
        <time>2022-05-26T10:50:09.214Z</time>
      </trkpt>
      <trkpt lat="42.03536" lon="19.16904">
        <ele>244.010335</ele>
        <time>2022-05-26T10:50:12.215Z</time>
      </trkpt>
      <trkpt lat="42.03548" lon="19.16895">
        <ele>243.828503</ele>
        <time>2022-05-26T10:50:15.214Z</time>
      </trkpt>
      <trkpt lat="42.03556" lon="19.16888">
        <ele>243.701053</ele>
        <time>2022-05-26T10:50:17.216Z</time>
      </trkpt>
      <trkpt lat="42.03566" lon="19.16878">
        <ele>243.522504</ele>
        <time>2022-05-26T10:50:20.221Z</time>
      </trkpt>
      <trkpt lat="42.03577" lon="19.16869">
        <ele>243.353624</ele>
        <time>2022-05-26T10:50:23.199Z</time>
      </trkpt>
      <trkpt lat="42.03587" lon="19.16861">
        <ele>243.186944</ele>
        <time>2022-05-26T10:50:26.210Z</time>
      </trkpt>
      <trkpt lat="42.03597" lon="19.16851">
        <ele>243.019782</ele>
        <time>2022-05-26T10:50:29.263Z</time>
      </trkpt>
      <trkpt lat="42.03608" lon="19.16843">
        <ele>242.845558</ele>
        <time>2022-05-26T10:50:32.218Z</time>
      </trkpt>
      <trkpt lat="42.03621" lon="19.16837">
        <ele>242.658133</ele>
        <time>2022-05-26T10:50:35.201Z</time>
      </trkpt>
      <trkpt lat="42.03632" lon="19.16832">
        <ele>242.492782</ele>
        <time>2022-05-26T10:50:38.232Z</time>
      </trkpt>
      <trkpt lat="42.03643" lon="19.16823">
        <ele>242.320779</ele>
        <time>2022-05-26T10:50:41.206Z</time>
      </trkpt>
      <trkpt lat="42.03652" lon="19.16811">
        <ele>242.145456</ele>
        <time>2022-05-26T10:50:44.204Z</time>
      </trkpt>
      <trkpt lat="42.03661" lon="19.16797">
        <ele>241.964582</ele>
        <time>2022-05-26T10:50:47.202Z</time>
      </trkpt>
      <trkpt lat="42.03668" lon="19.16784">
        <ele>241.795367</ele>
        <time>2022-05-26T10:50:50.203Z</time>
      </trkpt>
      <trkpt lat="42.03675" lon="19.16769">
        <ele>241.623953</ele>
        <time>2022-05-26T10:50:53.216Z</time>
      </trkpt>
      <trkpt lat="42.0368" lon="19.16755">
        <ele>241.530122</ele>
        <time>2022-05-26T10:50:56.211Z</time>
      </trkpt>
      <trkpt lat="42.03687" lon="19.16741">
        <ele>241.483834</ele>
        <time>2022-05-26T10:50:59.213Z</time>
      </trkpt>
      <trkpt lat="42.03694" lon="19.16727">
        <ele>241.436326</ele>
        <time>2022-05-26T10:51:02.205Z</time>
      </trkpt>
      <trkpt lat="42.03703" lon="19.16713">
        <ele>241.386561</ele>
        <time>2022-05-26T10:51:05.203Z</time>
      </trkpt>
      <trkpt lat="42.0371" lon="19.16705">
        <ele>241.352484</ele>
        <time>2022-05-26T10:51:07.233Z</time>
      </trkpt>
      <trkpt lat="42.03717" lon="19.16696">
        <ele>241.317325</ele>
        <time>2022-05-26T10:51:09.205Z</time>
      </trkpt>
      <trkpt lat="42.03723" lon="19.16688">
        <ele>241.282438</ele>
        <time>2022-05-26T10:51:11.224Z</time>
      </trkpt>
      <trkpt lat="42.0373" lon="19.16679">
        <ele>241.248015</ele>
        <time>2022-05-26T10:51:13.228Z</time>
      </trkpt>
      <trkpt lat="42.03737" lon="19.16671">
        <ele>241.21397</ele>
        <time>2022-05-26T10:51:15.260Z</time>
      </trkpt>
      <trkpt lat="42.03747" lon="19.16659">
        <ele>241.164808</ele>
        <time>2022-05-26T10:51:18.220Z</time>
      </trkpt>
      <trkpt lat="42.03756" lon="19.16647">
        <ele>241.11611</ele>
        <time>2022-05-26T10:51:21.213Z</time>
      </trkpt>
      <trkpt lat="42.03765" lon="19.16637">
        <ele>241.070933</ele>
        <time>2022-05-26T10:51:24.228Z</time>
      </trkpt>
      <trkpt lat="42.03775" lon="19.16626">
        <ele>241.023752</ele>
        <time>2022-05-26T10:51:27.224Z</time>
      </trkpt>
      <trkpt lat="42.03785" lon="19.16614">
        <ele>240.974395</ele>
        <time>2022-05-26T10:51:30.219Z</time>
      </trkpt>
      <trkpt lat="42.03794" lon="19.16601">
        <ele>240.92463</ele>
        <time>2022-05-26T10:51:33.213Z</time>
      </trkpt>
      <trkpt lat="42.03802" lon="19.16588">
        <ele>240.917051</ele>
        <time>2022-05-26T10:51:36.231Z</time>
      </trkpt>
      <trkpt lat="42.03809" lon="19.16574">
        <ele>241.089125</ele>
        <time>2022-05-26T10:51:39.227Z</time>
      </trkpt>
      <trkpt lat="42.03816" lon="19.1656">
        <ele>241.262567</ele>
        <time>2022-05-26T10:51:42.228Z</time>
      </trkpt>
      <trkpt lat="42.03822" lon="19.16545">
        <ele>241.431625</ele>
        <time>2022-05-26T10:51:45.226Z</time>
      </trkpt>
      <trkpt lat="42.03826" lon="19.16529">
        <ele>241.606518</ele>
        <time>2022-05-26T10:51:48.279Z</time>
      </trkpt>
      <trkpt lat="42.03828" lon="19.16511">
        <ele>241.788968</ele>
        <time>2022-05-26T10:51:51.213Z</time>
      </trkpt>
      <trkpt lat="42.03828" lon="19.16493">
        <ele>241.967724</ele>
        <time>2022-05-26T10:51:54.229Z</time>
      </trkpt>
      <trkpt lat="42.03828" lon="19.16476">
        <ele>242.142433</ele>
        <time>2022-05-26T10:51:57.216Z</time>
      </trkpt>
      <trkpt lat="42.03828" lon="19.16459">
        <ele>242.310062</ele>
        <time>2022-05-26T10:52:00.227Z</time>
      </trkpt>
      <trkpt lat="42.03829" lon="19.16442">
        <ele>242.487845</ele>
        <time>2022-05-26T10:52:03.222Z</time>
      </trkpt>
      <trkpt lat="42.03828" lon="19.16425">
        <ele>242.656461</ele>
        <time>2022-05-26T10:52:06.216Z</time>
      </trkpt>
      <trkpt lat="42.03828" lon="19.16408">
        <ele>242.831155</ele>
        <time>2022-05-26T10:52:09.209Z</time>
      </trkpt>
      <trkpt lat="42.03826" lon="19.16393">
        <ele>242.990707</ele>
        <time>2022-05-26T10:52:12.215Z</time>
      </trkpt>
      <trkpt lat="42.03823" lon="19.16378">
        <ele>243.147831</ele>
        <time>2022-05-26T10:52:15.245Z</time>
      </trkpt>
      <trkpt lat="42.03819" lon="19.16361">
        <ele>243.328138</ele>
        <time>2022-05-26T10:52:18.219Z</time>
      </trkpt>
      <trkpt lat="42.03817" lon="19.16349">
        <ele>243.345783</ele>
        <time>2022-05-26T10:52:20.216Z</time>
      </trkpt>
      <trkpt lat="42.03814" lon="19.16331">
        <ele>243.346024</ele>
        <time>2022-05-26T10:52:23.243Z</time>
      </trkpt>
      <trkpt lat="42.03815" lon="19.16314">
        <ele>243.34626</ele>
        <time>2022-05-26T10:52:26.212Z</time>
      </trkpt>
      <trkpt lat="42.0382" lon="19.16298">
        <ele>243.346491</ele>
        <time>2022-05-26T10:52:29.225Z</time>
      </trkpt>
      <trkpt lat="42.03827" lon="19.16285">
        <ele>243.346713</ele>
        <time>2022-05-26T10:52:32.240Z</time>
      </trkpt>
      <trkpt lat="42.03836" lon="19.16274">
        <ele>243.346935</ele>
        <time>2022-05-26T10:52:35.220Z</time>
      </trkpt>
      <trkpt lat="42.03846" lon="19.16266">
        <ele>243.347156</ele>
        <time>2022-05-26T10:52:38.221Z</time>
      </trkpt>
      <trkpt lat="42.03856" lon="19.16259">
        <ele>243.347361</ele>
        <time>2022-05-26T10:52:41.230Z</time>
      </trkpt>
      <trkpt lat="42.03867" lon="19.16254">
        <ele>243.347566</ele>
        <time>2022-05-26T10:52:44.225Z</time>
      </trkpt>
      <trkpt lat="42.03878" lon="19.16249">
        <ele>243.347789</ele>
        <time>2022-05-26T10:52:47.211Z</time>
      </trkpt>
      <trkpt lat="42.0389" lon="19.16244">
        <ele>243.348008</ele>
        <time>2022-05-26T10:52:50.223Z</time>
      </trkpt>
      <trkpt lat="42.039" lon="19.16239">
        <ele>243.348213</ele>
        <time>2022-05-26T10:52:53.233Z</time>
      </trkpt>
      <trkpt lat="42.03911" lon="19.16234">
        <ele>243.348421</ele>
        <time>2022-05-26T10:52:56.257Z</time>
      </trkpt>
      <trkpt lat="42.03921" lon="19.16228">
        <ele>243.348628</ele>
        <time>2022-05-26T10:52:59.215Z</time>
      </trkpt>
      <trkpt lat="42.03931" lon="19.1622">
        <ele>243.348843</ele>
        <time>2022-05-26T10:53:02.220Z</time>
      </trkpt>
      <trkpt lat="42.03941" lon="19.16211">
        <ele>243.493511</ele>
        <time>2022-05-26T10:53:05.211Z</time>
      </trkpt>
      <trkpt lat="42.0395" lon="19.16201">
        <ele>243.758356</ele>
        <time>2022-05-26T10:53:08.208Z</time>
      </trkpt>
      <trkpt lat="42.03958" lon="19.16191">
        <ele>244.005775</ele>
        <time>2022-05-26T10:53:11.212Z</time>
      </trkpt>
      <trkpt lat="42.03966" lon="19.1618">
        <ele>244.268813</ele>
        <time>2022-05-26T10:53:14.211Z</time>
      </trkpt>
      <trkpt lat="42.03974" lon="19.16168">
        <ele>244.527936</ele>
        <time>2022-05-26T10:53:17.213Z</time>
      </trkpt>
      <trkpt lat="42.03981" lon="19.16159">
        <ele>244.758175</ele>
        <time>2022-05-26T10:53:20.222Z</time>
      </trkpt>
      <trkpt lat="42.03987" lon="19.16146">
        <ele>245.014451</ele>
        <time>2022-05-26T10:53:23.211Z</time>
      </trkpt>
      <trkpt lat="42.03991" lon="19.1613">
        <ele>245.302519</ele>
        <time>2022-05-26T10:53:26.207Z</time>
      </trkpt>
      <trkpt lat="42.03996" lon="19.16116">
        <ele>245.548246</ele>
        <time>2022-05-26T10:53:29.267Z</time>
      </trkpt>
      <trkpt lat="42.04002" lon="19.16105">
        <ele>245.778804</ele>
        <time>2022-05-26T10:53:32.224Z</time>
      </trkpt>
      <trkpt lat="42.0401" lon="19.16097">
        <ele>246.002254</ele>
        <time>2022-05-26T10:53:35.251Z</time>
      </trkpt>
      <trkpt lat="42.04019" lon="19.16093">
        <ele>246.231492</ele>
        <time>2022-05-26T10:53:38.222Z</time>
      </trkpt>
      <trkpt lat="42.04029" lon="19.16089">
        <ele>246.457004</ele>
        <time>2022-05-26T10:53:41.253Z</time>
      </trkpt>
      <trkpt lat="42.04039" lon="19.16083">
        <ele>246.696253</ele>
        <time>2022-05-26T10:53:44.232Z</time>
      </trkpt>
      <trkpt lat="42.04047" lon="19.16076">
        <ele>246.92513</ele>
        <time>2022-05-26T10:53:47.216Z</time>
      </trkpt>
      <trkpt lat="42.04055" lon="19.16068">
        <ele>247.144983</ele>
        <time>2022-05-26T10:53:50.208Z</time>
      </trkpt>
      <trkpt lat="42.04061" lon="19.16058">
        <ele>247.363446</ele>
        <time>2022-05-26T10:53:53.241Z</time>
      </trkpt>
      <trkpt lat="42.04065" lon="19.16046">
        <ele>247.519955</ele>
        <time>2022-05-26T10:53:56.213Z</time>
      </trkpt>
      <trkpt lat="42.04067" lon="19.16032">
        <ele>247.672185</ele>
        <time>2022-05-26T10:53:59.223Z</time>
      </trkpt>
      <trkpt lat="42.04069" lon="19.16018">
        <ele>247.823799</ele>
        <time>2022-05-26T10:54:02.226Z</time>
      </trkpt>
      <trkpt lat="42.0407" lon="19.16005">
        <ele>247.965183</ele>
        <time>2022-05-26T10:54:05.215Z</time>
      </trkpt>
      <trkpt lat="42.04071" lon="19.1599">
        <ele>248.119001</ele>
        <time>2022-05-26T10:54:08.237Z</time>
      </trkpt>
      <trkpt lat="42.04071" lon="19.15977">
        <ele>248.257641</ele>
        <time>2022-05-26T10:54:11.232Z</time>
      </trkpt>
      <trkpt lat="42.04072" lon="19.15965">
        <ele>248.387784</ele>
        <time>2022-05-26T10:54:14.221Z</time>
      </trkpt>
      <trkpt lat="42.04073" lon="19.15953">
        <ele>248.51941</ele>
        <time>2022-05-26T10:54:17.213Z</time>
      </trkpt>
      <trkpt lat="42.04077" lon="19.15941">
        <ele>248.654132</ele>
        <time>2022-05-26T10:54:20.217Z</time>
      </trkpt>
      <trkpt lat="42.04081" lon="19.15931">
        <ele>248.783892</ele>
        <time>2022-05-26T10:54:23.217Z</time>
      </trkpt>
      <trkpt lat="42.04088" lon="19.15918">
        <ele>248.953089</ele>
        <time>2022-05-26T10:54:27.230Z</time>
      </trkpt>
      <trkpt lat="42.04094" lon="19.15907">
        <ele>249.10099</ele>
        <time>2022-05-26T10:54:31.223Z</time>
      </trkpt>
      <trkpt lat="42.04101" lon="19.15894">
        <ele>249.262668</ele>
        <time>2022-05-26T10:54:35.220Z</time>
      </trkpt>
      <trkpt lat="42.04107" lon="19.15882">
        <ele>249.413928</ele>
        <time>2022-05-26T10:54:39.221Z</time>
      </trkpt>
      <trkpt lat="42.04114" lon="19.15872">
        <ele>249.567309</ele>
        <time>2022-05-26T10:54:43.205Z</time>
      </trkpt>
      <trkpt lat="42.0412" lon="19.1586">
        <ele>249.725397</ele>
        <time>2022-05-26T10:54:48.212Z</time>
      </trkpt>
      <trkpt lat="42.04126" lon="19.15849">
        <ele>249.862217</ele>
        <time>2022-05-26T10:54:52.225Z</time>
      </trkpt>
      <trkpt lat="42.04132" lon="19.15837">
        <ele>250.000338</ele>
        <time>2022-05-26T10:54:56.237Z</time>
      </trkpt>
      <trkpt lat="42.04138" lon="19.15827">
        <ele>250.037025</ele>
        <time>2022-05-26T10:54:59.227Z</time>
      </trkpt>
      <trkpt lat="42.04144" lon="19.15816">
        <ele>250.077745</ele>
        <time>2022-05-26T10:55:02.224Z</time>
      </trkpt>
      <trkpt lat="42.0415" lon="19.15804">
        <ele>250.120596</ele>
        <time>2022-05-26T10:55:05.233Z</time>
      </trkpt>
      <trkpt lat="42.04156" lon="19.15791">
        <ele>250.16704</ele>
        <time>2022-05-26T10:55:08.229Z</time>
      </trkpt>
      <trkpt lat="42.04163" lon="19.15779">
        <ele>250.209891</ele>
        <time>2022-05-26T10:55:11.256Z</time>
      </trkpt>
      <trkpt lat="42.04168" lon="19.15767">
        <ele>250.251141</ele>
        <time>2022-05-26T10:55:14.222Z</time>
      </trkpt>
      <trkpt lat="42.04175" lon="19.15755">
        <ele>250.294944</ele>
        <time>2022-05-26T10:55:18.216Z</time>
      </trkpt>
      <trkpt lat="42.04185" lon="19.15747">
        <ele>250.34244</ele>
        <time>2022-05-26T10:55:22.203Z</time>
      </trkpt>
      <trkpt lat="42.04193" lon="19.15739">
        <ele>250.379842</ele>
        <time>2022-05-26T10:55:25.213Z</time>
      </trkpt>
      <trkpt lat="42.04202" lon="19.15731">
        <ele>250.42518</ele>
        <time>2022-05-26T10:55:29.221Z</time>
      </trkpt>
      <trkpt lat="42.04211" lon="19.15723">
        <ele>250.467674</ele>
        <time>2022-05-26T10:55:32.225Z</time>
      </trkpt>
      <trkpt lat="42.04219" lon="19.15713">
        <ele>250.510059</ele>
        <time>2022-05-26T10:55:35.204Z</time>
      </trkpt>
      <trkpt lat="42.04225" lon="19.15703">
        <ele>250.548207</ele>
        <time>2022-05-26T10:55:38.234Z</time>
      </trkpt>
      <trkpt lat="42.04232" lon="19.15691">
        <ele>250.593436</ele>
        <time>2022-05-26T10:55:42.212Z</time>
      </trkpt>
      <trkpt lat="42.04238" lon="19.15679">
        <ele>250.636513</ele>
        <time>2022-05-26T10:55:46.208Z</time>
      </trkpt>
      <trkpt lat="42.04245" lon="19.15667">
        <ele>250.681725</ele>
        <time>2022-05-26T10:55:50.218Z</time>
      </trkpt>
      <trkpt lat="42.04251" lon="19.15658">
        <ele>250.647384</ele>
        <time>2022-05-26T10:55:53.211Z</time>
      </trkpt>
      <trkpt lat="42.04257" lon="19.15648">
        <ele>250.461134</ele>
        <time>2022-05-26T10:55:56.249Z</time>
      </trkpt>
      <trkpt lat="42.04262" lon="19.15637">
        <ele>250.271248</ele>
        <time>2022-05-26T10:55:59.218Z</time>
      </trkpt>
      <trkpt lat="42.04264" lon="19.15625">
        <ele>250.081487</ele>
        <time>2022-05-26T10:56:02.232Z</time>
      </trkpt>
      <trkpt lat="42.04263" lon="19.15611">
        <ele>249.874871</ele>
        <time>2022-05-26T10:56:05.217Z</time>
      </trkpt>
      <trkpt lat="42.04257" lon="19.15599">
        <ele>249.650457</ele>
        <time>2022-05-26T10:56:08.225Z</time>
      </trkpt>
      <trkpt lat="42.04249" lon="19.15587">
        <ele>249.423425</ele>
        <time>2022-05-26T10:56:11.207Z</time>
      </trkpt>
      <trkpt lat="42.04245" lon="19.15576">
        <ele>249.233981</ele>
        <time>2022-05-26T10:56:14.211Z</time>
      </trkpt>
      <trkpt lat="42.04246" lon="19.15561">
        <ele>249.010763</ele>
        <time>2022-05-26T10:56:17.237Z</time>
      </trkpt>
      <trkpt lat="42.04249" lon="19.15544">
        <ele>248.756972</ele>
        <time>2022-05-26T10:56:20.211Z</time>
      </trkpt>
      <trkpt lat="42.04251" lon="19.15527">
        <ele>248.49181</ele>
        <time>2022-05-26T10:56:23.221Z</time>
      </trkpt>
      <trkpt lat="42.04252" lon="19.15514">
        <ele>248.299776</ele>
        <time>2022-05-26T10:56:25.252Z</time>
      </trkpt>
      <trkpt lat="42.04254" lon="19.15498">
        <ele>248.059156</ele>
        <time>2022-05-26T10:56:28.216Z</time>
      </trkpt>
      <trkpt lat="42.04257" lon="19.15486">
        <ele>247.865992</ele>
        <time>2022-05-26T10:56:31.211Z</time>
      </trkpt>
      <trkpt lat="42.0426" lon="19.15472">
        <ele>247.652307</ele>
        <time>2022-05-26T10:56:35.229Z</time>
      </trkpt>
      <trkpt lat="42.04261" lon="19.15458">
        <ele>247.439489</ele>
        <time>2022-05-26T10:56:38.229Z</time>
      </trkpt>
      <trkpt lat="42.04263" lon="19.15443">
        <ele>247.218841</ele>
        <time>2022-05-26T10:56:41.217Z</time>
      </trkpt>
      <trkpt lat="42.04263" lon="19.15429">
        <ele>247.2378</ele>
        <time>2022-05-26T10:56:44.209Z</time>
      </trkpt>
      <trkpt lat="42.04264" lon="19.15414">
        <ele>247.635056</ele>
        <time>2022-05-26T10:56:48.213Z</time>
      </trkpt>
      <trkpt lat="42.04267" lon="19.15398">
        <ele>248.044245</ele>
        <time>2022-05-26T10:56:52.211Z</time>
      </trkpt>
      <trkpt lat="42.04271" lon="19.15388">
        <ele>248.356141</ele>
        <time>2022-05-26T10:56:55.223Z</time>
      </trkpt>
      <trkpt lat="42.04275" lon="19.15376">
        <ele>248.685235</ele>
        <time>2022-05-26T10:56:58.215Z</time>
      </trkpt>
      <trkpt lat="42.0428" lon="19.15363">
        <ele>249.069093</ele>
        <time>2022-05-26T10:57:01.226Z</time>
      </trkpt>
      <trkpt lat="42.04285" lon="19.15351">
        <ele>249.435724</ele>
        <time>2022-05-26T10:57:04.224Z</time>
      </trkpt>
      <trkpt lat="42.04292" lon="19.1534">
        <ele>249.784428</ele>
        <time>2022-05-26T10:57:07.230Z</time>
      </trkpt>
      <trkpt lat="42.04299" lon="19.1533">
        <ele>250.15294</ele>
        <time>2022-05-26T10:57:10.196Z</time>
      </trkpt>
      <trkpt lat="42.04308" lon="19.1532">
        <ele>250.564385</ele>
        <time>2022-05-26T10:57:13.214Z</time>
      </trkpt>
      <trkpt lat="42.04318" lon="19.15311">
        <ele>250.985934</ele>
        <time>2022-05-26T10:57:16.220Z</time>
      </trkpt>
      <trkpt lat="42.04328" lon="19.15304">
        <ele>251.38385</ele>
        <time>2022-05-26T10:57:19.249Z</time>
      </trkpt>
      <trkpt lat="42.04338" lon="19.15299">
        <ele>251.755059</ele>
        <time>2022-05-26T10:57:22.225Z</time>
      </trkpt>
      <trkpt lat="42.0435" lon="19.15294">
        <ele>252.166654</ele>
        <time>2022-05-26T10:57:25.253Z</time>
      </trkpt>
      <trkpt lat="42.04361" lon="19.15288">
        <ele>252.58708</ele>
        <time>2022-05-26T10:57:28.214Z</time>
      </trkpt>
      <trkpt lat="42.0437" lon="19.15281">
        <ele>252.962177</ele>
        <time>2022-05-26T10:57:31.207Z</time>
      </trkpt>
      <trkpt lat="42.04379" lon="19.15274">
        <ele>253.315951</ele>
        <time>2022-05-26T10:57:34.211Z</time>
      </trkpt>
      <trkpt lat="42.04388" lon="19.15268">
        <ele>253.571377</ele>
        <time>2022-05-26T10:57:37.209Z</time>
      </trkpt>
      <trkpt lat="42.04396" lon="19.1526">
        <ele>253.833241</ele>
        <time>2022-05-26T10:57:40.212Z</time>
      </trkpt>
      <trkpt lat="42.04402" lon="19.15248">
        <ele>254.101287</ele>
        <time>2022-05-26T10:57:43.207Z</time>
      </trkpt>
      <trkpt lat="42.04407" lon="19.15235">
        <ele>254.372648</ele>
        <time>2022-05-26T10:57:46.200Z</time>
      </trkpt>
      <trkpt lat="42.0441" lon="19.15223">
        <ele>254.618851</ele>
        <time>2022-05-26T10:57:49.227Z</time>
      </trkpt>
      <trkpt lat="42.04413" lon="19.1521">
        <ele>254.874515</ele>
        <time>2022-05-26T10:57:52.213Z</time>
      </trkpt>
      <trkpt lat="42.04416" lon="19.15196">
        <ele>255.130179</ele>
        <time>2022-05-26T10:57:55.207Z</time>
      </trkpt>
      <trkpt lat="42.04418" lon="19.15184">
        <ele>255.361402</ele>
        <time>2022-05-26T10:57:58.239Z</time>
      </trkpt>
      <trkpt lat="42.0442" lon="19.15171">
        <ele>255.628489</ele>
        <time>2022-05-26T10:58:02.212Z</time>
      </trkpt>
      <trkpt lat="42.04424" lon="19.15156">
        <ele>255.920389</ele>
        <time>2022-05-26T10:58:06.200Z</time>
      </trkpt>
      <trkpt lat="42.04429" lon="19.15144">
        <ele>256.178072</ele>
        <time>2022-05-26T10:58:10.250Z</time>
      </trkpt>
      <trkpt lat="42.04437" lon="19.15134">
        <ele>256.46514</ele>
        <time>2022-05-26T10:58:14.222Z</time>
      </trkpt>
      <trkpt lat="42.04445" lon="19.15126">
        <ele>256.701321</ele>
        <time>2022-05-26T10:58:17.217Z</time>
      </trkpt>
      <trkpt lat="42.04455" lon="19.15119">
        <ele>256.997046</ele>
        <time>2022-05-26T10:58:21.237Z</time>
      </trkpt>
      <trkpt lat="42.04464" lon="19.15115">
        <ele>257.235217</ele>
        <time>2022-05-26T10:58:24.222Z</time>
      </trkpt>
      <trkpt lat="42.04473" lon="19.15111">
        <ele>257.472774</ele>
        <time>2022-05-26T10:58:27.204Z</time>
      </trkpt>
      <trkpt lat="42.04483" lon="19.15104">
        <ele>257.752395</ele>
        <time>2022-05-26T10:58:30.232Z</time>
      </trkpt>
      <trkpt lat="42.04492" lon="19.15095">
        <ele>257.895915</ele>
        <time>2022-05-26T10:58:33.266Z</time>
      </trkpt>
      <trkpt lat="42.04499" lon="19.15084">
        <ele>257.898734</ele>
        <time>2022-05-26T10:58:37.220Z</time>
      </trkpt>
      <trkpt lat="42.04504" lon="19.15071">
        <ele>257.901289</ele>
        <time>2022-05-26T10:58:40.220Z</time>
      </trkpt>
      <trkpt lat="42.0451" lon="19.15056">
        <ele>257.904315</ele>
        <time>2022-05-26T10:58:43.203Z</time>
      </trkpt>
      <trkpt lat="42.04516" lon="19.15042">
        <ele>257.907312</ele>
        <time>2022-05-26T10:58:46.226Z</time>
      </trkpt>
      <trkpt lat="42.04522" lon="19.1503">
        <ele>257.909902</ele>
        <time>2022-05-26T10:58:49.270Z</time>
      </trkpt>
      <trkpt lat="42.04526" lon="19.15018">
        <ele>257.912378</ele>
        <time>2022-05-26T10:58:53.219Z</time>
      </trkpt>
      <trkpt lat="42.0453" lon="19.15004">
        <ele>257.915114</ele>
        <time>2022-05-26T10:58:58.225Z</time>
      </trkpt>
      <trkpt lat="42.04535" lon="19.14993">
        <ele>257.91741</ele>
        <time>2022-05-26T10:59:02.230Z</time>
      </trkpt>
      <trkpt lat="42.04541" lon="19.14982">
        <ele>257.919869</ele>
        <time>2022-05-26T10:59:06.213Z</time>
      </trkpt>
      <trkpt lat="42.04548" lon="19.14972">
        <ele>257.922269</ele>
        <time>2022-05-26T10:59:10.226Z</time>
      </trkpt>
      <trkpt lat="42.04558" lon="19.14964">
        <ele>257.925207</ele>
        <time>2022-05-26T10:59:14.208Z</time>
      </trkpt>
      <trkpt lat="42.04568" lon="19.14956">
        <ele>257.928021</ele>
        <time>2022-05-26T10:59:17.215Z</time>
      </trkpt>
      <trkpt lat="42.04578" lon="19.1495">
        <ele>257.930641</ele>
        <time>2022-05-26T10:59:20.212Z</time>
      </trkpt>
      <trkpt lat="42.04586" lon="19.14945">
        <ele>257.932936</ele>
        <time>2022-05-26T10:59:23.207Z</time>
      </trkpt>
      <trkpt lat="42.04596" lon="19.14937">
        <ele>257.935669</ele>
        <time>2022-05-26T10:59:27.216Z</time>
      </trkpt>
      <trkpt lat="42.04604" lon="19.1493">
        <ele>257.938037</ele>
        <time>2022-05-26T10:59:31.219Z</time>
      </trkpt>
      <trkpt lat="42.04613" lon="19.14922">
        <ele>257.872795</ele>
        <time>2022-05-26T10:59:35.260Z</time>
      </trkpt>
      <trkpt lat="42.04622" lon="19.14913">
        <ele>257.781067</ele>
        <time>2022-05-26T10:59:39.208Z</time>
      </trkpt>
      <trkpt lat="42.04628" lon="19.14903">
        <ele>257.701648</ele>
        <time>2022-05-26T10:59:42.210Z</time>
      </trkpt>
      <trkpt lat="42.04634" lon="19.1489">
        <ele>257.612163</ele>
        <time>2022-05-26T10:59:45.215Z</time>
      </trkpt>
      <trkpt lat="42.04641" lon="19.14879">
        <ele>257.524208</ele>
        <time>2022-05-26T10:59:49.219Z</time>
      </trkpt>
      <trkpt lat="42.04647" lon="19.14866">
        <ele>257.434102</ele>
        <time>2022-05-26T10:59:53.212Z</time>
      </trkpt>
      <trkpt lat="42.04654" lon="19.14853">
        <ele>257.337979</ele>
        <time>2022-05-26T10:59:57.205Z</time>
      </trkpt>
      <trkpt lat="42.04659" lon="19.14841">
        <ele>257.256024</ele>
        <time>2022-05-26T11:00:00.214Z</time>
      </trkpt>
      <trkpt lat="42.04666" lon="19.14832">
        <ele>257.175184</ele>
        <time>2022-05-26T11:00:03.259Z</time>
      </trkpt>
      <trkpt lat="42.04673" lon="19.14819">
        <ele>257.081926</ele>
        <time>2022-05-26T11:00:06.209Z</time>
      </trkpt>
      <trkpt lat="42.0468" lon="19.1481">
        <ele>257.003173</ele>
        <time>2022-05-26T11:00:08.219Z</time>
      </trkpt>
      <trkpt lat="42.04686" lon="19.148">
        <ele>256.924148</ele>
        <time>2022-05-26T11:00:10.206Z</time>
      </trkpt>
      <trkpt lat="42.04694" lon="19.1479">
        <ele>256.836951</ele>
        <time>2022-05-26T11:00:12.219Z</time>
      </trkpt>
      <trkpt lat="42.04705" lon="19.14781">
        <ele>256.739623</ele>
        <time>2022-05-26T11:00:14.209Z</time>
      </trkpt>
      <trkpt lat="42.04716" lon="19.14774">
        <ele>256.635635</ele>
        <time>2022-05-26T11:00:16.213Z</time>
      </trkpt>
      <trkpt lat="42.0473" lon="19.14766">
        <ele>256.519402</ele>
        <time>2022-05-26T11:00:18.241Z</time>
      </trkpt>
      <trkpt lat="42.04744" lon="19.14756">
        <ele>255.651336</ele>
        <time>2022-05-26T11:00:20.212Z</time>
      </trkpt>
      <trkpt lat="42.04756" lon="19.14743">
        <ele>254.546987</ele>
        <time>2022-05-26T11:00:22.220Z</time>
      </trkpt>
      <trkpt lat="42.04765" lon="19.14727">
        <ele>253.560132</ele>
        <time>2022-05-26T11:00:24.230Z</time>
      </trkpt>
      <trkpt lat="42.04772" lon="19.14709">
        <ele>252.5209</ele>
        <time>2022-05-26T11:00:26.288Z</time>
      </trkpt>
      <trkpt lat="42.04778" lon="19.1469">
        <ele>251.458505</ele>
        <time>2022-05-26T11:00:28.220Z</time>
      </trkpt>
      <trkpt lat="42.04783" lon="19.14673">
        <ele>250.572238</ele>
        <time>2022-05-26T11:00:30.210Z</time>
      </trkpt>
      <trkpt lat="42.04789" lon="19.14661">
        <ele>249.836563</ele>
        <time>2022-05-26T11:00:32.237Z</time>
      </trkpt>
      <trkpt lat="42.04795" lon="19.14648">
        <ele>249.050582</ele>
        <time>2022-05-26T11:00:34.215Z</time>
      </trkpt>
      <trkpt lat="42.04801" lon="19.14633">
        <ele>248.165405</ele>
        <time>2022-05-26T11:00:36.213Z</time>
      </trkpt>
      <trkpt lat="42.04808" lon="19.14616">
        <ele>247.205705</ele>
        <time>2022-05-26T11:00:38.225Z</time>
      </trkpt>
      <trkpt lat="42.04817" lon="19.146">
        <ele>246.16137</ele>
        <time>2022-05-26T11:00:40.271Z</time>
      </trkpt>
      <trkpt lat="42.04825" lon="19.14584">
        <ele>245.178745</ele>
        <time>2022-05-26T11:00:42.206Z</time>
      </trkpt>
      <trkpt lat="42.04833" lon="19.1457">
        <ele>244.302125</ele>
        <time>2022-05-26T11:00:44.237Z</time>
      </trkpt>
      <trkpt lat="42.04841" lon="19.14556">
        <ele>243.830277</ele>
        <time>2022-05-26T11:00:46.216Z</time>
      </trkpt>
      <trkpt lat="42.04848" lon="19.14543">
        <ele>243.450116</ele>
        <time>2022-05-26T11:00:48.208Z</time>
      </trkpt>
      <trkpt lat="42.04852" lon="19.14531">
        <ele>243.155252</ele>
        <time>2022-05-26T11:00:50.209Z</time>
      </trkpt>
      <trkpt lat="42.04856" lon="19.14518">
        <ele>242.823033</ele>
        <time>2022-05-26T11:00:52.224Z</time>
      </trkpt>
      <trkpt lat="42.04852" lon="19.14503">
        <ele>242.459626</ele>
        <time>2022-05-26T11:00:54.228Z</time>
      </trkpt>
      <trkpt lat="42.04847" lon="19.14486">
        <ele>242.040091</ele>
        <time>2022-05-26T11:00:56.215Z</time>
      </trkpt>
      <trkpt lat="42.04842" lon="19.14471">
        <ele>241.651885</ele>
        <time>2022-05-26T11:00:58.252Z</time>
      </trkpt>
      <trkpt lat="42.04837" lon="19.14455">
        <ele>241.265836</ele>
        <time>2022-05-26T11:01:00.299Z</time>
      </trkpt>
      <trkpt lat="42.04832" lon="19.1444">
        <ele>240.862825</ele>
        <time>2022-05-26T11:01:02.234Z</time>
      </trkpt>
      <trkpt lat="42.04828" lon="19.14426">
        <ele>240.518118</ele>
        <time>2022-05-26T11:01:04.211Z</time>
      </trkpt>
      <trkpt lat="42.04826" lon="19.14413">
        <ele>240.219238</ele>
        <time>2022-05-26T11:01:06.224Z</time>
      </trkpt>
      <trkpt lat="42.04827" lon="19.14397">
        <ele>239.844468</ele>
        <time>2022-05-26T11:01:09.263Z</time>
      </trkpt>
      <trkpt lat="42.0483" lon="19.14381">
        <ele>239.462427</ele>
        <time>2022-05-26T11:01:12.223Z</time>
      </trkpt>
      <trkpt lat="42.04835" lon="19.14368">
        <ele>239.119905</ele>
        <time>2022-05-26T11:01:15.210Z</time>
      </trkpt>
      <trkpt lat="42.04844" lon="19.14359">
        <ele>238.787398</ele>
        <time>2022-05-26T11:01:18.215Z</time>
      </trkpt>
      <trkpt lat="42.04852" lon="19.14352">
        <ele>238.63295</ele>
        <time>2022-05-26T11:01:21.207Z</time>
      </trkpt>
      <trkpt lat="42.04862" lon="19.14348">
        <ele>238.956865</ele>
        <time>2022-05-26T11:01:25.232Z</time>
      </trkpt>
      <trkpt lat="42.04872" lon="19.14345">
        <ele>239.254075</ele>
        <time>2022-05-26T11:01:28.211Z</time>
      </trkpt>
      <trkpt lat="42.04883" lon="19.14342">
        <ele>239.565491</ele>
        <time>2022-05-26T11:01:31.217Z</time>
      </trkpt>
      <trkpt lat="42.04894" lon="19.14338">
        <ele>239.90223</ele>
        <time>2022-05-26T11:01:34.219Z</time>
      </trkpt>
      <trkpt lat="42.04906" lon="19.14334">
        <ele>240.243005</ele>
        <time>2022-05-26T11:01:37.208Z</time>
      </trkpt>
      <trkpt lat="42.04918" lon="19.1433">
        <ele>240.606507</ele>
        <time>2022-05-26T11:01:40.227Z</time>
      </trkpt>
      <trkpt lat="42.04929" lon="19.14325">
        <ele>240.94452</ele>
        <time>2022-05-26T11:01:43.220Z</time>
      </trkpt>
      <trkpt lat="42.0494" lon="19.1432">
        <ele>241.272437</ele>
        <time>2022-05-26T11:01:46.217Z</time>
      </trkpt>
      <trkpt lat="42.04951" lon="19.14314">
        <ele>241.626924</ele>
        <time>2022-05-26T11:01:49.260Z</time>
      </trkpt>
      <trkpt lat="42.0496" lon="19.14308">
        <ele>241.924605</ele>
        <time>2022-05-26T11:01:52.222Z</time>
      </trkpt>
      <trkpt lat="42.04971" lon="19.14303">
        <ele>242.244801</ele>
        <time>2022-05-26T11:01:55.251Z</time>
      </trkpt>
      <trkpt lat="42.04981" lon="19.14298">
        <ele>242.570026</ele>
        <time>2022-05-26T11:01:58.213Z</time>
      </trkpt>
      <trkpt lat="42.04992" lon="19.14291">
        <ele>242.915902</ele>
        <time>2022-05-26T11:02:01.250Z</time>
      </trkpt>
      <trkpt lat="42.05004" lon="19.14284">
        <ele>243.300415</ele>
        <time>2022-05-26T11:02:04.208Z</time>
      </trkpt>
      <trkpt lat="42.05013" lon="19.14278">
        <ele>243.58309</ele>
        <time>2022-05-26T11:02:06.224Z</time>
      </trkpt>
      <trkpt lat="42.05022" lon="19.14273">
        <ele>243.790728</ele>
        <time>2022-05-26T11:02:08.214Z</time>
      </trkpt>
      <trkpt lat="42.05034" lon="19.14267">
        <ele>243.900337</ele>
        <time>2022-05-26T11:02:11.215Z</time>
      </trkpt>
      <trkpt lat="42.05044" lon="19.14262">
        <ele>243.985962</ele>
        <time>2022-05-26T11:02:13.208Z</time>
      </trkpt>
      <trkpt lat="42.05053" lon="19.14256">
        <ele>244.072808</ele>
        <time>2022-05-26T11:02:15.229Z</time>
      </trkpt>
      <trkpt lat="42.05063" lon="19.14252">
        <ele>244.15729</ele>
        <time>2022-05-26T11:02:17.217Z</time>
      </trkpt>
      <trkpt lat="42.05072" lon="19.14248">
        <ele>244.239196</ele>
        <time>2022-05-26T11:02:19.213Z</time>
      </trkpt>
      <trkpt lat="42.0508" lon="19.14242">
        <ele>244.317079</ele>
        <time>2022-05-26T11:02:21.217Z</time>
      </trkpt>
      <trkpt lat="42.05092" lon="19.14235">
        <ele>244.427825</ele>
        <time>2022-05-26T11:02:24.222Z</time>
      </trkpt>
      <trkpt lat="42.05103" lon="19.14226">
        <ele>244.536338</ele>
        <time>2022-05-26T11:02:27.222Z</time>
      </trkpt>
      <trkpt lat="42.05114" lon="19.14218">
        <ele>244.639848</ele>
        <time>2022-05-26T11:02:30.239Z</time>
      </trkpt>
      <trkpt lat="42.05125" lon="19.14209">
        <ele>244.749207</ele>
        <time>2022-05-26T11:02:33.198Z</time>
      </trkpt>
      <trkpt lat="42.05136" lon="19.14201">
        <ele>244.857364</ele>
        <time>2022-05-26T11:02:36.217Z</time>
      </trkpt>
      <trkpt lat="42.05147" lon="19.14193">
        <ele>244.965075</ele>
        <time>2022-05-26T11:02:39.219Z</time>
      </trkpt>
      <trkpt lat="42.05158" lon="19.14186">
        <ele>245.067377</ele>
        <time>2022-05-26T11:02:42.213Z</time>
      </trkpt>
      <trkpt lat="42.05169" lon="19.1418">
        <ele>245.164527</ele>
        <time>2022-05-26T11:02:45.249Z</time>
      </trkpt>
      <trkpt lat="42.0518" lon="19.14173">
        <ele>245.266792</ele>
        <time>2022-05-26T11:02:48.217Z</time>
      </trkpt>
      <trkpt lat="42.0519" lon="19.14165">
        <ele>245.13976</ele>
        <time>2022-05-26T11:02:51.200Z</time>
      </trkpt>
      <trkpt lat="42.052" lon="19.14157">
        <ele>244.977738</ele>
        <time>2022-05-26T11:02:54.211Z</time>
      </trkpt>
      <trkpt lat="42.0521" lon="19.14148">
        <ele>244.810486</ele>
        <time>2022-05-26T11:02:57.213Z</time>
      </trkpt>
      <trkpt lat="42.05218" lon="19.14138">
        <ele>244.655774</ele>
        <time>2022-05-26T11:03:00.204Z</time>
      </trkpt>
      <trkpt lat="42.05223" lon="19.14121">
        <ele>244.463167</ele>
        <time>2022-05-26T11:03:03.215Z</time>
      </trkpt>
      <trkpt lat="42.05225" lon="19.14109">
        <ele>244.335472</ele>
        <time>2022-05-26T11:03:05.221Z</time>
      </trkpt>
      <trkpt lat="42.05226" lon="19.14092">
        <ele>244.156605</ele>
        <time>2022-05-26T11:03:08.205Z</time>
      </trkpt>
      <trkpt lat="42.05228" lon="19.14074">
        <ele>243.969467</ele>
        <time>2022-05-26T11:03:11.208Z</time>
      </trkpt>
      <trkpt lat="42.05232" lon="19.14058">
        <ele>243.786655</ele>
        <time>2022-05-26T11:03:14.225Z</time>
      </trkpt>
      <trkpt lat="42.05238" lon="19.14048">
        <ele>243.65939</ele>
        <time>2022-05-26T11:03:16.230Z</time>
      </trkpt>
      <trkpt lat="42.05245" lon="19.14038">
        <ele>243.518344</ele>
        <time>2022-05-26T11:03:18.202Z</time>
      </trkpt>
      <trkpt lat="42.05252" lon="19.14028">
        <ele>243.370583</ele>
        <time>2022-05-26T11:03:20.208Z</time>
      </trkpt>
      <trkpt lat="42.0526" lon="19.14019">
        <ele>243.219415</ele>
        <time>2022-05-26T11:03:22.219Z</time>
      </trkpt>
      <trkpt lat="42.05269" lon="19.14009">
        <ele>243.066449</ele>
        <time>2022-05-26T11:03:24.257Z</time>
      </trkpt>
      <trkpt lat="42.05277" lon="19.14">
        <ele>242.92181</ele>
        <time>2022-05-26T11:03:26.214Z</time>
      </trkpt>
      <trkpt lat="42.05284" lon="19.13992">
        <ele>242.785241</ele>
        <time>2022-05-26T11:03:28.229Z</time>
      </trkpt>
      <trkpt lat="42.05293" lon="19.13986">
        <ele>242.590646</ele>
        <time>2022-05-26T11:03:30.212Z</time>
      </trkpt>
      <trkpt lat="42.05301" lon="19.1398">
        <ele>242.377054</ele>
        <time>2022-05-26T11:03:32.224Z</time>
      </trkpt>
      <trkpt lat="42.0531" lon="19.13973">
        <ele>242.148341</ele>
        <time>2022-05-26T11:03:34.224Z</time>
      </trkpt>
      <trkpt lat="42.05319" lon="19.13967">
        <ele>241.922697</ele>
        <time>2022-05-26T11:03:36.212Z</time>
      </trkpt>
      <trkpt lat="42.05328" lon="19.13961">
        <ele>241.704862</ele>
        <time>2022-05-26T11:03:38.212Z</time>
      </trkpt>
      <trkpt lat="42.05337" lon="19.13954">
        <ele>241.488558</ele>
        <time>2022-05-26T11:03:40.201Z</time>
      </trkpt>
      <trkpt lat="42.05346" lon="19.13948">
        <ele>241.266429</ele>
        <time>2022-05-26T11:03:42.224Z</time>
      </trkpt>
      <trkpt lat="42.05355" lon="19.13941">
        <ele>241.036114</ele>
        <time>2022-05-26T11:03:44.220Z</time>
      </trkpt>
      <trkpt lat="42.05364" lon="19.13935">
        <ele>240.813617</ele>
        <time>2022-05-26T11:03:46.209Z</time>
      </trkpt>
      <trkpt lat="42.05373" lon="19.13928">
        <ele>240.591489</ele>
        <time>2022-05-26T11:03:48.219Z</time>
      </trkpt>
      <trkpt lat="42.0538" lon="19.13922">
        <ele>240.393014</ele>
        <time>2022-05-26T11:03:50.213Z</time>
      </trkpt>
      <trkpt lat="42.05385" lon="19.13911">
        <ele>240.186347</ele>
        <time>2022-05-26T11:03:53.213Z</time>
      </trkpt>
      <trkpt lat="42.05405" lon="19.13898">
        <ele>239.701606</ele>
        <time>2022-05-26T11:07:00.211Z</time>
      </trkpt>
      <trkpt lat="42.05414" lon="19.13889">
        <ele>239.465536</ele>
        <time>2022-05-26T11:07:03.199Z</time>
      </trkpt>
      <trkpt lat="42.05423" lon="19.13877">
        <ele>239.180055</ele>
        <time>2022-05-26T11:07:06.205Z</time>
      </trkpt>
      <trkpt lat="42.05429" lon="19.13866">
        <ele>238.956344</ele>
        <time>2022-05-26T11:07:08.202Z</time>
      </trkpt>
      <trkpt lat="42.05435" lon="19.13854">
        <ele>238.703513</ele>
        <time>2022-05-26T11:07:10.225Z</time>
      </trkpt>
      <trkpt lat="42.0544" lon="19.13838">
        <ele>238.408367</ele>
        <time>2022-05-26T11:07:12.213Z</time>
      </trkpt>
      <trkpt lat="42.05444" lon="19.13824">
        <ele>238.145652</ele>
        <time>2022-05-26T11:07:14.203Z</time>
      </trkpt>
      <trkpt lat="42.05449" lon="19.13808">
        <ele>237.840533</ele>
        <time>2022-05-26T11:07:17.202Z</time>
      </trkpt>
      <trkpt lat="42.05452" lon="19.13796">
        <ele>237.630014</ele>
        <time>2022-05-26T11:07:19.205Z</time>
      </trkpt>
      <trkpt lat="42.05457" lon="19.13784">
        <ele>237.385505</ele>
        <time>2022-05-26T11:07:21.198Z</time>
      </trkpt>
      <trkpt lat="42.05463" lon="19.13771">
        <ele>237.13449</ele>
        <time>2022-05-26T11:07:23.205Z</time>
      </trkpt>
      <trkpt lat="42.05468" lon="19.1376">
        <ele>236.902927</ele>
        <time>2022-05-26T11:07:25.198Z</time>
      </trkpt>
      <trkpt lat="42.05474" lon="19.1375">
        <ele>236.685738</ele>
        <time>2022-05-26T11:07:27.218Z</time>
      </trkpt>
      <trkpt lat="42.0548" lon="19.13738">
        <ele>236.435124</ele>
        <time>2022-05-26T11:07:29.197Z</time>
      </trkpt>
      <trkpt lat="42.05485" lon="19.13728">
        <ele>236.212215</ele>
        <time>2022-05-26T11:07:31.198Z</time>
      </trkpt>
      <trkpt lat="42.05493" lon="19.13714">
        <ele>235.91405</ele>
        <time>2022-05-26T11:07:34.218Z</time>
      </trkpt>
      <trkpt lat="42.05499" lon="19.13703">
        <ele>235.681423</ele>
        <time>2022-05-26T11:07:37.202Z</time>
      </trkpt>
      <trkpt lat="42.05505" lon="19.13691">
        <ele>235.415499</ele>
        <time>2022-05-26T11:07:41.198Z</time>
      </trkpt>
      <trkpt lat="42.05512" lon="19.13678">
        <ele>235.145898</ele>
        <time>2022-05-26T11:07:44.224Z</time>
      </trkpt>
      <trkpt lat="42.05517" lon="19.13667">
        <ele>234.931058</ele>
        <time>2022-05-26T11:07:46.211Z</time>
      </trkpt>
      <trkpt lat="42.05523" lon="19.13655">
        <ele>234.683065</ele>
        <time>2022-05-26T11:07:48.204Z</time>
      </trkpt>
      <trkpt lat="42.05529" lon="19.13642">
        <ele>234.011257</ele>
        <time>2022-05-26T11:07:50.220Z</time>
      </trkpt>
      <trkpt lat="42.05537" lon="19.13628">
        <ele>233.057232</ele>
        <time>2022-05-26T11:07:52.198Z</time>
      </trkpt>
      <trkpt lat="42.05543" lon="19.13617">
        <ele>232.280732</ele>
        <time>2022-05-26T11:07:54.197Z</time>
      </trkpt>
      <trkpt lat="42.05551" lon="19.13602">
        <ele>231.269135</ele>
        <time>2022-05-26T11:07:57.209Z</time>
      </trkpt>
      <trkpt lat="42.05557" lon="19.1359">
        <ele>230.468722</ele>
        <time>2022-05-26T11:07:59.199Z</time>
      </trkpt>
      <trkpt lat="42.05563" lon="19.13577">
        <ele>229.57441</ele>
        <time>2022-05-26T11:08:01.241Z</time>
      </trkpt>
      <trkpt lat="42.0557" lon="19.13562">
        <ele>228.600199</ele>
        <time>2022-05-26T11:08:03.197Z</time>
      </trkpt>
      <trkpt lat="42.05577" lon="19.13548">
        <ele>227.729147</ele>
        <time>2022-05-26T11:08:05.209Z</time>
      </trkpt>
      <trkpt lat="42.05582" lon="19.13538">
        <ele>227.02367</ele>
        <time>2022-05-26T11:08:07.204Z</time>
      </trkpt>
      <trkpt lat="42.0559" lon="19.13526">
        <ele>226.163962</ele>
        <time>2022-05-26T11:08:10.204Z</time>
      </trkpt>
      <trkpt lat="42.05595" lon="19.13516">
        <ele>225.486548</ele>
        <time>2022-05-26T11:08:14.197Z</time>
      </trkpt>
      <trkpt lat="42.05598" lon="19.13504">
        <ele>224.810572</ele>
        <time>2022-05-26T11:08:21.200Z</time>
      </trkpt>
      <trkpt lat="42.05602" lon="19.1349">
        <ele>223.968857</ele>
        <time>2022-05-26T11:08:26.205Z</time>
      </trkpt>
      <trkpt lat="42.05605" lon="19.13476">
        <ele>223.179674</ele>
        <time>2022-05-26T11:08:29.232Z</time>
      </trkpt>
      <trkpt lat="42.05608" lon="19.13464">
        <ele>222.438054</ele>
        <time>2022-05-26T11:08:32.204Z</time>
      </trkpt>
      <trkpt lat="42.0561" lon="19.13452">
        <ele>221.765844</ele>
        <time>2022-05-26T11:08:37.200Z</time>
      </trkpt>
      <trkpt lat="42.05611" lon="19.13439">
        <ele>220.979435</ele>
        <time>2022-05-26T11:08:41.208Z</time>
      </trkpt>
      <trkpt lat="42.05611" lon="19.13422">
        <ele>219.843908</ele>
        <time>2022-05-26T11:08:44.201Z</time>
      </trkpt>
      <trkpt lat="42.05612" lon="19.13409">
        <ele>218.962264</ele>
        <time>2022-05-26T11:08:46.225Z</time>
      </trkpt>
      <trkpt lat="42.05612" lon="19.13395">
        <ele>218.012175</ele>
        <time>2022-05-26T11:08:48.220Z</time>
      </trkpt>
      <trkpt lat="42.05612" lon="19.13382">
        <ele>217.069329</ele>
        <time>2022-05-26T11:08:50.212Z</time>
      </trkpt>
      <trkpt lat="42.05612" lon="19.13368">
        <ele>216.091945</ele>
        <time>2022-05-26T11:08:52.204Z</time>
      </trkpt>
      <trkpt lat="42.05612" lon="19.13353">
        <ele>215.080284</ele>
        <time>2022-05-26T11:08:54.198Z</time>
      </trkpt>
      <trkpt lat="42.05611" lon="19.13338">
        <ele>214.078135</ele>
        <time>2022-05-26T11:08:56.195Z</time>
      </trkpt>
      <trkpt lat="42.05606" lon="19.13327">
        <ele>213.170645</ele>
        <time>2022-05-26T11:08:58.215Z</time>
      </trkpt>
      <trkpt lat="42.05603" lon="19.13313">
        <ele>212.139536</ele>
        <time>2022-05-26T11:09:00.208Z</time>
      </trkpt>
      <trkpt lat="42.056" lon="19.133">
        <ele>211.219534</ele>
        <time>2022-05-26T11:09:02.198Z</time>
      </trkpt>
      <trkpt lat="42.05596" lon="19.13287">
        <ele>210.19567</ele>
        <time>2022-05-26T11:09:04.222Z</time>
      </trkpt>
      <trkpt lat="42.05589" lon="19.13273">
        <ele>209.099915</ele>
        <time>2022-05-26T11:09:06.203Z</time>
      </trkpt>
      <trkpt lat="42.05582" lon="19.1326">
        <ele>207.988158</ele>
        <time>2022-05-26T11:09:08.197Z</time>
      </trkpt>
      <trkpt lat="42.05577" lon="19.13249">
        <ele>207.114407</ele>
        <time>2022-05-26T11:09:10.206Z</time>
      </trkpt>
      <trkpt lat="42.05576" lon="19.13234">
        <ele>206.074015</ele>
        <time>2022-05-26T11:09:13.201Z</time>
      </trkpt>
      <trkpt lat="42.05585" lon="19.13231">
        <ele>205.19495</ele>
        <time>2022-05-26T11:09:16.220Z</time>
      </trkpt>
      <trkpt lat="42.05593" lon="19.13239">
        <ele>204.293796</ele>
        <time>2022-05-26T11:09:18.210Z</time>
      </trkpt>
      <trkpt lat="42.05602" lon="19.13251">
        <ele>203.447937</ele>
        <time>2022-05-26T11:09:20.215Z</time>
      </trkpt>
      <trkpt lat="42.05611" lon="19.13264">
        <ele>202.533102</ele>
        <time>2022-05-26T11:09:22.206Z</time>
      </trkpt>
      <trkpt lat="42.05619" lon="19.13276">
        <ele>201.705463</ele>
        <time>2022-05-26T11:09:24.198Z</time>
      </trkpt>
      <trkpt lat="42.05626" lon="19.13286">
        <ele>201.007124</ele>
        <time>2022-05-26T11:09:26.201Z</time>
      </trkpt>
      <trkpt lat="42.05635" lon="19.13301">
        <ele>200.059119</ele>
        <time>2022-05-26T11:09:29.251Z</time>
      </trkpt>
      <trkpt lat="42.0564" lon="19.13311">
        <ele>199.423158</ele>
        <time>2022-05-26T11:09:31.223Z</time>
      </trkpt>
      <trkpt lat="42.05648" lon="19.13325">
        <ele>198.511606</ele>
        <time>2022-05-26T11:09:34.202Z</time>
      </trkpt>
      <trkpt lat="42.05654" lon="19.13336">
        <ele>197.793868</ele>
        <time>2022-05-26T11:09:36.217Z</time>
      </trkpt>
      <trkpt lat="42.05661" lon="19.13348">
        <ele>197.010474</ele>
        <time>2022-05-26T11:09:38.221Z</time>
      </trkpt>
      <trkpt lat="42.05668" lon="19.13359">
        <ele>196.296599</ele>
        <time>2022-05-26T11:09:40.207Z</time>
      </trkpt>
      <trkpt lat="42.05674" lon="19.13371">
        <ele>195.550132</ele>
        <time>2022-05-26T11:09:42.223Z</time>
      </trkpt>
      <trkpt lat="42.0568" lon="19.13381">
        <ele>194.877109</ele>
        <time>2022-05-26T11:09:44.203Z</time>
      </trkpt>
      <trkpt lat="42.05687" lon="19.13396">
        <ele>193.957156</ele>
        <time>2022-05-26T11:09:47.233Z</time>
      </trkpt>
      <trkpt lat="42.05693" lon="19.13409">
        <ele>193.241966</ele>
        <time>2022-05-26T11:09:49.210Z</time>
      </trkpt>
      <trkpt lat="42.05697" lon="19.13422">
        <ele>192.517753</ele>
        <time>2022-05-26T11:09:51.214Z</time>
      </trkpt>
      <trkpt lat="42.057" lon="19.13433">
        <ele>191.948321</ele>
        <time>2022-05-26T11:09:53.195Z</time>
      </trkpt>
      <trkpt lat="42.05704" lon="19.1345">
        <ele>191.257682</ele>
        <time>2022-05-26T11:09:56.216Z</time>
      </trkpt>
      <trkpt lat="42.05706" lon="19.13463">
        <ele>190.760073</ele>
        <time>2022-05-26T11:09:58.268Z</time>
      </trkpt>
      <trkpt lat="42.05707" lon="19.13477">
        <ele>190.206602</ele>
        <time>2022-05-26T11:10:01.202Z</time>
      </trkpt>
      <trkpt lat="42.05711" lon="19.13491">
        <ele>189.628444</ele>
        <time>2022-05-26T11:10:04.207Z</time>
      </trkpt>
      <trkpt lat="42.05715" lon="19.13506">
        <ele>188.986626</ele>
        <time>2022-05-26T11:10:07.205Z</time>
      </trkpt>
      <trkpt lat="42.05719" lon="19.13517">
        <ele>188.504896</ele>
        <time>2022-05-26T11:10:09.240Z</time>
      </trkpt>
      <trkpt lat="42.05724" lon="19.13528">
        <ele>188.020204</ele>
        <time>2022-05-26T11:10:11.214Z</time>
      </trkpt>
      <trkpt lat="42.05731" lon="19.13537">
        <ele>187.513892</ele>
        <time>2022-05-26T11:10:13.217Z</time>
      </trkpt>
      <trkpt lat="42.05738" lon="19.13545">
        <ele>187.032752</ele>
        <time>2022-05-26T11:10:15.202Z</time>
      </trkpt>
      <trkpt lat="42.05746" lon="19.13551">
        <ele>186.552667</ele>
        <time>2022-05-26T11:10:17.209Z</time>
      </trkpt>
      <trkpt lat="42.05755" lon="19.13555">
        <ele>186.062105</ele>
        <time>2022-05-26T11:10:19.207Z</time>
      </trkpt>
      <trkpt lat="42.05765" lon="19.13559">
        <ele>185.509776</ele>
        <time>2022-05-26T11:10:21.219Z</time>
      </trkpt>
      <trkpt lat="42.05777" lon="19.1356">
        <ele>184.895395</ele>
        <time>2022-05-26T11:10:23.200Z</time>
      </trkpt>
      <trkpt lat="42.05789" lon="19.1356">
        <ele>184.288016</ele>
        <time>2022-05-26T11:10:25.202Z</time>
      </trkpt>
      <trkpt lat="42.05799" lon="19.13561">
        <ele>183.76432</ele>
        <time>2022-05-26T11:10:27.206Z</time>
      </trkpt>
      <trkpt lat="42.05811" lon="19.1356">
        <ele>183.141116</ele>
        <time>2022-05-26T11:10:30.206Z</time>
      </trkpt>
      <trkpt lat="42.05823" lon="19.13561">
        <ele>182.510426</ele>
        <time>2022-05-26T11:10:33.204Z</time>
      </trkpt>
      <trkpt lat="42.05832" lon="19.13561">
        <ele>182.080195</ele>
        <time>2022-05-26T11:10:35.208Z</time>
      </trkpt>
      <trkpt lat="42.05844" lon="19.13562">
        <ele>181.503359</ele>
        <time>2022-05-26T11:10:38.209Z</time>
      </trkpt>
      <trkpt lat="42.05856" lon="19.13561">
        <ele>180.958743</ele>
        <time>2022-05-26T11:10:41.202Z</time>
      </trkpt>
      <trkpt lat="42.05868" lon="19.13557">
        <ele>180.355836</ele>
        <time>2022-05-26T11:10:44.213Z</time>
      </trkpt>
      <trkpt lat="42.05878" lon="19.13555">
        <ele>179.896066</ele>
        <time>2022-05-26T11:10:46.214Z</time>
      </trkpt>
      <trkpt lat="42.05888" lon="19.13551">
        <ele>179.420376</ele>
        <time>2022-05-26T11:10:48.233Z</time>
      </trkpt>
      <trkpt lat="42.05898" lon="19.13546">
        <ele>178.905982</ele>
        <time>2022-05-26T11:10:50.204Z</time>
      </trkpt>
      <trkpt lat="42.05908" lon="19.1354">
        <ele>178.393964</ele>
        <time>2022-05-26T11:10:52.209Z</time>
      </trkpt>
      <trkpt lat="42.05917" lon="19.13535">
        <ele>177.90074</ele>
        <time>2022-05-26T11:10:54.207Z</time>
      </trkpt>
      <trkpt lat="42.05926" lon="19.1353">
        <ele>177.450541</ele>
        <time>2022-05-26T11:10:56.200Z</time>
      </trkpt>
      <trkpt lat="42.05936" lon="19.13524">
        <ele>176.966007</ele>
        <time>2022-05-26T11:10:58.204Z</time>
      </trkpt>
      <trkpt lat="42.05946" lon="19.13517">
        <ele>176.436388</ele>
        <time>2022-05-26T11:11:00.211Z</time>
      </trkpt>
      <trkpt lat="42.05956" lon="19.13511">
        <ele>175.874219</ele>
        <time>2022-05-26T11:11:02.207Z</time>
      </trkpt>
      <trkpt lat="42.05968" lon="19.13503">
        <ele>175.283919</ele>
        <time>2022-05-26T11:11:04.212Z</time>
      </trkpt>
      <trkpt lat="42.05979" lon="19.13496">
        <ele>174.664241</ele>
        <time>2022-05-26T11:11:06.207Z</time>
      </trkpt>
      <trkpt lat="42.05989" lon="19.1349">
        <ele>174.141029</ele>
        <time>2022-05-26T11:11:08.203Z</time>
      </trkpt>
      <trkpt lat="42.06003" lon="19.1349">
        <ele>173.37003</ele>
        <time>2022-05-26T11:11:11.209Z</time>
      </trkpt>
      <trkpt lat="42.06015" lon="19.13492">
        <ele>172.741864</ele>
        <time>2022-05-26T11:11:13.205Z</time>
      </trkpt>
      <trkpt lat="42.06025" lon="19.13494">
        <ele>172.179086</ele>
        <time>2022-05-26T11:11:15.228Z</time>
      </trkpt>
      <trkpt lat="42.06037" lon="19.13497">
        <ele>171.489226</ele>
        <time>2022-05-26T11:11:18.210Z</time>
      </trkpt>
      <trkpt lat="42.06046" lon="19.13498">
        <ele>170.979375</ele>
        <time>2022-05-26T11:11:20.204Z</time>
      </trkpt>
      <trkpt lat="42.06057" lon="19.13501">
        <ele>170.382905</ele>
        <time>2022-05-26T11:11:22.223Z</time>
      </trkpt>
      <trkpt lat="42.06068" lon="19.13504">
        <ele>169.768568</ele>
        <time>2022-05-26T11:11:24.202Z</time>
      </trkpt>
      <trkpt lat="42.06079" lon="19.13507">
        <ele>169.132692</ele>
        <time>2022-05-26T11:11:26.211Z</time>
      </trkpt>
      <trkpt lat="42.0609" lon="19.1351">
        <ele>168.517685</ele>
        <time>2022-05-26T11:11:28.224Z</time>
      </trkpt>
      <trkpt lat="42.06101" lon="19.13513">
        <ele>167.908101</ele>
        <time>2022-05-26T11:11:30.204Z</time>
      </trkpt>
      <trkpt lat="42.06111" lon="19.13515">
        <ele>167.356207</ele>
        <time>2022-05-26T11:11:32.209Z</time>
      </trkpt>
      <trkpt lat="42.06121" lon="19.13516">
        <ele>166.775552</ele>
        <time>2022-05-26T11:11:34.204Z</time>
      </trkpt>
      <trkpt lat="42.06131" lon="19.13518">
        <ele>166.223007</ele>
        <time>2022-05-26T11:11:36.200Z</time>
      </trkpt>
      <trkpt lat="42.06141" lon="19.1352">
        <ele>165.705014</ele>
        <time>2022-05-26T11:11:38.207Z</time>
      </trkpt>
      <trkpt lat="42.0615" lon="19.13521">
        <ele>165.173694</ele>
        <time>2022-05-26T11:11:40.207Z</time>
      </trkpt>
      <trkpt lat="42.0616" lon="19.13524">
        <ele>164.629058</ele>
        <time>2022-05-26T11:11:42.208Z</time>
      </trkpt>
      <trkpt lat="42.0617" lon="19.13526">
        <ele>164.063315</ele>
        <time>2022-05-26T11:11:44.215Z</time>
      </trkpt>
      <trkpt lat="42.06181" lon="19.13526">
        <ele>163.434541</ele>
        <time>2022-05-26T11:11:46.212Z</time>
      </trkpt>
      <trkpt lat="42.06192" lon="19.13522">
        <ele>162.804482</ele>
        <time>2022-05-26T11:11:48.207Z</time>
      </trkpt>
      <trkpt lat="42.06203" lon="19.13511">
        <ele>162.056326</ele>
        <time>2022-05-26T11:11:51.200Z</time>
      </trkpt>
      <trkpt lat="42.06213" lon="19.135">
        <ele>161.318138</ele>
        <time>2022-05-26T11:11:54.202Z</time>
      </trkpt>
      <trkpt lat="42.06223" lon="19.13491">
        <ele>160.642942</ele>
        <time>2022-05-26T11:11:57.203Z</time>
      </trkpt>
      <trkpt lat="42.06233" lon="19.13479">
        <ele>159.877127</ele>
        <time>2022-05-26T11:12:00.205Z</time>
      </trkpt>
      <trkpt lat="42.06241" lon="19.1347">
        <ele>159.306249</ele>
        <time>2022-05-26T11:12:02.204Z</time>
      </trkpt>
      <trkpt lat="42.0625" lon="19.13457">
        <ele>158.560675</ele>
        <time>2022-05-26T11:12:05.221Z</time>
      </trkpt>
      <trkpt lat="42.06256" lon="19.13448">
        <ele>158.042805</ele>
        <time>2022-05-26T11:12:07.215Z</time>
      </trkpt>
      <trkpt lat="42.06264" lon="19.13438">
        <ele>157.444456</ele>
        <time>2022-05-26T11:12:09.205Z</time>
      </trkpt>
      <trkpt lat="42.06269" lon="19.13428">
        <ele>156.938593</ele>
        <time>2022-05-26T11:12:11.218Z</time>
      </trkpt>
      <trkpt lat="42.06275" lon="19.13418">
        <ele>156.399453</ele>
        <time>2022-05-26T11:12:13.200Z</time>
      </trkpt>
      <trkpt lat="42.06281" lon="19.13408">
        <ele>155.863561</ele>
        <time>2022-05-26T11:12:15.203Z</time>
      </trkpt>
      <trkpt lat="42.06287" lon="19.13397">
        <ele>155.304691</ele>
        <time>2022-05-26T11:12:17.205Z</time>
      </trkpt>
      <trkpt lat="42.06298" lon="19.13385">
        <ele>154.540152</ele>
        <time>2022-05-26T11:12:20.207Z</time>
      </trkpt>
      <trkpt lat="42.06306" lon="19.13379">
        <ele>154.0494</ele>
        <time>2022-05-26T11:12:22.208Z</time>
      </trkpt>
      <trkpt lat="42.06319" lon="19.13373">
        <ele>153.409762</ele>
        <time>2022-05-26T11:12:25.221Z</time>
      </trkpt>
      <trkpt lat="42.06329" lon="19.13373">
        <ele>152.92384</ele>
        <time>2022-05-26T11:12:27.214Z</time>
      </trkpt>
      <trkpt lat="42.06339" lon="19.13372">
        <ele>152.42809</ele>
        <time>2022-05-26T11:12:29.252Z</time>
      </trkpt>
      <trkpt lat="42.06349" lon="19.13371">
        <ele>151.968263</ele>
        <time>2022-05-26T11:12:31.218Z</time>
      </trkpt>
      <trkpt lat="42.06363" lon="19.13365">
        <ele>151.306435</ele>
        <time>2022-05-26T11:12:34.207Z</time>
      </trkpt>
      <trkpt lat="42.06371" lon="19.13356">
        <ele>150.786833</ele>
        <time>2022-05-26T11:12:36.229Z</time>
      </trkpt>
      <trkpt lat="42.06379" lon="19.13346">
        <ele>150.258964</ele>
        <time>2022-05-26T11:12:38.216Z</time>
      </trkpt>
      <trkpt lat="42.06387" lon="19.13337">
        <ele>149.789772</ele>
        <time>2022-05-26T11:12:40.247Z</time>
      </trkpt>
      <trkpt lat="42.06394" lon="19.13329">
        <ele>149.365658</ele>
        <time>2022-05-26T11:12:42.201Z</time>
      </trkpt>
      <trkpt lat="42.06405" lon="19.13322">
        <ele>148.791774</ele>
        <time>2022-05-26T11:12:45.207Z</time>
      </trkpt>
      <trkpt lat="42.06415" lon="19.13316">
        <ele>148.249553</ele>
        <time>2022-05-26T11:12:48.209Z</time>
      </trkpt>
      <trkpt lat="42.06426" lon="19.1331">
        <ele>147.694375</ele>
        <time>2022-05-26T11:12:51.205Z</time>
      </trkpt>
      <trkpt lat="42.06439" lon="19.13303">
        <ele>147.047847</ele>
        <time>2022-05-26T11:12:54.204Z</time>
      </trkpt>
      <trkpt lat="42.06449" lon="19.13301">
        <ele>146.57509</ele>
        <time>2022-05-26T11:12:56.230Z</time>
      </trkpt>
      <trkpt lat="42.06459" lon="19.13301">
        <ele>146.089106</ele>
        <time>2022-05-26T11:12:58.206Z</time>
      </trkpt>
      <trkpt lat="42.06469" lon="19.13302">
        <ele>145.500302</ele>
        <time>2022-05-26T11:13:00.209Z</time>
      </trkpt>
      <trkpt lat="42.06482" lon="19.13304">
        <ele>144.395865</ele>
        <time>2022-05-26T11:13:03.206Z</time>
      </trkpt>
      <trkpt lat="42.06494" lon="19.13302">
        <ele>143.352956</ele>
        <time>2022-05-26T11:13:06.233Z</time>
      </trkpt>
      <trkpt lat="42.06507" lon="19.13302">
        <ele>142.253632</ele>
        <time>2022-05-26T11:13:09.198Z</time>
      </trkpt>
      <trkpt lat="42.06516" lon="19.13302">
        <ele>141.413999</ele>
        <time>2022-05-26T11:13:11.208Z</time>
      </trkpt>
      <trkpt lat="42.06529" lon="19.13303">
        <ele>140.295821</ele>
        <time>2022-05-26T11:13:13.198Z</time>
      </trkpt>
      <trkpt lat="42.0654" lon="19.13306">
        <ele>139.311204</ele>
        <time>2022-05-26T11:13:15.198Z</time>
      </trkpt>
      <trkpt lat="42.06551" lon="19.13315">
        <ele>138.191197</ele>
        <time>2022-05-26T11:13:18.201Z</time>
      </trkpt>
      <trkpt lat="42.06561" lon="19.13321">
        <ele>137.30432</ele>
        <time>2022-05-26T11:13:20.211Z</time>
      </trkpt>
      <trkpt lat="42.0657" lon="19.13321">
        <ele>136.50608</ele>
        <time>2022-05-26T11:13:22.201Z</time>
      </trkpt>
      <trkpt lat="42.06582" lon="19.13317">
        <ele>135.432933</ele>
        <time>2022-05-26T11:13:24.206Z</time>
      </trkpt>
      <trkpt lat="42.06594" lon="19.13312">
        <ele>134.327507</ele>
        <time>2022-05-26T11:13:26.204Z</time>
      </trkpt>
      <trkpt lat="42.06606" lon="19.13309">
        <ele>133.307685</ele>
        <time>2022-05-26T11:13:28.199Z</time>
      </trkpt>
      <trkpt lat="42.06615" lon="19.13309">
        <ele>132.485581</ele>
        <time>2022-05-26T11:13:30.208Z</time>
      </trkpt>
      <trkpt lat="42.06626" lon="19.13312">
        <ele>131.524102</ele>
        <time>2022-05-26T11:13:33.199Z</time>
      </trkpt>
      <trkpt lat="42.06638" lon="19.13316">
        <ele>130.444381</ele>
        <time>2022-05-26T11:13:36.200Z</time>
      </trkpt>
      <trkpt lat="42.06647" lon="19.13318">
        <ele>129.966395</ele>
        <time>2022-05-26T11:13:38.203Z</time>
      </trkpt>
      <trkpt lat="42.06658" lon="19.13321">
        <ele>129.578867</ele>
        <time>2022-05-26T11:13:40.204Z</time>
      </trkpt>
      <trkpt lat="42.06668" lon="19.13322">
        <ele>129.208738</ele>
        <time>2022-05-26T11:13:42.206Z</time>
      </trkpt>
      <trkpt lat="42.06679" lon="19.13323">
        <ele>128.825462</ele>
        <time>2022-05-26T11:13:44.201Z</time>
      </trkpt>
      <trkpt lat="42.06688" lon="19.13324">
        <ele>128.487098</ele>
        <time>2022-05-26T11:13:46.212Z</time>
      </trkpt>
      <trkpt lat="42.06701" lon="19.13321">
        <ele>128.027499</ele>
        <time>2022-05-26T11:13:48.204Z</time>
      </trkpt>
      <trkpt lat="42.06714" lon="19.13317">
        <ele>127.552125</ele>
        <time>2022-05-26T11:13:50.207Z</time>
      </trkpt>
      <trkpt lat="42.06727" lon="19.13309">
        <ele>127.053548</ele>
        <time>2022-05-26T11:13:52.237Z</time>
      </trkpt>
      <trkpt lat="42.06739" lon="19.13301">
        <ele>126.558413</ele>
        <time>2022-05-26T11:13:54.203Z</time>
      </trkpt>
      <trkpt lat="42.06751" lon="19.13294">
        <ele>126.094829</ele>
        <time>2022-05-26T11:13:56.213Z</time>
      </trkpt>
      <trkpt lat="42.06761" lon="19.13288">
        <ele>125.701741</ele>
        <time>2022-05-26T11:13:58.219Z</time>
      </trkpt>
      <trkpt lat="42.06771" lon="19.13284">
        <ele>125.338934</ele>
        <time>2022-05-26T11:14:00.197Z</time>
      </trkpt>
      <trkpt lat="42.06782" lon="19.13281">
        <ele>124.930374</ele>
        <time>2022-05-26T11:14:02.205Z</time>
      </trkpt>
      <trkpt lat="42.06794" lon="19.1328">
        <ele>124.482014</ele>
        <time>2022-05-26T11:14:05.211Z</time>
      </trkpt>
      <trkpt lat="42.06805" lon="19.13283">
        <ele>124.098529</ele>
        <time>2022-05-26T11:14:08.201Z</time>
      </trkpt>
      <trkpt lat="42.06814" lon="19.13286">
        <ele>123.755757</ele>
        <time>2022-05-26T11:14:12.206Z</time>
      </trkpt>
      <trkpt lat="42.06824" lon="19.1329">
        <ele>124.144937</ele>
        <time>2022-05-26T11:14:16.207Z</time>
      </trkpt>
      <trkpt lat="42.06837" lon="19.13289">
        <ele>124.617328</ele>
        <time>2022-05-26T11:14:20.200Z</time>
      </trkpt>
      <trkpt lat="42.06846" lon="19.13284">
        <ele>124.986176</ele>
        <time>2022-05-26T11:14:23.199Z</time>
      </trkpt>
      <trkpt lat="42.06854" lon="19.13275">
        <ele>125.38087</ele>
        <time>2022-05-26T11:14:27.197Z</time>
      </trkpt>
      <trkpt lat="42.06861" lon="19.13265">
        <ele>125.764053</ele>
        <time>2022-05-26T11:14:33.204Z</time>
      </trkpt>
      <trkpt lat="42.06869" lon="19.13257">
        <ele>126.128996</ele>
        <time>2022-05-26T11:14:37.195Z</time>
      </trkpt>
      <trkpt lat="42.06877" lon="19.13248">
        <ele>126.495193</ele>
        <time>2022-05-26T11:14:41.215Z</time>
      </trkpt>
      <trkpt lat="42.06885" lon="19.13238">
        <ele>126.918929</ele>
        <time>2022-05-26T11:14:45.200Z</time>
      </trkpt>
      <trkpt lat="42.06892" lon="19.13229">
        <ele>127.272209</ele>
        <time>2022-05-26T11:14:48.229Z</time>
      </trkpt>
      <trkpt lat="42.069" lon="19.13219">
        <ele>127.679862</ele>
        <time>2022-05-26T11:14:52.203Z</time>
      </trkpt>
      <trkpt lat="42.06906" lon="19.13209">
        <ele>128.04053</ele>
        <time>2022-05-26T11:14:55.197Z</time>
      </trkpt>
      <trkpt lat="42.06913" lon="19.13199">
        <ele>128.41455</ele>
        <time>2022-05-26T11:14:58.199Z</time>
      </trkpt>
      <trkpt lat="42.0692" lon="19.13191">
        <ele>128.751115</ele>
        <time>2022-05-26T11:15:01.201Z</time>
      </trkpt>
      <trkpt lat="42.06927" lon="19.13181">
        <ele>129.147669</ele>
        <time>2022-05-26T11:15:05.201Z</time>
      </trkpt>
      <trkpt lat="42.06935" lon="19.1317">
        <ele>129.569466</ele>
        <time>2022-05-26T11:15:10.195Z</time>
      </trkpt>
      <trkpt lat="42.06941" lon="19.1316">
        <ele>129.929366</ele>
        <time>2022-05-26T11:15:14.204Z</time>
      </trkpt>
      <trkpt lat="42.06948" lon="19.13151">
        <ele>130.265464</ele>
        <time>2022-05-26T11:15:18.204Z</time>
      </trkpt>
      <trkpt lat="42.06955" lon="19.13144">
        <ele>130.353479</ele>
        <time>2022-05-26T11:15:22.198Z</time>
      </trkpt>
      <trkpt lat="42.06963" lon="19.13138">
        <ele>130.170078</ele>
        <time>2022-05-26T11:15:25.198Z</time>
      </trkpt>
      <trkpt lat="42.06976" lon="19.13131">
        <ele>129.894984</ele>
        <time>2022-05-26T11:15:28.233Z</time>
      </trkpt>
      <trkpt lat="42.06987" lon="19.13126">
        <ele>129.667562</ele>
        <time>2022-05-26T11:15:30.197Z</time>
      </trkpt>
      <trkpt lat="42.06997" lon="19.13121">
        <ele>129.441612</ele>
        <time>2022-05-26T11:15:32.212Z</time>
      </trkpt>
      <trkpt lat="42.07008" lon="19.13118">
        <ele>129.232732</ele>
        <time>2022-05-26T11:15:34.200Z</time>
      </trkpt>
      <trkpt lat="42.07017" lon="19.13115">
        <ele>129.038304</ele>
        <time>2022-05-26T11:15:36.210Z</time>
      </trkpt>
      <trkpt lat="42.07027" lon="19.13114">
        <ele>128.836324</ele>
        <time>2022-05-26T11:15:39.223Z</time>
      </trkpt>
      <trkpt lat="42.07039" lon="19.13117">
        <ele>128.595754</ele>
        <time>2022-05-26T11:15:43.199Z</time>
      </trkpt>
      <trkpt lat="42.0705" lon="19.13121">
        <ele>128.363254</ele>
        <time>2022-05-26T11:15:46.208Z</time>
      </trkpt>
      <trkpt lat="42.0706" lon="19.13122">
        <ele>128.164234</ele>
        <time>2022-05-26T11:15:48.222Z</time>
      </trkpt>
      <trkpt lat="42.0707" lon="19.1312">
        <ele>127.967571</ele>
        <time>2022-05-26T11:15:50.204Z</time>
      </trkpt>
      <trkpt lat="42.0708" lon="19.13117">
        <ele>127.768919</ele>
        <time>2022-05-26T11:15:52.203Z</time>
      </trkpt>
      <trkpt lat="42.0709" lon="19.13115">
        <ele>127.555665</ele>
        <time>2022-05-26T11:15:54.213Z</time>
      </trkpt>
      <trkpt lat="42.071" lon="19.13114">
        <ele>127.36873</ele>
        <time>2022-05-26T11:15:56.216Z</time>
      </trkpt>
      <trkpt lat="42.07109" lon="19.13113">
        <ele>127.187596</ele>
        <time>2022-05-26T11:15:58.207Z</time>
      </trkpt>
      <trkpt lat="42.07118" lon="19.13113">
        <ele>126.993663</ele>
        <time>2022-05-26T11:16:00.197Z</time>
      </trkpt>
      <trkpt lat="42.07128" lon="19.13113">
        <ele>126.677441</ele>
        <time>2022-05-26T11:16:02.208Z</time>
      </trkpt>
      <trkpt lat="42.07141" lon="19.13115">
        <ele>125.8891</ele>
        <time>2022-05-26T11:16:05.200Z</time>
      </trkpt>
      <trkpt lat="42.07154" lon="19.13118">
        <ele>125.087113</ele>
        <time>2022-05-26T11:16:08.208Z</time>
      </trkpt>
      <trkpt lat="42.07163" lon="19.1312">
        <ele>124.525479</ele>
        <time>2022-05-26T11:16:10.210Z</time>
      </trkpt>
      <trkpt lat="42.07172" lon="19.13121">
        <ele>123.957099</ele>
        <time>2022-05-26T11:16:12.197Z</time>
      </trkpt>
      <trkpt lat="42.07181" lon="19.1312">
        <ele>123.38607</ele>
        <time>2022-05-26T11:16:14.222Z</time>
      </trkpt>
      <trkpt lat="42.07191" lon="19.13118">
        <ele>122.785084</ele>
        <time>2022-05-26T11:16:16.214Z</time>
      </trkpt>
      <trkpt lat="42.07201" lon="19.13116">
        <ele>122.158215</ele>
        <time>2022-05-26T11:16:18.212Z</time>
      </trkpt>
      <trkpt lat="42.07211" lon="19.13114">
        <ele>121.52524</ele>
        <time>2022-05-26T11:16:20.201Z</time>
      </trkpt>
      <trkpt lat="42.07221" lon="19.13111">
        <ele>120.852578</ele>
        <time>2022-05-26T11:16:22.209Z</time>
      </trkpt>
      <trkpt lat="42.07232" lon="19.13109">
        <ele>120.181485</ele>
        <time>2022-05-26T11:16:24.205Z</time>
      </trkpt>
      <trkpt lat="42.07243" lon="19.13106">
        <ele>119.482822</ele>
        <time>2022-05-26T11:16:26.197Z</time>
      </trkpt>
      <trkpt lat="42.07254" lon="19.13103">
        <ele>118.810765</ele>
        <time>2022-05-26T11:16:28.202Z</time>
      </trkpt>
      <trkpt lat="42.07264" lon="19.131">
        <ele>118.181529</ele>
        <time>2022-05-26T11:16:30.213Z</time>
      </trkpt>
      <trkpt lat="42.07274" lon="19.13099">
        <ele>117.541917</ele>
        <time>2022-05-26T11:16:32.195Z</time>
      </trkpt>
      <trkpt lat="42.07285" lon="19.13101">
        <ele>116.858763</ele>
        <time>2022-05-26T11:16:34.212Z</time>
      </trkpt>
      <trkpt lat="42.07295" lon="19.13106">
        <ele>116.221995</ele>
        <time>2022-05-26T11:16:36.203Z</time>
      </trkpt>
      <trkpt lat="42.07303" lon="19.13113">
        <ele>115.608653</ele>
        <time>2022-05-26T11:16:38.202Z</time>
      </trkpt>
      <trkpt lat="42.07312" lon="19.13122">
        <ele>115.01994</ele>
        <time>2022-05-26T11:16:40.198Z</time>
      </trkpt>
      <trkpt lat="42.07324" lon="19.13128">
        <ele>114.358328</ele>
        <time>2022-05-26T11:16:42.199Z</time>
      </trkpt>
      <trkpt lat="42.07335" lon="19.13124">
        <ele>113.783972</ele>
        <time>2022-05-26T11:16:44.234Z</time>
      </trkpt>
      <trkpt lat="42.07343" lon="19.13112">
        <ele>113.160799</ele>
        <time>2022-05-26T11:16:46.206Z</time>
      </trkpt>
      <trkpt lat="42.07349" lon="19.13098">
        <ele>112.534731</ele>
        <time>2022-05-26T11:16:48.199Z</time>
      </trkpt>
      <trkpt lat="42.07353" lon="19.13085">
        <ele>111.997251</ele>
        <time>2022-05-26T11:16:50.202Z</time>
      </trkpt>
      <trkpt lat="42.07355" lon="19.13072">
        <ele>111.473392</ele>
        <time>2022-05-26T11:16:52.211Z</time>
      </trkpt>
      <trkpt lat="42.07357" lon="19.1306">
        <ele>111.002091</ele>
        <time>2022-05-26T11:16:54.215Z</time>
      </trkpt>
      <trkpt lat="42.07358" lon="19.13047">
        <ele>110.50229</ele>
        <time>2022-05-26T11:16:56.210Z</time>
      </trkpt>
      <trkpt lat="42.07361" lon="19.13034">
        <ele>109.969772</ele>
        <time>2022-05-26T11:16:58.215Z</time>
      </trkpt>
      <trkpt lat="42.07366" lon="19.13021">
        <ele>109.423455</ele>
        <time>2022-05-26T11:17:00.214Z</time>
      </trkpt>
      <trkpt lat="42.07371" lon="19.13009">
        <ele>108.857337</ele>
        <time>2022-05-26T11:17:02.203Z</time>
      </trkpt>
      <trkpt lat="42.07378" lon="19.12998">
        <ele>108.306242</ele>
        <time>2022-05-26T11:17:04.204Z</time>
      </trkpt>
      <trkpt lat="42.07386" lon="19.12989">
        <ele>107.748655</ele>
        <time>2022-05-26T11:17:06.228Z</time>
      </trkpt>
      <trkpt lat="42.07396" lon="19.12983">
        <ele>107.207252</ele>
        <time>2022-05-26T11:17:08.203Z</time>
      </trkpt>
      <trkpt lat="42.07406" lon="19.12982">
        <ele>106.659181</ele>
        <time>2022-05-26T11:17:10.251Z</time>
      </trkpt>
      <trkpt lat="42.07417" lon="19.12986">
        <ele>106.169773</ele>
        <time>2022-05-26T11:17:13.210Z</time>
      </trkpt>
      <trkpt lat="42.07426" lon="19.12988">
        <ele>105.869178</ele>
        <time>2022-05-26T11:17:15.203Z</time>
      </trkpt>
      <trkpt lat="42.07437" lon="19.12992">
        <ele>105.485493</ele>
        <time>2022-05-26T11:17:17.232Z</time>
      </trkpt>
      <trkpt lat="42.07449" lon="19.12995">
        <ele>105.099146</ele>
        <time>2022-05-26T11:17:19.197Z</time>
      </trkpt>
      <trkpt lat="42.0746" lon="19.12998">
        <ele>104.70233</ele>
        <time>2022-05-26T11:17:21.205Z</time>
      </trkpt>
      <trkpt lat="42.07474" lon="19.12999">
        <ele>104.255646</ele>
        <time>2022-05-26T11:17:23.224Z</time>
      </trkpt>
      <trkpt lat="42.07487" lon="19.12997">
        <ele>103.809873</ele>
        <time>2022-05-26T11:17:25.197Z</time>
      </trkpt>
      <trkpt lat="42.075" lon="19.12994">
        <ele>103.362295</ele>
        <time>2022-05-26T11:17:27.199Z</time>
      </trkpt>
      <trkpt lat="42.07513" lon="19.12992">
        <ele>102.944125</ele>
        <time>2022-05-26T11:17:29.249Z</time>
      </trkpt>
      <trkpt lat="42.07522" lon="19.12987">
        <ele>102.603481</ele>
        <time>2022-05-26T11:17:31.199Z</time>
      </trkpt>
      <trkpt lat="42.07531" lon="19.1298">
        <ele>102.26769</ele>
        <time>2022-05-26T11:17:33.200Z</time>
      </trkpt>
      <trkpt lat="42.07539" lon="19.12974">
        <ele>101.956516</ele>
        <time>2022-05-26T11:17:35.211Z</time>
      </trkpt>
      <trkpt lat="42.0755" lon="19.12965">
        <ele>101.534839</ele>
        <time>2022-05-26T11:17:38.213Z</time>
      </trkpt>
      <trkpt lat="42.0756" lon="19.12956">
        <ele>101.144654</ele>
        <time>2022-05-26T11:17:41.201Z</time>
      </trkpt>
      <trkpt lat="42.07572" lon="19.12952">
        <ele>100.743659</ele>
        <time>2022-05-26T11:17:44.220Z</time>
      </trkpt>
      <trkpt lat="42.07582" lon="19.12953">
        <ele>100.40424</ele>
        <time>2022-05-26T11:17:47.199Z</time>
      </trkpt>
      <trkpt lat="42.07593" lon="19.12955">
        <ele>100.162086</ele>
        <time>2022-05-26T11:17:51.217Z</time>
      </trkpt>
      <trkpt lat="42.07604" lon="19.12957">
        <ele>99.936094</ele>
        <time>2022-05-26T11:17:54.200Z</time>
      </trkpt>
      <trkpt lat="42.07616" lon="19.12957">
        <ele>99.709449</ele>
        <time>2022-05-26T11:17:57.195Z</time>
      </trkpt>
      <trkpt lat="42.07628" lon="19.12956">
        <ele>99.453884</ele>
        <time>2022-05-26T11:18:00.214Z</time>
      </trkpt>
      <trkpt lat="42.07641" lon="19.12949">
        <ele>99.176058</ele>
        <time>2022-05-26T11:18:03.204Z</time>
      </trkpt>
      <trkpt lat="42.07651" lon="19.12938">
        <ele>98.917686</ele>
        <time>2022-05-26T11:18:06.205Z</time>
      </trkpt>
      <trkpt lat="42.07659" lon="19.12927">
        <ele>98.694294</ele>
        <time>2022-05-26T11:18:09.198Z</time>
      </trkpt>
      <trkpt lat="42.07667" lon="19.12916">
        <ele>98.454222</ele>
        <time>2022-05-26T11:18:12.206Z</time>
      </trkpt>
      <trkpt lat="42.07675" lon="19.12909">
        <ele>98.273678</ele>
        <time>2022-05-26T11:18:14.223Z</time>
      </trkpt>
      <trkpt lat="42.07686" lon="19.12901">
        <ele>98.018172</ele>
        <time>2022-05-26T11:18:17.206Z</time>
      </trkpt>
      <trkpt lat="42.07697" lon="19.12895">
        <ele>97.776418</ele>
        <time>2022-05-26T11:18:20.227Z</time>
      </trkpt>
      <trkpt lat="42.07706" lon="19.12892">
        <ele>97.591469</ele>
        <time>2022-05-26T11:18:22.200Z</time>
      </trkpt>
      <trkpt lat="42.07716" lon="19.12887">
        <ele>97.375878</ele>
        <time>2022-05-26T11:18:24.249Z</time>
      </trkpt>
      <trkpt lat="42.07728" lon="19.12883">
        <ele>97.140206</ele>
        <time>2022-05-26T11:18:26.232Z</time>
      </trkpt>
      <trkpt lat="42.07738" lon="19.1288">
        <ele>96.924335</ele>
        <time>2022-05-26T11:18:28.199Z</time>
      </trkpt>
      <trkpt lat="42.07748" lon="19.1288">
        <ele>96.712335</ele>
        <time>2022-05-26T11:18:30.201Z</time>
      </trkpt>
      <trkpt lat="42.07758" lon="19.12882">
        <ele>96.426987</ele>
        <time>2022-05-26T11:18:32.212Z</time>
      </trkpt>
      <trkpt lat="42.07766" lon="19.12887">
        <ele>96.160498</ele>
        <time>2022-05-26T11:18:34.203Z</time>
      </trkpt>
      <trkpt lat="42.07774" lon="19.12899">
        <ele>95.817435</ele>
        <time>2022-05-26T11:18:37.222Z</time>
      </trkpt>
      <trkpt lat="42.07782" lon="19.12913">
        <ele>95.428558</ele>
        <time>2022-05-26T11:18:40.196Z</time>
      </trkpt>
      <trkpt lat="42.07787" lon="19.12928">
        <ele>95.051847</ele>
        <time>2022-05-26T11:18:43.199Z</time>
      </trkpt>
      <trkpt lat="42.07794" lon="19.12944">
        <ele>94.671589</ele>
        <time>2022-05-26T11:18:46.197Z</time>
      </trkpt>
      <trkpt lat="42.07802" lon="19.12957">
        <ele>94.297769</ele>
        <time>2022-05-26T11:18:49.199Z</time>
      </trkpt>
      <trkpt lat="42.0781" lon="19.12963">
        <ele>94.021963</ele>
        <time>2022-05-26T11:18:51.198Z</time>
      </trkpt>
      <trkpt lat="42.07819" lon="19.12967">
        <ele>93.729267</ele>
        <time>2022-05-26T11:18:53.223Z</time>
      </trkpt>
      <trkpt lat="42.07829" lon="19.12971">
        <ele>93.425058</ele>
        <time>2022-05-26T11:18:55.197Z</time>
      </trkpt>
      <trkpt lat="42.07839" lon="19.12973">
        <ele>93.130846</ele>
        <time>2022-05-26T11:18:57.200Z</time>
      </trkpt>
      <trkpt lat="42.07849" lon="19.12975">
        <ele>92.839859</ele>
        <time>2022-05-26T11:18:59.222Z</time>
      </trkpt>
      <trkpt lat="42.07862" lon="19.12976">
        <ele>92.465691</ele>
        <time>2022-05-26T11:19:02.199Z</time>
      </trkpt>
      <trkpt lat="42.07871" lon="19.12975">
        <ele>92.18607</ele>
        <time>2022-05-26T11:19:04.197Z</time>
      </trkpt>
      <trkpt lat="42.07881" lon="19.12973">
        <ele>91.88792</ele>
        <time>2022-05-26T11:19:06.199Z</time>
      </trkpt>
      <trkpt lat="42.07892" lon="19.1297">
        <ele>91.564687</ele>
        <time>2022-05-26T11:19:08.203Z</time>
      </trkpt>
      <trkpt lat="42.07904" lon="19.12967">
        <ele>91.240112</ele>
        <time>2022-05-26T11:19:10.204Z</time>
      </trkpt>
      <trkpt lat="42.07915" lon="19.12963">
        <ele>90.936352</ele>
        <time>2022-05-26T11:19:12.210Z</time>
      </trkpt>
      <trkpt lat="42.07926" lon="19.12958">
        <ele>90.641309</ele>
        <time>2022-05-26T11:19:14.208Z</time>
      </trkpt>
      <trkpt lat="42.07937" lon="19.12953">
        <ele>90.330579</ele>
        <time>2022-05-26T11:19:16.202Z</time>
      </trkpt>
      <trkpt lat="42.07948" lon="19.12946">
        <ele>90.005126</ele>
        <time>2022-05-26T11:19:18.204Z</time>
      </trkpt>
      <trkpt lat="42.0796" lon="19.1294">
        <ele>89.68619</ele>
        <time>2022-05-26T11:19:20.203Z</time>
      </trkpt>
      <trkpt lat="42.07971" lon="19.12934">
        <ele>89.377914</ele>
        <time>2022-05-26T11:19:22.215Z</time>
      </trkpt>
      <trkpt lat="42.07983" lon="19.12928">
        <ele>89.024898</ele>
        <time>2022-05-26T11:19:25.211Z</time>
      </trkpt>
      <trkpt lat="42.07994" lon="19.12922">
        <ele>88.722215</ele>
        <time>2022-05-26T11:19:28.201Z</time>
      </trkpt>
      <trkpt lat="42.08006" lon="19.12917">
        <ele>88.396001</ele>
        <time>2022-05-26T11:19:31.202Z</time>
      </trkpt>
      <trkpt lat="42.08015" lon="19.12912">
        <ele>88.12718</ele>
        <time>2022-05-26T11:19:33.232Z</time>
      </trkpt>
      <trkpt lat="42.08026" lon="19.12907">
        <ele>87.826512</ele>
        <time>2022-05-26T11:19:35.226Z</time>
      </trkpt>
      <trkpt lat="42.08037" lon="19.12902">
        <ele>87.51959</ele>
        <time>2022-05-26T11:19:37.200Z</time>
      </trkpt>
      <trkpt lat="42.08048" lon="19.12897">
        <ele>87.225162</ele>
        <time>2022-05-26T11:19:39.209Z</time>
      </trkpt>
      <trkpt lat="42.08057" lon="19.12893">
        <ele>86.963645</ele>
        <time>2022-05-26T11:19:41.222Z</time>
      </trkpt>
      <trkpt lat="42.08066" lon="19.12891">
        <ele>86.752411</ele>
        <time>2022-05-26T11:19:43.198Z</time>
      </trkpt>
      <trkpt lat="42.08076" lon="19.12893">
        <ele>86.745855</ele>
        <time>2022-05-26T11:19:45.202Z</time>
      </trkpt>
      <trkpt lat="42.08085" lon="19.12894">
        <ele>86.739257</ele>
        <time>2022-05-26T11:19:47.254Z</time>
      </trkpt>
      <trkpt lat="42.08095" lon="19.12896">
        <ele>86.732527</ele>
        <time>2022-05-26T11:19:49.197Z</time>
      </trkpt>
      <trkpt lat="42.08104" lon="19.12898">
        <ele>86.725721</ele>
        <time>2022-05-26T11:19:51.208Z</time>
      </trkpt>
      <trkpt lat="42.08113" lon="19.12901">
        <ele>86.719346</ele>
        <time>2022-05-26T11:19:53.205Z</time>
      </trkpt>
      <trkpt lat="42.08123" lon="19.12904">
        <ele>86.711899</ele>
        <time>2022-05-26T11:19:55.200Z</time>
      </trkpt>
      <trkpt lat="42.08134" lon="19.12907">
        <ele>86.70454</ele>
        <time>2022-05-26T11:19:57.196Z</time>
      </trkpt>
      <trkpt lat="42.08144" lon="19.1291">
        <ele>86.697186</ele>
        <time>2022-05-26T11:19:59.197Z</time>
      </trkpt>
      <trkpt lat="42.08154" lon="19.12914">
        <ele>86.689957</ele>
        <time>2022-05-26T11:20:01.213Z</time>
      </trkpt>
      <trkpt lat="42.08163" lon="19.12918">
        <ele>86.682818</ele>
        <time>2022-05-26T11:20:03.203Z</time>
      </trkpt>
      <trkpt lat="42.08173" lon="19.12922">
        <ele>86.675614</ele>
        <time>2022-05-26T11:20:05.198Z</time>
      </trkpt>
      <trkpt lat="42.08182" lon="19.12927">
        <ele>86.668855</ele>
        <time>2022-05-26T11:20:07.193Z</time>
      </trkpt>
      <trkpt lat="42.08191" lon="19.12931">
        <ele>86.661948</ele>
        <time>2022-05-26T11:20:09.231Z</time>
      </trkpt>
      <trkpt lat="42.08201" lon="19.12935">
        <ele>86.655226</ele>
        <time>2022-05-26T11:20:11.207Z</time>
      </trkpt>
      <trkpt lat="42.08209" lon="19.12939">
        <ele>86.648803</ele>
        <time>2022-05-26T11:20:13.204Z</time>
      </trkpt>
      <trkpt lat="42.08221" lon="19.12944">
        <ele>86.640034</ele>
        <time>2022-05-26T11:20:16.204Z</time>
      </trkpt>
      <trkpt lat="42.08232" lon="19.12948">
        <ele>86.632357</ele>
        <time>2022-05-26T11:20:19.199Z</time>
      </trkpt>
      <trkpt lat="42.08243" lon="19.12954">
        <ele>86.713774</ele>
        <time>2022-05-26T11:20:22.202Z</time>
      </trkpt>
      <trkpt lat="42.08251" lon="19.12963">
        <ele>86.899412</ele>
        <time>2022-05-26T11:20:25.206Z</time>
      </trkpt>
      <trkpt lat="42.08259" lon="19.12972">
        <ele>87.09324</ele>
        <time>2022-05-26T11:20:28.211Z</time>
      </trkpt>
      <trkpt lat="42.08266" lon="19.12982">
        <ele>87.291366</ele>
        <time>2022-05-26T11:20:31.200Z</time>
      </trkpt>
      <trkpt lat="42.08273" lon="19.12992">
        <ele>87.477055</ele>
        <time>2022-05-26T11:20:34.196Z</time>
      </trkpt>
      <trkpt lat="42.08279" lon="19.13001">
        <ele>87.649053</ele>
        <time>2022-05-26T11:20:37.198Z</time>
      </trkpt>
      <trkpt lat="42.08286" lon="19.13013">
        <ele>87.855187</ele>
        <time>2022-05-26T11:20:41.202Z</time>
      </trkpt>
      <trkpt lat="42.08293" lon="19.13022">
        <ele>88.034826</ele>
        <time>2022-05-26T11:20:45.203Z</time>
      </trkpt>
      <trkpt lat="42.08298" lon="19.13033">
        <ele>88.208511</ele>
        <time>2022-05-26T11:20:48.218Z</time>
      </trkpt>
      <trkpt lat="42.08305" lon="19.13046">
        <ele>88.435246</ele>
        <time>2022-05-26T11:20:52.208Z</time>
      </trkpt>
      <trkpt lat="42.08311" lon="19.13056">
        <ele>88.608634</ele>
        <time>2022-05-26T11:20:55.227Z</time>
      </trkpt>
      <trkpt lat="42.08316" lon="19.13067">
        <ele>88.795361</ele>
        <time>2022-05-26T11:20:58.210Z</time>
      </trkpt>
      <trkpt lat="42.08323" lon="19.13076">
        <ele>88.977753</ele>
        <time>2022-05-26T11:21:01.219Z</time>
      </trkpt>
      <trkpt lat="42.08332" lon="19.13088">
        <ele>89.206064</ele>
        <time>2022-05-26T11:21:05.203Z</time>
      </trkpt>
      <trkpt lat="42.0834" lon="19.13097">
        <ele>89.411263</ele>
        <time>2022-05-26T11:21:09.199Z</time>
      </trkpt>
      <trkpt lat="42.08348" lon="19.13104">
        <ele>89.586927</ele>
        <time>2022-05-26T11:21:12.197Z</time>
      </trkpt>
      <trkpt lat="42.08358" lon="19.13111">
        <ele>89.797487</ele>
        <time>2022-05-26T11:21:15.197Z</time>
      </trkpt>
      <trkpt lat="42.08368" lon="19.13117">
        <ele>89.972443</ele>
        <time>2022-05-26T11:21:18.209Z</time>
      </trkpt>
      <trkpt lat="42.08377" lon="19.13123">
        <ele>89.860116</ele>
        <time>2022-05-26T11:21:21.205Z</time>
      </trkpt>
      <trkpt lat="42.08385" lon="19.13129">
        <ele>89.75684</ele>
        <time>2022-05-26T11:21:24.216Z</time>
      </trkpt>
      <trkpt lat="42.08394" lon="19.13136">
        <ele>89.640775</ele>
        <time>2022-05-26T11:21:27.199Z</time>
      </trkpt>
      <trkpt lat="42.08404" lon="19.13142">
        <ele>89.522185</ele>
        <time>2022-05-26T11:21:30.225Z</time>
      </trkpt>
      <trkpt lat="42.08413" lon="19.13147">
        <ele>89.412084</ele>
        <time>2022-05-26T11:21:33.201Z</time>
      </trkpt>
      <trkpt lat="42.08422" lon="19.13154">
        <ele>89.293413</ele>
        <time>2022-05-26T11:21:36.223Z</time>
      </trkpt>
      <trkpt lat="42.08434" lon="19.13162">
        <ele>89.147564</ele>
        <time>2022-05-26T11:21:39.209Z</time>
      </trkpt>
      <trkpt lat="42.08443" lon="19.13167">
        <ele>89.040481</ele>
        <time>2022-05-26T11:21:41.197Z</time>
      </trkpt>
      <trkpt lat="42.08451" lon="19.13173">
        <ele>88.934819</ele>
        <time>2022-05-26T11:21:43.207Z</time>
      </trkpt>
      <trkpt lat="42.0846" lon="19.13177">
        <ele>88.828898</ele>
        <time>2022-05-26T11:21:45.205Z</time>
      </trkpt>
      <trkpt lat="42.08469" lon="19.13181">
        <ele>88.726693</ele>
        <time>2022-05-26T11:21:47.221Z</time>
      </trkpt>
      <trkpt lat="42.08478" lon="19.13183">
        <ele>88.620095</ele>
        <time>2022-05-26T11:21:49.208Z</time>
      </trkpt>
      <trkpt lat="42.08487" lon="19.13184">
        <ele>88.516067</ele>
        <time>2022-05-26T11:21:51.207Z</time>
      </trkpt>
      <trkpt lat="42.085" lon="19.1318">
        <ele>88.373984</ele>
        <time>2022-05-26T11:21:54.196Z</time>
      </trkpt>
      <trkpt lat="42.0851" lon="19.13176">
        <ele>88.252437</ele>
        <time>2022-05-26T11:21:57.206Z</time>
      </trkpt>
      <trkpt lat="42.08519" lon="19.13171">
        <ele>88.148316</ele>
        <time>2022-05-26T11:22:00.213Z</time>
      </trkpt>
      <trkpt lat="42.08528" lon="19.13164">
        <ele>88.027642</ele>
        <time>2022-05-26T11:22:04.205Z</time>
      </trkpt>
      <trkpt lat="42.08534" lon="19.13153">
        <ele>88.068576</ele>
        <time>2022-05-26T11:22:08.197Z</time>
      </trkpt>
      <trkpt lat="42.08538" lon="19.13139">
        <ele>88.28699</ele>
        <time>2022-05-26T11:22:12.206Z</time>
      </trkpt>
      <trkpt lat="42.0854" lon="19.13127">
        <ele>88.467302</ele>
        <time>2022-05-26T11:22:15.199Z</time>
      </trkpt>
      <trkpt lat="42.08544" lon="19.13114">
        <ele>88.68227</ele>
        <time>2022-05-26T11:22:18.214Z</time>
      </trkpt>
      <trkpt lat="42.08555" lon="19.13111">
        <ele>88.898037</ele>
        <time>2022-05-26T11:22:21.218Z</time>
      </trkpt>
      <trkpt lat="42.08567" lon="19.13111">
        <ele>89.136397</ele>
        <time>2022-05-26T11:22:24.208Z</time>
      </trkpt>
      <trkpt lat="42.08579" lon="19.13111">
        <ele>89.382716</ele>
        <time>2022-05-26T11:22:27.233Z</time>
      </trkpt>
      <trkpt lat="42.08592" lon="19.13111">
        <ele>89.629017</ele>
        <time>2022-05-26T11:22:30.201Z</time>
      </trkpt>
      <trkpt lat="42.08605" lon="19.13112">
        <ele>89.883689</ele>
        <time>2022-05-26T11:22:33.199Z</time>
      </trkpt>
      <trkpt lat="42.08616" lon="19.13114">
        <ele>90.118139</ele>
        <time>2022-05-26T11:22:36.196Z</time>
      </trkpt>
      <trkpt lat="42.08626" lon="19.13117">
        <ele>90.323807</ele>
        <time>2022-05-26T11:22:39.210Z</time>
      </trkpt>
      <trkpt lat="42.08638" lon="19.13118">
        <ele>90.549345</ele>
        <time>2022-05-26T11:22:43.205Z</time>
      </trkpt>
      <trkpt lat="42.08647" lon="19.1312">
        <ele>90.741669</ele>
        <time>2022-05-26T11:22:47.202Z</time>
      </trkpt>
      <trkpt lat="42.08657" lon="19.1312">
        <ele>90.928474</ele>
        <time>2022-05-26T11:22:51.197Z</time>
      </trkpt>
      <trkpt lat="42.08666" lon="19.13119">
        <ele>91.115558</ele>
        <time>2022-05-26T11:22:55.200Z</time>
      </trkpt>
      <trkpt lat="42.08676" lon="19.13119">
        <ele>91.310488</ele>
        <time>2022-05-26T11:23:00.213Z</time>
      </trkpt>
      <trkpt lat="42.08686" lon="19.13118">
        <ele>91.505284</ele>
        <time>2022-05-26T11:23:06.204Z</time>
      </trkpt>
      <trkpt lat="42.08696" lon="19.13118">
        <ele>91.93161</ele>
        <time>2022-05-26T11:23:11.227Z</time>
      </trkpt>
      <trkpt lat="42.08706" lon="19.13117">
        <ele>92.402204</ele>
        <time>2022-05-26T11:23:16.199Z</time>
      </trkpt>
      <trkpt lat="42.08715" lon="19.13118">
        <ele>92.844292</ele>
        <time>2022-05-26T11:23:22.208Z</time>
      </trkpt>
      <trkpt lat="42.08725" lon="19.13119">
        <ele>93.332298</ele>
        <time>2022-05-26T11:23:28.224Z</time>
      </trkpt>
      <trkpt lat="42.08734" lon="19.13115">
        <ele>93.780508</ele>
        <time>2022-05-26T11:23:33.208Z</time>
      </trkpt>
      <trkpt lat="42.08745" lon="19.13111">
        <ele>94.305576</ele>
        <time>2022-05-26T11:23:38.197Z</time>
      </trkpt>
      <trkpt lat="42.08754" lon="19.13107">
        <ele>94.763853</ele>
        <time>2022-05-26T11:23:43.197Z</time>
      </trkpt>
      <trkpt lat="42.08763" lon="19.13103">
        <ele>95.228867</ele>
        <time>2022-05-26T11:23:47.197Z</time>
      </trkpt>
      <trkpt lat="42.08773" lon="19.13098">
        <ele>95.704128</ele>
        <time>2022-05-26T11:23:52.196Z</time>
      </trkpt>
      <trkpt lat="42.08782" lon="19.13093">
        <ele>96.18881</ele>
        <time>2022-05-26T11:23:57.198Z</time>
      </trkpt>
      <trkpt lat="42.08791" lon="19.13088">
        <ele>96.66731</ele>
        <time>2022-05-26T11:24:03.201Z</time>
      </trkpt>
      <trkpt lat="42.08801" lon="19.13083">
        <ele>97.175436</ele>
        <time>2022-05-26T11:24:08.198Z</time>
      </trkpt>
      <trkpt lat="42.08812" lon="19.13078">
        <ele>97.69453</ele>
        <time>2022-05-26T11:24:13.194Z</time>
      </trkpt>
      <trkpt lat="42.08822" lon="19.13073">
        <ele>98.204672</ele>
        <time>2022-05-26T11:24:18.200Z</time>
      </trkpt>
      <trkpt lat="42.08831" lon="19.13068">
        <ele>98.678786</ele>
        <time>2022-05-26T11:24:23.206Z</time>
      </trkpt>
      <trkpt lat="42.0884" lon="19.13064">
        <ele>99.128103</ele>
        <time>2022-05-26T11:24:28.209Z</time>
      </trkpt>
      <trkpt lat="42.08849" lon="19.13059">
        <ele>99.592512</ele>
        <time>2022-05-26T11:24:33.198Z</time>
      </trkpt>
      <trkpt lat="42.08858" lon="19.13055">
        <ele>100.026064</ele>
        <time>2022-05-26T11:24:37.225Z</time>
      </trkpt>
      <trkpt lat="42.08867" lon="19.13049">
        <ele>100.465082</ele>
        <time>2022-05-26T11:24:42.204Z</time>
      </trkpt>
      <trkpt lat="42.08875" lon="19.13043">
        <ele>100.86713</ele>
        <time>2022-05-26T11:24:47.197Z</time>
      </trkpt>
      <trkpt lat="42.08884" lon="19.13035">
        <ele>101.334518</ele>
        <time>2022-05-26T11:24:53.198Z</time>
      </trkpt>
      <trkpt lat="42.08892" lon="19.13026">
        <ele>101.78035</ele>
        <time>2022-05-26T11:24:58.205Z</time>
      </trkpt>
      <trkpt lat="42.08899" lon="19.13015">
        <ele>102.245272</ele>
        <time>2022-05-26T11:25:03.202Z</time>
      </trkpt>
      <trkpt lat="42.08905" lon="19.13003">
        <ele>102.730059</ele>
        <time>2022-05-26T11:25:08.199Z</time>
      </trkpt>
      <trkpt lat="42.0891" lon="19.12992">
        <ele>103.138664</ele>
        <time>2022-05-26T11:25:12.237Z</time>
      </trkpt>
      <trkpt lat="42.08915" lon="19.12981">
        <ele>103.567437</ele>
        <time>2022-05-26T11:25:16.195Z</time>
      </trkpt>
      <trkpt lat="42.0892" lon="19.1297">
        <ele>103.975714</ele>
        <time>2022-05-26T11:25:20.197Z</time>
      </trkpt>
      <trkpt lat="42.08924" lon="19.12959">
        <ele>104.37487</ele>
        <time>2022-05-26T11:25:24.233Z</time>
      </trkpt>
      <trkpt lat="42.0893" lon="19.12948">
        <ele>104.808124</ele>
        <time>2022-05-26T11:25:29.205Z</time>
      </trkpt>
      <trkpt lat="42.08935" lon="19.12936">
        <ele>105.262429</ele>
        <time>2022-05-26T11:25:34.202Z</time>
      </trkpt>
      <trkpt lat="42.08938" lon="19.12924">
        <ele>105.660423</ele>
        <time>2022-05-26T11:25:38.212Z</time>
      </trkpt>
      <trkpt lat="42.08941" lon="19.12912">
        <ele>106.062095</ele>
        <time>2022-05-26T11:25:42.207Z</time>
      </trkpt>
      <trkpt lat="42.08943" lon="19.129">
        <ele>106.480933</ele>
        <time>2022-05-26T11:25:46.196Z</time>
      </trkpt>
      <trkpt lat="42.08945" lon="19.12887">
        <ele>106.903846</ele>
        <time>2022-05-26T11:25:51.197Z</time>
      </trkpt>
      <trkpt lat="42.08947" lon="19.12874">
        <ele>107.316418</ele>
        <time>2022-05-26T11:25:55.211Z</time>
      </trkpt>
      <trkpt lat="42.08949" lon="19.1286">
        <ele>107.779399</ele>
        <time>2022-05-26T11:25:59.224Z</time>
      </trkpt>
      <trkpt lat="42.08949" lon="19.12846">
        <ele>107.992811</ele>
        <time>2022-05-26T11:26:03.198Z</time>
      </trkpt>
      <trkpt lat="42.08948" lon="19.12831">
        <ele>108.098604</ele>
        <time>2022-05-26T11:26:07.197Z</time>
      </trkpt>
      <trkpt lat="42.08945" lon="19.12819">
        <ele>108.198679</ele>
        <time>2022-05-26T11:26:11.197Z</time>
      </trkpt>
      <trkpt lat="42.08942" lon="19.12805">
        <ele>108.302609</ele>
        <time>2022-05-26T11:26:15.199Z</time>
      </trkpt>
      <trkpt lat="42.08938" lon="19.1279">
        <ele>108.418575</ele>
        <time>2022-05-26T11:26:19.205Z</time>
      </trkpt>
      <trkpt lat="42.08937" lon="19.12776">
        <ele>108.526585</ele>
        <time>2022-05-26T11:26:23.193Z</time>
      </trkpt>
      <trkpt lat="42.08936" lon="19.12763">
        <ele>108.623518</ele>
        <time>2022-05-26T11:26:27.228Z</time>
      </trkpt>
      <trkpt lat="42.08933" lon="19.1275">
        <ele>108.726651</ele>
        <time>2022-05-26T11:26:32.209Z</time>
      </trkpt>
      <trkpt lat="42.08931" lon="19.12736">
        <ele>108.829785</ele>
        <time>2022-05-26T11:26:38.253Z</time>
      </trkpt>
      <trkpt lat="42.0893" lon="19.12724">
        <ele>108.919942</ele>
        <time>2022-05-26T11:26:43.204Z</time>
      </trkpt>
      <trkpt lat="42.08929" lon="19.12711">
        <ele>109.019296</ele>
        <time>2022-05-26T11:26:48.209Z</time>
      </trkpt>
      <trkpt lat="42.08929" lon="19.12698">
        <ele>109.110902</ele>
        <time>2022-05-26T11:26:52.199Z</time>
      </trkpt>
      <trkpt lat="42.08932" lon="19.12685">
        <ele>109.211615</ele>
        <time>2022-05-26T11:26:57.199Z</time>
      </trkpt>
      <trkpt lat="42.08935" lon="19.12673">
        <ele>109.310437</ele>
        <time>2022-05-26T11:27:02.240Z</time>
      </trkpt>
      <trkpt lat="42.0894" lon="19.12661">
        <ele>109.409024</ele>
        <time>2022-05-26T11:27:07.194Z</time>
      </trkpt>
      <trkpt lat="42.08946" lon="19.1265">
        <ele>109.51366</ele>
        <time>2022-05-26T11:27:12.199Z</time>
      </trkpt>
      <trkpt lat="42.08953" lon="19.12641">
        <ele>109.607344</ele>
        <time>2022-05-26T11:27:16.206Z</time>
      </trkpt>
      <trkpt lat="42.08961" lon="19.12632">
        <ele>109.709412</ele>
        <time>2022-05-26T11:27:20.198Z</time>
      </trkpt>
      <trkpt lat="42.08969" lon="19.12623">
        <ele>109.807509</ele>
        <time>2022-05-26T11:27:24.228Z</time>
      </trkpt>
      <trkpt lat="42.08976" lon="19.12615">
        <ele>109.89454</ele>
        <time>2022-05-26T11:27:28.200Z</time>
      </trkpt>
      <trkpt lat="42.08984" lon="19.12608">
        <ele>109.987233</ele>
        <time>2022-05-26T11:27:32.206Z</time>
      </trkpt>
      <trkpt lat="42.08993" lon="19.126">
        <ele>110.081498</ele>
        <time>2022-05-26T11:27:36.203Z</time>
      </trkpt>
      <trkpt lat="42.09002" lon="19.12597">
        <ele>110.168186</ele>
        <time>2022-05-26T11:27:39.197Z</time>
      </trkpt>
      <trkpt lat="42.09013" lon="19.12594">
        <ele>110.272273</ele>
        <time>2022-05-26T11:27:43.197Z</time>
      </trkpt>
      <trkpt lat="42.09022" lon="19.12596">
        <ele>110.356192</ele>
        <time>2022-05-26T11:27:47.234Z</time>
      </trkpt>
      <trkpt lat="42.0903" lon="19.126">
        <ele>110.440598</ele>
        <time>2022-05-26T11:27:50.204Z</time>
      </trkpt>
      <trkpt lat="42.09042" lon="19.12603">
        <ele>110.550806</ele>
        <time>2022-05-26T11:27:53.213Z</time>
      </trkpt>
      <trkpt lat="42.09051" lon="19.12601">
        <ele>110.636838</ele>
        <time>2022-05-26T11:27:55.199Z</time>
      </trkpt>
      <trkpt lat="42.09061" lon="19.12596">
        <ele>110.730695</ele>
        <time>2022-05-26T11:27:57.200Z</time>
      </trkpt>
      <trkpt lat="42.09071" lon="19.12586">
        <ele>110.853116</ele>
        <time>2022-05-26T11:27:59.199Z</time>
      </trkpt>
      <trkpt lat="42.09077" lon="19.12574">
        <ele>110.949018</ele>
        <time>2022-05-26T11:28:01.206Z</time>
      </trkpt>
      <trkpt lat="42.09082" lon="19.12559">
        <ele>111.058292</ele>
        <time>2022-05-26T11:28:03.199Z</time>
      </trkpt>
      <trkpt lat="42.09089" lon="19.12542">
        <ele>111.196078</ele>
        <time>2022-05-26T11:28:05.208Z</time>
      </trkpt>
      <trkpt lat="42.09098" lon="19.12523">
        <ele>111.347748</ele>
        <time>2022-05-26T11:28:07.204Z</time>
      </trkpt>
      <trkpt lat="42.09108" lon="19.12507">
        <ele>110.793542</ele>
        <time>2022-05-26T11:28:09.204Z</time>
      </trkpt>
      <trkpt lat="42.09118" lon="19.12493">
        <ele>110.015926</ele>
        <time>2022-05-26T11:28:11.200Z</time>
      </trkpt>
      <trkpt lat="42.09126" lon="19.12477">
        <ele>109.274616</ele>
        <time>2022-05-26T11:28:13.196Z</time>
      </trkpt>
      <trkpt lat="42.09132" lon="19.12458">
        <ele>108.519807</ele>
        <time>2022-05-26T11:28:15.199Z</time>
      </trkpt>
      <trkpt lat="42.09133" lon="19.12438">
        <ele>107.744563</ele>
        <time>2022-05-26T11:28:17.201Z</time>
      </trkpt>
      <trkpt lat="42.09132" lon="19.12418">
        <ele>106.957834</ele>
        <time>2022-05-26T11:28:19.204Z</time>
      </trkpt>
      <trkpt lat="42.09132" lon="19.12398">
        <ele>106.185084</ele>
        <time>2022-05-26T11:28:21.222Z</time>
      </trkpt>
      <trkpt lat="42.09133" lon="19.12376">
        <ele>105.36267</ele>
        <time>2022-05-26T11:28:23.199Z</time>
      </trkpt>
      <trkpt lat="42.09132" lon="19.12364">
        <ele>104.871949</ele>
        <time>2022-05-26T11:28:24.204Z</time>
      </trkpt>
      <trkpt lat="42.09127" lon="19.12343">
        <ele>104.040752</ele>
        <time>2022-05-26T11:28:26.220Z</time>
      </trkpt>
      <trkpt lat="42.0912" lon="19.12321">
        <ele>103.139945</ele>
        <time>2022-05-26T11:28:28.204Z</time>
      </trkpt>
      <trkpt lat="42.09113" lon="19.12299">
        <ele>102.224226</ele>
        <time>2022-05-26T11:28:30.208Z</time>
      </trkpt>
      <trkpt lat="42.09107" lon="19.12279">
        <ele>101.359145</ele>
        <time>2022-05-26T11:28:32.201Z</time>
      </trkpt>
      <trkpt lat="42.09101" lon="19.12255">
        <ele>100.393647</ele>
        <time>2022-05-26T11:28:34.211Z</time>
      </trkpt>
      <trkpt lat="42.09101" lon="19.12236">
        <ele>99.623824</ele>
        <time>2022-05-26T11:28:36.197Z</time>
      </trkpt>
      <trkpt lat="42.09103" lon="19.12224">
        <ele>99.142873</ele>
        <time>2022-05-26T11:28:37.205Z</time>
      </trkpt>
      <trkpt lat="42.0911" lon="19.12208">
        <ele>98.394997</ele>
        <time>2022-05-26T11:28:39.227Z</time>
      </trkpt>
      <trkpt lat="42.09118" lon="19.12198">
        <ele>97.828137</ele>
        <time>2022-05-26T11:28:41.198Z</time>
      </trkpt>
      <trkpt lat="42.09128" lon="19.12184">
        <ele>97.052207</ele>
        <time>2022-05-26T11:28:43.199Z</time>
      </trkpt>
      <trkpt lat="42.09134" lon="19.12173">
        <ele>96.532033</ele>
        <time>2022-05-26T11:28:44.200Z</time>
      </trkpt>
      <trkpt lat="42.09138" lon="19.12161">
        <ele>96.036171</ele>
        <time>2022-05-26T11:28:45.235Z</time>
      </trkpt>
      <trkpt lat="42.09142" lon="19.12142">
        <ele>95.240362</ele>
        <time>2022-05-26T11:28:47.197Z</time>
      </trkpt>
      <trkpt lat="42.09143" lon="19.12119">
        <ele>94.338798</ele>
        <time>2022-05-26T11:28:49.200Z</time>
      </trkpt>
      <trkpt lat="42.09144" lon="19.12106">
        <ele>93.854089</ele>
        <time>2022-05-26T11:28:50.202Z</time>
      </trkpt>
      <trkpt lat="42.0915" lon="19.12087">
        <ele>93.026768</ele>
        <time>2022-05-26T11:28:52.198Z</time>
      </trkpt>
      <trkpt lat="42.0916" lon="19.1207">
        <ele>92.399826</ele>
        <time>2022-05-26T11:28:54.200Z</time>
      </trkpt>
      <trkpt lat="42.09171" lon="19.1206">
        <ele>92.093371</ele>
        <time>2022-05-26T11:28:56.208Z</time>
      </trkpt>
      <trkpt lat="42.09182" lon="19.12053">
        <ele>91.830399</ele>
        <time>2022-05-26T11:28:58.211Z</time>
      </trkpt>
      <trkpt lat="42.09192" lon="19.12044">
        <ele>91.541898</ele>
        <time>2022-05-26T11:29:01.207Z</time>
      </trkpt>
      <trkpt lat="42.09202" lon="19.12034">
        <ele>91.259852</ele>
        <time>2022-05-26T11:29:06.203Z</time>
      </trkpt>
      <trkpt lat="42.0921" lon="19.12022">
        <ele>90.995029</ele>
        <time>2022-05-26T11:29:09.226Z</time>
      </trkpt>
      <trkpt lat="42.09215" lon="19.12012">
        <ele>90.782227</ele>
        <time>2022-05-26T11:29:11.202Z</time>
      </trkpt>
      <trkpt lat="42.0922" lon="19.12001">
        <ele>90.575496</ele>
        <time>2022-05-26T11:29:13.202Z</time>
      </trkpt>
      <trkpt lat="42.09224" lon="19.11986">
        <ele>90.303469</ele>
        <time>2022-05-26T11:29:16.217Z</time>
      </trkpt>
      <trkpt lat="42.09226" lon="19.1197">
        <ele>90.027676</ele>
        <time>2022-05-26T11:29:19.198Z</time>
      </trkpt>
      <trkpt lat="42.09228" lon="19.11953">
        <ele>89.742525</ele>
        <time>2022-05-26T11:29:22.197Z</time>
      </trkpt>
      <trkpt lat="42.09229" lon="19.11936">
        <ele>89.452345</ele>
        <time>2022-05-26T11:29:25.194Z</time>
      </trkpt>
      <trkpt lat="42.0923" lon="19.11921">
        <ele>89.19705</ele>
        <time>2022-05-26T11:29:28.206Z</time>
      </trkpt>
      <trkpt lat="42.09231" lon="19.11907">
        <ele>88.961704</ele>
        <time>2022-05-26T11:29:31.196Z</time>
      </trkpt>
      <trkpt lat="42.09233" lon="19.11891">
        <ele>88.690746</ele>
        <time>2022-05-26T11:29:34.200Z</time>
      </trkpt>
      <trkpt lat="42.09235" lon="19.11877">
        <ele>88.42354</ele>
        <time>2022-05-26T11:29:37.195Z</time>
      </trkpt>
      <trkpt lat="42.09237" lon="19.1186">
        <ele>87.842085</ele>
        <time>2022-05-26T11:29:40.203Z</time>
      </trkpt>
      <trkpt lat="42.09239" lon="19.11848">
        <ele>87.435052</ele>
        <time>2022-05-26T11:29:42.202Z</time>
      </trkpt>
      <trkpt lat="42.0924" lon="19.11834">
        <ele>86.962027</ele>
        <time>2022-05-26T11:29:44.208Z</time>
      </trkpt>
      <trkpt lat="42.09242" lon="19.11819">
        <ele>86.445105</ele>
        <time>2022-05-26T11:29:46.197Z</time>
      </trkpt>
      <trkpt lat="42.09242" lon="19.11802">
        <ele>85.866059</ele>
        <time>2022-05-26T11:29:48.199Z</time>
      </trkpt>
      <trkpt lat="42.09243" lon="19.11783">
        <ele>85.236165</ele>
        <time>2022-05-26T11:29:50.199Z</time>
      </trkpt>
      <trkpt lat="42.09245" lon="19.11763">
        <ele>84.55357</ele>
        <time>2022-05-26T11:29:52.199Z</time>
      </trkpt>
      <trkpt lat="42.09249" lon="19.11743">
        <ele>83.855811</ele>
        <time>2022-05-26T11:29:54.201Z</time>
      </trkpt>
      <trkpt lat="42.09255" lon="19.11723">
        <ele>83.121117</ele>
        <time>2022-05-26T11:29:56.197Z</time>
      </trkpt>
      <trkpt lat="42.0926" lon="19.11701">
        <ele>82.349992</ele>
        <time>2022-05-26T11:29:58.219Z</time>
      </trkpt>
      <trkpt lat="42.09263" lon="19.11689">
        <ele>81.942983</ele>
        <time>2022-05-26T11:29:59.199Z</time>
      </trkpt>
      <trkpt lat="42.09265" lon="19.11678">
        <ele>81.529047</ele>
        <time>2022-05-26T11:30:00.202Z</time>
      </trkpt>
      <trkpt lat="42.09267" lon="19.11666">
        <ele>81.122356</ele>
        <time>2022-05-26T11:30:01.231Z</time>
      </trkpt>
      <trkpt lat="42.09268" lon="19.11642">
        <ele>80.337235</ele>
        <time>2022-05-26T11:30:03.205Z</time>
      </trkpt>
      <trkpt lat="42.09268" lon="19.11619">
        <ele>79.271629</ele>
        <time>2022-05-26T11:30:05.205Z</time>
      </trkpt>
      <trkpt lat="42.09268" lon="19.11599">
        <ele>78.327859</ele>
        <time>2022-05-26T11:30:07.202Z</time>
      </trkpt>
      <trkpt lat="42.09266" lon="19.11579">
        <ele>77.382119</ele>
        <time>2022-05-26T11:30:09.197Z</time>
      </trkpt>
      <trkpt lat="42.09265" lon="19.11559">
        <ele>76.450323</ele>
        <time>2022-05-26T11:30:11.201Z</time>
      </trkpt>
      <trkpt lat="42.09259" lon="19.11542">
        <ele>75.582987</ele>
        <time>2022-05-26T11:30:13.199Z</time>
      </trkpt>
      <trkpt lat="42.09252" lon="19.11528">
        <ele>74.817877</ele>
        <time>2022-05-26T11:30:15.201Z</time>
      </trkpt>
      <trkpt lat="42.09247" lon="19.11517">
        <ele>74.22728</ele>
        <time>2022-05-26T11:30:17.197Z</time>
      </trkpt>
      <trkpt lat="42.09243" lon="19.11506">
        <ele>73.624641</ele>
        <time>2022-05-26T11:30:19.201Z</time>
      </trkpt>
      <trkpt lat="42.09238" lon="19.11492">
        <ele>72.929431</ele>
        <time>2022-05-26T11:30:21.204Z</time>
      </trkpt>
      <trkpt lat="42.09234" lon="19.11478">
        <ele>72.217474</ele>
        <time>2022-05-26T11:30:23.228Z</time>
      </trkpt>
      <trkpt lat="42.09229" lon="19.11459">
        <ele>71.256956</ele>
        <time>2022-05-26T11:30:25.196Z</time>
      </trkpt>
      <trkpt lat="42.09225" lon="19.11444">
        <ele>70.549246</ele>
        <time>2022-05-26T11:30:26.242Z</time>
      </trkpt>
      <trkpt lat="42.09225" lon="19.11431">
        <ele>69.935421</ele>
        <time>2022-05-26T11:30:27.195Z</time>
      </trkpt>
      <trkpt lat="42.09228" lon="19.11407">
        <ele>68.871387</ele>
        <time>2022-05-26T11:30:29.199Z</time>
      </trkpt>
      <trkpt lat="42.09234" lon="19.11388">
        <ele>68.096555</ele>
        <time>2022-05-26T11:30:31.195Z</time>
      </trkpt>
      <trkpt lat="42.09237" lon="19.11374">
        <ele>67.558162</ele>
        <time>2022-05-26T11:30:33.203Z</time>
      </trkpt>
      <trkpt lat="42.0924" lon="19.11361">
        <ele>67.075738</ele>
        <time>2022-05-26T11:30:37.198Z</time>
      </trkpt>
      <trkpt lat="42.09242" lon="19.11346">
        <ele>66.511955</ele>
        <time>2022-05-26T11:30:41.224Z</time>
      </trkpt>
      <trkpt lat="42.09245" lon="19.1133">
        <ele>65.898404</ele>
        <time>2022-05-26T11:30:44.196Z</time>
      </trkpt>
      <trkpt lat="42.09248" lon="19.11317">
        <ele>65.39926</ele>
        <time>2022-05-26T11:30:46.197Z</time>
      </trkpt>
      <trkpt lat="42.09251" lon="19.11304">
        <ele>64.882281</ele>
        <time>2022-05-26T11:30:48.205Z</time>
      </trkpt>
      <trkpt lat="42.09253" lon="19.11289">
        <ele>64.334302</ele>
        <time>2022-05-26T11:30:50.206Z</time>
      </trkpt>
      <trkpt lat="42.09256" lon="19.11275">
        <ele>63.802789</ele>
        <time>2022-05-26T11:30:52.201Z</time>
      </trkpt>
      <trkpt lat="42.09259" lon="19.11261">
        <ele>63.249981</ele>
        <time>2022-05-26T11:30:54.214Z</time>
      </trkpt>
      <trkpt lat="42.09262" lon="19.11246">
        <ele>62.674059</ele>
        <time>2022-05-26T11:30:56.196Z</time>
      </trkpt>
      <trkpt lat="42.09265" lon="19.11231">
        <ele>62.13325</ele>
        <time>2022-05-26T11:30:58.196Z</time>
      </trkpt>
      <trkpt lat="42.09264" lon="19.11219">
        <ele>61.686071</ele>
        <time>2022-05-26T11:31:00.244Z</time>
      </trkpt>
      <trkpt lat="42.09258" lon="19.11202">
        <ele>60.992651</ele>
        <time>2022-05-26T11:31:02.209Z</time>
      </trkpt>
      <trkpt lat="42.09252" lon="19.11188">
        <ele>60.399839</ele>
        <time>2022-05-26T11:31:04.223Z</time>
      </trkpt>
      <trkpt lat="42.09245" lon="19.11178">
        <ele>60.078474</ele>
        <time>2022-05-26T11:31:06.201Z</time>
      </trkpt>
      <trkpt lat="42.09238" lon="19.11169">
        <ele>59.952285</ele>
        <time>2022-05-26T11:31:08.266Z</time>
      </trkpt>
      <trkpt lat="42.09231" lon="19.11153">
        <ele>59.770605</ele>
        <time>2022-05-26T11:31:11.196Z</time>
      </trkpt>
      <trkpt lat="42.09225" lon="19.11143">
        <ele>59.650268</ele>
        <time>2022-05-26T11:31:13.241Z</time>
      </trkpt>
      <trkpt lat="42.09215" lon="19.11135">
        <ele>59.497441</ele>
        <time>2022-05-26T11:31:16.223Z</time>
      </trkpt>
      <trkpt lat="42.09206" lon="19.11132">
        <ele>59.374125</ele>
        <time>2022-05-26T11:31:18.202Z</time>
      </trkpt>
      <trkpt lat="42.09198" lon="19.11119">
        <ele>59.215475</ele>
        <time>2022-05-26T11:31:21.203Z</time>
      </trkpt>
      <trkpt lat="42.09197" lon="19.11103">
        <ele>59.058031</ele>
        <time>2022-05-26T11:31:24.204Z</time>
      </trkpt>
      <trkpt lat="42.092" lon="19.11089">
        <ele>58.917538</ele>
        <time>2022-05-26T11:31:27.189Z</time>
      </trkpt>
      <trkpt lat="42.09202" lon="19.11077">
        <ele>58.799623</ele>
        <time>2022-05-26T11:31:31.204Z</time>
      </trkpt>
      <trkpt lat="42.09201" lon="19.11065">
        <ele>58.680561</ele>
        <time>2022-05-26T11:31:35.224Z</time>
      </trkpt>
      <trkpt lat="42.09198" lon="19.11054">
        <ele>58.561951</ele>
        <time>2022-05-26T11:31:38.202Z</time>
      </trkpt>
      <trkpt lat="42.09199" lon="19.11067">
        <ele>58.432706</ele>
        <time>2022-05-26T11:31:45.200Z</time>
      </trkpt>
      <trkpt lat="42.09199" lon="19.11081">
        <ele>58.294233</ele>
        <time>2022-05-26T11:31:49.194Z</time>
      </trkpt>
      <trkpt lat="42.09196" lon="19.11094">
        <ele>58.16668</ele>
        <time>2022-05-26T11:31:52.199Z</time>
      </trkpt>
      <trkpt lat="42.09196" lon="19.11108">
        <ele>58.031202</ele>
        <time>2022-05-26T11:31:55.199Z</time>
      </trkpt>
      <trkpt lat="42.09196" lon="19.11122">
        <ele>57.889962</ele>
        <time>2022-05-26T11:31:58.196Z</time>
      </trkpt>
      <trkpt lat="42.09197" lon="19.11135">
        <ele>57.82754</ele>
        <time>2022-05-26T11:32:01.200Z</time>
      </trkpt>
      <trkpt lat="42.09196" lon="19.11148">
        <ele>58.000416</ele>
        <time>2022-05-26T11:32:04.197Z</time>
      </trkpt>
      <trkpt lat="42.09196" lon="19.11162">
        <ele>58.18994</ele>
        <time>2022-05-26T11:32:07.196Z</time>
      </trkpt>
      <trkpt lat="42.09203" lon="19.11175">
        <ele>58.394954</ele>
        <time>2022-05-26T11:32:10.242Z</time>
      </trkpt>
      <trkpt lat="42.09213" lon="19.11178">
        <ele>58.57653</ele>
        <time>2022-05-26T11:32:12.274Z</time>
      </trkpt>
      <trkpt lat="42.09223" lon="19.11175">
        <ele>58.752629</ele>
        <time>2022-05-26T11:32:14.203Z</time>
      </trkpt>
      <trkpt lat="42.0923" lon="19.11165">
        <ele>58.929961</ele>
        <time>2022-05-26T11:32:16.199Z</time>
      </trkpt>
      <trkpt lat="42.09232" lon="19.11151">
        <ele>59.111845</ele>
        <time>2022-05-26T11:32:18.204Z</time>
      </trkpt>
      <trkpt lat="42.0923" lon="19.11139">
        <ele>59.281897</ele>
        <time>2022-05-26T11:32:20.230Z</time>
      </trkpt>
      <trkpt lat="42.09227" lon="19.11126">
        <ele>59.451277</ele>
        <time>2022-05-26T11:32:22.203Z</time>
      </trkpt>
      <trkpt lat="42.09226" lon="19.11113">
        <ele>59.623912</ele>
        <time>2022-05-26T11:32:24.205Z</time>
      </trkpt>
      <trkpt lat="42.09224" lon="19.111">
        <ele>59.79623</ele>
        <time>2022-05-26T11:32:26.200Z</time>
      </trkpt>
      <trkpt lat="42.09223" lon="19.11087">
        <ele>59.973189</ele>
        <time>2022-05-26T11:32:28.210Z</time>
      </trkpt>
      <trkpt lat="42.09222" lon="19.11073">
        <ele>60.158543</ele>
        <time>2022-05-26T11:32:30.239Z</time>
      </trkpt>
      <trkpt lat="42.09221" lon="19.11058">
        <ele>60.356024</ele>
        <time>2022-05-26T11:32:32.201Z</time>
      </trkpt>
      <trkpt lat="42.09222" lon="19.11043">
        <ele>60.553377</ele>
        <time>2022-05-26T11:32:34.202Z</time>
      </trkpt>
      <trkpt lat="42.09223" lon="19.11027">
        <ele>60.760501</ele>
        <time>2022-05-26T11:32:36.207Z</time>
      </trkpt>
      <trkpt lat="42.09225" lon="19.11013">
        <ele>60.958044</ele>
        <time>2022-05-26T11:32:38.202Z</time>
      </trkpt>
      <trkpt lat="42.09228" lon="19.10999">
        <ele>60.728504</ele>
        <time>2022-05-26T11:32:40.258Z</time>
      </trkpt>
      <trkpt lat="42.0923" lon="19.10986">
        <ele>60.468938</ele>
        <time>2022-05-26T11:32:42.194Z</time>
      </trkpt>
      <trkpt lat="42.09232" lon="19.10974">
        <ele>60.223707</ele>
        <time>2022-05-26T11:32:44.200Z</time>
      </trkpt>
      <trkpt lat="42.09234" lon="19.10958">
        <ele>59.911815</ele>
        <time>2022-05-26T11:32:47.204Z</time>
      </trkpt>
      <trkpt lat="42.09235" lon="19.10945">
        <ele>59.643249</ele>
        <time>2022-05-26T11:32:50.196Z</time>
      </trkpt>
      <trkpt lat="42.09238" lon="19.1093">
        <ele>59.354737</ele>
        <time>2022-05-26T11:32:54.228Z</time>
      </trkpt>
      <trkpt lat="42.09238" lon="19.10917">
        <ele>59.081278</ele>
        <time>2022-05-26T11:32:59.199Z</time>
      </trkpt>
      <trkpt lat="42.09239" lon="19.10904">
        <ele>58.839072</ele>
        <time>2022-05-26T11:33:03.199Z</time>
      </trkpt>
      <trkpt lat="42.09241" lon="19.10892">
        <ele>58.595582</ele>
        <time>2022-05-26T11:33:07.197Z</time>
      </trkpt>
      <trkpt lat="42.09243" lon="19.10878">
        <ele>58.313925</ele>
        <time>2022-05-26T11:33:12.197Z</time>
      </trkpt>
      <trkpt lat="42.09244" lon="19.10866">
        <ele>58.067226</ele>
        <time>2022-05-26T11:33:16.220Z</time>
      </trkpt>
      <trkpt lat="42.09245" lon="19.10853">
        <ele>57.808424</ele>
        <time>2022-05-26T11:33:20.204Z</time>
      </trkpt>
      <trkpt lat="42.09247" lon="19.1084">
        <ele>57.55194</ele>
        <time>2022-05-26T11:33:24.204Z</time>
      </trkpt>
      <trkpt lat="42.0925" lon="19.10826">
        <ele>57.256461</ele>
        <time>2022-05-26T11:33:28.204Z</time>
      </trkpt>
      <trkpt lat="42.09253" lon="19.10811">
        <ele>56.951534</ele>
        <time>2022-05-26T11:33:32.197Z</time>
      </trkpt>
      <trkpt lat="42.09255" lon="19.10798">
        <ele>56.691716</ele>
        <time>2022-05-26T11:33:35.200Z</time>
      </trkpt>
      <trkpt lat="42.09257" lon="19.10781">
        <ele>56.363379</ele>
        <time>2022-05-26T11:33:38.220Z</time>
      </trkpt>
      <trkpt lat="42.09259" lon="19.10768">
        <ele>55.965788</ele>
        <time>2022-05-26T11:33:40.198Z</time>
      </trkpt>
      <trkpt lat="42.09261" lon="19.10752">
        <ele>55.247987</ele>
        <time>2022-05-26T11:33:42.201Z</time>
      </trkpt>
      <trkpt lat="42.09263" lon="19.10735">
        <ele>54.456488</ele>
        <time>2022-05-26T11:33:44.211Z</time>
      </trkpt>
      <trkpt lat="42.09265" lon="19.10717">
        <ele>53.635728</ele>
        <time>2022-05-26T11:33:46.215Z</time>
      </trkpt>
      <trkpt lat="42.09266" lon="19.10701">
        <ele>52.943927</ele>
        <time>2022-05-26T11:33:48.222Z</time>
      </trkpt>
      <trkpt lat="42.09267" lon="19.10688">
        <ele>52.340801</ele>
        <time>2022-05-26T11:33:50.211Z</time>
      </trkpt>
      <trkpt lat="42.09269" lon="19.10672">
        <ele>51.640653</ele>
        <time>2022-05-26T11:33:52.199Z</time>
      </trkpt>
      <trkpt lat="42.09271" lon="19.10655">
        <ele>50.832605</ele>
        <time>2022-05-26T11:33:54.194Z</time>
      </trkpt>
      <trkpt lat="42.09274" lon="19.10635">
        <ele>49.940757</ele>
        <time>2022-05-26T11:33:56.197Z</time>
      </trkpt>
      <trkpt lat="42.09277" lon="19.10614">
        <ele>48.997364</ele>
        <time>2022-05-26T11:33:58.206Z</time>
      </trkpt>
      <trkpt lat="42.0928" lon="19.10593">
        <ele>48.016414</ele>
        <time>2022-05-26T11:34:00.192Z</time>
      </trkpt>
      <trkpt lat="42.09283" lon="19.10571">
        <ele>47.01238</ele>
        <time>2022-05-26T11:34:02.195Z</time>
      </trkpt>
      <trkpt lat="42.09285" lon="19.10548">
        <ele>45.986266</ele>
        <time>2022-05-26T11:34:04.198Z</time>
      </trkpt>
      <trkpt lat="42.09288" lon="19.10526">
        <ele>45.260037</ele>
        <time>2022-05-26T11:34:06.195Z</time>
      </trkpt>
      <trkpt lat="42.09291" lon="19.10505">
        <ele>45.043284</ele>
        <time>2022-05-26T11:34:08.213Z</time>
      </trkpt>
      <trkpt lat="42.09294" lon="19.10484">
        <ele>44.833177</ele>
        <time>2022-05-26T11:34:10.196Z</time>
      </trkpt>
      <trkpt lat="42.09297" lon="19.10464">
        <ele>44.633966</ele>
        <time>2022-05-26T11:34:12.202Z</time>
      </trkpt>
      <trkpt lat="42.09299" lon="19.10444">
        <ele>44.435216</ele>
        <time>2022-05-26T11:34:14.198Z</time>
      </trkpt>
      <trkpt lat="42.09301" lon="19.10424">
        <ele>44.236307</ele>
        <time>2022-05-26T11:34:16.209Z</time>
      </trkpt>
      <trkpt lat="42.09303" lon="19.10404">
        <ele>44.044409</ele>
        <time>2022-05-26T11:34:18.216Z</time>
      </trkpt>
      <trkpt lat="42.09305" lon="19.10386">
        <ele>43.856411</ele>
        <time>2022-05-26T11:34:20.220Z</time>
      </trkpt>
      <trkpt lat="42.09308" lon="19.10368">
        <ele>43.67655</ele>
        <time>2022-05-26T11:34:22.197Z</time>
      </trkpt>
      <trkpt lat="42.0931" lon="19.1035">
        <ele>43.502272</ele>
        <time>2022-05-26T11:34:24.200Z</time>
      </trkpt>
      <trkpt lat="42.09312" lon="19.10333">
        <ele>43.328231</ele>
        <time>2022-05-26T11:34:26.230Z</time>
      </trkpt>
      <trkpt lat="42.09315" lon="19.10316">
        <ele>43.160004</ele>
        <time>2022-05-26T11:34:28.203Z</time>
      </trkpt>
      <trkpt lat="42.09317" lon="19.10299">
        <ele>42.993713</ele>
        <time>2022-05-26T11:34:30.205Z</time>
      </trkpt>
      <trkpt lat="42.09319" lon="19.10283">
        <ele>42.86777</ele>
        <time>2022-05-26T11:34:32.196Z</time>
      </trkpt>
      <trkpt lat="42.09321" lon="19.10267">
        <ele>42.756315</ele>
        <time>2022-05-26T11:34:34.219Z</time>
      </trkpt>
      <trkpt lat="42.09323" lon="19.10252">
        <ele>42.649159</ele>
        <time>2022-05-26T11:34:36.223Z</time>
      </trkpt>
      <trkpt lat="42.09325" lon="19.10237">
        <ele>42.542935</ele>
        <time>2022-05-26T11:34:38.219Z</time>
      </trkpt>
      <trkpt lat="42.09327" lon="19.10222">
        <ele>42.437009</ele>
        <time>2022-05-26T11:34:40.262Z</time>
      </trkpt>
      <trkpt lat="42.09329" lon="19.10207">
        <ele>42.335544</ele>
        <time>2022-05-26T11:34:42.213Z</time>
      </trkpt>
      <trkpt lat="42.0933" lon="19.10193">
        <ele>42.235065</ele>
        <time>2022-05-26T11:34:44.230Z</time>
      </trkpt>
      <trkpt lat="42.09332" lon="19.10179">
        <ele>42.136475</ele>
        <time>2022-05-26T11:34:46.241Z</time>
      </trkpt>
      <trkpt lat="42.09334" lon="19.10164">
        <ele>42.037723</ele>
        <time>2022-05-26T11:34:48.225Z</time>
      </trkpt>
      <trkpt lat="42.09336" lon="19.10151">
        <ele>41.942062</ele>
        <time>2022-05-26T11:34:50.282Z</time>
      </trkpt>
      <trkpt lat="42.09339" lon="19.10138">
        <ele>41.851978</ele>
        <time>2022-05-26T11:34:52.250Z</time>
      </trkpt>
      <trkpt lat="42.0934" lon="19.10125">
        <ele>41.757091</ele>
        <time>2022-05-26T11:34:54.231Z</time>
      </trkpt>
      <trkpt lat="42.09342" lon="19.10111">
        <ele>41.658934</ele>
        <time>2022-05-26T11:34:56.254Z</time>
      </trkpt>
      <trkpt lat="42.09343" lon="19.10097">
        <ele>41.565002</ele>
        <time>2022-05-26T11:34:58.216Z</time>
      </trkpt>
      <trkpt lat="42.09344" lon="19.10084">
        <ele>41.475413</ele>
        <time>2022-05-26T11:35:00.252Z</time>
      </trkpt>
      <trkpt lat="42.09346" lon="19.10072">
        <ele>41.39004</ele>
        <time>2022-05-26T11:35:02.222Z</time>
      </trkpt>
      <trkpt lat="42.09348" lon="19.1006">
        <ele>41.306161</ele>
        <time>2022-05-26T11:35:04.326Z</time>
      </trkpt>
      <trkpt lat="42.0935" lon="19.10048">
        <ele>41.341146</ele>
        <time>2022-05-26T11:35:06.250Z</time>
      </trkpt>
      <trkpt lat="42.09352" lon="19.10036">
        <ele>41.427247</ele>
        <time>2022-05-26T11:35:08.221Z</time>
      </trkpt>
      <trkpt lat="42.09355" lon="19.10019">
        <ele>41.549537</ele>
        <time>2022-05-26T11:35:11.230Z</time>
      </trkpt>
      <trkpt lat="42.09356" lon="19.10006">
        <ele>41.639562</ele>
        <time>2022-05-26T11:35:13.226Z</time>
      </trkpt>
      <trkpt lat="42.09358" lon="19.09993">
        <ele>41.730134</ele>
        <time>2022-05-26T11:35:15.232Z</time>
      </trkpt>
      <trkpt lat="42.09359" lon="19.0998">
        <ele>41.821531</ele>
        <time>2022-05-26T11:35:17.227Z</time>
      </trkpt>
      <trkpt lat="42.09361" lon="19.09967">
        <ele>41.912393</ele>
        <time>2022-05-26T11:35:19.235Z</time>
      </trkpt>
      <trkpt lat="42.09362" lon="19.09954">
        <ele>42.004339</ele>
        <time>2022-05-26T11:35:21.221Z</time>
      </trkpt>
      <trkpt lat="42.09363" lon="19.09941">
        <ele>42.093577</ele>
        <time>2022-05-26T11:35:23.229Z</time>
      </trkpt>
      <trkpt lat="42.09364" lon="19.09928">
        <ele>42.184281</ele>
        <time>2022-05-26T11:35:25.229Z</time>
      </trkpt>
      <trkpt lat="42.09365" lon="19.09915">
        <ele>42.278165</ele>
        <time>2022-05-26T11:35:27.205Z</time>
      </trkpt>
      <trkpt lat="42.09367" lon="19.09902">
        <ele>42.367988</ele>
        <time>2022-05-26T11:35:29.257Z</time>
      </trkpt>
      <trkpt lat="42.09371" lon="19.09891">
        <ele>42.453988</ele>
        <time>2022-05-26T11:35:31.217Z</time>
      </trkpt>
      <trkpt lat="42.09375" lon="19.0988">
        <ele>42.538827</ele>
        <time>2022-05-26T11:35:33.237Z</time>
      </trkpt>
      <trkpt lat="42.09382" lon="19.09866">
        <ele>42.657909</ele>
        <time>2022-05-26T11:35:36.208Z</time>
      </trkpt>
      <trkpt lat="42.09388" lon="19.09855">
        <ele>42.750527</ele>
        <time>2022-05-26T11:35:38.226Z</time>
      </trkpt>
      <trkpt lat="42.09393" lon="19.09843">
        <ele>42.846457</ele>
        <time>2022-05-26T11:35:40.229Z</time>
      </trkpt>
      <trkpt lat="42.09393" lon="19.0983">
        <ele>42.931912</ele>
        <time>2022-05-26T11:35:42.222Z</time>
      </trkpt>
      <trkpt lat="42.09389" lon="19.09818">
        <ele>43.108002</ele>
        <time>2022-05-26T11:35:44.230Z</time>
      </trkpt>
      <trkpt lat="42.09387" lon="19.09803">
        <ele>43.357698</ele>
        <time>2022-05-26T11:35:46.208Z</time>
      </trkpt>
      <trkpt lat="42.09387" lon="19.09788">
        <ele>43.609842</ele>
        <time>2022-05-26T11:35:48.236Z</time>
      </trkpt>
      <trkpt lat="42.0939" lon="19.09776">
        <ele>43.832039</ele>
        <time>2022-05-26T11:35:50.248Z</time>
      </trkpt>
      <trkpt lat="42.09392" lon="19.09762">
        <ele>44.067085</ele>
        <time>2022-05-26T11:35:52.228Z</time>
      </trkpt>
      <trkpt lat="42.09394" lon="19.09749">
        <ele>44.287135</ele>
        <time>2022-05-26T11:35:54.222Z</time>
      </trkpt>
      <trkpt lat="42.09396" lon="19.09737">
        <ele>44.490384</ele>
        <time>2022-05-26T11:35:56.219Z</time>
      </trkpt>
      <trkpt lat="42.09398" lon="19.09719">
        <ele>44.792314</ele>
        <time>2022-05-26T11:35:59.238Z</time>
      </trkpt>
      <trkpt lat="42.09399" lon="19.09702">
        <ele>45.083417</ele>
        <time>2022-05-26T11:36:02.219Z</time>
      </trkpt>
      <trkpt lat="42.09402" lon="19.09685">
        <ele>45.376308</ele>
        <time>2022-05-26T11:36:05.223Z</time>
      </trkpt>
      <trkpt lat="42.09405" lon="19.09668">
        <ele>45.655676</ele>
        <time>2022-05-26T11:36:08.213Z</time>
      </trkpt>
      <trkpt lat="42.09407" lon="19.09653">
        <ele>45.919612</ele>
        <time>2022-05-26T11:36:11.223Z</time>
      </trkpt>
      <trkpt lat="42.0941" lon="19.09636">
        <ele>46.209248</ele>
        <time>2022-05-26T11:36:14.214Z</time>
      </trkpt>
      <trkpt lat="42.09412" lon="19.09619">
        <ele>46.503665</ele>
        <time>2022-05-26T11:36:17.224Z</time>
      </trkpt>
      <trkpt lat="42.09419" lon="19.09606">
        <ele>46.767837</ele>
        <time>2022-05-26T11:36:20.212Z</time>
      </trkpt>
      <trkpt lat="42.09431" lon="19.09603">
        <ele>47.01553</ele>
        <time>2022-05-26T11:36:23.220Z</time>
      </trkpt>
      <trkpt lat="42.0944" lon="19.09606">
        <ele>47.040227</ele>
        <time>2022-05-26T11:36:25.243Z</time>
      </trkpt>
      <trkpt lat="42.09451" lon="19.0961">
        <ele>47.067005</ele>
        <time>2022-05-26T11:36:27.218Z</time>
      </trkpt>
      <trkpt lat="42.0946" lon="19.09612">
        <ele>47.090916</ele>
        <time>2022-05-26T11:36:29.275Z</time>
      </trkpt>
      <trkpt lat="42.09472" lon="19.09616">
        <ele>47.122894</ele>
        <time>2022-05-26T11:36:32.222Z</time>
      </trkpt>
      <trkpt lat="42.09484" lon="19.0962">
        <ele>47.154497</ele>
        <time>2022-05-26T11:36:35.237Z</time>
      </trkpt>
      <trkpt lat="42.09496" lon="19.09623">
        <ele>47.185078</ele>
        <time>2022-05-26T11:36:38.261Z</time>
      </trkpt>
      <trkpt lat="42.09505" lon="19.09626">
        <ele>47.20936</ele>
        <time>2022-05-26T11:36:42.237Z</time>
      </trkpt>
      <trkpt lat="42.09512" lon="19.09615">
        <ele>47.235758</ele>
        <time>2022-05-26T11:36:46.288Z</time>
      </trkpt>
      <trkpt lat="42.09516" lon="19.09598">
        <ele>47.269421</ele>
        <time>2022-05-26T11:36:49.219Z</time>
      </trkpt>
      <trkpt lat="42.09517" lon="19.09586">
        <ele>47.293527</ele>
        <time>2022-05-26T11:36:51.212Z</time>
      </trkpt>
      <trkpt lat="42.09518" lon="19.09569">
        <ele>47.32419</ele>
        <time>2022-05-26T11:36:54.229Z</time>
      </trkpt>
      <trkpt lat="42.09519" lon="19.09553">
        <ele>47.354795</ele>
        <time>2022-05-26T11:36:57.226Z</time>
      </trkpt>
      <trkpt lat="42.09521" lon="19.09536">
        <ele>47.387284</ele>
        <time>2022-05-26T11:37:00.228Z</time>
      </trkpt>
      <trkpt lat="42.09524" lon="19.09521">
        <ele>47.417762</ele>
        <time>2022-05-26T11:37:03.234Z</time>
      </trkpt>
      <trkpt lat="42.09526" lon="19.09504">
        <ele>47.449047</ele>
        <time>2022-05-26T11:37:06.230Z</time>
      </trkpt>
      <trkpt lat="42.09534" lon="19.0949">
        <ele>47.469132</ele>
        <time>2022-05-26T11:37:09.224Z</time>
      </trkpt>
      <trkpt lat="42.09546" lon="19.09487">
        <ele>47.469132</ele>
        <time>2022-05-26T11:37:12.264Z</time>
      </trkpt>
      <trkpt lat="42.09556" lon="19.09486">
        <ele>47.469132</ele>
        <time>2022-05-26T11:37:15.220Z</time>
      </trkpt>
      <trkpt lat="42.09566" lon="19.09483">
        <ele>47.469132</ele>
        <time>2022-05-26T11:37:18.260Z</time>
      </trkpt>
      <trkpt lat="42.09575" lon="19.09477">
        <ele>47.469132</ele>
        <time>2022-05-26T11:37:21.233Z</time>
      </trkpt>
      <trkpt lat="42.09585" lon="19.09471">
        <ele>47.469132</ele>
        <time>2022-05-26T11:37:24.257Z</time>
      </trkpt>
      <trkpt lat="42.09593" lon="19.09464">
        <ele>47.469132</ele>
        <time>2022-05-26T11:37:27.220Z</time>
      </trkpt>
      <trkpt lat="42.09601" lon="19.09456">
        <ele>47.469132</ele>
        <time>2022-05-26T11:37:30.221Z</time>
      </trkpt>
      <trkpt lat="42.0961" lon="19.0945">
        <ele>47.469132</ele>
        <time>2022-05-26T11:37:34.230Z</time>
      </trkpt>
      <trkpt lat="42.09618" lon="19.09443">
        <ele>47.469132</ele>
        <time>2022-05-26T11:37:38.241Z</time>
      </trkpt>
      <trkpt lat="42.09625" lon="19.09436">
        <ele>47.469132</ele>
        <time>2022-05-26T11:37:41.251Z</time>
      </trkpt>
      <trkpt lat="42.09633" lon="19.09429">
        <ele>47.469132</ele>
        <time>2022-05-26T11:37:45.216Z</time>
      </trkpt>
      <trkpt lat="42.09641" lon="19.09422">
        <ele>47.469132</ele>
        <time>2022-05-26T11:37:48.224Z</time>
      </trkpt>
      <trkpt lat="42.0965" lon="19.09416">
        <ele>47.469132</ele>
        <time>2022-05-26T11:37:51.218Z</time>
      </trkpt>
      <trkpt lat="42.09659" lon="19.0941">
        <ele>47.469132</ele>
        <time>2022-05-26T11:37:55.217Z</time>
      </trkpt>
      <trkpt lat="42.09667" lon="19.09403">
        <ele>47.469132</ele>
        <time>2022-05-26T11:38:00.220Z</time>
      </trkpt>
      <trkpt lat="42.09673" lon="19.09394">
        <ele>47.469132</ele>
        <time>2022-05-26T11:38:05.242Z</time>
      </trkpt>
      <trkpt lat="42.09672" lon="19.09381">
        <ele>47.469132</ele>
        <time>2022-05-26T11:38:09.223Z</time>
      </trkpt>
      <trkpt lat="42.09668" lon="19.09394">
        <ele>47.469132</ele>
        <time>2022-05-26T11:39:26.230Z</time>
      </trkpt>
      <trkpt lat="42.09664" lon="19.09381">
        <ele>47.469132</ele>
        <time>2022-05-26T11:39:35.226Z</time>
      </trkpt>
      <trkpt lat="42.09664" lon="19.09369">
        <ele>47.469132</ele>
        <time>2022-05-26T11:45:12.211Z</time>
      </trkpt>
    </trkseg>
  </trk>
</gpx>